<?xml version="1.0" encoding="UTF-8" standalone="no" ?>
<gpx xmlns="http://www.topografix.com/GPX/1/1" xmlns:xsi="http://www.w3.org/2001/XMLSchema-instance" xsi:schemaLocation="http://www.topografix.com/GPX/1/1 http://www.topografix.com/GPX/1/1/gpx.xsd" version="1.1" creator="VisuGPX - https://www.visugpx.com">
  <metadata>
    <name>Tour des Dents de Lanfon</name>
    <desc><![CDATA[Tour des Dents de Lanfon]]></desc>
  </metadata>
  <trk>
    <name><![CDATA[Tour des dents de Lanfon]]></name>
    <cmt><![CDATA[Avec François
Au départ de Bluffy]]></cmt>
    <trkseg>
      <trkpt lat="45.86547" lon="6.21879">
        <ele>694</ele>
        <time>2010-04-23T17:25:48Z</time>
      </trkpt>
      <trkpt lat="45.86519" lon="6.21879">
        <ele>694</ele>
        <time>2010-04-23T17:26:17Z</time>
      </trkpt>
      <trkpt lat="45.86517" lon="6.2188">
        <ele>693</ele>
        <time>2010-04-23T17:26:19Z</time>
      </trkpt>
      <trkpt lat="45.86515" lon="6.21881">
        <ele>691</ele>
        <time>2010-04-23T17:26:21Z</time>
      </trkpt>
      <trkpt lat="45.86511" lon="6.21882">
        <ele>689</ele>
        <time>2010-04-23T17:26:24Z</time>
      </trkpt>
      <trkpt lat="45.86508" lon="6.21882">
        <ele>689</ele>
        <time>2010-04-23T17:26:26Z</time>
      </trkpt>
      <trkpt lat="45.86506" lon="6.21884">
        <ele>688</ele>
        <time>2010-04-23T17:26:28Z</time>
      </trkpt>
      <trkpt lat="45.86504" lon="6.21883">
        <ele>688</ele>
        <time>2010-04-23T17:26:30Z</time>
      </trkpt>
      <trkpt lat="45.86501" lon="6.21885">
        <ele>688</ele>
        <time>2010-04-23T17:26:33Z</time>
      </trkpt>
      <trkpt lat="45.86497" lon="6.21887">
        <ele>687</ele>
        <time>2010-04-23T17:26:35Z</time>
      </trkpt>
      <trkpt lat="45.86496" lon="6.21886">
        <ele>687</ele>
        <time>2010-04-23T17:26:38Z</time>
      </trkpt>
      <trkpt lat="45.86492" lon="6.21885">
        <ele>689</ele>
        <time>2010-04-23T17:26:41Z</time>
      </trkpt>
      <trkpt lat="45.86489" lon="6.21887">
        <ele>691</ele>
        <time>2010-04-23T17:26:43Z</time>
      </trkpt>
      <trkpt lat="45.86486" lon="6.21888">
        <ele>694</ele>
        <time>2010-04-23T17:26:45Z</time>
      </trkpt>
      <trkpt lat="45.86483" lon="6.21889">
        <ele>700</ele>
        <time>2010-04-23T17:26:48Z</time>
      </trkpt>
      <trkpt lat="45.8648" lon="6.2189">
        <ele>702</ele>
        <time>2010-04-23T17:26:50Z</time>
      </trkpt>
      <trkpt lat="45.86477" lon="6.21891">
        <ele>704</ele>
        <time>2010-04-23T17:26:52Z</time>
      </trkpt>
      <trkpt lat="45.86475" lon="6.21892">
        <ele>706</ele>
        <time>2010-04-23T17:26:54Z</time>
      </trkpt>
      <trkpt lat="45.86472" lon="6.21894">
        <ele>709</ele>
        <time>2010-04-23T17:26:57Z</time>
      </trkpt>
      <trkpt lat="45.86469" lon="6.21895">
        <ele>711</ele>
        <time>2010-04-23T17:26:59Z</time>
      </trkpt>
      <trkpt lat="45.86467" lon="6.21896">
        <ele>714</ele>
        <time>2010-04-23T17:27:02Z</time>
      </trkpt>
      <trkpt lat="45.86464" lon="6.21897">
        <ele>716</ele>
        <time>2010-04-23T17:27:04Z</time>
      </trkpt>
      <trkpt lat="45.86462" lon="6.21898">
        <ele>719</ele>
        <time>2010-04-23T17:27:08Z</time>
      </trkpt>
      <trkpt lat="45.86459" lon="6.219">
        <ele>719</ele>
        <time>2010-04-23T17:27:10Z</time>
      </trkpt>
      <trkpt lat="45.86457" lon="6.21903">
        <ele>719</ele>
        <time>2010-04-23T17:27:12Z</time>
      </trkpt>
      <trkpt lat="45.86453" lon="6.21904">
        <ele>719</ele>
        <time>2010-04-23T17:27:14Z</time>
      </trkpt>
      <trkpt lat="45.86451" lon="6.21905">
        <ele>719</ele>
        <time>2010-04-23T17:27:16Z</time>
      </trkpt>
      <trkpt lat="45.86448" lon="6.21909">
        <ele>719</ele>
        <time>2010-04-23T17:27:18Z</time>
      </trkpt>
      <trkpt lat="45.86447" lon="6.2191">
        <ele>717</ele>
        <time>2010-04-23T17:27:20Z</time>
      </trkpt>
      <trkpt lat="45.86445" lon="6.21913">
        <ele>715</ele>
        <time>2010-04-23T17:27:22Z</time>
      </trkpt>
      <trkpt lat="45.86443" lon="6.21915">
        <ele>713</ele>
        <time>2010-04-23T17:27:24Z</time>
      </trkpt>
      <trkpt lat="45.86441" lon="6.21919">
        <ele>711</ele>
        <time>2010-04-23T17:27:26Z</time>
      </trkpt>
      <trkpt lat="45.8644" lon="6.21923">
        <ele>709</ele>
        <time>2010-04-23T17:27:28Z</time>
      </trkpt>
      <trkpt lat="45.86441" lon="6.21925">
        <ele>708</ele>
        <time>2010-04-23T17:27:30Z</time>
      </trkpt>
      <trkpt lat="45.86441" lon="6.21929">
        <ele>706</ele>
        <time>2010-04-23T17:27:32Z</time>
      </trkpt>
      <trkpt lat="45.86442" lon="6.21933">
        <ele>703</ele>
        <time>2010-04-23T17:27:35Z</time>
      </trkpt>
      <trkpt lat="45.86443" lon="6.21937">
        <ele>701</ele>
        <time>2010-04-23T17:27:37Z</time>
      </trkpt>
      <trkpt lat="45.86442" lon="6.2194">
        <ele>701</ele>
        <time>2010-04-23T17:27:39Z</time>
      </trkpt>
      <trkpt lat="45.8644" lon="6.21941">
        <ele>701</ele>
        <time>2010-04-23T17:27:41Z</time>
      </trkpt>
      <trkpt lat="45.86437" lon="6.21944">
        <ele>700</ele>
        <time>2010-04-23T17:27:43Z</time>
      </trkpt>
      <trkpt lat="45.86434" lon="6.21945">
        <ele>700</ele>
        <time>2010-04-23T17:27:45Z</time>
      </trkpt>
      <trkpt lat="45.8643" lon="6.21946">
        <ele>700</ele>
        <time>2010-04-23T17:27:47Z</time>
      </trkpt>
      <trkpt lat="45.86427" lon="6.21944">
        <ele>700</ele>
        <time>2010-04-23T17:27:50Z</time>
      </trkpt>
      <trkpt lat="45.86423" lon="6.21944">
        <ele>700</ele>
        <time>2010-04-23T17:27:52Z</time>
      </trkpt>
      <trkpt lat="45.8642" lon="6.21944">
        <ele>701</ele>
        <time>2010-04-23T17:27:54Z</time>
      </trkpt>
      <trkpt lat="45.86417" lon="6.21944">
        <ele>703</ele>
        <time>2010-04-23T17:27:56Z</time>
      </trkpt>
      <trkpt lat="45.86414" lon="6.21944">
        <ele>705</ele>
        <time>2010-04-23T17:27:58Z</time>
      </trkpt>
      <trkpt lat="45.86411" lon="6.21943">
        <ele>707</ele>
        <time>2010-04-23T17:28:00Z</time>
      </trkpt>
      <trkpt lat="45.86409" lon="6.21942">
        <ele>709</ele>
        <time>2010-04-23T17:28:02Z</time>
      </trkpt>
      <trkpt lat="45.86406" lon="6.21941">
        <ele>711</ele>
        <time>2010-04-23T17:28:04Z</time>
      </trkpt>
      <trkpt lat="45.86402" lon="6.21939">
        <ele>713</ele>
        <time>2010-04-23T17:28:06Z</time>
      </trkpt>
      <trkpt lat="45.86398" lon="6.21937">
        <ele>715</ele>
        <time>2010-04-23T17:28:08Z</time>
      </trkpt>
      <trkpt lat="45.86395" lon="6.21936">
        <ele>717</ele>
        <time>2010-04-23T17:28:10Z</time>
      </trkpt>
      <trkpt lat="45.86392" lon="6.21935">
        <ele>720</ele>
        <time>2010-04-23T17:28:12Z</time>
      </trkpt>
      <trkpt lat="45.86389" lon="6.21936">
        <ele>723</ele>
        <time>2010-04-23T17:28:14Z</time>
      </trkpt>
      <trkpt lat="45.86386" lon="6.21934">
        <ele>725</ele>
        <time>2010-04-23T17:28:16Z</time>
      </trkpt>
      <trkpt lat="45.86383" lon="6.21933">
        <ele>727</ele>
        <time>2010-04-23T17:28:18Z</time>
      </trkpt>
      <trkpt lat="45.8638" lon="6.21933">
        <ele>729</ele>
        <time>2010-04-23T17:28:20Z</time>
      </trkpt>
      <trkpt lat="45.86376" lon="6.21932">
        <ele>730</ele>
        <time>2010-04-23T17:28:22Z</time>
      </trkpt>
      <trkpt lat="45.86373" lon="6.21936">
        <ele>732</ele>
        <time>2010-04-23T17:28:24Z</time>
      </trkpt>
      <trkpt lat="45.86369" lon="6.21937">
        <ele>734</ele>
        <time>2010-04-23T17:28:26Z</time>
      </trkpt>
      <trkpt lat="45.86366" lon="6.21937">
        <ele>736</ele>
        <time>2010-04-23T17:28:28Z</time>
      </trkpt>
      <trkpt lat="45.86364" lon="6.21937">
        <ele>738</ele>
        <time>2010-04-23T17:28:30Z</time>
      </trkpt>
      <trkpt lat="45.86362" lon="6.21938">
        <ele>738</ele>
        <time>2010-04-23T17:28:32Z</time>
      </trkpt>
      <trkpt lat="45.8636" lon="6.2194">
        <ele>738</ele>
        <time>2010-04-23T17:28:34Z</time>
      </trkpt>
      <trkpt lat="45.86357" lon="6.21941">
        <ele>738</ele>
        <time>2010-04-23T17:28:37Z</time>
      </trkpt>
      <trkpt lat="45.86354" lon="6.21942">
        <ele>738</ele>
        <time>2010-04-23T17:28:40Z</time>
      </trkpt>
      <trkpt lat="45.86353" lon="6.21943">
        <ele>735</ele>
        <time>2010-04-23T17:28:43Z</time>
      </trkpt>
      <trkpt lat="45.8635" lon="6.21944">
        <ele>733</ele>
        <time>2010-04-23T17:28:45Z</time>
      </trkpt>
      <trkpt lat="45.86348" lon="6.21945">
        <ele>731</ele>
        <time>2010-04-23T17:28:47Z</time>
      </trkpt>
      <trkpt lat="45.86345" lon="6.21945">
        <ele>729</ele>
        <time>2010-04-23T17:28:49Z</time>
      </trkpt>
      <trkpt lat="45.86342" lon="6.21946">
        <ele>728</ele>
        <time>2010-04-23T17:28:51Z</time>
      </trkpt>
      <trkpt lat="45.86339" lon="6.21946">
        <ele>728</ele>
        <time>2010-04-23T17:28:53Z</time>
      </trkpt>
      <trkpt lat="45.86336" lon="6.21946">
        <ele>728</ele>
        <time>2010-04-23T17:28:55Z</time>
      </trkpt>
      <trkpt lat="45.86333" lon="6.21947">
        <ele>728</ele>
        <time>2010-04-23T17:28:57Z</time>
      </trkpt>
      <trkpt lat="45.8633" lon="6.21946">
        <ele>728</ele>
        <time>2010-04-23T17:28:59Z</time>
      </trkpt>
      <trkpt lat="45.86327" lon="6.21945">
        <ele>729</ele>
        <time>2010-04-23T17:29:01Z</time>
      </trkpt>
      <trkpt lat="45.86324" lon="6.21944">
        <ele>730</ele>
        <time>2010-04-23T17:29:03Z</time>
      </trkpt>
      <trkpt lat="45.86321" lon="6.21942">
        <ele>731</ele>
        <time>2010-04-23T17:29:05Z</time>
      </trkpt>
      <trkpt lat="45.86318" lon="6.2194">
        <ele>732</ele>
        <time>2010-04-23T17:29:07Z</time>
      </trkpt>
      <trkpt lat="45.86314" lon="6.21938">
        <ele>733</ele>
        <time>2010-04-23T17:29:09Z</time>
      </trkpt>
      <trkpt lat="45.86312" lon="6.21937">
        <ele>735</ele>
        <time>2010-04-23T17:29:11Z</time>
      </trkpt>
      <trkpt lat="45.86309" lon="6.21936">
        <ele>736</ele>
        <time>2010-04-23T17:29:13Z</time>
      </trkpt>
      <trkpt lat="45.86305" lon="6.21935">
        <ele>736</ele>
        <time>2010-04-23T17:29:15Z</time>
      </trkpt>
      <trkpt lat="45.86302" lon="6.21934">
        <ele>736</ele>
        <time>2010-04-23T17:29:17Z</time>
      </trkpt>
      <trkpt lat="45.86299" lon="6.21932">
        <ele>737</ele>
        <time>2010-04-23T17:29:19Z</time>
      </trkpt>
      <trkpt lat="45.86296" lon="6.21931">
        <ele>738</ele>
        <time>2010-04-23T17:29:21Z</time>
      </trkpt>
      <trkpt lat="45.86293" lon="6.21931">
        <ele>739</ele>
        <time>2010-04-23T17:29:23Z</time>
      </trkpt>
      <trkpt lat="45.8629" lon="6.21931">
        <ele>740</ele>
        <time>2010-04-23T17:29:25Z</time>
      </trkpt>
      <trkpt lat="45.86287" lon="6.21932">
        <ele>740</ele>
        <time>2010-04-23T17:29:27Z</time>
      </trkpt>
      <trkpt lat="45.86285" lon="6.21932">
        <ele>741</ele>
        <time>2010-04-23T17:29:29Z</time>
      </trkpt>
      <trkpt lat="45.86282" lon="6.21933">
        <ele>741</ele>
        <time>2010-04-23T17:29:31Z</time>
      </trkpt>
      <trkpt lat="45.86279" lon="6.21934">
        <ele>741</ele>
        <time>2010-04-23T17:29:33Z</time>
      </trkpt>
      <trkpt lat="45.86277" lon="6.21934">
        <ele>741</ele>
        <time>2010-04-23T17:29:35Z</time>
      </trkpt>
      <trkpt lat="45.86274" lon="6.21935">
        <ele>741</ele>
        <time>2010-04-23T17:29:37Z</time>
      </trkpt>
      <trkpt lat="45.86271" lon="6.21935">
        <ele>741</ele>
        <time>2010-04-23T17:29:39Z</time>
      </trkpt>
      <trkpt lat="45.86269" lon="6.21938">
        <ele>741</ele>
        <time>2010-04-23T17:29:41Z</time>
      </trkpt>
      <trkpt lat="45.86268" lon="6.21939">
        <ele>741</ele>
        <time>2010-04-23T17:29:43Z</time>
      </trkpt>
      <trkpt lat="45.86266" lon="6.21941">
        <ele>739</ele>
        <time>2010-04-23T17:29:45Z</time>
      </trkpt>
      <trkpt lat="45.86264" lon="6.21943">
        <ele>737</ele>
        <time>2010-04-23T17:29:47Z</time>
      </trkpt>
      <trkpt lat="45.86261" lon="6.21944">
        <ele>736</ele>
        <time>2010-04-23T17:29:49Z</time>
      </trkpt>
      <trkpt lat="45.86258" lon="6.21945">
        <ele>736</ele>
        <time>2010-04-23T17:29:51Z</time>
      </trkpt>
      <trkpt lat="45.86254" lon="6.21947">
        <ele>736</ele>
        <time>2010-04-23T17:29:53Z</time>
      </trkpt>
      <trkpt lat="45.86251" lon="6.21947">
        <ele>736</ele>
        <time>2010-04-23T17:29:55Z</time>
      </trkpt>
      <trkpt lat="45.86248" lon="6.21946">
        <ele>736</ele>
        <time>2010-04-23T17:29:57Z</time>
      </trkpt>
      <trkpt lat="45.86245" lon="6.21945">
        <ele>737</ele>
        <time>2010-04-23T17:29:59Z</time>
      </trkpt>
      <trkpt lat="45.86242" lon="6.21943">
        <ele>737</ele>
        <time>2010-04-23T17:30:01Z</time>
      </trkpt>
      <trkpt lat="45.86238" lon="6.21942">
        <ele>737</ele>
        <time>2010-04-23T17:30:03Z</time>
      </trkpt>
      <trkpt lat="45.86236" lon="6.2194">
        <ele>737</ele>
        <time>2010-04-23T17:30:05Z</time>
      </trkpt>
      <trkpt lat="45.86233" lon="6.21938">
        <ele>737</ele>
        <time>2010-04-23T17:30:07Z</time>
      </trkpt>
      <trkpt lat="45.8623" lon="6.21936">
        <ele>737</ele>
        <time>2010-04-23T17:30:09Z</time>
      </trkpt>
      <trkpt lat="45.86227" lon="6.21934">
        <ele>739</ele>
        <time>2010-04-23T17:30:11Z</time>
      </trkpt>
      <trkpt lat="45.86223" lon="6.21933">
        <ele>740</ele>
        <time>2010-04-23T17:30:13Z</time>
      </trkpt>
      <trkpt lat="45.86219" lon="6.21931">
        <ele>741</ele>
        <time>2010-04-23T17:30:15Z</time>
      </trkpt>
      <trkpt lat="45.86214" lon="6.21931">
        <ele>743</ele>
        <time>2010-04-23T17:30:17Z</time>
      </trkpt>
      <trkpt lat="45.86209" lon="6.21932">
        <ele>744</ele>
        <time>2010-04-23T17:30:19Z</time>
      </trkpt>
      <trkpt lat="45.86205" lon="6.21933">
        <ele>745</ele>
        <time>2010-04-23T17:30:21Z</time>
      </trkpt>
      <trkpt lat="45.86201" lon="6.21935">
        <ele>747</ele>
        <time>2010-04-23T17:30:23Z</time>
      </trkpt>
      <trkpt lat="45.86197" lon="6.21937">
        <ele>748</ele>
        <time>2010-04-23T17:30:25Z</time>
      </trkpt>
      <trkpt lat="45.86192" lon="6.21939">
        <ele>748</ele>
        <time>2010-04-23T17:30:27Z</time>
      </trkpt>
      <trkpt lat="45.86187" lon="6.21941">
        <ele>748</ele>
        <time>2010-04-23T17:30:29Z</time>
      </trkpt>
      <trkpt lat="45.86182" lon="6.21942">
        <ele>749</ele>
        <time>2010-04-23T17:30:31Z</time>
      </trkpt>
      <trkpt lat="45.86177" lon="6.21944">
        <ele>750</ele>
        <time>2010-04-23T17:30:33Z</time>
      </trkpt>
      <trkpt lat="45.86172" lon="6.21946">
        <ele>751</ele>
        <time>2010-04-23T17:30:35Z</time>
      </trkpt>
      <trkpt lat="45.86167" lon="6.21947">
        <ele>751</ele>
        <time>2010-04-23T17:30:37Z</time>
      </trkpt>
      <trkpt lat="45.86162" lon="6.21947">
        <ele>751</ele>
        <time>2010-04-23T17:30:39Z</time>
      </trkpt>
      <trkpt lat="45.86158" lon="6.21946">
        <ele>751</ele>
        <time>2010-04-23T17:30:41Z</time>
      </trkpt>
      <trkpt lat="45.86154" lon="6.21945">
        <ele>751</ele>
        <time>2010-04-23T17:30:43Z</time>
      </trkpt>
      <trkpt lat="45.86149" lon="6.21944">
        <ele>751</ele>
        <time>2010-04-23T17:30:45Z</time>
      </trkpt>
      <trkpt lat="45.86144" lon="6.21942">
        <ele>752</ele>
        <time>2010-04-23T17:30:47Z</time>
      </trkpt>
      <trkpt lat="45.86139" lon="6.21938">
        <ele>752</ele>
        <time>2010-04-23T17:30:49Z</time>
      </trkpt>
      <trkpt lat="45.86135" lon="6.21937">
        <ele>753</ele>
        <time>2010-04-23T17:30:51Z</time>
      </trkpt>
      <trkpt lat="45.86131" lon="6.21936">
        <ele>753</ele>
        <time>2010-04-23T17:30:53Z</time>
      </trkpt>
      <trkpt lat="45.86126" lon="6.21937">
        <ele>753</ele>
        <time>2010-04-23T17:30:55Z</time>
      </trkpt>
      <trkpt lat="45.86121" lon="6.21936">
        <ele>753</ele>
        <time>2010-04-23T17:30:57Z</time>
      </trkpt>
      <trkpt lat="45.86118" lon="6.21937">
        <ele>753</ele>
        <time>2010-04-23T17:30:59Z</time>
      </trkpt>
      <trkpt lat="45.86114" lon="6.21939">
        <ele>753</ele>
        <time>2010-04-23T17:31:01Z</time>
      </trkpt>
      <trkpt lat="45.86113" lon="6.21943">
        <ele>753</ele>
        <time>2010-04-23T17:31:03Z</time>
      </trkpt>
      <trkpt lat="45.86111" lon="6.21947">
        <ele>753</ele>
        <time>2010-04-23T17:31:05Z</time>
      </trkpt>
      <trkpt lat="45.86111" lon="6.21952">
        <ele>753</ele>
        <time>2010-04-23T17:31:07Z</time>
      </trkpt>
      <trkpt lat="45.8611" lon="6.21959">
        <ele>753</ele>
        <time>2010-04-23T17:31:09Z</time>
      </trkpt>
      <trkpt lat="45.8611" lon="6.21965">
        <ele>753</ele>
        <time>2010-04-23T17:31:11Z</time>
      </trkpt>
      <trkpt lat="45.86111" lon="6.21971">
        <ele>751</ele>
        <time>2010-04-23T17:31:13Z</time>
      </trkpt>
      <trkpt lat="45.86112" lon="6.21978">
        <ele>750</ele>
        <time>2010-04-23T17:31:15Z</time>
      </trkpt>
      <trkpt lat="45.86113" lon="6.21985">
        <ele>749</ele>
        <time>2010-04-23T17:31:17Z</time>
      </trkpt>
      <trkpt lat="45.86113" lon="6.21992">
        <ele>749</ele>
        <time>2010-04-23T17:31:19Z</time>
      </trkpt>
      <trkpt lat="45.86114" lon="6.21998">
        <ele>749</ele>
        <time>2010-04-23T17:31:21Z</time>
      </trkpt>
      <trkpt lat="45.86112" lon="6.22006">
        <ele>749</ele>
        <time>2010-04-23T17:31:23Z</time>
      </trkpt>
      <trkpt lat="45.86112" lon="6.22012">
        <ele>749</ele>
        <time>2010-04-23T17:31:25Z</time>
      </trkpt>
      <trkpt lat="45.86112" lon="6.2202">
        <ele>750</ele>
        <time>2010-04-23T17:31:27Z</time>
      </trkpt>
      <trkpt lat="45.86114" lon="6.22028">
        <ele>752</ele>
        <time>2010-04-23T17:31:29Z</time>
      </trkpt>
      <trkpt lat="45.86114" lon="6.22032">
        <ele>754</ele>
        <time>2010-04-23T17:31:31Z</time>
      </trkpt>
      <trkpt lat="45.86113" lon="6.22038">
        <ele>756</ele>
        <time>2010-04-23T17:31:33Z</time>
      </trkpt>
      <trkpt lat="45.86111" lon="6.22043">
        <ele>758</ele>
        <time>2010-04-23T17:31:35Z</time>
      </trkpt>
      <trkpt lat="45.86106" lon="6.22051">
        <ele>760</ele>
        <time>2010-04-23T17:31:37Z</time>
      </trkpt>
      <trkpt lat="45.86102" lon="6.22058">
        <ele>762</ele>
        <time>2010-04-23T17:31:39Z</time>
      </trkpt>
      <trkpt lat="45.86097" lon="6.22063">
        <ele>764</ele>
        <time>2010-04-23T17:31:41Z</time>
      </trkpt>
      <trkpt lat="45.86093" lon="6.22068">
        <ele>767</ele>
        <time>2010-04-23T17:31:43Z</time>
      </trkpt>
      <trkpt lat="45.86089" lon="6.22074">
        <ele>770</ele>
        <time>2010-04-23T17:31:45Z</time>
      </trkpt>
      <trkpt lat="45.86087" lon="6.22082">
        <ele>772</ele>
        <time>2010-04-23T17:31:47Z</time>
      </trkpt>
      <trkpt lat="45.86087" lon="6.22088">
        <ele>774</ele>
        <time>2010-04-23T17:31:49Z</time>
      </trkpt>
      <trkpt lat="45.86086" lon="6.22094">
        <ele>774</ele>
        <time>2010-04-23T17:31:51Z</time>
      </trkpt>
      <trkpt lat="45.86086" lon="6.221">
        <ele>774</ele>
        <time>2010-04-23T17:31:53Z</time>
      </trkpt>
      <trkpt lat="45.86086" lon="6.22106">
        <ele>774</ele>
        <time>2010-04-23T17:31:55Z</time>
      </trkpt>
      <trkpt lat="45.86088" lon="6.22111">
        <ele>772</ele>
        <time>2010-04-23T17:31:57Z</time>
      </trkpt>
      <trkpt lat="45.86087" lon="6.22117">
        <ele>771</ele>
        <time>2010-04-23T17:31:59Z</time>
      </trkpt>
      <trkpt lat="45.86087" lon="6.22122">
        <ele>770</ele>
        <time>2010-04-23T17:32:01Z</time>
      </trkpt>
      <trkpt lat="45.86088" lon="6.22127">
        <ele>770</ele>
        <time>2010-04-23T17:32:03Z</time>
      </trkpt>
      <trkpt lat="45.86088" lon="6.22132">
        <ele>770</ele>
        <time>2010-04-23T17:32:05Z</time>
      </trkpt>
      <trkpt lat="45.86088" lon="6.22138">
        <ele>769</ele>
        <time>2010-04-23T17:32:07Z</time>
      </trkpt>
      <trkpt lat="45.86089" lon="6.22143">
        <ele>768</ele>
        <time>2010-04-23T17:32:09Z</time>
      </trkpt>
      <trkpt lat="45.8609" lon="6.22148">
        <ele>767</ele>
        <time>2010-04-23T17:32:11Z</time>
      </trkpt>
      <trkpt lat="45.86088" lon="6.22154">
        <ele>767</ele>
        <time>2010-04-23T17:32:13Z</time>
      </trkpt>
      <trkpt lat="45.86086" lon="6.22159">
        <ele>767</ele>
        <time>2010-04-23T17:32:15Z</time>
      </trkpt>
      <trkpt lat="45.86083" lon="6.22164">
        <ele>767</ele>
        <time>2010-04-23T17:32:17Z</time>
      </trkpt>
      <trkpt lat="45.86081" lon="6.22168">
        <ele>768</ele>
        <time>2010-04-23T17:32:19Z</time>
      </trkpt>
      <trkpt lat="45.86077" lon="6.22172">
        <ele>770</ele>
        <time>2010-04-23T17:32:21Z</time>
      </trkpt>
      <trkpt lat="45.86075" lon="6.22176">
        <ele>772</ele>
        <time>2010-04-23T17:32:23Z</time>
      </trkpt>
      <trkpt lat="45.86072" lon="6.2218">
        <ele>774</ele>
        <time>2010-04-23T17:32:25Z</time>
      </trkpt>
      <trkpt lat="45.86071" lon="6.22185">
        <ele>776</ele>
        <time>2010-04-23T17:32:27Z</time>
      </trkpt>
      <trkpt lat="45.86069" lon="6.22191">
        <ele>778</ele>
        <time>2010-04-23T17:32:29Z</time>
      </trkpt>
      <trkpt lat="45.86066" lon="6.22195">
        <ele>780</ele>
        <time>2010-04-23T17:32:31Z</time>
      </trkpt>
      <trkpt lat="45.86063" lon="6.22199">
        <ele>782</ele>
        <time>2010-04-23T17:32:33Z</time>
      </trkpt>
      <trkpt lat="45.86062" lon="6.22204">
        <ele>784</ele>
        <time>2010-04-23T17:32:35Z</time>
      </trkpt>
      <trkpt lat="45.86065" lon="6.22212">
        <ele>786</ele>
        <time>2010-04-23T17:32:37Z</time>
      </trkpt>
      <trkpt lat="45.86063" lon="6.22219">
        <ele>787</ele>
        <time>2010-04-23T17:32:39Z</time>
      </trkpt>
      <trkpt lat="45.86061" lon="6.22224">
        <ele>787</ele>
        <time>2010-04-23T17:32:41Z</time>
      </trkpt>
      <trkpt lat="45.86061" lon="6.2223">
        <ele>787</ele>
        <time>2010-04-23T17:32:43Z</time>
      </trkpt>
      <trkpt lat="45.86061" lon="6.22237">
        <ele>787</ele>
        <time>2010-04-23T17:32:45Z</time>
      </trkpt>
      <trkpt lat="45.8606" lon="6.22245">
        <ele>787</ele>
        <time>2010-04-23T17:32:47Z</time>
      </trkpt>
      <trkpt lat="45.8606" lon="6.22251">
        <ele>786</ele>
        <time>2010-04-23T17:32:49Z</time>
      </trkpt>
      <trkpt lat="45.8606" lon="6.22255">
        <ele>785</ele>
        <time>2010-04-23T17:32:51Z</time>
      </trkpt>
      <trkpt lat="45.8606" lon="6.22259">
        <ele>785</ele>
        <time>2010-04-23T17:32:53Z</time>
      </trkpt>
      <trkpt lat="45.86059" lon="6.22265">
        <ele>785</ele>
        <time>2010-04-23T17:32:55Z</time>
      </trkpt>
      <trkpt lat="45.86058" lon="6.2227">
        <ele>785</ele>
        <time>2010-04-23T17:32:57Z</time>
      </trkpt>
      <trkpt lat="45.8606" lon="6.22277">
        <ele>785</ele>
        <time>2010-04-23T17:32:59Z</time>
      </trkpt>
      <trkpt lat="45.8606" lon="6.22284">
        <ele>785</ele>
        <time>2010-04-23T17:33:01Z</time>
      </trkpt>
      <trkpt lat="45.8606" lon="6.22291">
        <ele>784</ele>
        <time>2010-04-23T17:33:03Z</time>
      </trkpt>
      <trkpt lat="45.86059" lon="6.22297">
        <ele>784</ele>
        <time>2010-04-23T17:33:05Z</time>
      </trkpt>
      <trkpt lat="45.86058" lon="6.22302">
        <ele>784</ele>
        <time>2010-04-23T17:33:07Z</time>
      </trkpt>
      <trkpt lat="45.86058" lon="6.22307">
        <ele>785</ele>
        <time>2010-04-23T17:33:09Z</time>
      </trkpt>
      <trkpt lat="45.86057" lon="6.22313">
        <ele>787</ele>
        <time>2010-04-23T17:33:11Z</time>
      </trkpt>
      <trkpt lat="45.86055" lon="6.22318">
        <ele>788</ele>
        <time>2010-04-23T17:33:13Z</time>
      </trkpt>
      <trkpt lat="45.86053" lon="6.22324">
        <ele>790</ele>
        <time>2010-04-23T17:33:15Z</time>
      </trkpt>
      <trkpt lat="45.8605" lon="6.22328">
        <ele>792</ele>
        <time>2010-04-23T17:33:17Z</time>
      </trkpt>
      <trkpt lat="45.86046" lon="6.22333">
        <ele>794</ele>
        <time>2010-04-23T17:33:19Z</time>
      </trkpt>
      <trkpt lat="45.86043" lon="6.22338">
        <ele>796</ele>
        <time>2010-04-23T17:33:21Z</time>
      </trkpt>
      <trkpt lat="45.86039" lon="6.22343">
        <ele>800</ele>
        <time>2010-04-23T17:33:23Z</time>
      </trkpt>
      <trkpt lat="45.86034" lon="6.22346">
        <ele>804</ele>
        <time>2010-04-23T17:33:25Z</time>
      </trkpt>
      <trkpt lat="45.8603" lon="6.2235">
        <ele>808</ele>
        <time>2010-04-23T17:33:27Z</time>
      </trkpt>
      <trkpt lat="45.86026" lon="6.22351">
        <ele>813</ele>
        <time>2010-04-23T17:33:29Z</time>
      </trkpt>
      <trkpt lat="45.86021" lon="6.22352">
        <ele>817</ele>
        <time>2010-04-23T17:33:31Z</time>
      </trkpt>
      <trkpt lat="45.86015" lon="6.22355">
        <ele>821</ele>
        <time>2010-04-23T17:33:33Z</time>
      </trkpt>
      <trkpt lat="45.8601" lon="6.22358">
        <ele>825</ele>
        <time>2010-04-23T17:33:35Z</time>
      </trkpt>
      <trkpt lat="45.86005" lon="6.22356">
        <ele>828</ele>
        <time>2010-04-23T17:33:37Z</time>
      </trkpt>
      <trkpt lat="45.86003" lon="6.22354">
        <ele>830</ele>
        <time>2010-04-23T17:33:39Z</time>
      </trkpt>
      <trkpt lat="45.85999" lon="6.22353">
        <ele>832</ele>
        <time>2010-04-23T17:33:41Z</time>
      </trkpt>
      <trkpt lat="45.85998" lon="6.22352">
        <ele>832</ele>
        <time>2010-04-23T17:33:43Z</time>
      </trkpt>
      <trkpt lat="45.85998" lon="6.2235">
        <ele>831</ele>
        <time>2010-04-23T17:33:45Z</time>
      </trkpt>
      <trkpt lat="45.85995" lon="6.22346">
        <ele>829</ele>
        <time>2010-04-23T17:33:47Z</time>
      </trkpt>
      <trkpt lat="45.85991" lon="6.2234">
        <ele>825</ele>
        <time>2010-04-23T17:33:49Z</time>
      </trkpt>
      <trkpt lat="45.85987" lon="6.22333">
        <ele>821</ele>
        <time>2010-04-23T17:33:51Z</time>
      </trkpt>
      <trkpt lat="45.85985" lon="6.22326">
        <ele>817</ele>
        <time>2010-04-23T17:33:53Z</time>
      </trkpt>
      <trkpt lat="45.85983" lon="6.22318">
        <ele>813</ele>
        <time>2010-04-23T17:33:55Z</time>
      </trkpt>
      <trkpt lat="45.85981" lon="6.2231">
        <ele>811</ele>
        <time>2010-04-23T17:33:57Z</time>
      </trkpt>
      <trkpt lat="45.85981" lon="6.22302">
        <ele>809</ele>
        <time>2010-04-23T17:33:59Z</time>
      </trkpt>
      <trkpt lat="45.85981" lon="6.22294">
        <ele>807</ele>
        <time>2010-04-23T17:34:01Z</time>
      </trkpt>
      <trkpt lat="45.85981" lon="6.22286">
        <ele>805</ele>
        <time>2010-04-23T17:34:03Z</time>
      </trkpt>
      <trkpt lat="45.85981" lon="6.22278">
        <ele>803</ele>
        <time>2010-04-23T17:34:05Z</time>
      </trkpt>
      <trkpt lat="45.85981" lon="6.2227">
        <ele>801</ele>
        <time>2010-04-23T17:34:07Z</time>
      </trkpt>
      <trkpt lat="45.85979" lon="6.22263">
        <ele>799</ele>
        <time>2010-04-23T17:34:09Z</time>
      </trkpt>
      <trkpt lat="45.85979" lon="6.22256">
        <ele>798</ele>
        <time>2010-04-23T17:34:11Z</time>
      </trkpt>
      <trkpt lat="45.85978" lon="6.22248">
        <ele>798</ele>
        <time>2010-04-23T17:34:13Z</time>
      </trkpt>
      <trkpt lat="45.85976" lon="6.2224">
        <ele>798</ele>
        <time>2010-04-23T17:34:15Z</time>
      </trkpt>
      <trkpt lat="45.85974" lon="6.22236">
        <ele>798</ele>
        <time>2010-04-23T17:34:17Z</time>
      </trkpt>
      <trkpt lat="45.85972" lon="6.22234">
        <ele>798</ele>
        <time>2010-04-23T17:34:19Z</time>
      </trkpt>
      <trkpt lat="45.85971" lon="6.22231">
        <ele>798</ele>
        <time>2010-04-23T17:34:21Z</time>
      </trkpt>
      <trkpt lat="45.85968" lon="6.22226">
        <ele>798</ele>
        <time>2010-04-23T17:34:23Z</time>
      </trkpt>
      <trkpt lat="45.85966" lon="6.22222">
        <ele>798</ele>
        <time>2010-04-23T17:34:25Z</time>
      </trkpt>
      <trkpt lat="45.85967" lon="6.22225">
        <ele>798</ele>
        <time>2010-04-23T17:34:28Z</time>
      </trkpt>
      <trkpt lat="45.85969" lon="6.22228">
        <ele>798</ele>
        <time>2010-04-23T17:34:30Z</time>
      </trkpt>
      <trkpt lat="45.8597" lon="6.22232">
        <ele>798</ele>
        <time>2010-04-23T17:34:32Z</time>
      </trkpt>
      <trkpt lat="45.85971" lon="6.22236">
        <ele>798</ele>
        <time>2010-04-23T17:34:34Z</time>
      </trkpt>
      <trkpt lat="45.85969" lon="6.22238">
        <ele>798</ele>
        <time>2010-04-23T17:34:37Z</time>
      </trkpt>
      <trkpt lat="45.85967" lon="6.22239">
        <ele>797</ele>
        <time>2010-04-23T17:34:39Z</time>
      </trkpt>
      <trkpt lat="45.85964" lon="6.22239">
        <ele>797</ele>
        <time>2010-04-23T17:34:41Z</time>
      </trkpt>
      <trkpt lat="45.8596" lon="6.22239">
        <ele>795</ele>
        <time>2010-04-23T17:34:43Z</time>
      </trkpt>
      <trkpt lat="45.85955" lon="6.22239">
        <ele>795</ele>
        <time>2010-04-23T17:34:45Z</time>
      </trkpt>
      <trkpt lat="45.85951" lon="6.22236">
        <ele>794</ele>
        <time>2010-04-23T17:34:48Z</time>
      </trkpt>
      <trkpt lat="45.85949" lon="6.22234">
        <ele>794</ele>
        <time>2010-04-23T17:34:50Z</time>
      </trkpt>
      <trkpt lat="45.85946" lon="6.2223">
        <ele>794</ele>
        <time>2010-04-23T17:34:53Z</time>
      </trkpt>
      <trkpt lat="45.85945" lon="6.22228">
        <ele>794</ele>
        <time>2010-04-23T17:34:55Z</time>
      </trkpt>
      <trkpt lat="45.85943" lon="6.22226">
        <ele>794</ele>
        <time>2010-04-23T17:34:57Z</time>
      </trkpt>
      <trkpt lat="45.85939" lon="6.22223">
        <ele>794</ele>
        <time>2010-04-23T17:34:59Z</time>
      </trkpt>
      <trkpt lat="45.85935" lon="6.2222">
        <ele>794</ele>
        <time>2010-04-23T17:35:01Z</time>
      </trkpt>
      <trkpt lat="45.85931" lon="6.22217">
        <ele>794</ele>
        <time>2010-04-23T17:35:03Z</time>
      </trkpt>
      <trkpt lat="45.85928" lon="6.22213">
        <ele>794</ele>
        <time>2010-04-23T17:35:05Z</time>
      </trkpt>
      <trkpt lat="45.85923" lon="6.22209">
        <ele>796</ele>
        <time>2010-04-23T17:35:07Z</time>
      </trkpt>
      <trkpt lat="45.8592" lon="6.22205">
        <ele>798</ele>
        <time>2010-04-23T17:35:09Z</time>
      </trkpt>
      <trkpt lat="45.85916" lon="6.22203">
        <ele>800</ele>
        <time>2010-04-23T17:35:11Z</time>
      </trkpt>
      <trkpt lat="45.85913" lon="6.22202">
        <ele>802</ele>
        <time>2010-04-23T17:35:13Z</time>
      </trkpt>
      <trkpt lat="45.8591" lon="6.22202">
        <ele>804</ele>
        <time>2010-04-23T17:35:15Z</time>
      </trkpt>
      <trkpt lat="45.85907" lon="6.22203">
        <ele>806</ele>
        <time>2010-04-23T17:35:17Z</time>
      </trkpt>
      <trkpt lat="45.85903" lon="6.22202">
        <ele>806</ele>
        <time>2010-04-23T17:35:19Z</time>
      </trkpt>
      <trkpt lat="45.859" lon="6.22199">
        <ele>806</ele>
        <time>2010-04-23T17:35:21Z</time>
      </trkpt>
      <trkpt lat="45.85896" lon="6.22198">
        <ele>807</ele>
        <time>2010-04-23T17:35:23Z</time>
      </trkpt>
      <trkpt lat="45.85893" lon="6.22196">
        <ele>809</ele>
        <time>2010-04-23T17:35:25Z</time>
      </trkpt>
      <trkpt lat="45.85891" lon="6.22193">
        <ele>810</ele>
        <time>2010-04-23T17:35:27Z</time>
      </trkpt>
      <trkpt lat="45.8589" lon="6.22189">
        <ele>812</ele>
        <time>2010-04-23T17:35:29Z</time>
      </trkpt>
      <trkpt lat="45.8589" lon="6.22185">
        <ele>813</ele>
        <time>2010-04-23T17:35:31Z</time>
      </trkpt>
      <trkpt lat="45.85888" lon="6.22181">
        <ele>814</ele>
        <time>2010-04-23T17:35:33Z</time>
      </trkpt>
      <trkpt lat="45.85886" lon="6.22176">
        <ele>815</ele>
        <time>2010-04-23T17:35:35Z</time>
      </trkpt>
      <trkpt lat="45.85886" lon="6.22171">
        <ele>816</ele>
        <time>2010-04-23T17:35:37Z</time>
      </trkpt>
      <trkpt lat="45.85886" lon="6.22165">
        <ele>817</ele>
        <time>2010-04-23T17:35:39Z</time>
      </trkpt>
      <trkpt lat="45.85886" lon="6.22161">
        <ele>818</ele>
        <time>2010-04-23T17:35:41Z</time>
      </trkpt>
      <trkpt lat="45.85886" lon="6.22156">
        <ele>819</ele>
        <time>2010-04-23T17:35:43Z</time>
      </trkpt>
      <trkpt lat="45.85884" lon="6.22151">
        <ele>819</ele>
        <time>2010-04-23T17:35:45Z</time>
      </trkpt>
      <trkpt lat="45.85883" lon="6.22147">
        <ele>819</ele>
        <time>2010-04-23T17:35:47Z</time>
      </trkpt>
      <trkpt lat="45.85881" lon="6.22145">
        <ele>819</ele>
        <time>2010-04-23T17:35:49Z</time>
      </trkpt>
      <trkpt lat="45.85878" lon="6.22144">
        <ele>819</ele>
        <time>2010-04-23T17:35:51Z</time>
      </trkpt>
      <trkpt lat="45.85877" lon="6.22146">
        <ele>819</ele>
        <time>2010-04-23T17:35:53Z</time>
      </trkpt>
      <trkpt lat="45.85879" lon="6.2215">
        <ele>819</ele>
        <time>2010-04-23T17:35:55Z</time>
      </trkpt>
      <trkpt lat="45.85881" lon="6.22155">
        <ele>819</ele>
        <time>2010-04-23T17:35:57Z</time>
      </trkpt>
      <trkpt lat="45.85881" lon="6.2216">
        <ele>819</ele>
        <time>2010-04-23T17:35:59Z</time>
      </trkpt>
      <trkpt lat="45.85883" lon="6.22163">
        <ele>819</ele>
        <time>2010-04-23T17:36:01Z</time>
      </trkpt>
      <trkpt lat="45.85883" lon="6.22168">
        <ele>819</ele>
        <time>2010-04-23T17:36:03Z</time>
      </trkpt>
      <trkpt lat="45.85884" lon="6.22172">
        <ele>819</ele>
        <time>2010-04-23T17:36:06Z</time>
      </trkpt>
      <trkpt lat="45.85882" lon="6.22175">
        <ele>819</ele>
        <time>2010-04-23T17:36:08Z</time>
      </trkpt>
      <trkpt lat="45.85882" lon="6.2218">
        <ele>819</ele>
        <time>2010-04-23T17:36:10Z</time>
      </trkpt>
      <trkpt lat="45.85883" lon="6.22185">
        <ele>819</ele>
        <time>2010-04-23T17:36:12Z</time>
      </trkpt>
      <trkpt lat="45.85884" lon="6.2219">
        <ele>819</ele>
        <time>2010-04-23T17:36:14Z</time>
      </trkpt>
      <trkpt lat="45.85887" lon="6.22195">
        <ele>819</ele>
        <time>2010-04-23T17:36:16Z</time>
      </trkpt>
      <trkpt lat="45.85888" lon="6.22199">
        <ele>820</ele>
        <time>2010-04-23T17:36:18Z</time>
      </trkpt>
      <trkpt lat="45.85886" lon="6.22204">
        <ele>821</ele>
        <time>2010-04-23T17:36:20Z</time>
      </trkpt>
      <trkpt lat="45.85886" lon="6.22209">
        <ele>822</ele>
        <time>2010-04-23T17:36:22Z</time>
      </trkpt>
      <trkpt lat="45.85886" lon="6.22215">
        <ele>822</ele>
        <time>2010-04-23T17:36:24Z</time>
      </trkpt>
      <trkpt lat="45.85889" lon="6.2222">
        <ele>822</ele>
        <time>2010-04-23T17:36:26Z</time>
      </trkpt>
      <trkpt lat="45.85891" lon="6.22224">
        <ele>823</ele>
        <time>2010-04-23T17:36:28Z</time>
      </trkpt>
      <trkpt lat="45.8589" lon="6.22229">
        <ele>824</ele>
        <time>2010-04-23T17:36:30Z</time>
      </trkpt>
      <trkpt lat="45.85889" lon="6.22234">
        <ele>825</ele>
        <time>2010-04-23T17:36:32Z</time>
      </trkpt>
      <trkpt lat="45.85887" lon="6.22238">
        <ele>827</ele>
        <time>2010-04-23T17:36:34Z</time>
      </trkpt>
      <trkpt lat="45.85888" lon="6.22243">
        <ele>828</ele>
        <time>2010-04-23T17:36:36Z</time>
      </trkpt>
      <trkpt lat="45.85889" lon="6.22248">
        <ele>829</ele>
        <time>2010-04-23T17:36:38Z</time>
      </trkpt>
      <trkpt lat="45.85891" lon="6.22252">
        <ele>830</ele>
        <time>2010-04-23T17:36:40Z</time>
      </trkpt>
      <trkpt lat="45.85891" lon="6.22258">
        <ele>832</ele>
        <time>2010-04-23T17:36:42Z</time>
      </trkpt>
      <trkpt lat="45.85892" lon="6.22263">
        <ele>833</ele>
        <time>2010-04-23T17:36:44Z</time>
      </trkpt>
      <trkpt lat="45.85892" lon="6.22268">
        <ele>833</ele>
        <time>2010-04-23T17:36:46Z</time>
      </trkpt>
      <trkpt lat="45.85892" lon="6.22273">
        <ele>834</ele>
        <time>2010-04-23T17:36:49Z</time>
      </trkpt>
      <trkpt lat="45.85892" lon="6.22277">
        <ele>835</ele>
        <time>2010-04-23T17:36:51Z</time>
      </trkpt>
      <trkpt lat="45.85892" lon="6.2228">
        <ele>835</ele>
        <time>2010-04-23T17:36:53Z</time>
      </trkpt>
      <trkpt lat="45.85891" lon="6.22285">
        <ele>835</ele>
        <time>2010-04-23T17:36:56Z</time>
      </trkpt>
      <trkpt lat="45.85891" lon="6.22288">
        <ele>835</ele>
        <time>2010-04-23T17:36:58Z</time>
      </trkpt>
      <trkpt lat="45.8589" lon="6.22291">
        <ele>835</ele>
        <time>2010-04-23T17:37:00Z</time>
      </trkpt>
      <trkpt lat="45.85891" lon="6.22294">
        <ele>835</ele>
        <time>2010-04-23T17:37:02Z</time>
      </trkpt>
      <trkpt lat="45.8589" lon="6.22299">
        <ele>835</ele>
        <time>2010-04-23T17:37:04Z</time>
      </trkpt>
      <trkpt lat="45.85889" lon="6.22302">
        <ele>835</ele>
        <time>2010-04-23T17:37:06Z</time>
      </trkpt>
      <trkpt lat="45.85889" lon="6.22306">
        <ele>835</ele>
        <time>2010-04-23T17:37:08Z</time>
      </trkpt>
      <trkpt lat="45.85889" lon="6.22308">
        <ele>835</ele>
        <time>2010-04-23T17:37:10Z</time>
      </trkpt>
      <trkpt lat="45.8589" lon="6.22311">
        <ele>835</ele>
        <time>2010-04-23T17:37:12Z</time>
      </trkpt>
      <trkpt lat="45.8589" lon="6.22315">
        <ele>835</ele>
        <time>2010-04-23T17:37:14Z</time>
      </trkpt>
      <trkpt lat="45.8589" lon="6.22318">
        <ele>835</ele>
        <time>2010-04-23T17:37:16Z</time>
      </trkpt>
      <trkpt lat="45.85889" lon="6.22321">
        <ele>835</ele>
        <time>2010-04-23T17:37:18Z</time>
      </trkpt>
      <trkpt lat="45.85887" lon="6.22323">
        <ele>835</ele>
        <time>2010-04-23T17:37:20Z</time>
      </trkpt>
      <trkpt lat="45.85886" lon="6.22321">
        <ele>835</ele>
        <time>2010-04-23T17:37:22Z</time>
      </trkpt>
      <trkpt lat="45.85885" lon="6.22323">
        <ele>835</ele>
        <time>2010-04-23T17:37:25Z</time>
      </trkpt>
      <trkpt lat="45.85886" lon="6.22327">
        <ele>835</ele>
        <time>2010-04-23T17:37:27Z</time>
      </trkpt>
      <trkpt lat="45.85886" lon="6.22331">
        <ele>836</ele>
        <time>2010-04-23T17:37:29Z</time>
      </trkpt>
      <trkpt lat="45.85886" lon="6.22336">
        <ele>838</ele>
        <time>2010-04-23T17:37:31Z</time>
      </trkpt>
      <trkpt lat="45.85886" lon="6.22339">
        <ele>840</ele>
        <time>2010-04-23T17:37:33Z</time>
      </trkpt>
      <trkpt lat="45.85885" lon="6.22341">
        <ele>842</ele>
        <time>2010-04-23T17:37:35Z</time>
      </trkpt>
      <trkpt lat="45.85887" lon="6.2234">
        <ele>843</ele>
        <time>2010-04-23T17:37:38Z</time>
      </trkpt>
      <trkpt lat="45.85888" lon="6.22341">
        <ele>844</ele>
        <time>2010-04-23T17:37:40Z</time>
      </trkpt>
      <trkpt lat="45.85889" lon="6.22339">
        <ele>845</ele>
        <time>2010-04-23T17:37:44Z</time>
      </trkpt>
      <trkpt lat="45.8589" lon="6.22341">
        <ele>846</ele>
        <time>2010-04-23T17:37:48Z</time>
      </trkpt>
      <trkpt lat="45.85889" lon="6.22344">
        <ele>846</ele>
        <time>2010-04-23T17:37:50Z</time>
      </trkpt>
      <trkpt lat="45.8589" lon="6.22347">
        <ele>846</ele>
        <time>2010-04-23T17:37:52Z</time>
      </trkpt>
      <trkpt lat="45.85891" lon="6.22351">
        <ele>847</ele>
        <time>2010-04-23T17:37:54Z</time>
      </trkpt>
      <trkpt lat="45.85893" lon="6.22353">
        <ele>847</ele>
        <time>2010-04-23T17:37:56Z</time>
      </trkpt>
      <trkpt lat="45.85894" lon="6.22358">
        <ele>847</ele>
        <time>2010-04-23T17:37:58Z</time>
      </trkpt>
      <trkpt lat="45.85896" lon="6.22364">
        <ele>847</ele>
        <time>2010-04-23T17:38:00Z</time>
      </trkpt>
      <trkpt lat="45.85896" lon="6.2237">
        <ele>847</ele>
        <time>2010-04-23T17:38:02Z</time>
      </trkpt>
      <trkpt lat="45.85896" lon="6.22374">
        <ele>847</ele>
        <time>2010-04-23T17:38:04Z</time>
      </trkpt>
      <trkpt lat="45.85895" lon="6.2238">
        <ele>847</ele>
        <time>2010-04-23T17:38:06Z</time>
      </trkpt>
      <trkpt lat="45.85895" lon="6.22386">
        <ele>848</ele>
        <time>2010-04-23T17:38:08Z</time>
      </trkpt>
      <trkpt lat="45.85894" lon="6.22391">
        <ele>849</ele>
        <time>2010-04-23T17:38:10Z</time>
      </trkpt>
      <trkpt lat="45.85894" lon="6.22396">
        <ele>851</ele>
        <time>2010-04-23T17:38:12Z</time>
      </trkpt>
      <trkpt lat="45.85893" lon="6.22399">
        <ele>852</ele>
        <time>2010-04-23T17:38:14Z</time>
      </trkpt>
      <trkpt lat="45.85894" lon="6.22403">
        <ele>853</ele>
        <time>2010-04-23T17:38:16Z</time>
      </trkpt>
      <trkpt lat="45.85896" lon="6.22408">
        <ele>854</ele>
        <time>2010-04-23T17:38:18Z</time>
      </trkpt>
      <trkpt lat="45.85899" lon="6.22412">
        <ele>855</ele>
        <time>2010-04-23T17:38:20Z</time>
      </trkpt>
      <trkpt lat="45.85901" lon="6.22417">
        <ele>855</ele>
        <time>2010-04-23T17:38:22Z</time>
      </trkpt>
      <trkpt lat="45.85902" lon="6.2242">
        <ele>856</ele>
        <time>2010-04-23T17:38:24Z</time>
      </trkpt>
      <trkpt lat="45.85902" lon="6.22422">
        <ele>856</ele>
        <time>2010-04-23T17:38:26Z</time>
      </trkpt>
      <trkpt lat="45.85903" lon="6.22424">
        <ele>857</ele>
        <time>2010-04-23T17:38:28Z</time>
      </trkpt>
      <trkpt lat="45.85905" lon="6.22427">
        <ele>857</ele>
        <time>2010-04-23T17:38:30Z</time>
      </trkpt>
      <trkpt lat="45.85907" lon="6.22431">
        <ele>858</ele>
        <time>2010-04-23T17:38:32Z</time>
      </trkpt>
      <trkpt lat="45.85907" lon="6.22433">
        <ele>859</ele>
        <time>2010-04-23T17:38:34Z</time>
      </trkpt>
      <trkpt lat="45.85907" lon="6.22437">
        <ele>859</ele>
        <time>2010-04-23T17:38:36Z</time>
      </trkpt>
      <trkpt lat="45.85907" lon="6.2244">
        <ele>860</ele>
        <time>2010-04-23T17:38:38Z</time>
      </trkpt>
      <trkpt lat="45.85907" lon="6.22445">
        <ele>860</ele>
        <time>2010-04-23T17:38:40Z</time>
      </trkpt>
      <trkpt lat="45.85906" lon="6.2245">
        <ele>860</ele>
        <time>2010-04-23T17:38:42Z</time>
      </trkpt>
      <trkpt lat="45.85907" lon="6.22455">
        <ele>860</ele>
        <time>2010-04-23T17:38:44Z</time>
      </trkpt>
      <trkpt lat="45.85908" lon="6.22459">
        <ele>860</ele>
        <time>2010-04-23T17:38:46Z</time>
      </trkpt>
      <trkpt lat="45.8591" lon="6.22464">
        <ele>861</ele>
        <time>2010-04-23T17:38:48Z</time>
      </trkpt>
      <trkpt lat="45.85911" lon="6.22469">
        <ele>863</ele>
        <time>2010-04-23T17:38:50Z</time>
      </trkpt>
      <trkpt lat="45.8591" lon="6.22473">
        <ele>864</ele>
        <time>2010-04-23T17:38:52Z</time>
      </trkpt>
      <trkpt lat="45.8591" lon="6.22478">
        <ele>866</ele>
        <time>2010-04-23T17:38:54Z</time>
      </trkpt>
      <trkpt lat="45.85906" lon="6.22483">
        <ele>866</ele>
        <time>2010-04-23T17:38:56Z</time>
      </trkpt>
      <trkpt lat="45.85904" lon="6.22488">
        <ele>867</ele>
        <time>2010-04-23T17:38:58Z</time>
      </trkpt>
      <trkpt lat="45.85902" lon="6.22493">
        <ele>868</ele>
        <time>2010-04-23T17:39:00Z</time>
      </trkpt>
      <trkpt lat="45.859" lon="6.22497">
        <ele>869</ele>
        <time>2010-04-23T17:39:02Z</time>
      </trkpt>
      <trkpt lat="45.85898" lon="6.22501">
        <ele>870</ele>
        <time>2010-04-23T17:39:04Z</time>
      </trkpt>
      <trkpt lat="45.85897" lon="6.22504">
        <ele>871</ele>
        <time>2010-04-23T17:39:06Z</time>
      </trkpt>
      <trkpt lat="45.85895" lon="6.22508">
        <ele>873</ele>
        <time>2010-04-23T17:39:08Z</time>
      </trkpt>
      <trkpt lat="45.85894" lon="6.22511">
        <ele>875</ele>
        <time>2010-04-23T17:39:10Z</time>
      </trkpt>
      <trkpt lat="45.85892" lon="6.22515">
        <ele>876</ele>
        <time>2010-04-23T17:39:12Z</time>
      </trkpt>
      <trkpt lat="45.85889" lon="6.22519">
        <ele>876</ele>
        <time>2010-04-23T17:39:15Z</time>
      </trkpt>
      <trkpt lat="45.85887" lon="6.2252">
        <ele>876</ele>
        <time>2010-04-23T17:39:17Z</time>
      </trkpt>
      <trkpt lat="45.85886" lon="6.22523">
        <ele>876</ele>
        <time>2010-04-23T17:39:19Z</time>
      </trkpt>
      <trkpt lat="45.85883" lon="6.22526">
        <ele>876</ele>
        <time>2010-04-23T17:39:21Z</time>
      </trkpt>
      <trkpt lat="45.85881" lon="6.22528">
        <ele>876</ele>
        <time>2010-04-23T17:39:23Z</time>
      </trkpt>
      <trkpt lat="45.85882" lon="6.2253">
        <ele>879</ele>
        <time>2010-04-23T17:39:26Z</time>
      </trkpt>
      <trkpt lat="45.85879" lon="6.2253">
        <ele>880</ele>
        <time>2010-04-23T17:39:28Z</time>
      </trkpt>
      <trkpt lat="45.85877" lon="6.22527">
        <ele>880</ele>
        <time>2010-04-23T17:39:30Z</time>
      </trkpt>
      <trkpt lat="45.85873" lon="6.22525">
        <ele>880</ele>
        <time>2010-04-23T17:39:32Z</time>
      </trkpt>
      <trkpt lat="45.8587" lon="6.22524">
        <ele>880</ele>
        <time>2010-04-23T17:39:35Z</time>
      </trkpt>
      <trkpt lat="45.85869" lon="6.22523">
        <ele>880</ele>
        <time>2010-04-23T17:39:37Z</time>
      </trkpt>
      <trkpt lat="45.85867" lon="6.22522">
        <ele>880</ele>
        <time>2010-04-23T17:39:39Z</time>
      </trkpt>
      <trkpt lat="45.85867" lon="6.22518">
        <ele>880</ele>
        <time>2010-04-23T17:39:41Z</time>
      </trkpt>
      <trkpt lat="45.85866" lon="6.22514">
        <ele>880</ele>
        <time>2010-04-23T17:39:43Z</time>
      </trkpt>
      <trkpt lat="45.85864" lon="6.22511">
        <ele>880</ele>
        <time>2010-04-23T17:39:45Z</time>
      </trkpt>
      <trkpt lat="45.85862" lon="6.22507">
        <ele>880</ele>
        <time>2010-04-23T17:39:47Z</time>
      </trkpt>
      <trkpt lat="45.85863" lon="6.22502">
        <ele>880</ele>
        <time>2010-04-23T17:39:49Z</time>
      </trkpt>
      <trkpt lat="45.85866" lon="6.22495">
        <ele>880</ele>
        <time>2010-04-23T17:39:51Z</time>
      </trkpt>
      <trkpt lat="45.85864" lon="6.22497">
        <ele>880</ele>
        <time>2010-04-23T17:39:53Z</time>
      </trkpt>
      <trkpt lat="45.85865" lon="6.22499">
        <ele>880</ele>
        <time>2010-04-23T17:39:55Z</time>
      </trkpt>
      <trkpt lat="45.85863" lon="6.22503">
        <ele>880</ele>
        <time>2010-04-23T17:39:57Z</time>
      </trkpt>
      <trkpt lat="45.8586" lon="6.22505">
        <ele>880</ele>
        <time>2010-04-23T17:40:00Z</time>
      </trkpt>
      <trkpt lat="45.85856" lon="6.22507">
        <ele>880</ele>
        <time>2010-04-23T17:40:02Z</time>
      </trkpt>
      <trkpt lat="45.85853" lon="6.22508">
        <ele>880</ele>
        <time>2010-04-23T17:40:04Z</time>
      </trkpt>
      <trkpt lat="45.85852" lon="6.22511">
        <ele>880</ele>
        <time>2010-04-23T17:40:06Z</time>
      </trkpt>
      <trkpt lat="45.85852" lon="6.22517">
        <ele>880</ele>
        <time>2010-04-23T17:40:09Z</time>
      </trkpt>
      <trkpt lat="45.85854" lon="6.2252">
        <ele>880</ele>
        <time>2010-04-23T17:40:11Z</time>
      </trkpt>
      <trkpt lat="45.85855" lon="6.22524">
        <ele>881</ele>
        <time>2010-04-23T17:40:13Z</time>
      </trkpt>
      <trkpt lat="45.85857" lon="6.22528">
        <ele>884</ele>
        <time>2010-04-23T17:40:16Z</time>
      </trkpt>
      <trkpt lat="45.85859" lon="6.22531">
        <ele>886</ele>
        <time>2010-04-23T17:40:18Z</time>
      </trkpt>
      <trkpt lat="45.85858" lon="6.22534">
        <ele>888</ele>
        <time>2010-04-23T17:40:20Z</time>
      </trkpt>
      <trkpt lat="45.85854" lon="6.22533">
        <ele>889</ele>
        <time>2010-04-23T17:40:22Z</time>
      </trkpt>
      <trkpt lat="45.8585" lon="6.22531">
        <ele>889</ele>
        <time>2010-04-23T17:40:24Z</time>
      </trkpt>
      <trkpt lat="45.85847" lon="6.22528">
        <ele>890</ele>
        <time>2010-04-23T17:40:26Z</time>
      </trkpt>
      <trkpt lat="45.85844" lon="6.22528">
        <ele>891</ele>
        <time>2010-04-23T17:40:28Z</time>
      </trkpt>
      <trkpt lat="45.8584" lon="6.22529">
        <ele>892</ele>
        <time>2010-04-23T17:40:30Z</time>
      </trkpt>
      <trkpt lat="45.85837" lon="6.22527">
        <ele>893</ele>
        <time>2010-04-23T17:40:32Z</time>
      </trkpt>
      <trkpt lat="45.85836" lon="6.22524">
        <ele>895</ele>
        <time>2010-04-23T17:40:34Z</time>
      </trkpt>
      <trkpt lat="45.85833" lon="6.22519">
        <ele>898</ele>
        <time>2010-04-23T17:40:37Z</time>
      </trkpt>
      <trkpt lat="45.85831" lon="6.22517">
        <ele>901</ele>
        <time>2010-04-23T17:40:40Z</time>
      </trkpt>
      <trkpt lat="45.8583" lon="6.22513">
        <ele>901</ele>
        <time>2010-04-23T17:40:42Z</time>
      </trkpt>
      <trkpt lat="45.85831" lon="6.2251">
        <ele>902</ele>
        <time>2010-04-23T17:40:44Z</time>
      </trkpt>
      <trkpt lat="45.85831" lon="6.22505">
        <ele>904</ele>
        <time>2010-04-23T17:40:46Z</time>
      </trkpt>
      <trkpt lat="45.85829" lon="6.225">
        <ele>905</ele>
        <time>2010-04-23T17:40:48Z</time>
      </trkpt>
      <trkpt lat="45.85826" lon="6.22499">
        <ele>906</ele>
        <time>2010-04-23T17:40:51Z</time>
      </trkpt>
      <trkpt lat="45.85825" lon="6.22501">
        <ele>906</ele>
        <time>2010-04-23T17:40:53Z</time>
      </trkpt>
      <trkpt lat="45.85825" lon="6.22505">
        <ele>906</ele>
        <time>2010-04-23T17:40:56Z</time>
      </trkpt>
      <trkpt lat="45.85826" lon="6.22507">
        <ele>905</ele>
        <time>2010-04-23T17:40:59Z</time>
      </trkpt>
      <trkpt lat="45.85827" lon="6.22509">
        <ele>904</ele>
        <time>2010-04-23T17:41:01Z</time>
      </trkpt>
      <trkpt lat="45.85827" lon="6.22512">
        <ele>903</ele>
        <time>2010-04-23T17:41:03Z</time>
      </trkpt>
      <trkpt lat="45.85827" lon="6.22515">
        <ele>901</ele>
        <time>2010-04-23T17:41:05Z</time>
      </trkpt>
      <trkpt lat="45.85828" lon="6.22516">
        <ele>901</ele>
        <time>2010-04-23T17:41:07Z</time>
      </trkpt>
      <trkpt lat="45.85829" lon="6.2252">
        <ele>901</ele>
        <time>2010-04-23T17:41:09Z</time>
      </trkpt>
      <trkpt lat="45.85829" lon="6.22524">
        <ele>901</ele>
        <time>2010-04-23T17:41:11Z</time>
      </trkpt>
      <trkpt lat="45.85829" lon="6.2253">
        <ele>901</ele>
        <time>2010-04-23T17:41:13Z</time>
      </trkpt>
      <trkpt lat="45.85827" lon="6.22529">
        <ele>901</ele>
        <time>2010-04-23T17:41:15Z</time>
      </trkpt>
      <trkpt lat="45.85826" lon="6.22528">
        <ele>901</ele>
        <time>2010-04-23T17:41:17Z</time>
      </trkpt>
      <trkpt lat="45.85825" lon="6.22526">
        <ele>901</ele>
        <time>2010-04-23T17:41:19Z</time>
      </trkpt>
      <trkpt lat="45.85822" lon="6.22521">
        <ele>901</ele>
        <time>2010-04-23T17:41:22Z</time>
      </trkpt>
      <trkpt lat="45.85818" lon="6.22519">
        <ele>901</ele>
        <time>2010-04-23T17:41:24Z</time>
      </trkpt>
      <trkpt lat="45.85815" lon="6.22517">
        <ele>901</ele>
        <time>2010-04-23T17:41:26Z</time>
      </trkpt>
      <trkpt lat="45.85812" lon="6.22516">
        <ele>901</ele>
        <time>2010-04-23T17:41:28Z</time>
      </trkpt>
      <trkpt lat="45.85808" lon="6.22515">
        <ele>901</ele>
        <time>2010-04-23T17:41:30Z</time>
      </trkpt>
      <trkpt lat="45.85808" lon="6.22518">
        <ele>901</ele>
        <time>2010-04-23T17:41:33Z</time>
      </trkpt>
      <trkpt lat="45.8581" lon="6.22522">
        <ele>901</ele>
        <time>2010-04-23T17:41:35Z</time>
      </trkpt>
      <trkpt lat="45.85811" lon="6.22524">
        <ele>901</ele>
        <time>2010-04-23T17:41:37Z</time>
      </trkpt>
      <trkpt lat="45.8581" lon="6.22528">
        <ele>901</ele>
        <time>2010-04-23T17:41:40Z</time>
      </trkpt>
      <trkpt lat="45.85807" lon="6.22529">
        <ele>901</ele>
        <time>2010-04-23T17:41:42Z</time>
      </trkpt>
      <trkpt lat="45.85806" lon="6.22525">
        <ele>901</ele>
        <time>2010-04-23T17:41:45Z</time>
      </trkpt>
      <trkpt lat="45.85804" lon="6.22521">
        <ele>904</ele>
        <time>2010-04-23T17:41:48Z</time>
      </trkpt>
      <trkpt lat="45.858" lon="6.22521">
        <ele>906</ele>
        <time>2010-04-23T17:41:50Z</time>
      </trkpt>
      <trkpt lat="45.85796" lon="6.22518">
        <ele>908</ele>
        <time>2010-04-23T17:41:52Z</time>
      </trkpt>
      <trkpt lat="45.85793" lon="6.22515">
        <ele>909</ele>
        <time>2010-04-23T17:41:54Z</time>
      </trkpt>
      <trkpt lat="45.85792" lon="6.22511">
        <ele>910</ele>
        <time>2010-04-23T17:41:57Z</time>
      </trkpt>
      <trkpt lat="45.85793" lon="6.22507">
        <ele>910</ele>
        <time>2010-04-23T17:41:59Z</time>
      </trkpt>
      <trkpt lat="45.85794" lon="6.22504">
        <ele>910</ele>
        <time>2010-04-23T17:42:01Z</time>
      </trkpt>
      <trkpt lat="45.85794" lon="6.225">
        <ele>910</ele>
        <time>2010-04-23T17:42:03Z</time>
      </trkpt>
      <trkpt lat="45.85796" lon="6.22496">
        <ele>911</ele>
        <time>2010-04-23T17:42:05Z</time>
      </trkpt>
      <trkpt lat="45.85794" lon="6.22493">
        <ele>911</ele>
        <time>2010-04-23T17:42:07Z</time>
      </trkpt>
      <trkpt lat="45.85792" lon="6.22493">
        <ele>913</ele>
        <time>2010-04-23T17:42:09Z</time>
      </trkpt>
      <trkpt lat="45.85789" lon="6.22494">
        <ele>913</ele>
        <time>2010-04-23T17:42:11Z</time>
      </trkpt>
      <trkpt lat="45.85785" lon="6.22496">
        <ele>913</ele>
        <time>2010-04-23T17:42:13Z</time>
      </trkpt>
      <trkpt lat="45.85782" lon="6.22499">
        <ele>913</ele>
        <time>2010-04-23T17:42:15Z</time>
      </trkpt>
      <trkpt lat="45.8578" lon="6.22501">
        <ele>913</ele>
        <time>2010-04-23T17:42:17Z</time>
      </trkpt>
      <trkpt lat="45.85778" lon="6.22504">
        <ele>913</ele>
        <time>2010-04-23T17:42:19Z</time>
      </trkpt>
      <trkpt lat="45.85776" lon="6.22501">
        <ele>913</ele>
        <time>2010-04-23T17:42:21Z</time>
      </trkpt>
      <trkpt lat="45.85777" lon="6.22497">
        <ele>913</ele>
        <time>2010-04-23T17:42:23Z</time>
      </trkpt>
      <trkpt lat="45.85778" lon="6.22492">
        <ele>913</ele>
        <time>2010-04-23T17:42:25Z</time>
      </trkpt>
      <trkpt lat="45.8578" lon="6.22489">
        <ele>913</ele>
        <time>2010-04-23T17:42:27Z</time>
      </trkpt>
      <trkpt lat="45.85782" lon="6.22485">
        <ele>913</ele>
        <time>2010-04-23T17:42:29Z</time>
      </trkpt>
      <trkpt lat="45.85781" lon="6.22482">
        <ele>913</ele>
        <time>2010-04-23T17:42:33Z</time>
      </trkpt>
      <trkpt lat="45.85777" lon="6.22486">
        <ele>913</ele>
        <time>2010-04-23T17:42:36Z</time>
      </trkpt>
      <trkpt lat="45.85776" lon="6.22486">
        <ele>911</ele>
        <time>2010-04-23T17:42:38Z</time>
      </trkpt>
      <trkpt lat="45.85773" lon="6.22485">
        <ele>910</ele>
        <time>2010-04-23T17:42:40Z</time>
      </trkpt>
      <trkpt lat="45.85771" lon="6.22485">
        <ele>909</ele>
        <time>2010-04-23T17:42:42Z</time>
      </trkpt>
      <trkpt lat="45.85769" lon="6.22485">
        <ele>909</ele>
        <time>2010-04-23T17:42:44Z</time>
      </trkpt>
      <trkpt lat="45.85767" lon="6.22486">
        <ele>909</ele>
        <time>2010-04-23T17:42:46Z</time>
      </trkpt>
      <trkpt lat="45.85766" lon="6.22488">
        <ele>909</ele>
        <time>2010-04-23T17:42:48Z</time>
      </trkpt>
      <trkpt lat="45.85764" lon="6.22488">
        <ele>909</ele>
        <time>2010-04-23T17:42:50Z</time>
      </trkpt>
      <trkpt lat="45.85762" lon="6.22492">
        <ele>909</ele>
        <time>2010-04-23T17:42:54Z</time>
      </trkpt>
      <trkpt lat="45.85759" lon="6.2249">
        <ele>909</ele>
        <time>2010-04-23T17:42:56Z</time>
      </trkpt>
      <trkpt lat="45.85759" lon="6.22487">
        <ele>909</ele>
        <time>2010-04-23T17:42:58Z</time>
      </trkpt>
      <trkpt lat="45.85759" lon="6.22484">
        <ele>909</ele>
        <time>2010-04-23T17:43:00Z</time>
      </trkpt>
      <trkpt lat="45.85758" lon="6.2248">
        <ele>910</ele>
        <time>2010-04-23T17:43:02Z</time>
      </trkpt>
      <trkpt lat="45.85757" lon="6.22474">
        <ele>911</ele>
        <time>2010-04-23T17:43:04Z</time>
      </trkpt>
      <trkpt lat="45.85757" lon="6.22469">
        <ele>913</ele>
        <time>2010-04-23T17:43:06Z</time>
      </trkpt>
      <trkpt lat="45.85756" lon="6.22465">
        <ele>915</ele>
        <time>2010-04-23T17:43:08Z</time>
      </trkpt>
      <trkpt lat="45.85755" lon="6.22461">
        <ele>917</ele>
        <time>2010-04-23T17:43:10Z</time>
      </trkpt>
      <trkpt lat="45.85753" lon="6.22457">
        <ele>919</ele>
        <time>2010-04-23T17:43:12Z</time>
      </trkpt>
      <trkpt lat="45.85751" lon="6.22453">
        <ele>921</ele>
        <time>2010-04-23T17:43:14Z</time>
      </trkpt>
      <trkpt lat="45.8575" lon="6.22449">
        <ele>922</ele>
        <time>2010-04-23T17:43:16Z</time>
      </trkpt>
      <trkpt lat="45.85749" lon="6.22445">
        <ele>923</ele>
        <time>2010-04-23T17:43:18Z</time>
      </trkpt>
      <trkpt lat="45.85748" lon="6.22441">
        <ele>924</ele>
        <time>2010-04-23T17:43:20Z</time>
      </trkpt>
      <trkpt lat="45.85746" lon="6.22437">
        <ele>925</ele>
        <time>2010-04-23T17:43:22Z</time>
      </trkpt>
      <trkpt lat="45.85744" lon="6.22433">
        <ele>928</ele>
        <time>2010-04-23T17:43:25Z</time>
      </trkpt>
      <trkpt lat="45.85743" lon="6.2243">
        <ele>929</ele>
        <time>2010-04-23T17:43:27Z</time>
      </trkpt>
      <trkpt lat="45.85742" lon="6.22428">
        <ele>930</ele>
        <time>2010-04-23T17:43:29Z</time>
      </trkpt>
      <trkpt lat="45.85741" lon="6.22425">
        <ele>930</ele>
        <time>2010-04-23T17:43:31Z</time>
      </trkpt>
      <trkpt lat="45.8574" lon="6.22421">
        <ele>930</ele>
        <time>2010-04-23T17:43:33Z</time>
      </trkpt>
      <trkpt lat="45.85739" lon="6.22417">
        <ele>931</ele>
        <time>2010-04-23T17:43:35Z</time>
      </trkpt>
      <trkpt lat="45.85738" lon="6.22413">
        <ele>931</ele>
        <time>2010-04-23T17:43:37Z</time>
      </trkpt>
      <trkpt lat="45.85736" lon="6.2241">
        <ele>931</ele>
        <time>2010-04-23T17:43:39Z</time>
      </trkpt>
      <trkpt lat="45.85736" lon="6.22407">
        <ele>931</ele>
        <time>2010-04-23T17:43:41Z</time>
      </trkpt>
      <trkpt lat="45.85735" lon="6.22403">
        <ele>932</ele>
        <time>2010-04-23T17:43:43Z</time>
      </trkpt>
      <trkpt lat="45.85735" lon="6.22398">
        <ele>932</ele>
        <time>2010-04-23T17:43:45Z</time>
      </trkpt>
      <trkpt lat="45.85735" lon="6.22394">
        <ele>932</ele>
        <time>2010-04-23T17:43:47Z</time>
      </trkpt>
      <trkpt lat="45.85734" lon="6.2239">
        <ele>933</ele>
        <time>2010-04-23T17:43:49Z</time>
      </trkpt>
      <trkpt lat="45.85733" lon="6.22386">
        <ele>933</ele>
        <time>2010-04-23T17:43:51Z</time>
      </trkpt>
      <trkpt lat="45.85733" lon="6.22383">
        <ele>933</ele>
        <time>2010-04-23T17:43:53Z</time>
      </trkpt>
      <trkpt lat="45.85732" lon="6.2238">
        <ele>933</ele>
        <time>2010-04-23T17:43:55Z</time>
      </trkpt>
      <trkpt lat="45.85731" lon="6.22377">
        <ele>934</ele>
        <time>2010-04-23T17:43:57Z</time>
      </trkpt>
      <trkpt lat="45.8573" lon="6.22373">
        <ele>934</ele>
        <time>2010-04-23T17:43:59Z</time>
      </trkpt>
      <trkpt lat="45.85729" lon="6.22369">
        <ele>934</ele>
        <time>2010-04-23T17:44:01Z</time>
      </trkpt>
      <trkpt lat="45.85729" lon="6.22365">
        <ele>936</ele>
        <time>2010-04-23T17:44:03Z</time>
      </trkpt>
      <trkpt lat="45.8573" lon="6.2236">
        <ele>938</ele>
        <time>2010-04-23T17:44:05Z</time>
      </trkpt>
      <trkpt lat="45.8573" lon="6.22357">
        <ele>942</ele>
        <time>2010-04-23T17:44:13Z</time>
      </trkpt>
      <trkpt lat="45.8573" lon="6.22359">
        <ele>943</ele>
        <time>2010-04-23T17:44:18Z</time>
      </trkpt>
      <trkpt lat="45.85729" lon="6.22359">
        <ele>943</ele>
        <time>2010-04-23T17:44:21Z</time>
      </trkpt>
      <trkpt lat="45.85736" lon="6.22362">
        <ele>948</ele>
        <time>2010-04-23T17:44:33Z</time>
      </trkpt>
      <trkpt lat="45.85736" lon="6.22366">
        <ele>948</ele>
        <time>2010-04-23T17:44:35Z</time>
      </trkpt>
      <trkpt lat="45.85735" lon="6.22368">
        <ele>948</ele>
        <time>2010-04-23T17:44:37Z</time>
      </trkpt>
      <trkpt lat="45.85733" lon="6.22372">
        <ele>948</ele>
        <time>2010-04-23T17:44:39Z</time>
      </trkpt>
      <trkpt lat="45.8573" lon="6.22376">
        <ele>948</ele>
        <time>2010-04-23T17:44:41Z</time>
      </trkpt>
      <trkpt lat="45.85727" lon="6.22379">
        <ele>948</ele>
        <time>2010-04-23T17:44:43Z</time>
      </trkpt>
      <trkpt lat="45.85724" lon="6.22383">
        <ele>947</ele>
        <time>2010-04-23T17:44:45Z</time>
      </trkpt>
      <trkpt lat="45.85722" lon="6.22386">
        <ele>945</ele>
        <time>2010-04-23T17:44:47Z</time>
      </trkpt>
      <trkpt lat="45.85718" lon="6.2239">
        <ele>943</ele>
        <time>2010-04-23T17:44:50Z</time>
      </trkpt>
      <trkpt lat="45.85716" lon="6.22392">
        <ele>942</ele>
        <time>2010-04-23T17:44:52Z</time>
      </trkpt>
      <trkpt lat="45.85714" lon="6.22395">
        <ele>941</ele>
        <time>2010-04-23T17:44:54Z</time>
      </trkpt>
      <trkpt lat="45.85711" lon="6.22399">
        <ele>940</ele>
        <time>2010-04-23T17:44:57Z</time>
      </trkpt>
      <trkpt lat="45.8571" lon="6.22402">
        <ele>940</ele>
        <time>2010-04-23T17:44:59Z</time>
      </trkpt>
      <trkpt lat="45.85709" lon="6.22405">
        <ele>940</ele>
        <time>2010-04-23T17:45:01Z</time>
      </trkpt>
      <trkpt lat="45.85706" lon="6.22409">
        <ele>940</ele>
        <time>2010-04-23T17:45:03Z</time>
      </trkpt>
      <trkpt lat="45.85705" lon="6.22412">
        <ele>940</ele>
        <time>2010-04-23T17:45:05Z</time>
      </trkpt>
      <trkpt lat="45.85702" lon="6.22416">
        <ele>940</ele>
        <time>2010-04-23T17:45:07Z</time>
      </trkpt>
      <trkpt lat="45.85699" lon="6.2242">
        <ele>940</ele>
        <time>2010-04-23T17:45:10Z</time>
      </trkpt>
      <trkpt lat="45.85697" lon="6.22422">
        <ele>940</ele>
        <time>2010-04-23T17:45:12Z</time>
      </trkpt>
      <trkpt lat="45.85695" lon="6.22425">
        <ele>940</ele>
        <time>2010-04-23T17:45:14Z</time>
      </trkpt>
      <trkpt lat="45.85692" lon="6.22429">
        <ele>940</ele>
        <time>2010-04-23T17:45:17Z</time>
      </trkpt>
      <trkpt lat="45.8569" lon="6.22431">
        <ele>940</ele>
        <time>2010-04-23T17:45:19Z</time>
      </trkpt>
      <trkpt lat="45.85688" lon="6.22434">
        <ele>939</ele>
        <time>2010-04-23T17:45:21Z</time>
      </trkpt>
      <trkpt lat="45.85685" lon="6.22437">
        <ele>938</ele>
        <time>2010-04-23T17:45:23Z</time>
      </trkpt>
      <trkpt lat="45.85683" lon="6.22439">
        <ele>938</ele>
        <time>2010-04-23T17:45:25Z</time>
      </trkpt>
      <trkpt lat="45.8568" lon="6.22442">
        <ele>938</ele>
        <time>2010-04-23T17:45:28Z</time>
      </trkpt>
      <trkpt lat="45.85677" lon="6.22443">
        <ele>938</ele>
        <time>2010-04-23T17:45:30Z</time>
      </trkpt>
      <trkpt lat="45.85673" lon="6.22445">
        <ele>938</ele>
        <time>2010-04-23T17:45:32Z</time>
      </trkpt>
      <trkpt lat="45.85669" lon="6.22446">
        <ele>937</ele>
        <time>2010-04-23T17:45:35Z</time>
      </trkpt>
      <trkpt lat="45.85666" lon="6.22448">
        <ele>936</ele>
        <time>2010-04-23T17:45:37Z</time>
      </trkpt>
      <trkpt lat="45.85663" lon="6.22448">
        <ele>936</ele>
        <time>2010-04-23T17:45:39Z</time>
      </trkpt>
      <trkpt lat="45.85661" lon="6.22448">
        <ele>936</ele>
        <time>2010-04-23T17:45:41Z</time>
      </trkpt>
      <trkpt lat="45.85658" lon="6.22448">
        <ele>936</ele>
        <time>2010-04-23T17:45:43Z</time>
      </trkpt>
      <trkpt lat="45.85653" lon="6.2245">
        <ele>936</ele>
        <time>2010-04-23T17:45:47Z</time>
      </trkpt>
      <trkpt lat="45.85651" lon="6.22452">
        <ele>936</ele>
        <time>2010-04-23T17:45:49Z</time>
      </trkpt>
      <trkpt lat="45.85648" lon="6.22454">
        <ele>936</ele>
        <time>2010-04-23T17:45:51Z</time>
      </trkpt>
      <trkpt lat="45.85645" lon="6.22454">
        <ele>936</ele>
        <time>2010-04-23T17:45:53Z</time>
      </trkpt>
      <trkpt lat="45.85641" lon="6.22458">
        <ele>936</ele>
        <time>2010-04-23T17:45:56Z</time>
      </trkpt>
      <trkpt lat="45.85637" lon="6.22458">
        <ele>936</ele>
        <time>2010-04-23T17:45:58Z</time>
      </trkpt>
      <trkpt lat="45.85635" lon="6.22459">
        <ele>936</ele>
        <time>2010-04-23T17:46:00Z</time>
      </trkpt>
      <trkpt lat="45.85633" lon="6.22463">
        <ele>937</ele>
        <time>2010-04-23T17:46:02Z</time>
      </trkpt>
      <trkpt lat="45.85632" lon="6.22462">
        <ele>939</ele>
        <time>2010-04-23T17:46:04Z</time>
      </trkpt>
      <trkpt lat="45.8563" lon="6.22462">
        <ele>940</ele>
        <time>2010-04-23T17:46:06Z</time>
      </trkpt>
      <trkpt lat="45.85627" lon="6.22462">
        <ele>941</ele>
        <time>2010-04-23T17:46:08Z</time>
      </trkpt>
      <trkpt lat="45.85622" lon="6.22463">
        <ele>943</ele>
        <time>2010-04-23T17:46:10Z</time>
      </trkpt>
      <trkpt lat="45.85618" lon="6.22461">
        <ele>947</ele>
        <time>2010-04-23T17:46:14Z</time>
      </trkpt>
      <trkpt lat="45.85614" lon="6.22461">
        <ele>949</ele>
        <time>2010-04-23T17:46:16Z</time>
      </trkpt>
      <trkpt lat="45.85613" lon="6.22463">
        <ele>952</ele>
        <time>2010-04-23T17:46:20Z</time>
      </trkpt>
      <trkpt lat="45.85611" lon="6.22463">
        <ele>952</ele>
        <time>2010-04-23T17:46:23Z</time>
      </trkpt>
      <trkpt lat="45.85608" lon="6.22464">
        <ele>952</ele>
        <time>2010-04-23T17:46:25Z</time>
      </trkpt>
      <trkpt lat="45.85605" lon="6.22465">
        <ele>952</ele>
        <time>2010-04-23T17:46:27Z</time>
      </trkpt>
      <trkpt lat="45.85602" lon="6.22464">
        <ele>952</ele>
        <time>2010-04-23T17:46:29Z</time>
      </trkpt>
      <trkpt lat="45.85598" lon="6.22465">
        <ele>955</ele>
        <time>2010-04-23T17:46:32Z</time>
      </trkpt>
      <trkpt lat="45.85594" lon="6.22466">
        <ele>956</ele>
        <time>2010-04-23T17:46:34Z</time>
      </trkpt>
      <trkpt lat="45.8559" lon="6.22468">
        <ele>957</ele>
        <time>2010-04-23T17:46:36Z</time>
      </trkpt>
      <trkpt lat="45.85586" lon="6.22468">
        <ele>958</ele>
        <time>2010-04-23T17:46:38Z</time>
      </trkpt>
      <trkpt lat="45.85583" lon="6.22468">
        <ele>959</ele>
        <time>2010-04-23T17:46:40Z</time>
      </trkpt>
      <trkpt lat="45.8558" lon="6.22467">
        <ele>959</ele>
        <time>2010-04-23T17:46:42Z</time>
      </trkpt>
      <trkpt lat="45.85576" lon="6.22465">
        <ele>960</ele>
        <time>2010-04-23T17:46:45Z</time>
      </trkpt>
      <trkpt lat="45.85571" lon="6.22465">
        <ele>961</ele>
        <time>2010-04-23T17:46:47Z</time>
      </trkpt>
      <trkpt lat="45.85566" lon="6.22466">
        <ele>963</ele>
        <time>2010-04-23T17:46:49Z</time>
      </trkpt>
      <trkpt lat="45.8556" lon="6.22465">
        <ele>965</ele>
        <time>2010-04-23T17:46:51Z</time>
      </trkpt>
      <trkpt lat="45.85553" lon="6.22464">
        <ele>967</ele>
        <time>2010-04-23T17:46:53Z</time>
      </trkpt>
      <trkpt lat="45.85545" lon="6.22462">
        <ele>969</ele>
        <time>2010-04-23T17:46:55Z</time>
      </trkpt>
      <trkpt lat="45.85537" lon="6.22462">
        <ele>972</ele>
        <time>2010-04-23T17:46:57Z</time>
      </trkpt>
      <trkpt lat="45.8553" lon="6.2246">
        <ele>974</ele>
        <time>2010-04-23T17:46:59Z</time>
      </trkpt>
      <trkpt lat="45.85523" lon="6.22459">
        <ele>976</ele>
        <time>2010-04-23T17:47:01Z</time>
      </trkpt>
      <trkpt lat="45.85516" lon="6.2246">
        <ele>978</ele>
        <time>2010-04-23T17:47:03Z</time>
      </trkpt>
      <trkpt lat="45.8551" lon="6.22461">
        <ele>980</ele>
        <time>2010-04-23T17:47:05Z</time>
      </trkpt>
      <trkpt lat="45.85506" lon="6.22463">
        <ele>982</ele>
        <time>2010-04-23T17:47:07Z</time>
      </trkpt>
      <trkpt lat="45.85504" lon="6.22464">
        <ele>982</ele>
        <time>2010-04-23T17:47:09Z</time>
      </trkpt>
      <trkpt lat="45.855" lon="6.22468">
        <ele>982</ele>
        <time>2010-04-23T17:47:11Z</time>
      </trkpt>
      <trkpt lat="45.85495" lon="6.22472">
        <ele>981</ele>
        <time>2010-04-23T17:47:13Z</time>
      </trkpt>
      <trkpt lat="45.85491" lon="6.22475">
        <ele>979</ele>
        <time>2010-04-23T17:47:15Z</time>
      </trkpt>
      <trkpt lat="45.85487" lon="6.2248">
        <ele>977</ele>
        <time>2010-04-23T17:47:17Z</time>
      </trkpt>
      <trkpt lat="45.85482" lon="6.22483">
        <ele>975</ele>
        <time>2010-04-23T17:47:19Z</time>
      </trkpt>
      <trkpt lat="45.85478" lon="6.22487">
        <ele>974</ele>
        <time>2010-04-23T17:47:21Z</time>
      </trkpt>
      <trkpt lat="45.85474" lon="6.22487">
        <ele>974</ele>
        <time>2010-04-23T17:47:23Z</time>
      </trkpt>
      <trkpt lat="45.8547" lon="6.22487">
        <ele>972</ele>
        <time>2010-04-23T17:47:25Z</time>
      </trkpt>
      <trkpt lat="45.85465" lon="6.22486">
        <ele>970</ele>
        <time>2010-04-23T17:47:27Z</time>
      </trkpt>
      <trkpt lat="45.85458" lon="6.22485">
        <ele>968</ele>
        <time>2010-04-23T17:47:29Z</time>
      </trkpt>
      <trkpt lat="45.85453" lon="6.22484">
        <ele>967</ele>
        <time>2010-04-23T17:47:31Z</time>
      </trkpt>
      <trkpt lat="45.85445" lon="6.22485">
        <ele>966</ele>
        <time>2010-04-23T17:47:33Z</time>
      </trkpt>
      <trkpt lat="45.85438" lon="6.22486">
        <ele>964</ele>
        <time>2010-04-23T17:47:35Z</time>
      </trkpt>
      <trkpt lat="45.85432" lon="6.22487">
        <ele>962</ele>
        <time>2010-04-23T17:47:37Z</time>
      </trkpt>
      <trkpt lat="45.85426" lon="6.22491">
        <ele>960</ele>
        <time>2010-04-23T17:47:39Z</time>
      </trkpt>
      <trkpt lat="45.8542" lon="6.22495">
        <ele>958</ele>
        <time>2010-04-23T17:47:41Z</time>
      </trkpt>
      <trkpt lat="45.85416" lon="6.22499">
        <ele>956</ele>
        <time>2010-04-23T17:47:43Z</time>
      </trkpt>
      <trkpt lat="45.85414" lon="6.22505">
        <ele>953</ele>
        <time>2010-04-23T17:47:45Z</time>
      </trkpt>
      <trkpt lat="45.85415" lon="6.22509">
        <ele>950</ele>
        <time>2010-04-23T17:47:47Z</time>
      </trkpt>
      <trkpt lat="45.85414" lon="6.22514">
        <ele>948</ele>
        <time>2010-04-23T17:47:49Z</time>
      </trkpt>
      <trkpt lat="45.85414" lon="6.22518">
        <ele>946</ele>
        <time>2010-04-23T17:47:51Z</time>
      </trkpt>
      <trkpt lat="45.85416" lon="6.22521">
        <ele>943</ele>
        <time>2010-04-23T17:47:54Z</time>
      </trkpt>
      <trkpt lat="45.85416" lon="6.22524">
        <ele>943</ele>
        <time>2010-04-23T17:47:56Z</time>
      </trkpt>
      <trkpt lat="45.85418" lon="6.22526">
        <ele>944</ele>
        <time>2010-04-23T17:47:59Z</time>
      </trkpt>
      <trkpt lat="45.85419" lon="6.22528">
        <ele>946</ele>
        <time>2010-04-23T17:48:01Z</time>
      </trkpt>
      <trkpt lat="45.85422" lon="6.2253">
        <ele>948</ele>
        <time>2010-04-23T17:48:03Z</time>
      </trkpt>
      <trkpt lat="45.85426" lon="6.22532">
        <ele>952</ele>
        <time>2010-04-23T17:48:05Z</time>
      </trkpt>
      <trkpt lat="45.8543" lon="6.22535">
        <ele>955</ele>
        <time>2010-04-23T17:48:07Z</time>
      </trkpt>
      <trkpt lat="45.85433" lon="6.22536">
        <ele>957</ele>
        <time>2010-04-23T17:48:09Z</time>
      </trkpt>
      <trkpt lat="45.85438" lon="6.22539">
        <ele>959</ele>
        <time>2010-04-23T17:48:11Z</time>
      </trkpt>
      <trkpt lat="45.85442" lon="6.22541">
        <ele>961</ele>
        <time>2010-04-23T17:48:13Z</time>
      </trkpt>
      <trkpt lat="45.85448" lon="6.22545">
        <ele>963</ele>
        <time>2010-04-23T17:48:15Z</time>
      </trkpt>
      <trkpt lat="45.85453" lon="6.22547">
        <ele>965</ele>
        <time>2010-04-23T17:48:17Z</time>
      </trkpt>
      <trkpt lat="45.85457" lon="6.22549">
        <ele>966</ele>
        <time>2010-04-23T17:48:19Z</time>
      </trkpt>
      <trkpt lat="45.85461" lon="6.22551">
        <ele>966</ele>
        <time>2010-04-23T17:48:21Z</time>
      </trkpt>
      <trkpt lat="45.85466" lon="6.22554">
        <ele>966</ele>
        <time>2010-04-23T17:48:23Z</time>
      </trkpt>
      <trkpt lat="45.8547" lon="6.22558">
        <ele>966</ele>
        <time>2010-04-23T17:48:25Z</time>
      </trkpt>
      <trkpt lat="45.85474" lon="6.22563">
        <ele>967</ele>
        <time>2010-04-23T17:48:27Z</time>
      </trkpt>
      <trkpt lat="45.85477" lon="6.22567">
        <ele>967</ele>
        <time>2010-04-23T17:48:29Z</time>
      </trkpt>
      <trkpt lat="45.85481" lon="6.22572">
        <ele>968</ele>
        <time>2010-04-23T17:48:31Z</time>
      </trkpt>
      <trkpt lat="45.85484" lon="6.22576">
        <ele>970</ele>
        <time>2010-04-23T17:48:33Z</time>
      </trkpt>
      <trkpt lat="45.85486" lon="6.2258">
        <ele>971</ele>
        <time>2010-04-23T17:48:35Z</time>
      </trkpt>
      <trkpt lat="45.85492" lon="6.22584">
        <ele>973</ele>
        <time>2010-04-23T17:48:37Z</time>
      </trkpt>
      <trkpt lat="45.85497" lon="6.22588">
        <ele>975</ele>
        <time>2010-04-23T17:48:39Z</time>
      </trkpt>
      <trkpt lat="45.855" lon="6.22593">
        <ele>977</ele>
        <time>2010-04-23T17:48:41Z</time>
      </trkpt>
      <trkpt lat="45.85501" lon="6.22597">
        <ele>978</ele>
        <time>2010-04-23T17:48:43Z</time>
      </trkpt>
      <trkpt lat="45.85503" lon="6.22602">
        <ele>978</ele>
        <time>2010-04-23T17:48:45Z</time>
      </trkpt>
      <trkpt lat="45.85503" lon="6.22607">
        <ele>978</ele>
        <time>2010-04-23T17:48:47Z</time>
      </trkpt>
      <trkpt lat="45.85502" lon="6.22613">
        <ele>978</ele>
        <time>2010-04-23T17:48:49Z</time>
      </trkpt>
      <trkpt lat="45.85503" lon="6.22617">
        <ele>978</ele>
        <time>2010-04-23T17:48:51Z</time>
      </trkpt>
      <trkpt lat="45.85504" lon="6.22623">
        <ele>978</ele>
        <time>2010-04-23T17:48:53Z</time>
      </trkpt>
      <trkpt lat="45.85505" lon="6.2263">
        <ele>978</ele>
        <time>2010-04-23T17:48:55Z</time>
      </trkpt>
      <trkpt lat="45.85505" lon="6.22636">
        <ele>978</ele>
        <time>2010-04-23T17:48:57Z</time>
      </trkpt>
      <trkpt lat="45.85505" lon="6.22641">
        <ele>978</ele>
        <time>2010-04-23T17:48:59Z</time>
      </trkpt>
      <trkpt lat="45.85503" lon="6.22647">
        <ele>978</ele>
        <time>2010-04-23T17:49:01Z</time>
      </trkpt>
      <trkpt lat="45.85502" lon="6.22652">
        <ele>979</ele>
        <time>2010-04-23T17:49:03Z</time>
      </trkpt>
      <trkpt lat="45.85501" lon="6.22658">
        <ele>981</ele>
        <time>2010-04-23T17:49:05Z</time>
      </trkpt>
      <trkpt lat="45.85498" lon="6.22665">
        <ele>982</ele>
        <time>2010-04-23T17:49:07Z</time>
      </trkpt>
      <trkpt lat="45.85495" lon="6.2267">
        <ele>984</ele>
        <time>2010-04-23T17:49:09Z</time>
      </trkpt>
      <trkpt lat="45.85494" lon="6.22675">
        <ele>985</ele>
        <time>2010-04-23T17:49:11Z</time>
      </trkpt>
      <trkpt lat="45.85492" lon="6.22681">
        <ele>985</ele>
        <time>2010-04-23T17:49:13Z</time>
      </trkpt>
      <trkpt lat="45.85489" lon="6.22685">
        <ele>985</ele>
        <time>2010-04-23T17:49:15Z</time>
      </trkpt>
      <trkpt lat="45.85485" lon="6.22691">
        <ele>985</ele>
        <time>2010-04-23T17:49:17Z</time>
      </trkpt>
      <trkpt lat="45.85482" lon="6.22696">
        <ele>986</ele>
        <time>2010-04-23T17:49:19Z</time>
      </trkpt>
      <trkpt lat="45.85479" lon="6.22699">
        <ele>986</ele>
        <time>2010-04-23T17:49:21Z</time>
      </trkpt>
      <trkpt lat="45.85476" lon="6.22704">
        <ele>987</ele>
        <time>2010-04-23T17:49:23Z</time>
      </trkpt>
      <trkpt lat="45.85472" lon="6.22709">
        <ele>987</ele>
        <time>2010-04-23T17:49:25Z</time>
      </trkpt>
      <trkpt lat="45.85469" lon="6.22714">
        <ele>989</ele>
        <time>2010-04-23T17:49:27Z</time>
      </trkpt>
      <trkpt lat="45.85466" lon="6.22718">
        <ele>991</ele>
        <time>2010-04-23T17:49:29Z</time>
      </trkpt>
      <trkpt lat="45.85464" lon="6.22721">
        <ele>992</ele>
        <time>2010-04-23T17:49:31Z</time>
      </trkpt>
      <trkpt lat="45.85462" lon="6.22725">
        <ele>993</ele>
        <time>2010-04-23T17:49:33Z</time>
      </trkpt>
      <trkpt lat="45.85459" lon="6.22731">
        <ele>993</ele>
        <time>2010-04-23T17:49:35Z</time>
      </trkpt>
      <trkpt lat="45.85456" lon="6.22734">
        <ele>993</ele>
        <time>2010-04-23T17:49:37Z</time>
      </trkpt>
      <trkpt lat="45.85453" lon="6.22739">
        <ele>995</ele>
        <time>2010-04-23T17:49:39Z</time>
      </trkpt>
      <trkpt lat="45.8545" lon="6.22743">
        <ele>997</ele>
        <time>2010-04-23T17:49:41Z</time>
      </trkpt>
      <trkpt lat="45.85447" lon="6.22747">
        <ele>999</ele>
        <time>2010-04-23T17:49:43Z</time>
      </trkpt>
      <trkpt lat="45.85446" lon="6.2275">
        <ele>1001</ele>
        <time>2010-04-23T17:49:45Z</time>
      </trkpt>
      <trkpt lat="45.85444" lon="6.22753">
        <ele>1003</ele>
        <time>2010-04-23T17:49:47Z</time>
      </trkpt>
      <trkpt lat="45.85441" lon="6.22756">
        <ele>1005</ele>
        <time>2010-04-23T17:49:49Z</time>
      </trkpt>
      <trkpt lat="45.85438" lon="6.22758">
        <ele>1007</ele>
        <time>2010-04-23T17:49:51Z</time>
      </trkpt>
      <trkpt lat="45.85437" lon="6.22761">
        <ele>1009</ele>
        <time>2010-04-23T17:49:53Z</time>
      </trkpt>
      <trkpt lat="45.85435" lon="6.22763">
        <ele>1011</ele>
        <time>2010-04-23T17:49:55Z</time>
      </trkpt>
      <trkpt lat="45.85433" lon="6.22764">
        <ele>1012</ele>
        <time>2010-04-23T17:49:57Z</time>
      </trkpt>
      <trkpt lat="45.85431" lon="6.22766">
        <ele>1012</ele>
        <time>2010-04-23T17:49:59Z</time>
      </trkpt>
      <trkpt lat="45.8543" lon="6.22769">
        <ele>1012</ele>
        <time>2010-04-23T17:50:01Z</time>
      </trkpt>
      <trkpt lat="45.85429" lon="6.22772">
        <ele>1012</ele>
        <time>2010-04-23T17:50:03Z</time>
      </trkpt>
      <trkpt lat="45.85428" lon="6.22776">
        <ele>1012</ele>
        <time>2010-04-23T17:50:05Z</time>
      </trkpt>
      <trkpt lat="45.85426" lon="6.2278">
        <ele>1012</ele>
        <time>2010-04-23T17:50:07Z</time>
      </trkpt>
      <trkpt lat="45.85424" lon="6.22784">
        <ele>1012</ele>
        <time>2010-04-23T17:50:09Z</time>
      </trkpt>
      <trkpt lat="45.85422" lon="6.22787">
        <ele>1012</ele>
        <time>2010-04-23T17:50:11Z</time>
      </trkpt>
      <trkpt lat="45.85419" lon="6.2279">
        <ele>1012</ele>
        <time>2010-04-23T17:50:14Z</time>
      </trkpt>
      <trkpt lat="45.85418" lon="6.22795">
        <ele>1011</ele>
        <time>2010-04-23T17:50:16Z</time>
      </trkpt>
      <trkpt lat="45.85416" lon="6.22798">
        <ele>1010</ele>
        <time>2010-04-23T17:50:19Z</time>
      </trkpt>
      <trkpt lat="45.85413" lon="6.22802">
        <ele>1010</ele>
        <time>2010-04-23T17:50:21Z</time>
      </trkpt>
      <trkpt lat="45.85411" lon="6.22804">
        <ele>1010</ele>
        <time>2010-04-23T17:50:23Z</time>
      </trkpt>
      <trkpt lat="45.8541" lon="6.22807">
        <ele>1010</ele>
        <time>2010-04-23T17:50:25Z</time>
      </trkpt>
      <trkpt lat="45.85408" lon="6.2281">
        <ele>1010</ele>
        <time>2010-04-23T17:50:28Z</time>
      </trkpt>
      <trkpt lat="45.85407" lon="6.22815">
        <ele>1010</ele>
        <time>2010-04-23T17:50:30Z</time>
      </trkpt>
      <trkpt lat="45.85406" lon="6.2282">
        <ele>1010</ele>
        <time>2010-04-23T17:50:32Z</time>
      </trkpt>
      <trkpt lat="45.85405" lon="6.22824">
        <ele>1010</ele>
        <time>2010-04-23T17:50:34Z</time>
      </trkpt>
      <trkpt lat="45.85404" lon="6.22827">
        <ele>1010</ele>
        <time>2010-04-23T17:50:36Z</time>
      </trkpt>
      <trkpt lat="45.85401" lon="6.22832">
        <ele>1010</ele>
        <time>2010-04-23T17:50:39Z</time>
      </trkpt>
      <trkpt lat="45.854" lon="6.22835">
        <ele>1011</ele>
        <time>2010-04-23T17:50:41Z</time>
      </trkpt>
      <trkpt lat="45.85398" lon="6.22839">
        <ele>1011</ele>
        <time>2010-04-23T17:50:44Z</time>
      </trkpt>
      <trkpt lat="45.85397" lon="6.22844">
        <ele>1011</ele>
        <time>2010-04-23T17:50:46Z</time>
      </trkpt>
      <trkpt lat="45.85396" lon="6.22847">
        <ele>1011</ele>
        <time>2010-04-23T17:50:48Z</time>
      </trkpt>
      <trkpt lat="45.85394" lon="6.22852">
        <ele>1012</ele>
        <time>2010-04-23T17:50:51Z</time>
      </trkpt>
      <trkpt lat="45.85393" lon="6.22856">
        <ele>1014</ele>
        <time>2010-04-23T17:50:53Z</time>
      </trkpt>
      <trkpt lat="45.85392" lon="6.22858">
        <ele>1014</ele>
        <time>2010-04-23T17:50:55Z</time>
      </trkpt>
      <trkpt lat="45.8539" lon="6.22861">
        <ele>1015</ele>
        <time>2010-04-23T17:50:57Z</time>
      </trkpt>
      <trkpt lat="45.85389" lon="6.22865">
        <ele>1015</ele>
        <time>2010-04-23T17:50:59Z</time>
      </trkpt>
      <trkpt lat="45.85388" lon="6.22871">
        <ele>1016</ele>
        <time>2010-04-23T17:51:02Z</time>
      </trkpt>
      <trkpt lat="45.85387" lon="6.22874">
        <ele>1017</ele>
        <time>2010-04-23T17:51:04Z</time>
      </trkpt>
      <trkpt lat="45.85389" lon="6.2288">
        <ele>1019</ele>
        <time>2010-04-23T17:51:09Z</time>
      </trkpt>
      <trkpt lat="45.85388" lon="6.22884">
        <ele>1020</ele>
        <time>2010-04-23T17:51:12Z</time>
      </trkpt>
      <trkpt lat="45.85389" lon="6.22888">
        <ele>1021</ele>
        <time>2010-04-23T17:51:14Z</time>
      </trkpt>
      <trkpt lat="45.85389" lon="6.22892">
        <ele>1021</ele>
        <time>2010-04-23T17:51:16Z</time>
      </trkpt>
      <trkpt lat="45.85391" lon="6.22896">
        <ele>1021</ele>
        <time>2010-04-23T17:51:18Z</time>
      </trkpt>
      <trkpt lat="45.85391" lon="6.22902">
        <ele>1021</ele>
        <time>2010-04-23T17:51:20Z</time>
      </trkpt>
      <trkpt lat="45.85389" lon="6.22905">
        <ele>1022</ele>
        <time>2010-04-23T17:51:22Z</time>
      </trkpt>
      <trkpt lat="45.8539" lon="6.22909">
        <ele>1024</ele>
        <time>2010-04-23T17:51:24Z</time>
      </trkpt>
      <trkpt lat="45.85392" lon="6.22913">
        <ele>1026</ele>
        <time>2010-04-23T17:51:26Z</time>
      </trkpt>
      <trkpt lat="45.85393" lon="6.22918">
        <ele>1028</ele>
        <time>2010-04-23T17:51:28Z</time>
      </trkpt>
      <trkpt lat="45.85395" lon="6.22921">
        <ele>1030</ele>
        <time>2010-04-23T17:51:30Z</time>
      </trkpt>
      <trkpt lat="45.85398" lon="6.22925">
        <ele>1033</ele>
        <time>2010-04-23T17:51:33Z</time>
      </trkpt>
      <trkpt lat="45.85397" lon="6.22929">
        <ele>1034</ele>
        <time>2010-04-23T17:51:35Z</time>
      </trkpt>
      <trkpt lat="45.85397" lon="6.22931">
        <ele>1035</ele>
        <time>2010-04-23T17:51:37Z</time>
      </trkpt>
      <trkpt lat="45.85396" lon="6.22933">
        <ele>1035</ele>
        <time>2010-04-23T17:51:39Z</time>
      </trkpt>
      <trkpt lat="45.85396" lon="6.22936">
        <ele>1036</ele>
        <time>2010-04-23T17:51:42Z</time>
      </trkpt>
      <trkpt lat="45.85396" lon="6.22939">
        <ele>1036</ele>
        <time>2010-04-23T17:51:44Z</time>
      </trkpt>
      <trkpt lat="45.85395" lon="6.22942">
        <ele>1037</ele>
        <time>2010-04-23T17:51:46Z</time>
      </trkpt>
      <trkpt lat="45.85396" lon="6.22944">
        <ele>1038</ele>
        <time>2010-04-23T17:51:48Z</time>
      </trkpt>
      <trkpt lat="45.85396" lon="6.22948">
        <ele>1039</ele>
        <time>2010-04-23T17:51:50Z</time>
      </trkpt>
      <trkpt lat="45.85396" lon="6.22951">
        <ele>1040</ele>
        <time>2010-04-23T17:51:52Z</time>
      </trkpt>
      <trkpt lat="45.85396" lon="6.22953">
        <ele>1042</ele>
        <time>2010-04-23T17:51:54Z</time>
      </trkpt>
      <trkpt lat="45.85397" lon="6.22956">
        <ele>1043</ele>
        <time>2010-04-23T17:51:56Z</time>
      </trkpt>
      <trkpt lat="45.85399" lon="6.2296">
        <ele>1044</ele>
        <time>2010-04-23T17:51:59Z</time>
      </trkpt>
      <trkpt lat="45.85399" lon="6.22962">
        <ele>1044</ele>
        <time>2010-04-23T17:52:01Z</time>
      </trkpt>
      <trkpt lat="45.85398" lon="6.22965">
        <ele>1044</ele>
        <time>2010-04-23T17:52:03Z</time>
      </trkpt>
      <trkpt lat="45.85397" lon="6.22969">
        <ele>1046</ele>
        <time>2010-04-23T17:52:06Z</time>
      </trkpt>
      <trkpt lat="45.85397" lon="6.22974">
        <ele>1048</ele>
        <time>2010-04-23T17:52:10Z</time>
      </trkpt>
      <trkpt lat="45.85397" lon="6.22977">
        <ele>1048</ele>
        <time>2010-04-23T17:52:12Z</time>
      </trkpt>
      <trkpt lat="45.85397" lon="6.2298">
        <ele>1050</ele>
        <time>2010-04-23T17:52:14Z</time>
      </trkpt>
      <trkpt lat="45.85398" lon="6.22981">
        <ele>1050</ele>
        <time>2010-04-23T17:52:16Z</time>
      </trkpt>
      <trkpt lat="45.85397" lon="6.22981">
        <ele>1055</ele>
        <time>2010-04-23T17:52:21Z</time>
      </trkpt>
      <trkpt lat="45.85395" lon="6.22982">
        <ele>1057</ele>
        <time>2010-04-23T17:52:24Z</time>
      </trkpt>
      <trkpt lat="45.85396" lon="6.22984">
        <ele>1057</ele>
        <time>2010-04-23T17:52:29Z</time>
      </trkpt>
      <trkpt lat="45.85397" lon="6.22989">
        <ele>1057</ele>
        <time>2010-04-23T17:52:33Z</time>
      </trkpt>
      <trkpt lat="45.85397" lon="6.2299">
        <ele>1058</ele>
        <time>2010-04-23T17:52:37Z</time>
      </trkpt>
      <trkpt lat="45.85398" lon="6.22992">
        <ele>1058</ele>
        <time>2010-04-23T17:52:39Z</time>
      </trkpt>
      <trkpt lat="45.85399" lon="6.22994">
        <ele>1059</ele>
        <time>2010-04-23T17:52:41Z</time>
      </trkpt>
      <trkpt lat="45.85399" lon="6.22997">
        <ele>1060</ele>
        <time>2010-04-23T17:52:43Z</time>
      </trkpt>
      <trkpt lat="45.854" lon="6.22999">
        <ele>1061</ele>
        <time>2010-04-23T17:52:45Z</time>
      </trkpt>
      <trkpt lat="45.85401" lon="6.22998">
        <ele>1063</ele>
        <time>2010-04-23T17:52:48Z</time>
      </trkpt>
      <trkpt lat="45.85402" lon="6.23">
        <ele>1065</ele>
        <time>2010-04-23T17:52:51Z</time>
      </trkpt>
      <trkpt lat="45.85402" lon="6.23002">
        <ele>1067</ele>
        <time>2010-04-23T17:52:53Z</time>
      </trkpt>
      <trkpt lat="45.85403" lon="6.23005">
        <ele>1068</ele>
        <time>2010-04-23T17:52:55Z</time>
      </trkpt>
      <trkpt lat="45.85404" lon="6.23007">
        <ele>1069</ele>
        <time>2010-04-23T17:52:57Z</time>
      </trkpt>
      <trkpt lat="45.85406" lon="6.23008">
        <ele>1069</ele>
        <time>2010-04-23T17:52:59Z</time>
      </trkpt>
      <trkpt lat="45.85408" lon="6.23008">
        <ele>1069</ele>
        <time>2010-04-23T17:53:01Z</time>
      </trkpt>
      <trkpt lat="45.8541" lon="6.23008">
        <ele>1069</ele>
        <time>2010-04-23T17:53:03Z</time>
      </trkpt>
      <trkpt lat="45.85412" lon="6.23009">
        <ele>1069</ele>
        <time>2010-04-23T17:53:06Z</time>
      </trkpt>
      <trkpt lat="45.85414" lon="6.23009">
        <ele>1069</ele>
        <time>2010-04-23T17:53:08Z</time>
      </trkpt>
      <trkpt lat="45.85416" lon="6.23011">
        <ele>1069</ele>
        <time>2010-04-23T17:53:10Z</time>
      </trkpt>
      <trkpt lat="45.85418" lon="6.23013">
        <ele>1069</ele>
        <time>2010-04-23T17:53:12Z</time>
      </trkpt>
      <trkpt lat="45.85418" lon="6.23016">
        <ele>1069</ele>
        <time>2010-04-23T17:53:14Z</time>
      </trkpt>
      <trkpt lat="45.85418" lon="6.23018">
        <ele>1069</ele>
        <time>2010-04-23T17:53:17Z</time>
      </trkpt>
      <trkpt lat="45.85417" lon="6.23019">
        <ele>1069</ele>
        <time>2010-04-23T17:53:21Z</time>
      </trkpt>
      <trkpt lat="45.85418" lon="6.23019">
        <ele>1069</ele>
        <time>2010-04-23T17:53:27Z</time>
      </trkpt>
      <trkpt lat="45.8542" lon="6.2302">
        <ele>1069</ele>
        <time>2010-04-23T17:53:31Z</time>
      </trkpt>
      <trkpt lat="45.8542" lon="6.23024">
        <ele>1069</ele>
        <time>2010-04-23T17:53:35Z</time>
      </trkpt>
      <trkpt lat="45.85421" lon="6.23025">
        <ele>1069</ele>
        <time>2010-04-23T17:53:37Z</time>
      </trkpt>
      <trkpt lat="45.85422" lon="6.23028">
        <ele>1069</ele>
        <time>2010-04-23T17:53:39Z</time>
      </trkpt>
      <trkpt lat="45.85423" lon="6.23029">
        <ele>1069</ele>
        <time>2010-04-23T17:53:41Z</time>
      </trkpt>
      <trkpt lat="45.85424" lon="6.23032">
        <ele>1069</ele>
        <time>2010-04-23T17:53:43Z</time>
      </trkpt>
      <trkpt lat="45.85425" lon="6.23035">
        <ele>1069</ele>
        <time>2010-04-23T17:53:45Z</time>
      </trkpt>
      <trkpt lat="45.85426" lon="6.23038">
        <ele>1069</ele>
        <time>2010-04-23T17:53:47Z</time>
      </trkpt>
      <trkpt lat="45.85427" lon="6.2304">
        <ele>1069</ele>
        <time>2010-04-23T17:53:49Z</time>
      </trkpt>
      <trkpt lat="45.85428" lon="6.23042">
        <ele>1069</ele>
        <time>2010-04-23T17:53:51Z</time>
      </trkpt>
      <trkpt lat="45.8543" lon="6.23045">
        <ele>1070</ele>
        <time>2010-04-23T17:53:53Z</time>
      </trkpt>
      <trkpt lat="45.85431" lon="6.23048">
        <ele>1070</ele>
        <time>2010-04-23T17:53:55Z</time>
      </trkpt>
      <trkpt lat="45.85432" lon="6.23052">
        <ele>1070</ele>
        <time>2010-04-23T17:53:57Z</time>
      </trkpt>
      <trkpt lat="45.85433" lon="6.23055">
        <ele>1071</ele>
        <time>2010-04-23T17:53:59Z</time>
      </trkpt>
      <trkpt lat="45.85435" lon="6.23057">
        <ele>1071</ele>
        <time>2010-04-23T17:54:01Z</time>
      </trkpt>
      <trkpt lat="45.85437" lon="6.2306">
        <ele>1071</ele>
        <time>2010-04-23T17:54:03Z</time>
      </trkpt>
      <trkpt lat="45.85437" lon="6.23062">
        <ele>1071</ele>
        <time>2010-04-23T17:54:05Z</time>
      </trkpt>
      <trkpt lat="45.85438" lon="6.23065">
        <ele>1071</ele>
        <time>2010-04-23T17:54:07Z</time>
      </trkpt>
      <trkpt lat="45.8544" lon="6.23069">
        <ele>1073</ele>
        <time>2010-04-23T17:54:09Z</time>
      </trkpt>
      <trkpt lat="45.85441" lon="6.23072">
        <ele>1076</ele>
        <time>2010-04-23T17:54:12Z</time>
      </trkpt>
      <trkpt lat="45.85442" lon="6.23076">
        <ele>1079</ele>
        <time>2010-04-23T17:54:15Z</time>
      </trkpt>
      <trkpt lat="45.85444" lon="6.23079">
        <ele>1081</ele>
        <time>2010-04-23T17:54:17Z</time>
      </trkpt>
      <trkpt lat="45.85445" lon="6.23082">
        <ele>1082</ele>
        <time>2010-04-23T17:54:19Z</time>
      </trkpt>
      <trkpt lat="45.85448" lon="6.23087">
        <ele>1083</ele>
        <time>2010-04-23T17:54:22Z</time>
      </trkpt>
      <trkpt lat="45.85448" lon="6.23091">
        <ele>1085</ele>
        <time>2010-04-23T17:54:24Z</time>
      </trkpt>
      <trkpt lat="45.85449" lon="6.23095">
        <ele>1087</ele>
        <time>2010-04-23T17:54:26Z</time>
      </trkpt>
      <trkpt lat="45.8545" lon="6.23099">
        <ele>1089</ele>
        <time>2010-04-23T17:54:28Z</time>
      </trkpt>
      <trkpt lat="45.85451" lon="6.23102">
        <ele>1091</ele>
        <time>2010-04-23T17:54:30Z</time>
      </trkpt>
      <trkpt lat="45.85452" lon="6.23107">
        <ele>1093</ele>
        <time>2010-04-23T17:54:32Z</time>
      </trkpt>
      <trkpt lat="45.85453" lon="6.23111">
        <ele>1095</ele>
        <time>2010-04-23T17:54:35Z</time>
      </trkpt>
      <trkpt lat="45.85456" lon="6.23116">
        <ele>1095</ele>
        <time>2010-04-23T17:54:37Z</time>
      </trkpt>
      <trkpt lat="45.85458" lon="6.23122">
        <ele>1095</ele>
        <time>2010-04-23T17:54:40Z</time>
      </trkpt>
      <trkpt lat="45.85457" lon="6.23131">
        <ele>1095</ele>
        <time>2010-04-23T17:54:43Z</time>
      </trkpt>
      <trkpt lat="45.85457" lon="6.23137">
        <ele>1095</ele>
        <time>2010-04-23T17:54:45Z</time>
      </trkpt>
      <trkpt lat="45.85459" lon="6.23143">
        <ele>1094</ele>
        <time>2010-04-23T17:54:47Z</time>
      </trkpt>
      <trkpt lat="45.85461" lon="6.23149">
        <ele>1093</ele>
        <time>2010-04-23T17:54:49Z</time>
      </trkpt>
      <trkpt lat="45.85463" lon="6.23155">
        <ele>1093</ele>
        <time>2010-04-23T17:54:51Z</time>
      </trkpt>
      <trkpt lat="45.85464" lon="6.23161">
        <ele>1093</ele>
        <time>2010-04-23T17:54:53Z</time>
      </trkpt>
      <trkpt lat="45.85467" lon="6.23165">
        <ele>1092</ele>
        <time>2010-04-23T17:54:55Z</time>
      </trkpt>
      <trkpt lat="45.85471" lon="6.23173">
        <ele>1092</ele>
        <time>2010-04-23T17:54:58Z</time>
      </trkpt>
      <trkpt lat="45.85474" lon="6.23178">
        <ele>1091</ele>
        <time>2010-04-23T17:55:00Z</time>
      </trkpt>
      <trkpt lat="45.85477" lon="6.23184">
        <ele>1090</ele>
        <time>2010-04-23T17:55:02Z</time>
      </trkpt>
      <trkpt lat="45.8548" lon="6.23191">
        <ele>1089</ele>
        <time>2010-04-23T17:55:04Z</time>
      </trkpt>
      <trkpt lat="45.85483" lon="6.23197">
        <ele>1088</ele>
        <time>2010-04-23T17:55:06Z</time>
      </trkpt>
      <trkpt lat="45.85486" lon="6.23203">
        <ele>1087</ele>
        <time>2010-04-23T17:55:08Z</time>
      </trkpt>
      <trkpt lat="45.85487" lon="6.23209">
        <ele>1087</ele>
        <time>2010-04-23T17:55:10Z</time>
      </trkpt>
      <trkpt lat="45.85487" lon="6.23214">
        <ele>1087</ele>
        <time>2010-04-23T17:55:12Z</time>
      </trkpt>
      <trkpt lat="45.8549" lon="6.23219">
        <ele>1087</ele>
        <time>2010-04-23T17:55:14Z</time>
      </trkpt>
      <trkpt lat="45.85494" lon="6.23222">
        <ele>1087</ele>
        <time>2010-04-23T17:55:16Z</time>
      </trkpt>
      <trkpt lat="45.85495" lon="6.23225">
        <ele>1087</ele>
        <time>2010-04-23T17:55:19Z</time>
      </trkpt>
      <trkpt lat="45.85495" lon="6.2323">
        <ele>1087</ele>
        <time>2010-04-23T17:55:21Z</time>
      </trkpt>
      <trkpt lat="45.85495" lon="6.23234">
        <ele>1088</ele>
        <time>2010-04-23T17:55:23Z</time>
      </trkpt>
      <trkpt lat="45.85494" lon="6.23237">
        <ele>1088</ele>
        <time>2010-04-23T17:55:25Z</time>
      </trkpt>
      <trkpt lat="45.85493" lon="6.23243">
        <ele>1088</ele>
        <time>2010-04-23T17:55:27Z</time>
      </trkpt>
      <trkpt lat="45.85492" lon="6.23247">
        <ele>1088</ele>
        <time>2010-04-23T17:55:29Z</time>
      </trkpt>
      <trkpt lat="45.8549" lon="6.23253">
        <ele>1088</ele>
        <time>2010-04-23T17:55:31Z</time>
      </trkpt>
      <trkpt lat="45.85487" lon="6.23259">
        <ele>1088</ele>
        <time>2010-04-23T17:55:33Z</time>
      </trkpt>
      <trkpt lat="45.85484" lon="6.2327">
        <ele>1089</ele>
        <time>2010-04-23T17:55:36Z</time>
      </trkpt>
      <trkpt lat="45.85482" lon="6.23277">
        <ele>1089</ele>
        <time>2010-04-23T17:55:38Z</time>
      </trkpt>
      <trkpt lat="45.85478" lon="6.23288">
        <ele>1089</ele>
        <time>2010-04-23T17:55:41Z</time>
      </trkpt>
      <trkpt lat="45.85472" lon="6.23293">
        <ele>1089</ele>
        <time>2010-04-23T17:55:43Z</time>
      </trkpt>
      <trkpt lat="45.85468" lon="6.23297">
        <ele>1089</ele>
        <time>2010-04-23T17:55:45Z</time>
      </trkpt>
      <trkpt lat="45.85463" lon="6.23301">
        <ele>1089</ele>
        <time>2010-04-23T17:55:47Z</time>
      </trkpt>
      <trkpt lat="45.85459" lon="6.23306">
        <ele>1089</ele>
        <time>2010-04-23T17:55:49Z</time>
      </trkpt>
      <trkpt lat="45.85453" lon="6.23308">
        <ele>1089</ele>
        <time>2010-04-23T17:55:51Z</time>
      </trkpt>
      <trkpt lat="45.85446" lon="6.23312">
        <ele>1089</ele>
        <time>2010-04-23T17:55:53Z</time>
      </trkpt>
      <trkpt lat="45.85441" lon="6.23316">
        <ele>1089</ele>
        <time>2010-04-23T17:55:55Z</time>
      </trkpt>
      <trkpt lat="45.85431" lon="6.23323">
        <ele>1089</ele>
        <time>2010-04-23T17:55:58Z</time>
      </trkpt>
      <trkpt lat="45.85428" lon="6.23331">
        <ele>1089</ele>
        <time>2010-04-23T17:56:00Z</time>
      </trkpt>
      <trkpt lat="45.85423" lon="6.23346">
        <ele>1089</ele>
        <time>2010-04-23T17:56:03Z</time>
      </trkpt>
      <trkpt lat="45.85421" lon="6.23363">
        <ele>1089</ele>
        <time>2010-04-23T17:56:06Z</time>
      </trkpt>
      <trkpt lat="45.85411" lon="6.23361">
        <ele>1089</ele>
        <time>2010-04-23T17:56:09Z</time>
      </trkpt>
      <trkpt lat="45.85404" lon="6.2336">
        <ele>1089</ele>
        <time>2010-04-23T17:56:11Z</time>
      </trkpt>
      <trkpt lat="45.85398" lon="6.23358">
        <ele>1089</ele>
        <time>2010-04-23T17:56:13Z</time>
      </trkpt>
      <trkpt lat="45.85392" lon="6.23357">
        <ele>1089</ele>
        <time>2010-04-23T17:56:15Z</time>
      </trkpt>
      <trkpt lat="45.85387" lon="6.23355">
        <ele>1089</ele>
        <time>2010-04-23T17:56:17Z</time>
      </trkpt>
      <trkpt lat="45.8538" lon="6.23351">
        <ele>1089</ele>
        <time>2010-04-23T17:56:20Z</time>
      </trkpt>
      <trkpt lat="45.85375" lon="6.2335">
        <ele>1089</ele>
        <time>2010-04-23T17:56:22Z</time>
      </trkpt>
      <trkpt lat="45.85365" lon="6.23347">
        <ele>1089</ele>
        <time>2010-04-23T17:56:25Z</time>
      </trkpt>
      <trkpt lat="45.85359" lon="6.23343">
        <ele>1089</ele>
        <time>2010-04-23T17:56:27Z</time>
      </trkpt>
      <trkpt lat="45.85355" lon="6.23339">
        <ele>1089</ele>
        <time>2010-04-23T17:56:29Z</time>
      </trkpt>
      <trkpt lat="45.85347" lon="6.23329">
        <ele>1088</ele>
        <time>2010-04-23T17:56:32Z</time>
      </trkpt>
      <trkpt lat="45.85339" lon="6.23321">
        <ele>1086</ele>
        <time>2010-04-23T17:56:35Z</time>
      </trkpt>
      <trkpt lat="45.85333" lon="6.23317">
        <ele>1086</ele>
        <time>2010-04-23T17:56:37Z</time>
      </trkpt>
      <trkpt lat="45.85326" lon="6.23312">
        <ele>1085</ele>
        <time>2010-04-23T17:56:39Z</time>
      </trkpt>
      <trkpt lat="45.8532" lon="6.23309">
        <ele>1084</ele>
        <time>2010-04-23T17:56:41Z</time>
      </trkpt>
      <trkpt lat="45.85314" lon="6.23307">
        <ele>1083</ele>
        <time>2010-04-23T17:56:43Z</time>
      </trkpt>
      <trkpt lat="45.85306" lon="6.23311">
        <ele>1081</ele>
        <time>2010-04-23T17:56:46Z</time>
      </trkpt>
      <trkpt lat="45.85299" lon="6.23313">
        <ele>1080</ele>
        <time>2010-04-23T17:56:48Z</time>
      </trkpt>
      <trkpt lat="45.85291" lon="6.23309">
        <ele>1078</ele>
        <time>2010-04-23T17:56:51Z</time>
      </trkpt>
      <trkpt lat="45.85286" lon="6.23306">
        <ele>1077</ele>
        <time>2010-04-23T17:56:53Z</time>
      </trkpt>
      <trkpt lat="45.85281" lon="6.23304">
        <ele>1077</ele>
        <time>2010-04-23T17:56:55Z</time>
      </trkpt>
      <trkpt lat="45.85274" lon="6.23305">
        <ele>1077</ele>
        <time>2010-04-23T17:56:58Z</time>
      </trkpt>
      <trkpt lat="45.85264" lon="6.23305">
        <ele>1077</ele>
        <time>2010-04-23T17:57:01Z</time>
      </trkpt>
      <trkpt lat="45.85259" lon="6.23302">
        <ele>1077</ele>
        <time>2010-04-23T17:57:03Z</time>
      </trkpt>
      <trkpt lat="45.8525" lon="6.23297">
        <ele>1077</ele>
        <time>2010-04-23T17:57:06Z</time>
      </trkpt>
      <trkpt lat="45.85243" lon="6.23291">
        <ele>1079</ele>
        <time>2010-04-23T17:57:08Z</time>
      </trkpt>
      <trkpt lat="45.85237" lon="6.23287">
        <ele>1081</ele>
        <time>2010-04-23T17:57:10Z</time>
      </trkpt>
      <trkpt lat="45.85231" lon="6.23284">
        <ele>1082</ele>
        <time>2010-04-23T17:57:12Z</time>
      </trkpt>
      <trkpt lat="45.85226" lon="6.23284">
        <ele>1083</ele>
        <time>2010-04-23T17:57:14Z</time>
      </trkpt>
      <trkpt lat="45.85221" lon="6.23288">
        <ele>1083</ele>
        <time>2010-04-23T17:57:16Z</time>
      </trkpt>
      <trkpt lat="45.85218" lon="6.2329">
        <ele>1084</ele>
        <time>2010-04-23T17:57:18Z</time>
      </trkpt>
      <trkpt lat="45.85214" lon="6.23291">
        <ele>1086</ele>
        <time>2010-04-23T17:57:20Z</time>
      </trkpt>
      <trkpt lat="45.85209" lon="6.23293">
        <ele>1087</ele>
        <time>2010-04-23T17:57:22Z</time>
      </trkpt>
      <trkpt lat="45.85204" lon="6.23295">
        <ele>1088</ele>
        <time>2010-04-23T17:57:24Z</time>
      </trkpt>
      <trkpt lat="45.852" lon="6.23296">
        <ele>1088</ele>
        <time>2010-04-23T17:57:26Z</time>
      </trkpt>
      <trkpt lat="45.85195" lon="6.23297">
        <ele>1088</ele>
        <time>2010-04-23T17:57:28Z</time>
      </trkpt>
      <trkpt lat="45.85191" lon="6.233">
        <ele>1088</ele>
        <time>2010-04-23T17:57:30Z</time>
      </trkpt>
      <trkpt lat="45.85186" lon="6.23302">
        <ele>1088</ele>
        <time>2010-04-23T17:57:32Z</time>
      </trkpt>
      <trkpt lat="45.85181" lon="6.23306">
        <ele>1088</ele>
        <time>2010-04-23T17:57:34Z</time>
      </trkpt>
      <trkpt lat="45.85176" lon="6.2331">
        <ele>1088</ele>
        <time>2010-04-23T17:57:36Z</time>
      </trkpt>
      <trkpt lat="45.85171" lon="6.23313">
        <ele>1088</ele>
        <time>2010-04-23T17:57:38Z</time>
      </trkpt>
      <trkpt lat="45.85167" lon="6.23315">
        <ele>1088</ele>
        <time>2010-04-23T17:57:40Z</time>
      </trkpt>
      <trkpt lat="45.85163" lon="6.23318">
        <ele>1088</ele>
        <time>2010-04-23T17:57:42Z</time>
      </trkpt>
      <trkpt lat="45.85156" lon="6.23327">
        <ele>1088</ele>
        <time>2010-04-23T17:57:45Z</time>
      </trkpt>
      <trkpt lat="45.85152" lon="6.23335">
        <ele>1088</ele>
        <time>2010-04-23T17:57:47Z</time>
      </trkpt>
      <trkpt lat="45.85148" lon="6.23343">
        <ele>1088</ele>
        <time>2010-04-23T17:57:49Z</time>
      </trkpt>
      <trkpt lat="45.85145" lon="6.2335">
        <ele>1088</ele>
        <time>2010-04-23T17:57:51Z</time>
      </trkpt>
      <trkpt lat="45.85142" lon="6.23356">
        <ele>1087</ele>
        <time>2010-04-23T17:57:53Z</time>
      </trkpt>
      <trkpt lat="45.85132" lon="6.23363">
        <ele>1086</ele>
        <time>2010-04-23T17:57:56Z</time>
      </trkpt>
      <trkpt lat="45.85123" lon="6.23369">
        <ele>1086</ele>
        <time>2010-04-23T17:57:59Z</time>
      </trkpt>
      <trkpt lat="45.85118" lon="6.23372">
        <ele>1086</ele>
        <time>2010-04-23T17:58:01Z</time>
      </trkpt>
      <trkpt lat="45.85113" lon="6.23374">
        <ele>1086</ele>
        <time>2010-04-23T17:58:03Z</time>
      </trkpt>
      <trkpt lat="45.85105" lon="6.2338">
        <ele>1086</ele>
        <time>2010-04-23T17:58:06Z</time>
      </trkpt>
      <trkpt lat="45.85097" lon="6.23387">
        <ele>1086</ele>
        <time>2010-04-23T17:58:09Z</time>
      </trkpt>
      <trkpt lat="45.85091" lon="6.23391">
        <ele>1084</ele>
        <time>2010-04-23T17:58:11Z</time>
      </trkpt>
      <trkpt lat="45.85083" lon="6.23398">
        <ele>1081</ele>
        <time>2010-04-23T17:58:14Z</time>
      </trkpt>
      <trkpt lat="45.85075" lon="6.23407">
        <ele>1078</ele>
        <time>2010-04-23T17:58:17Z</time>
      </trkpt>
      <trkpt lat="45.8507" lon="6.23415">
        <ele>1075</ele>
        <time>2010-04-23T17:58:20Z</time>
      </trkpt>
      <trkpt lat="45.85066" lon="6.2342">
        <ele>1073</ele>
        <time>2010-04-23T17:58:22Z</time>
      </trkpt>
      <trkpt lat="45.85058" lon="6.23428">
        <ele>1070</ele>
        <time>2010-04-23T17:58:25Z</time>
      </trkpt>
      <trkpt lat="45.85052" lon="6.23433">
        <ele>1068</ele>
        <time>2010-04-23T17:58:27Z</time>
      </trkpt>
      <trkpt lat="45.85045" lon="6.23441">
        <ele>1067</ele>
        <time>2010-04-23T17:58:30Z</time>
      </trkpt>
      <trkpt lat="45.85041" lon="6.23443">
        <ele>1067</ele>
        <time>2010-04-23T17:58:32Z</time>
      </trkpt>
      <trkpt lat="45.85039" lon="6.23446">
        <ele>1067</ele>
        <time>2010-04-23T17:58:37Z</time>
      </trkpt>
      <trkpt lat="45.85037" lon="6.23449">
        <ele>1067</ele>
        <time>2010-04-23T17:58:39Z</time>
      </trkpt>
      <trkpt lat="45.85033" lon="6.23454">
        <ele>1067</ele>
        <time>2010-04-23T17:58:42Z</time>
      </trkpt>
      <trkpt lat="45.8503" lon="6.2346">
        <ele>1067</ele>
        <time>2010-04-23T17:58:44Z</time>
      </trkpt>
      <trkpt lat="45.85027" lon="6.23466">
        <ele>1067</ele>
        <time>2010-04-23T17:58:46Z</time>
      </trkpt>
      <trkpt lat="45.85022" lon="6.23475">
        <ele>1065</ele>
        <time>2010-04-23T17:58:49Z</time>
      </trkpt>
      <trkpt lat="45.85015" lon="6.23486">
        <ele>1063</ele>
        <time>2010-04-23T17:58:52Z</time>
      </trkpt>
      <trkpt lat="45.85012" lon="6.23492">
        <ele>1062</ele>
        <time>2010-04-23T17:58:54Z</time>
      </trkpt>
      <trkpt lat="45.85008" lon="6.235">
        <ele>1061</ele>
        <time>2010-04-23T17:58:57Z</time>
      </trkpt>
      <trkpt lat="45.85007" lon="6.23502">
        <ele>1061</ele>
        <time>2010-04-23T17:59:00Z</time>
      </trkpt>
      <trkpt lat="45.85005" lon="6.23501">
        <ele>1061</ele>
        <time>2010-04-23T17:59:06Z</time>
      </trkpt>
      <trkpt lat="45.85004" lon="6.23503">
        <ele>1060</ele>
        <time>2010-04-23T17:59:16Z</time>
      </trkpt>
      <trkpt lat="45.85004" lon="6.23504">
        <ele>1059</ele>
        <time>2010-04-23T17:59:18Z</time>
      </trkpt>
      <trkpt lat="45.85003" lon="6.23508">
        <ele>1058</ele>
        <time>2010-04-23T17:59:24Z</time>
      </trkpt>
      <trkpt lat="45.85002" lon="6.23509">
        <ele>1058</ele>
        <time>2010-04-23T17:59:27Z</time>
      </trkpt>
      <trkpt lat="45.85" lon="6.2351">
        <ele>1060</ele>
        <time>2010-04-23T17:59:30Z</time>
      </trkpt>
      <trkpt lat="45.85001" lon="6.23508">
        <ele>1062</ele>
        <time>2010-04-23T17:59:33Z</time>
      </trkpt>
      <trkpt lat="45.85002" lon="6.23506">
        <ele>1062</ele>
        <time>2010-04-23T17:59:36Z</time>
      </trkpt>
      <trkpt lat="45.85002" lon="6.23505">
        <ele>1062</ele>
        <time>2010-04-23T17:59:39Z</time>
      </trkpt>
      <trkpt lat="45.85002" lon="6.23503">
        <ele>1062</ele>
        <time>2010-04-23T17:59:42Z</time>
      </trkpt>
      <trkpt lat="45.85003" lon="6.23501">
        <ele>1061</ele>
        <time>2010-04-23T17:59:47Z</time>
      </trkpt>
      <trkpt lat="45.85001" lon="6.23501">
        <ele>1060</ele>
        <time>2010-04-23T17:59:52Z</time>
      </trkpt>
      <trkpt lat="45.85" lon="6.235">
        <ele>1060</ele>
        <time>2010-04-23T17:59:56Z</time>
      </trkpt>
      <trkpt lat="45.85" lon="6.23498">
        <ele>1060</ele>
        <time>2010-04-23T18:00:00Z</time>
      </trkpt>
      <trkpt lat="45.85" lon="6.23497">
        <ele>1060</ele>
        <time>2010-04-23T18:00:04Z</time>
      </trkpt>
      <trkpt lat="45.84999" lon="6.23496">
        <ele>1061</ele>
        <time>2010-04-23T18:00:07Z</time>
      </trkpt>
      <trkpt lat="45.84997" lon="6.23496">
        <ele>1064</ele>
        <time>2010-04-23T18:00:11Z</time>
      </trkpt>
      <trkpt lat="45.84996" lon="6.23494">
        <ele>1067</ele>
        <time>2010-04-23T18:00:18Z</time>
      </trkpt>
      <trkpt lat="45.84997" lon="6.23496">
        <ele>1067</ele>
        <time>2010-04-23T18:00:23Z</time>
      </trkpt>
      <trkpt lat="45.84997" lon="6.23498">
        <ele>1067</ele>
        <time>2010-04-23T18:00:25Z</time>
      </trkpt>
      <trkpt lat="45.84997" lon="6.235">
        <ele>1067</ele>
        <time>2010-04-23T18:00:28Z</time>
      </trkpt>
      <trkpt lat="45.84998" lon="6.23501">
        <ele>1067</ele>
        <time>2010-04-23T18:00:33Z</time>
      </trkpt>
      <trkpt lat="45.84998" lon="6.23503">
        <ele>1067</ele>
        <time>2010-04-23T18:00:40Z</time>
      </trkpt>
      <trkpt lat="45.84998" lon="6.23501">
        <ele>1068</ele>
        <time>2010-04-23T18:00:44Z</time>
      </trkpt>
      <trkpt lat="45.84998" lon="6.23499">
        <ele>1068</ele>
        <time>2010-04-23T18:00:49Z</time>
      </trkpt>
      <trkpt lat="45.84999" lon="6.23497">
        <ele>1068</ele>
        <time>2010-04-23T18:00:52Z</time>
      </trkpt>
      <trkpt lat="45.84998" lon="6.23499">
        <ele>1068</ele>
        <time>2010-04-23T18:00:55Z</time>
      </trkpt>
      <trkpt lat="45.84998" lon="6.23501">
        <ele>1068</ele>
        <time>2010-04-23T18:00:57Z</time>
      </trkpt>
      <trkpt lat="45.84998" lon="6.23505">
        <ele>1068</ele>
        <time>2010-04-23T18:00:59Z</time>
      </trkpt>
      <trkpt lat="45.84998" lon="6.2351">
        <ele>1068</ele>
        <time>2010-04-23T18:01:01Z</time>
      </trkpt>
      <trkpt lat="45.84998" lon="6.23515">
        <ele>1067</ele>
        <time>2010-04-23T18:01:03Z</time>
      </trkpt>
      <trkpt lat="45.84995" lon="6.23518">
        <ele>1067</ele>
        <time>2010-04-23T18:01:05Z</time>
      </trkpt>
      <trkpt lat="45.84992" lon="6.23525">
        <ele>1067</ele>
        <time>2010-04-23T18:01:08Z</time>
      </trkpt>
      <trkpt lat="45.8499" lon="6.23529">
        <ele>1067</ele>
        <time>2010-04-23T18:01:10Z</time>
      </trkpt>
      <trkpt lat="45.84988" lon="6.23534">
        <ele>1067</ele>
        <time>2010-04-23T18:01:12Z</time>
      </trkpt>
      <trkpt lat="45.84986" lon="6.23541">
        <ele>1067</ele>
        <time>2010-04-23T18:01:14Z</time>
      </trkpt>
      <trkpt lat="45.84985" lon="6.23548">
        <ele>1067</ele>
        <time>2010-04-23T18:01:16Z</time>
      </trkpt>
      <trkpt lat="45.84983" lon="6.23557">
        <ele>1065</ele>
        <time>2010-04-23T18:01:18Z</time>
      </trkpt>
      <trkpt lat="45.84983" lon="6.23564">
        <ele>1063</ele>
        <time>2010-04-23T18:01:20Z</time>
      </trkpt>
      <trkpt lat="45.84984" lon="6.23574">
        <ele>1062</ele>
        <time>2010-04-23T18:01:23Z</time>
      </trkpt>
      <trkpt lat="45.84984" lon="6.23581">
        <ele>1062</ele>
        <time>2010-04-23T18:01:25Z</time>
      </trkpt>
      <trkpt lat="45.84983" lon="6.23588">
        <ele>1062</ele>
        <time>2010-04-23T18:01:27Z</time>
      </trkpt>
      <trkpt lat="45.84982" lon="6.23594">
        <ele>1061</ele>
        <time>2010-04-23T18:01:29Z</time>
      </trkpt>
      <trkpt lat="45.84981" lon="6.236">
        <ele>1061</ele>
        <time>2010-04-23T18:01:31Z</time>
      </trkpt>
      <trkpt lat="45.84982" lon="6.23607">
        <ele>1060</ele>
        <time>2010-04-23T18:01:33Z</time>
      </trkpt>
      <trkpt lat="45.84982" lon="6.23614">
        <ele>1059</ele>
        <time>2010-04-23T18:01:35Z</time>
      </trkpt>
      <trkpt lat="45.8498" lon="6.23624">
        <ele>1059</ele>
        <time>2010-04-23T18:01:38Z</time>
      </trkpt>
      <trkpt lat="45.8498" lon="6.2363">
        <ele>1059</ele>
        <time>2010-04-23T18:01:40Z</time>
      </trkpt>
      <trkpt lat="45.8498" lon="6.23638">
        <ele>1059</ele>
        <time>2010-04-23T18:01:42Z</time>
      </trkpt>
      <trkpt lat="45.84982" lon="6.23645">
        <ele>1059</ele>
        <time>2010-04-23T18:01:44Z</time>
      </trkpt>
      <trkpt lat="45.84985" lon="6.23652">
        <ele>1059</ele>
        <time>2010-04-23T18:01:46Z</time>
      </trkpt>
      <trkpt lat="45.84986" lon="6.23658">
        <ele>1059</ele>
        <time>2010-04-23T18:01:48Z</time>
      </trkpt>
      <trkpt lat="45.8499" lon="6.23666">
        <ele>1059</ele>
        <time>2010-04-23T18:01:51Z</time>
      </trkpt>
      <trkpt lat="45.8499" lon="6.23675">
        <ele>1059</ele>
        <time>2010-04-23T18:01:53Z</time>
      </trkpt>
      <trkpt lat="45.84992" lon="6.23682">
        <ele>1059</ele>
        <time>2010-04-23T18:01:55Z</time>
      </trkpt>
      <trkpt lat="45.84992" lon="6.23689">
        <ele>1059</ele>
        <time>2010-04-23T18:01:57Z</time>
      </trkpt>
      <trkpt lat="45.84992" lon="6.23696">
        <ele>1060</ele>
        <time>2010-04-23T18:01:59Z</time>
      </trkpt>
      <trkpt lat="45.84993" lon="6.23705">
        <ele>1061</ele>
        <time>2010-04-23T18:02:01Z</time>
      </trkpt>
      <trkpt lat="45.84997" lon="6.23714">
        <ele>1063</ele>
        <time>2010-04-23T18:02:03Z</time>
      </trkpt>
      <trkpt lat="45.85001" lon="6.23719">
        <ele>1065</ele>
        <time>2010-04-23T18:02:05Z</time>
      </trkpt>
      <trkpt lat="45.85003" lon="6.23725">
        <ele>1065</ele>
        <time>2010-04-23T18:02:07Z</time>
      </trkpt>
      <trkpt lat="45.85006" lon="6.2373">
        <ele>1066</ele>
        <time>2010-04-23T18:02:09Z</time>
      </trkpt>
      <trkpt lat="45.85011" lon="6.23733">
        <ele>1066</ele>
        <time>2010-04-23T18:02:11Z</time>
      </trkpt>
      <trkpt lat="45.85015" lon="6.23737">
        <ele>1066</ele>
        <time>2010-04-23T18:02:13Z</time>
      </trkpt>
      <trkpt lat="45.85018" lon="6.23742">
        <ele>1066</ele>
        <time>2010-04-23T18:02:15Z</time>
      </trkpt>
      <trkpt lat="45.85018" lon="6.23749">
        <ele>1066</ele>
        <time>2010-04-23T18:02:17Z</time>
      </trkpt>
      <trkpt lat="45.85016" lon="6.23756">
        <ele>1066</ele>
        <time>2010-04-23T18:02:19Z</time>
      </trkpt>
      <trkpt lat="45.85012" lon="6.23761">
        <ele>1068</ele>
        <time>2010-04-23T18:02:21Z</time>
      </trkpt>
      <trkpt lat="45.85007" lon="6.23763">
        <ele>1070</ele>
        <time>2010-04-23T18:02:23Z</time>
      </trkpt>
      <trkpt lat="45.85005" lon="6.23769">
        <ele>1072</ele>
        <time>2010-04-23T18:02:25Z</time>
      </trkpt>
      <trkpt lat="45.85004" lon="6.23773">
        <ele>1074</ele>
        <time>2010-04-23T18:02:27Z</time>
      </trkpt>
      <trkpt lat="45.85005" lon="6.23779">
        <ele>1076</ele>
        <time>2010-04-23T18:02:29Z</time>
      </trkpt>
      <trkpt lat="45.85006" lon="6.23785">
        <ele>1077</ele>
        <time>2010-04-23T18:02:31Z</time>
      </trkpt>
      <trkpt lat="45.85008" lon="6.23791">
        <ele>1077</ele>
        <time>2010-04-23T18:02:33Z</time>
      </trkpt>
      <trkpt lat="45.8501" lon="6.23797">
        <ele>1077</ele>
        <time>2010-04-23T18:02:35Z</time>
      </trkpt>
      <trkpt lat="45.85012" lon="6.23802">
        <ele>1077</ele>
        <time>2010-04-23T18:02:37Z</time>
      </trkpt>
      <trkpt lat="45.85014" lon="6.23807">
        <ele>1077</ele>
        <time>2010-04-23T18:02:39Z</time>
      </trkpt>
      <trkpt lat="45.85013" lon="6.23814">
        <ele>1077</ele>
        <time>2010-04-23T18:02:41Z</time>
      </trkpt>
      <trkpt lat="45.85011" lon="6.2382">
        <ele>1078</ele>
        <time>2010-04-23T18:02:43Z</time>
      </trkpt>
      <trkpt lat="45.85011" lon="6.23828">
        <ele>1080</ele>
        <time>2010-04-23T18:02:45Z</time>
      </trkpt>
      <trkpt lat="45.85013" lon="6.23834">
        <ele>1082</ele>
        <time>2010-04-23T18:02:47Z</time>
      </trkpt>
      <trkpt lat="45.85015" lon="6.2384">
        <ele>1082</ele>
        <time>2010-04-23T18:02:49Z</time>
      </trkpt>
      <trkpt lat="45.85019" lon="6.23846">
        <ele>1082</ele>
        <time>2010-04-23T18:02:51Z</time>
      </trkpt>
      <trkpt lat="45.85022" lon="6.23851">
        <ele>1082</ele>
        <time>2010-04-23T18:02:53Z</time>
      </trkpt>
      <trkpt lat="45.85026" lon="6.23853">
        <ele>1080</ele>
        <time>2010-04-23T18:02:55Z</time>
      </trkpt>
      <trkpt lat="45.8503" lon="6.23858">
        <ele>1078</ele>
        <time>2010-04-23T18:02:57Z</time>
      </trkpt>
      <trkpt lat="45.85033" lon="6.23862">
        <ele>1078</ele>
        <time>2010-04-23T18:02:59Z</time>
      </trkpt>
      <trkpt lat="45.85035" lon="6.23868">
        <ele>1078</ele>
        <time>2010-04-23T18:03:01Z</time>
      </trkpt>
      <trkpt lat="45.85036" lon="6.23875">
        <ele>1078</ele>
        <time>2010-04-23T18:03:03Z</time>
      </trkpt>
      <trkpt lat="45.85038" lon="6.23881">
        <ele>1078</ele>
        <time>2010-04-23T18:03:05Z</time>
      </trkpt>
      <trkpt lat="45.85041" lon="6.23887">
        <ele>1078</ele>
        <time>2010-04-23T18:03:07Z</time>
      </trkpt>
      <trkpt lat="45.85043" lon="6.23891">
        <ele>1078</ele>
        <time>2010-04-23T18:03:09Z</time>
      </trkpt>
      <trkpt lat="45.85045" lon="6.23899">
        <ele>1078</ele>
        <time>2010-04-23T18:03:11Z</time>
      </trkpt>
      <trkpt lat="45.85046" lon="6.23904">
        <ele>1078</ele>
        <time>2010-04-23T18:03:14Z</time>
      </trkpt>
      <trkpt lat="45.85046" lon="6.23909">
        <ele>1078</ele>
        <time>2010-04-23T18:03:17Z</time>
      </trkpt>
      <trkpt lat="45.85046" lon="6.23912">
        <ele>1078</ele>
        <time>2010-04-23T18:03:19Z</time>
      </trkpt>
      <trkpt lat="45.85045" lon="6.23916">
        <ele>1080</ele>
        <time>2010-04-23T18:03:21Z</time>
      </trkpt>
      <trkpt lat="45.85044" lon="6.23921">
        <ele>1082</ele>
        <time>2010-04-23T18:03:23Z</time>
      </trkpt>
      <trkpt lat="45.85045" lon="6.23922">
        <ele>1085</ele>
        <time>2010-04-23T18:03:26Z</time>
      </trkpt>
      <trkpt lat="45.85043" lon="6.23925">
        <ele>1089</ele>
        <time>2010-04-23T18:03:28Z</time>
      </trkpt>
      <trkpt lat="45.85042" lon="6.23928">
        <ele>1093</ele>
        <time>2010-04-23T18:03:30Z</time>
      </trkpt>
      <trkpt lat="45.85044" lon="6.23929">
        <ele>1097</ele>
        <time>2010-04-23T18:03:32Z</time>
      </trkpt>
      <trkpt lat="45.85047" lon="6.2393">
        <ele>1100</ele>
        <time>2010-04-23T18:03:34Z</time>
      </trkpt>
      <trkpt lat="45.85048" lon="6.23937">
        <ele>1102</ele>
        <time>2010-04-23T18:03:36Z</time>
      </trkpt>
      <trkpt lat="45.85048" lon="6.23942">
        <ele>1104</ele>
        <time>2010-04-23T18:03:38Z</time>
      </trkpt>
      <trkpt lat="45.8505" lon="6.23945">
        <ele>1106</ele>
        <time>2010-04-23T18:03:40Z</time>
      </trkpt>
      <trkpt lat="45.85054" lon="6.23945">
        <ele>1107</ele>
        <time>2010-04-23T18:03:42Z</time>
      </trkpt>
      <trkpt lat="45.85057" lon="6.23947">
        <ele>1107</ele>
        <time>2010-04-23T18:03:45Z</time>
      </trkpt>
      <trkpt lat="45.8506" lon="6.23949">
        <ele>1104</ele>
        <time>2010-04-23T18:03:48Z</time>
      </trkpt>
      <trkpt lat="45.85062" lon="6.23953">
        <ele>1101</ele>
        <time>2010-04-23T18:03:52Z</time>
      </trkpt>
      <trkpt lat="45.85063" lon="6.23954">
        <ele>1100</ele>
        <time>2010-04-23T18:03:54Z</time>
      </trkpt>
      <trkpt lat="45.85065" lon="6.23956">
        <ele>1099</ele>
        <time>2010-04-23T18:03:56Z</time>
      </trkpt>
      <trkpt lat="45.85066" lon="6.23958">
        <ele>1098</ele>
        <time>2010-04-23T18:03:58Z</time>
      </trkpt>
      <trkpt lat="45.8507" lon="6.23959">
        <ele>1096</ele>
        <time>2010-04-23T18:04:00Z</time>
      </trkpt>
      <trkpt lat="45.85072" lon="6.23961">
        <ele>1094</ele>
        <time>2010-04-23T18:04:02Z</time>
      </trkpt>
      <trkpt lat="45.85073" lon="6.23963">
        <ele>1092</ele>
        <time>2010-04-23T18:04:04Z</time>
      </trkpt>
      <trkpt lat="45.85075" lon="6.23967">
        <ele>1091</ele>
        <time>2010-04-23T18:04:06Z</time>
      </trkpt>
      <trkpt lat="45.85075" lon="6.23971">
        <ele>1089</ele>
        <time>2010-04-23T18:04:08Z</time>
      </trkpt>
      <trkpt lat="45.85077" lon="6.23975">
        <ele>1086</ele>
        <time>2010-04-23T18:04:11Z</time>
      </trkpt>
      <trkpt lat="45.85078" lon="6.23976">
        <ele>1084</ele>
        <time>2010-04-23T18:04:13Z</time>
      </trkpt>
      <trkpt lat="45.85078" lon="6.23982">
        <ele>1082</ele>
        <time>2010-04-23T18:04:17Z</time>
      </trkpt>
      <trkpt lat="45.85073" lon="6.2399">
        <ele>1080</ele>
        <time>2010-04-23T18:04:19Z</time>
      </trkpt>
      <trkpt lat="45.85077" lon="6.23986">
        <ele>1079</ele>
        <time>2010-04-23T18:04:21Z</time>
      </trkpt>
      <trkpt lat="45.85072" lon="6.23984">
        <ele>1079</ele>
        <time>2010-04-23T18:04:23Z</time>
      </trkpt>
      <trkpt lat="45.85068" lon="6.23985">
        <ele>1080</ele>
        <time>2010-04-23T18:04:25Z</time>
      </trkpt>
      <trkpt lat="45.85066" lon="6.23985">
        <ele>1082</ele>
        <time>2010-04-23T18:04:27Z</time>
      </trkpt>
      <trkpt lat="45.85063" lon="6.23987">
        <ele>1084</ele>
        <time>2010-04-23T18:04:29Z</time>
      </trkpt>
      <trkpt lat="45.85062" lon="6.23988">
        <ele>1086</ele>
        <time>2010-04-23T18:04:31Z</time>
      </trkpt>
      <trkpt lat="45.85059" lon="6.23986">
        <ele>1088</ele>
        <time>2010-04-23T18:04:33Z</time>
      </trkpt>
      <trkpt lat="45.85056" lon="6.23984">
        <ele>1091</ele>
        <time>2010-04-23T18:04:36Z</time>
      </trkpt>
      <trkpt lat="45.85053" lon="6.23984">
        <ele>1093</ele>
        <time>2010-04-23T18:04:38Z</time>
      </trkpt>
      <trkpt lat="45.85049" lon="6.23985">
        <ele>1093</ele>
        <time>2010-04-23T18:04:40Z</time>
      </trkpt>
      <trkpt lat="45.85049" lon="6.23988">
        <ele>1095</ele>
        <time>2010-04-23T18:04:43Z</time>
      </trkpt>
      <trkpt lat="45.85048" lon="6.23989">
        <ele>1095</ele>
        <time>2010-04-23T18:04:45Z</time>
      </trkpt>
      <trkpt lat="45.85046" lon="6.23991">
        <ele>1095</ele>
        <time>2010-04-23T18:04:47Z</time>
      </trkpt>
      <trkpt lat="45.85045" lon="6.23993">
        <ele>1095</ele>
        <time>2010-04-23T18:04:49Z</time>
      </trkpt>
      <trkpt lat="45.85044" lon="6.23995">
        <ele>1095</ele>
        <time>2010-04-23T18:04:51Z</time>
      </trkpt>
      <trkpt lat="45.85043" lon="6.23996">
        <ele>1095</ele>
        <time>2010-04-23T18:04:53Z</time>
      </trkpt>
      <trkpt lat="45.85041" lon="6.23997">
        <ele>1095</ele>
        <time>2010-04-23T18:04:55Z</time>
      </trkpt>
      <trkpt lat="45.8504" lon="6.23999">
        <ele>1095</ele>
        <time>2010-04-23T18:04:57Z</time>
      </trkpt>
      <trkpt lat="45.85042" lon="6.24">
        <ele>1093</ele>
        <time>2010-04-23T18:05:02Z</time>
      </trkpt>
      <trkpt lat="45.85044" lon="6.24003">
        <ele>1093</ele>
        <time>2010-04-23T18:05:05Z</time>
      </trkpt>
      <trkpt lat="45.85046" lon="6.24005">
        <ele>1093</ele>
        <time>2010-04-23T18:05:07Z</time>
      </trkpt>
      <trkpt lat="45.85047" lon="6.24007">
        <ele>1093</ele>
        <time>2010-04-23T18:05:09Z</time>
      </trkpt>
      <trkpt lat="45.85049" lon="6.24009">
        <ele>1093</ele>
        <time>2010-04-23T18:05:11Z</time>
      </trkpt>
      <trkpt lat="45.85052" lon="6.24011">
        <ele>1093</ele>
        <time>2010-04-23T18:05:14Z</time>
      </trkpt>
      <trkpt lat="45.85055" lon="6.24012">
        <ele>1093</ele>
        <time>2010-04-23T18:05:16Z</time>
      </trkpt>
      <trkpt lat="45.85057" lon="6.24012">
        <ele>1093</ele>
        <time>2010-04-23T18:05:19Z</time>
      </trkpt>
      <trkpt lat="45.85059" lon="6.24013">
        <ele>1093</ele>
        <time>2010-04-23T18:05:21Z</time>
      </trkpt>
      <trkpt lat="45.85056" lon="6.24015">
        <ele>1093</ele>
        <time>2010-04-23T18:05:23Z</time>
      </trkpt>
      <trkpt lat="45.85053" lon="6.24016">
        <ele>1093</ele>
        <time>2010-04-23T18:05:26Z</time>
      </trkpt>
      <trkpt lat="45.85052" lon="6.24018">
        <ele>1093</ele>
        <time>2010-04-23T18:05:28Z</time>
      </trkpt>
      <trkpt lat="45.85053" lon="6.24021">
        <ele>1093</ele>
        <time>2010-04-23T18:05:30Z</time>
      </trkpt>
      <trkpt lat="45.85053" lon="6.24026">
        <ele>1093</ele>
        <time>2010-04-23T18:05:32Z</time>
      </trkpt>
      <trkpt lat="45.85054" lon="6.2403">
        <ele>1093</ele>
        <time>2010-04-23T18:05:34Z</time>
      </trkpt>
      <trkpt lat="45.85055" lon="6.24031">
        <ele>1093</ele>
        <time>2010-04-23T18:05:36Z</time>
      </trkpt>
      <trkpt lat="45.85055" lon="6.24033">
        <ele>1096</ele>
        <time>2010-04-23T18:05:40Z</time>
      </trkpt>
      <trkpt lat="45.85054" lon="6.24032">
        <ele>1097</ele>
        <time>2010-04-23T18:05:43Z</time>
      </trkpt>
      <trkpt lat="45.85049" lon="6.24039">
        <ele>1100</ele>
        <time>2010-04-23T18:05:45Z</time>
      </trkpt>
      <trkpt lat="45.85047" lon="6.24046">
        <ele>1104</ele>
        <time>2010-04-23T18:05:47Z</time>
      </trkpt>
      <trkpt lat="45.85046" lon="6.24047">
        <ele>1106</ele>
        <time>2010-04-23T18:05:49Z</time>
      </trkpt>
      <trkpt lat="45.85043" lon="6.2405">
        <ele>1109</ele>
        <time>2010-04-23T18:05:52Z</time>
      </trkpt>
      <trkpt lat="45.85044" lon="6.24052">
        <ele>1115</ele>
        <time>2010-04-23T18:06:08Z</time>
      </trkpt>
      <trkpt lat="45.85042" lon="6.24051">
        <ele>1115</ele>
        <time>2010-04-23T18:06:10Z</time>
      </trkpt>
      <trkpt lat="45.85041" lon="6.2405">
        <ele>1115</ele>
        <time>2010-04-23T18:06:13Z</time>
      </trkpt>
      <trkpt lat="45.85038" lon="6.24049">
        <ele>1115</ele>
        <time>2010-04-23T18:06:15Z</time>
      </trkpt>
      <trkpt lat="45.85035" lon="6.24047">
        <ele>1115</ele>
        <time>2010-04-23T18:06:17Z</time>
      </trkpt>
      <trkpt lat="45.8503" lon="6.24045">
        <ele>1113</ele>
        <time>2010-04-23T18:06:19Z</time>
      </trkpt>
      <trkpt lat="45.85025" lon="6.24043">
        <ele>1111</ele>
        <time>2010-04-23T18:06:21Z</time>
      </trkpt>
      <trkpt lat="45.85019" lon="6.24043">
        <ele>1109</ele>
        <time>2010-04-23T18:06:23Z</time>
      </trkpt>
      <trkpt lat="45.85012" lon="6.24045">
        <ele>1107</ele>
        <time>2010-04-23T18:06:25Z</time>
      </trkpt>
      <trkpt lat="45.85007" lon="6.24045">
        <ele>1105</ele>
        <time>2010-04-23T18:06:27Z</time>
      </trkpt>
      <trkpt lat="45.85001" lon="6.24045">
        <ele>1103</ele>
        <time>2010-04-23T18:06:29Z</time>
      </trkpt>
      <trkpt lat="45.84997" lon="6.24046">
        <ele>1101</ele>
        <time>2010-04-23T18:06:31Z</time>
      </trkpt>
      <trkpt lat="45.84993" lon="6.24048">
        <ele>1099</ele>
        <time>2010-04-23T18:06:33Z</time>
      </trkpt>
      <trkpt lat="45.84988" lon="6.24051">
        <ele>1097</ele>
        <time>2010-04-23T18:06:35Z</time>
      </trkpt>
      <trkpt lat="45.84982" lon="6.24054">
        <ele>1095</ele>
        <time>2010-04-23T18:06:37Z</time>
      </trkpt>
      <trkpt lat="45.84973" lon="6.24052">
        <ele>1094</ele>
        <time>2010-04-23T18:06:39Z</time>
      </trkpt>
      <trkpt lat="45.84965" lon="6.24053">
        <ele>1094</ele>
        <time>2010-04-23T18:06:41Z</time>
      </trkpt>
      <trkpt lat="45.84956" lon="6.24055">
        <ele>1094</ele>
        <time>2010-04-23T18:06:43Z</time>
      </trkpt>
      <trkpt lat="45.84948" lon="6.24057">
        <ele>1094</ele>
        <time>2010-04-23T18:06:45Z</time>
      </trkpt>
      <trkpt lat="45.84942" lon="6.24057">
        <ele>1094</ele>
        <time>2010-04-23T18:06:47Z</time>
      </trkpt>
      <trkpt lat="45.84939" lon="6.24055">
        <ele>1094</ele>
        <time>2010-04-23T18:06:49Z</time>
      </trkpt>
      <trkpt lat="45.84935" lon="6.2406">
        <ele>1094</ele>
        <time>2010-04-23T18:06:51Z</time>
      </trkpt>
      <trkpt lat="45.8493" lon="6.24067">
        <ele>1094</ele>
        <time>2010-04-23T18:06:53Z</time>
      </trkpt>
      <trkpt lat="45.84924" lon="6.24072">
        <ele>1093</ele>
        <time>2010-04-23T18:06:55Z</time>
      </trkpt>
      <trkpt lat="45.84918" lon="6.24077">
        <ele>1091</ele>
        <time>2010-04-23T18:06:57Z</time>
      </trkpt>
      <trkpt lat="45.84912" lon="6.24083">
        <ele>1089</ele>
        <time>2010-04-23T18:06:59Z</time>
      </trkpt>
      <trkpt lat="45.84907" lon="6.24085">
        <ele>1087</ele>
        <time>2010-04-23T18:07:01Z</time>
      </trkpt>
      <trkpt lat="45.84903" lon="6.24089">
        <ele>1086</ele>
        <time>2010-04-23T18:07:03Z</time>
      </trkpt>
      <trkpt lat="45.84897" lon="6.24093">
        <ele>1084</ele>
        <time>2010-04-23T18:07:05Z</time>
      </trkpt>
      <trkpt lat="45.84893" lon="6.24096">
        <ele>1082</ele>
        <time>2010-04-23T18:07:07Z</time>
      </trkpt>
      <trkpt lat="45.84888" lon="6.24096">
        <ele>1080</ele>
        <time>2010-04-23T18:07:09Z</time>
      </trkpt>
      <trkpt lat="45.84885" lon="6.24088">
        <ele>1078</ele>
        <time>2010-04-23T18:07:11Z</time>
      </trkpt>
      <trkpt lat="45.84883" lon="6.24079">
        <ele>1076</ele>
        <time>2010-04-23T18:07:13Z</time>
      </trkpt>
      <trkpt lat="45.84881" lon="6.24071">
        <ele>1074</ele>
        <time>2010-04-23T18:07:15Z</time>
      </trkpt>
      <trkpt lat="45.84878" lon="6.24065">
        <ele>1072</ele>
        <time>2010-04-23T18:07:17Z</time>
      </trkpt>
      <trkpt lat="45.84875" lon="6.24062">
        <ele>1070</ele>
        <time>2010-04-23T18:07:19Z</time>
      </trkpt>
      <trkpt lat="45.84872" lon="6.24059">
        <ele>1068</ele>
        <time>2010-04-23T18:07:21Z</time>
      </trkpt>
      <trkpt lat="45.84869" lon="6.24058">
        <ele>1066</ele>
        <time>2010-04-23T18:07:23Z</time>
      </trkpt>
      <trkpt lat="45.84865" lon="6.24054">
        <ele>1064</ele>
        <time>2010-04-23T18:07:25Z</time>
      </trkpt>
      <trkpt lat="45.84861" lon="6.2405">
        <ele>1062</ele>
        <time>2010-04-23T18:07:27Z</time>
      </trkpt>
      <trkpt lat="45.84859" lon="6.24048">
        <ele>1059</ele>
        <time>2010-04-23T18:07:29Z</time>
      </trkpt>
      <trkpt lat="45.84859" lon="6.2405">
        <ele>1055</ele>
        <time>2010-04-23T18:07:31Z</time>
      </trkpt>
      <trkpt lat="45.84861" lon="6.24053">
        <ele>1053</ele>
        <time>2010-04-23T18:07:33Z</time>
      </trkpt>
      <trkpt lat="45.84863" lon="6.2406">
        <ele>1050</ele>
        <time>2010-04-23T18:07:35Z</time>
      </trkpt>
      <trkpt lat="45.84864" lon="6.24067">
        <ele>1048</ele>
        <time>2010-04-23T18:07:37Z</time>
      </trkpt>
      <trkpt lat="45.84865" lon="6.24077">
        <ele>1046</ele>
        <time>2010-04-23T18:07:39Z</time>
      </trkpt>
      <trkpt lat="45.84866" lon="6.24087">
        <ele>1044</ele>
        <time>2010-04-23T18:07:41Z</time>
      </trkpt>
      <trkpt lat="45.84865" lon="6.24097">
        <ele>1043</ele>
        <time>2010-04-23T18:07:43Z</time>
      </trkpt>
      <trkpt lat="45.84863" lon="6.241">
        <ele>1043</ele>
        <time>2010-04-23T18:07:45Z</time>
      </trkpt>
      <trkpt lat="45.8486" lon="6.24104">
        <ele>1043</ele>
        <time>2010-04-23T18:07:47Z</time>
      </trkpt>
      <trkpt lat="45.84857" lon="6.24107">
        <ele>1043</ele>
        <time>2010-04-23T18:07:49Z</time>
      </trkpt>
      <trkpt lat="45.84856" lon="6.24114">
        <ele>1043</ele>
        <time>2010-04-23T18:07:51Z</time>
      </trkpt>
      <trkpt lat="45.84856" lon="6.24123">
        <ele>1043</ele>
        <time>2010-04-23T18:07:53Z</time>
      </trkpt>
      <trkpt lat="45.84856" lon="6.24129">
        <ele>1043</ele>
        <time>2010-04-23T18:07:55Z</time>
      </trkpt>
      <trkpt lat="45.84856" lon="6.24135">
        <ele>1043</ele>
        <time>2010-04-23T18:07:57Z</time>
      </trkpt>
      <trkpt lat="45.84855" lon="6.24139">
        <ele>1044</ele>
        <time>2010-04-23T18:07:59Z</time>
      </trkpt>
      <trkpt lat="45.84855" lon="6.24144">
        <ele>1044</ele>
        <time>2010-04-23T18:08:01Z</time>
      </trkpt>
      <trkpt lat="45.84855" lon="6.2415">
        <ele>1044</ele>
        <time>2010-04-23T18:08:03Z</time>
      </trkpt>
      <trkpt lat="45.84854" lon="6.24156">
        <ele>1045</ele>
        <time>2010-04-23T18:08:05Z</time>
      </trkpt>
      <trkpt lat="45.84853" lon="6.24162">
        <ele>1046</ele>
        <time>2010-04-23T18:08:07Z</time>
      </trkpt>
      <trkpt lat="45.84852" lon="6.24167">
        <ele>1048</ele>
        <time>2010-04-23T18:08:09Z</time>
      </trkpt>
      <trkpt lat="45.84849" lon="6.24171">
        <ele>1050</ele>
        <time>2010-04-23T18:08:11Z</time>
      </trkpt>
      <trkpt lat="45.84846" lon="6.24175">
        <ele>1052</ele>
        <time>2010-04-23T18:08:13Z</time>
      </trkpt>
      <trkpt lat="45.84843" lon="6.24179">
        <ele>1054</ele>
        <time>2010-04-23T18:08:15Z</time>
      </trkpt>
      <trkpt lat="45.84839" lon="6.24184">
        <ele>1056</ele>
        <time>2010-04-23T18:08:17Z</time>
      </trkpt>
      <trkpt lat="45.84835" lon="6.2419">
        <ele>1058</ele>
        <time>2010-04-23T18:08:19Z</time>
      </trkpt>
      <trkpt lat="45.84832" lon="6.24194">
        <ele>1060</ele>
        <time>2010-04-23T18:08:22Z</time>
      </trkpt>
      <trkpt lat="45.84827" lon="6.24202">
        <ele>1064</ele>
        <time>2010-04-23T18:08:24Z</time>
      </trkpt>
      <trkpt lat="45.84826" lon="6.24208">
        <ele>1068</ele>
        <time>2010-04-23T18:08:26Z</time>
      </trkpt>
      <trkpt lat="45.84823" lon="6.2421">
        <ele>1072</ele>
        <time>2010-04-23T18:08:28Z</time>
      </trkpt>
      <trkpt lat="45.84824" lon="6.24212">
        <ele>1076</ele>
        <time>2010-04-23T18:08:30Z</time>
      </trkpt>
      <trkpt lat="45.84825" lon="6.24217">
        <ele>1080</ele>
        <time>2010-04-23T18:08:32Z</time>
      </trkpt>
      <trkpt lat="45.84827" lon="6.24224">
        <ele>1082</ele>
        <time>2010-04-23T18:08:34Z</time>
      </trkpt>
      <trkpt lat="45.84829" lon="6.2423">
        <ele>1084</ele>
        <time>2010-04-23T18:08:36Z</time>
      </trkpt>
      <trkpt lat="45.84831" lon="6.24233">
        <ele>1084</ele>
        <time>2010-04-23T18:08:38Z</time>
      </trkpt>
      <trkpt lat="45.84832" lon="6.24237">
        <ele>1084</ele>
        <time>2010-04-23T18:08:40Z</time>
      </trkpt>
      <trkpt lat="45.84832" lon="6.24242">
        <ele>1084</ele>
        <time>2010-04-23T18:08:43Z</time>
      </trkpt>
      <trkpt lat="45.8483" lon="6.24244">
        <ele>1087</ele>
        <time>2010-04-23T18:08:47Z</time>
      </trkpt>
      <trkpt lat="45.84831" lon="6.24247">
        <ele>1089</ele>
        <time>2010-04-23T18:08:51Z</time>
      </trkpt>
      <trkpt lat="45.8483" lon="6.24248">
        <ele>1089</ele>
        <time>2010-04-23T18:08:54Z</time>
      </trkpt>
      <trkpt lat="45.8483" lon="6.24251">
        <ele>1089</ele>
        <time>2010-04-23T18:08:56Z</time>
      </trkpt>
      <trkpt lat="45.84834" lon="6.24252">
        <ele>1089</ele>
        <time>2010-04-23T18:08:58Z</time>
      </trkpt>
      <trkpt lat="45.84835" lon="6.24254">
        <ele>1089</ele>
        <time>2010-04-23T18:09:00Z</time>
      </trkpt>
      <trkpt lat="45.84835" lon="6.24256">
        <ele>1089</ele>
        <time>2010-04-23T18:09:03Z</time>
      </trkpt>
      <trkpt lat="45.84832" lon="6.24258">
        <ele>1089</ele>
        <time>2010-04-23T18:09:06Z</time>
      </trkpt>
      <trkpt lat="45.84832" lon="6.2426">
        <ele>1089</ele>
        <time>2010-04-23T18:09:09Z</time>
      </trkpt>
      <trkpt lat="45.84833" lon="6.24263">
        <ele>1089</ele>
        <time>2010-04-23T18:09:12Z</time>
      </trkpt>
      <trkpt lat="45.84832" lon="6.24264">
        <ele>1089</ele>
        <time>2010-04-23T18:09:14Z</time>
      </trkpt>
      <trkpt lat="45.84831" lon="6.24262">
        <ele>1089</ele>
        <time>2010-04-23T18:09:16Z</time>
      </trkpt>
      <trkpt lat="45.84829" lon="6.24258">
        <ele>1089</ele>
        <time>2010-04-23T18:09:19Z</time>
      </trkpt>
      <trkpt lat="45.84826" lon="6.24254">
        <ele>1089</ele>
        <time>2010-04-23T18:09:21Z</time>
      </trkpt>
      <trkpt lat="45.84825" lon="6.2425">
        <ele>1089</ele>
        <time>2010-04-23T18:09:23Z</time>
      </trkpt>
      <trkpt lat="45.84823" lon="6.24245">
        <ele>1090</ele>
        <time>2010-04-23T18:09:25Z</time>
      </trkpt>
      <trkpt lat="45.84822" lon="6.24238">
        <ele>1090</ele>
        <time>2010-04-23T18:09:27Z</time>
      </trkpt>
      <trkpt lat="45.84821" lon="6.24232">
        <ele>1091</ele>
        <time>2010-04-23T18:09:29Z</time>
      </trkpt>
      <trkpt lat="45.84819" lon="6.24224">
        <ele>1091</ele>
        <time>2010-04-23T18:09:31Z</time>
      </trkpt>
      <trkpt lat="45.84818" lon="6.24217">
        <ele>1092</ele>
        <time>2010-04-23T18:09:33Z</time>
      </trkpt>
      <trkpt lat="45.84817" lon="6.24212">
        <ele>1093</ele>
        <time>2010-04-23T18:09:35Z</time>
      </trkpt>
      <trkpt lat="45.84816" lon="6.24207">
        <ele>1093</ele>
        <time>2010-04-23T18:09:37Z</time>
      </trkpt>
      <trkpt lat="45.84815" lon="6.24203">
        <ele>1093</ele>
        <time>2010-04-23T18:09:39Z</time>
      </trkpt>
      <trkpt lat="45.84812" lon="6.24195">
        <ele>1092</ele>
        <time>2010-04-23T18:09:41Z</time>
      </trkpt>
      <trkpt lat="45.84808" lon="6.24188">
        <ele>1090</ele>
        <time>2010-04-23T18:09:43Z</time>
      </trkpt>
      <trkpt lat="45.84803" lon="6.24182">
        <ele>1088</ele>
        <time>2010-04-23T18:09:45Z</time>
      </trkpt>
      <trkpt lat="45.848" lon="6.2418">
        <ele>1086</ele>
        <time>2010-04-23T18:09:47Z</time>
      </trkpt>
      <trkpt lat="45.84798" lon="6.24178">
        <ele>1084</ele>
        <time>2010-04-23T18:09:49Z</time>
      </trkpt>
      <trkpt lat="45.84797" lon="6.24174">
        <ele>1083</ele>
        <time>2010-04-23T18:09:51Z</time>
      </trkpt>
      <trkpt lat="45.84795" lon="6.24173">
        <ele>1083</ele>
        <time>2010-04-23T18:09:56Z</time>
      </trkpt>
      <trkpt lat="45.84793" lon="6.24168">
        <ele>1082</ele>
        <time>2010-04-23T18:09:58Z</time>
      </trkpt>
      <trkpt lat="45.84792" lon="6.24164">
        <ele>1080</ele>
        <time>2010-04-23T18:10:00Z</time>
      </trkpt>
      <trkpt lat="45.84789" lon="6.2416">
        <ele>1079</ele>
        <time>2010-04-23T18:10:02Z</time>
      </trkpt>
      <trkpt lat="45.84787" lon="6.24156">
        <ele>1079</ele>
        <time>2010-04-23T18:10:04Z</time>
      </trkpt>
      <trkpt lat="45.84785" lon="6.24153">
        <ele>1079</ele>
        <time>2010-04-23T18:10:07Z</time>
      </trkpt>
      <trkpt lat="45.84785" lon="6.24148">
        <ele>1079</ele>
        <time>2010-04-23T18:10:09Z</time>
      </trkpt>
      <trkpt lat="45.84783" lon="6.24145">
        <ele>1079</ele>
        <time>2010-04-23T18:10:11Z</time>
      </trkpt>
      <trkpt lat="45.84777" lon="6.24141">
        <ele>1077</ele>
        <time>2010-04-23T18:10:13Z</time>
      </trkpt>
      <trkpt lat="45.84774" lon="6.24136">
        <ele>1076</ele>
        <time>2010-04-23T18:10:15Z</time>
      </trkpt>
      <trkpt lat="45.8477" lon="6.24134">
        <ele>1075</ele>
        <time>2010-04-23T18:10:17Z</time>
      </trkpt>
      <trkpt lat="45.84764" lon="6.2413">
        <ele>1075</ele>
        <time>2010-04-23T18:10:19Z</time>
      </trkpt>
      <trkpt lat="45.84759" lon="6.24128">
        <ele>1074</ele>
        <time>2010-04-23T18:10:21Z</time>
      </trkpt>
      <trkpt lat="45.84757" lon="6.24128">
        <ele>1072</ele>
        <time>2010-04-23T18:10:23Z</time>
      </trkpt>
      <trkpt lat="45.84755" lon="6.2413">
        <ele>1072</ele>
        <time>2010-04-23T18:10:25Z</time>
      </trkpt>
      <trkpt lat="45.84754" lon="6.24134">
        <ele>1072</ele>
        <time>2010-04-23T18:10:27Z</time>
      </trkpt>
      <trkpt lat="45.84752" lon="6.24138">
        <ele>1072</ele>
        <time>2010-04-23T18:10:29Z</time>
      </trkpt>
      <trkpt lat="45.84752" lon="6.24142">
        <ele>1072</ele>
        <time>2010-04-23T18:10:31Z</time>
      </trkpt>
      <trkpt lat="45.84749" lon="6.24146">
        <ele>1072</ele>
        <time>2010-04-23T18:10:33Z</time>
      </trkpt>
      <trkpt lat="45.84748" lon="6.2415">
        <ele>1072</ele>
        <time>2010-04-23T18:10:35Z</time>
      </trkpt>
      <trkpt lat="45.84746" lon="6.24154">
        <ele>1072</ele>
        <time>2010-04-23T18:10:37Z</time>
      </trkpt>
      <trkpt lat="45.84745" lon="6.24157">
        <ele>1073</ele>
        <time>2010-04-23T18:10:39Z</time>
      </trkpt>
      <trkpt lat="45.84742" lon="6.24158">
        <ele>1076</ele>
        <time>2010-04-23T18:10:42Z</time>
      </trkpt>
      <trkpt lat="45.84738" lon="6.24161">
        <ele>1079</ele>
        <time>2010-04-23T18:10:45Z</time>
      </trkpt>
      <trkpt lat="45.84737" lon="6.24162">
        <ele>1081</ele>
        <time>2010-04-23T18:10:47Z</time>
      </trkpt>
      <trkpt lat="45.84735" lon="6.24166">
        <ele>1083</ele>
        <time>2010-04-23T18:10:49Z</time>
      </trkpt>
      <trkpt lat="45.84735" lon="6.2417">
        <ele>1085</ele>
        <time>2010-04-23T18:10:51Z</time>
      </trkpt>
      <trkpt lat="45.84733" lon="6.24176">
        <ele>1087</ele>
        <time>2010-04-23T18:10:53Z</time>
      </trkpt>
      <trkpt lat="45.84735" lon="6.2418">
        <ele>1089</ele>
        <time>2010-04-23T18:10:55Z</time>
      </trkpt>
      <trkpt lat="45.84737" lon="6.24182">
        <ele>1092</ele>
        <time>2010-04-23T18:10:59Z</time>
      </trkpt>
      <trkpt lat="45.84738" lon="6.24179">
        <ele>1092</ele>
        <time>2010-04-23T18:11:02Z</time>
      </trkpt>
      <trkpt lat="45.84737" lon="6.24176">
        <ele>1093</ele>
        <time>2010-04-23T18:11:05Z</time>
      </trkpt>
      <trkpt lat="45.84739" lon="6.24175">
        <ele>1094</ele>
        <time>2010-04-23T18:11:09Z</time>
      </trkpt>
      <trkpt lat="45.84739" lon="6.24177">
        <ele>1094</ele>
        <time>2010-04-23T18:11:11Z</time>
      </trkpt>
      <trkpt lat="45.84737" lon="6.24181">
        <ele>1094</ele>
        <time>2010-04-23T18:11:13Z</time>
      </trkpt>
      <trkpt lat="45.84734" lon="6.24184">
        <ele>1094</ele>
        <time>2010-04-23T18:11:15Z</time>
      </trkpt>
      <trkpt lat="45.84731" lon="6.24184">
        <ele>1094</ele>
        <time>2010-04-23T18:11:17Z</time>
      </trkpt>
      <trkpt lat="45.84727" lon="6.24179">
        <ele>1095</ele>
        <time>2010-04-23T18:11:19Z</time>
      </trkpt>
      <trkpt lat="45.84724" lon="6.24171">
        <ele>1097</ele>
        <time>2010-04-23T18:11:21Z</time>
      </trkpt>
      <trkpt lat="45.84722" lon="6.24168">
        <ele>1100</ele>
        <time>2010-04-23T18:11:24Z</time>
      </trkpt>
      <trkpt lat="45.8472" lon="6.24164">
        <ele>1101</ele>
        <time>2010-04-23T18:11:26Z</time>
      </trkpt>
      <trkpt lat="45.84715" lon="6.2416">
        <ele>1102</ele>
        <time>2010-04-23T18:11:28Z</time>
      </trkpt>
      <trkpt lat="45.8471" lon="6.24157">
        <ele>1103</ele>
        <time>2010-04-23T18:11:30Z</time>
      </trkpt>
      <trkpt lat="45.84706" lon="6.24155">
        <ele>1103</ele>
        <time>2010-04-23T18:11:32Z</time>
      </trkpt>
      <trkpt lat="45.84701" lon="6.2415">
        <ele>1103</ele>
        <time>2010-04-23T18:11:34Z</time>
      </trkpt>
      <trkpt lat="45.84697" lon="6.24145">
        <ele>1103</ele>
        <time>2010-04-23T18:11:36Z</time>
      </trkpt>
      <trkpt lat="45.84691" lon="6.24139">
        <ele>1103</ele>
        <time>2010-04-23T18:11:38Z</time>
      </trkpt>
      <trkpt lat="45.84687" lon="6.24132">
        <ele>1103</ele>
        <time>2010-04-23T18:11:40Z</time>
      </trkpt>
      <trkpt lat="45.84682" lon="6.24127">
        <ele>1102</ele>
        <time>2010-04-23T18:11:42Z</time>
      </trkpt>
      <trkpt lat="45.8468" lon="6.24122">
        <ele>1100</ele>
        <time>2010-04-23T18:11:44Z</time>
      </trkpt>
      <trkpt lat="45.84675" lon="6.24119">
        <ele>1099</ele>
        <time>2010-04-23T18:11:46Z</time>
      </trkpt>
      <trkpt lat="45.8467" lon="6.24118">
        <ele>1097</ele>
        <time>2010-04-23T18:11:48Z</time>
      </trkpt>
      <trkpt lat="45.84665" lon="6.24118">
        <ele>1095</ele>
        <time>2010-04-23T18:11:50Z</time>
      </trkpt>
      <trkpt lat="45.84661" lon="6.24116">
        <ele>1093</ele>
        <time>2010-04-23T18:11:52Z</time>
      </trkpt>
      <trkpt lat="45.84657" lon="6.24114">
        <ele>1092</ele>
        <time>2010-04-23T18:11:54Z</time>
      </trkpt>
      <trkpt lat="45.84652" lon="6.24113">
        <ele>1092</ele>
        <time>2010-04-23T18:11:56Z</time>
      </trkpt>
      <trkpt lat="45.84646" lon="6.24112">
        <ele>1092</ele>
        <time>2010-04-23T18:11:58Z</time>
      </trkpt>
      <trkpt lat="45.84642" lon="6.24112">
        <ele>1092</ele>
        <time>2010-04-23T18:12:00Z</time>
      </trkpt>
      <trkpt lat="45.84638" lon="6.24111">
        <ele>1092</ele>
        <time>2010-04-23T18:12:02Z</time>
      </trkpt>
      <trkpt lat="45.84634" lon="6.24112">
        <ele>1092</ele>
        <time>2010-04-23T18:12:04Z</time>
      </trkpt>
      <trkpt lat="45.84631" lon="6.24111">
        <ele>1092</ele>
        <time>2010-04-23T18:12:07Z</time>
      </trkpt>
      <trkpt lat="45.84627" lon="6.24109">
        <ele>1093</ele>
        <time>2010-04-23T18:12:10Z</time>
      </trkpt>
      <trkpt lat="45.84623" lon="6.24107">
        <ele>1095</ele>
        <time>2010-04-23T18:12:12Z</time>
      </trkpt>
      <trkpt lat="45.84618" lon="6.24106">
        <ele>1097</ele>
        <time>2010-04-23T18:12:14Z</time>
      </trkpt>
      <trkpt lat="45.84616" lon="6.24105">
        <ele>1099</ele>
        <time>2010-04-23T18:12:16Z</time>
      </trkpt>
      <trkpt lat="45.84613" lon="6.24104">
        <ele>1101</ele>
        <time>2010-04-23T18:12:18Z</time>
      </trkpt>
      <trkpt lat="45.84609" lon="6.24101">
        <ele>1103</ele>
        <time>2010-04-23T18:12:20Z</time>
      </trkpt>
      <trkpt lat="45.84604" lon="6.24098">
        <ele>1105</ele>
        <time>2010-04-23T18:12:22Z</time>
      </trkpt>
      <trkpt lat="45.84598" lon="6.24095">
        <ele>1107</ele>
        <time>2010-04-23T18:12:24Z</time>
      </trkpt>
      <trkpt lat="45.84592" lon="6.2409">
        <ele>1109</ele>
        <time>2010-04-23T18:12:26Z</time>
      </trkpt>
      <trkpt lat="45.84587" lon="6.24082">
        <ele>1111</ele>
        <time>2010-04-23T18:12:28Z</time>
      </trkpt>
      <trkpt lat="45.84584" lon="6.24073">
        <ele>1113</ele>
        <time>2010-04-23T18:12:30Z</time>
      </trkpt>
      <trkpt lat="45.84579" lon="6.24069">
        <ele>1116</ele>
        <time>2010-04-23T18:12:33Z</time>
      </trkpt>
      <trkpt lat="45.84576" lon="6.24068">
        <ele>1116</ele>
        <time>2010-04-23T18:12:35Z</time>
      </trkpt>
      <trkpt lat="45.84573" lon="6.24067">
        <ele>1116</ele>
        <time>2010-04-23T18:12:39Z</time>
      </trkpt>
      <trkpt lat="45.8457" lon="6.24063">
        <ele>1116</ele>
        <time>2010-04-23T18:12:42Z</time>
      </trkpt>
      <trkpt lat="45.84569" lon="6.24061">
        <ele>1115</ele>
        <time>2010-04-23T18:12:45Z</time>
      </trkpt>
      <trkpt lat="45.84568" lon="6.24061">
        <ele>1115</ele>
        <time>2010-04-23T18:12:47Z</time>
      </trkpt>
      <trkpt lat="45.84565" lon="6.24062">
        <ele>1114</ele>
        <time>2010-04-23T18:12:50Z</time>
      </trkpt>
      <trkpt lat="45.84562" lon="6.24058">
        <ele>1113</ele>
        <time>2010-04-23T18:12:53Z</time>
      </trkpt>
      <trkpt lat="45.84559" lon="6.24057">
        <ele>1113</ele>
        <time>2010-04-23T18:12:55Z</time>
      </trkpt>
      <trkpt lat="45.84555" lon="6.24055">
        <ele>1113</ele>
        <time>2010-04-23T18:12:58Z</time>
      </trkpt>
      <trkpt lat="45.84552" lon="6.24054">
        <ele>1113</ele>
        <time>2010-04-23T18:13:00Z</time>
      </trkpt>
      <trkpt lat="45.84549" lon="6.24053">
        <ele>1113</ele>
        <time>2010-04-23T18:13:03Z</time>
      </trkpt>
      <trkpt lat="45.84546" lon="6.24051">
        <ele>1113</ele>
        <time>2010-04-23T18:13:06Z</time>
      </trkpt>
      <trkpt lat="45.84543" lon="6.2405">
        <ele>1113</ele>
        <time>2010-04-23T18:13:08Z</time>
      </trkpt>
      <trkpt lat="45.84539" lon="6.24049">
        <ele>1113</ele>
        <time>2010-04-23T18:13:11Z</time>
      </trkpt>
      <trkpt lat="45.84538" lon="6.24049">
        <ele>1113</ele>
        <time>2010-04-23T18:13:13Z</time>
      </trkpt>
      <trkpt lat="45.84535" lon="6.24049">
        <ele>1113</ele>
        <time>2010-04-23T18:13:15Z</time>
      </trkpt>
      <trkpt lat="45.84534" lon="6.24048">
        <ele>1112</ele>
        <time>2010-04-23T18:13:17Z</time>
      </trkpt>
      <trkpt lat="45.84531" lon="6.24046">
        <ele>1112</ele>
        <time>2010-04-23T18:13:19Z</time>
      </trkpt>
      <trkpt lat="45.8453" lon="6.24042">
        <ele>1112</ele>
        <time>2010-04-23T18:13:21Z</time>
      </trkpt>
      <trkpt lat="45.84527" lon="6.24041">
        <ele>1112</ele>
        <time>2010-04-23T18:13:23Z</time>
      </trkpt>
      <trkpt lat="45.84523" lon="6.24039">
        <ele>1112</ele>
        <time>2010-04-23T18:13:25Z</time>
      </trkpt>
      <trkpt lat="45.8452" lon="6.24038">
        <ele>1112</ele>
        <time>2010-04-23T18:13:27Z</time>
      </trkpt>
      <trkpt lat="45.84517" lon="6.24037">
        <ele>1113</ele>
        <time>2010-04-23T18:13:29Z</time>
      </trkpt>
      <trkpt lat="45.84515" lon="6.24037">
        <ele>1115</ele>
        <time>2010-04-23T18:13:31Z</time>
      </trkpt>
      <trkpt lat="45.84512" lon="6.24036">
        <ele>1116</ele>
        <time>2010-04-23T18:13:33Z</time>
      </trkpt>
      <trkpt lat="45.84509" lon="6.24031">
        <ele>1118</ele>
        <time>2010-04-23T18:13:35Z</time>
      </trkpt>
      <trkpt lat="45.84505" lon="6.24029">
        <ele>1120</ele>
        <time>2010-04-23T18:13:37Z</time>
      </trkpt>
      <trkpt lat="45.84503" lon="6.24028">
        <ele>1122</ele>
        <time>2010-04-23T18:13:39Z</time>
      </trkpt>
      <trkpt lat="45.84503" lon="6.24029">
        <ele>1124</ele>
        <time>2010-04-23T18:13:41Z</time>
      </trkpt>
      <trkpt lat="45.84505" lon="6.24029">
        <ele>1125</ele>
        <time>2010-04-23T18:13:46Z</time>
      </trkpt>
      <trkpt lat="45.84505" lon="6.24024">
        <ele>1125</ele>
        <time>2010-04-23T18:13:48Z</time>
      </trkpt>
      <trkpt lat="45.84503" lon="6.24015">
        <ele>1125</ele>
        <time>2010-04-23T18:13:50Z</time>
      </trkpt>
      <trkpt lat="45.84503" lon="6.2401">
        <ele>1125</ele>
        <time>2010-04-23T18:13:53Z</time>
      </trkpt>
      <trkpt lat="45.84504" lon="6.24003">
        <ele>1125</ele>
        <time>2010-04-23T18:13:55Z</time>
      </trkpt>
      <trkpt lat="45.84505" lon="6.23995">
        <ele>1124</ele>
        <time>2010-04-23T18:13:57Z</time>
      </trkpt>
      <trkpt lat="45.84505" lon="6.23988">
        <ele>1122</ele>
        <time>2010-04-23T18:13:59Z</time>
      </trkpt>
      <trkpt lat="45.84504" lon="6.23983">
        <ele>1121</ele>
        <time>2010-04-23T18:14:01Z</time>
      </trkpt>
      <trkpt lat="45.845" lon="6.23975">
        <ele>1119</ele>
        <time>2010-04-23T18:14:03Z</time>
      </trkpt>
      <trkpt lat="45.84496" lon="6.23968">
        <ele>1117</ele>
        <time>2010-04-23T18:14:05Z</time>
      </trkpt>
      <trkpt lat="45.84492" lon="6.23964">
        <ele>1115</ele>
        <time>2010-04-23T18:14:07Z</time>
      </trkpt>
      <trkpt lat="45.84489" lon="6.23964">
        <ele>1112</ele>
        <time>2010-04-23T18:14:10Z</time>
      </trkpt>
      <trkpt lat="45.84486" lon="6.23965">
        <ele>1110</ele>
        <time>2010-04-23T18:14:12Z</time>
      </trkpt>
      <trkpt lat="45.84484" lon="6.23965">
        <ele>1109</ele>
        <time>2010-04-23T18:14:14Z</time>
      </trkpt>
      <trkpt lat="45.84483" lon="6.23967">
        <ele>1108</ele>
        <time>2010-04-23T18:14:16Z</time>
      </trkpt>
      <trkpt lat="45.84484" lon="6.23965">
        <ele>1108</ele>
        <time>2010-04-23T18:14:20Z</time>
      </trkpt>
      <trkpt lat="45.84486" lon="6.23964">
        <ele>1108</ele>
        <time>2010-04-23T18:14:22Z</time>
      </trkpt>
      <trkpt lat="45.84488" lon="6.23966">
        <ele>1107</ele>
        <time>2010-04-23T18:14:24Z</time>
      </trkpt>
      <trkpt lat="45.84489" lon="6.23968">
        <ele>1106</ele>
        <time>2010-04-23T18:14:26Z</time>
      </trkpt>
      <trkpt lat="45.84501" lon="6.23957">
        <ele>1118</ele>
        <time>2010-04-23T18:14:29Z</time>
      </trkpt>
      <trkpt lat="45.84499" lon="6.23954">
        <ele>1116</ele>
        <time>2010-04-23T18:14:31Z</time>
      </trkpt>
      <trkpt lat="45.84496" lon="6.2395">
        <ele>1114</ele>
        <time>2010-04-23T18:14:33Z</time>
      </trkpt>
      <trkpt lat="45.84492" lon="6.23947">
        <ele>1111</ele>
        <time>2010-04-23T18:14:35Z</time>
      </trkpt>
      <trkpt lat="45.84487" lon="6.23945">
        <ele>1108</ele>
        <time>2010-04-23T18:14:37Z</time>
      </trkpt>
      <trkpt lat="45.84483" lon="6.23944">
        <ele>1106</ele>
        <time>2010-04-23T18:14:39Z</time>
      </trkpt>
      <trkpt lat="45.84478" lon="6.23943">
        <ele>1104</ele>
        <time>2010-04-23T18:14:41Z</time>
      </trkpt>
      <trkpt lat="45.84473" lon="6.23942">
        <ele>1102</ele>
        <time>2010-04-23T18:14:43Z</time>
      </trkpt>
      <trkpt lat="45.84467" lon="6.23943">
        <ele>1100</ele>
        <time>2010-04-23T18:14:45Z</time>
      </trkpt>
      <trkpt lat="45.8446" lon="6.23943">
        <ele>1098</ele>
        <time>2010-04-23T18:14:47Z</time>
      </trkpt>
      <trkpt lat="45.84455" lon="6.23944">
        <ele>1096</ele>
        <time>2010-04-23T18:14:49Z</time>
      </trkpt>
      <trkpt lat="45.84452" lon="6.23947">
        <ele>1094</ele>
        <time>2010-04-23T18:14:51Z</time>
      </trkpt>
      <trkpt lat="45.84448" lon="6.23952">
        <ele>1092</ele>
        <time>2010-04-23T18:14:53Z</time>
      </trkpt>
      <trkpt lat="45.84443" lon="6.23958">
        <ele>1090</ele>
        <time>2010-04-23T18:14:55Z</time>
      </trkpt>
      <trkpt lat="45.8444" lon="6.23965">
        <ele>1088</ele>
        <time>2010-04-23T18:14:57Z</time>
      </trkpt>
      <trkpt lat="45.84437" lon="6.23971">
        <ele>1086</ele>
        <time>2010-04-23T18:14:59Z</time>
      </trkpt>
      <trkpt lat="45.84435" lon="6.23976">
        <ele>1084</ele>
        <time>2010-04-23T18:15:01Z</time>
      </trkpt>
      <trkpt lat="45.84433" lon="6.23981">
        <ele>1082</ele>
        <time>2010-04-23T18:15:03Z</time>
      </trkpt>
      <trkpt lat="45.84431" lon="6.23985">
        <ele>1081</ele>
        <time>2010-04-23T18:15:05Z</time>
      </trkpt>
      <trkpt lat="45.8443" lon="6.23992">
        <ele>1079</ele>
        <time>2010-04-23T18:15:07Z</time>
      </trkpt>
      <trkpt lat="45.84431" lon="6.23999">
        <ele>1077</ele>
        <time>2010-04-23T18:15:09Z</time>
      </trkpt>
      <trkpt lat="45.84429" lon="6.24006">
        <ele>1075</ele>
        <time>2010-04-23T18:15:11Z</time>
      </trkpt>
      <trkpt lat="45.84427" lon="6.24013">
        <ele>1073</ele>
        <time>2010-04-23T18:15:13Z</time>
      </trkpt>
      <trkpt lat="45.84425" lon="6.24022">
        <ele>1071</ele>
        <time>2010-04-23T18:15:15Z</time>
      </trkpt>
      <trkpt lat="45.84422" lon="6.2403">
        <ele>1069</ele>
        <time>2010-04-23T18:15:17Z</time>
      </trkpt>
      <trkpt lat="45.84421" lon="6.24035">
        <ele>1065</ele>
        <time>2010-04-23T18:15:21Z</time>
      </trkpt>
      <trkpt lat="45.84421" lon="6.24034">
        <ele>1057</ele>
        <time>2010-04-23T18:15:28Z</time>
      </trkpt>
      <trkpt lat="45.8442" lon="6.24031">
        <ele>1055</ele>
        <time>2010-04-23T18:15:30Z</time>
      </trkpt>
      <trkpt lat="45.84418" lon="6.24027">
        <ele>1053</ele>
        <time>2010-04-23T18:15:32Z</time>
      </trkpt>
      <trkpt lat="45.84417" lon="6.24025">
        <ele>1052</ele>
        <time>2010-04-23T18:15:34Z</time>
      </trkpt>
      <trkpt lat="45.84415" lon="6.24024">
        <ele>1052</ele>
        <time>2010-04-23T18:15:36Z</time>
      </trkpt>
      <trkpt lat="45.84415" lon="6.24027">
        <ele>1053</ele>
        <time>2010-04-23T18:15:41Z</time>
      </trkpt>
      <trkpt lat="45.84414" lon="6.24032">
        <ele>1053</ele>
        <time>2010-04-23T18:15:43Z</time>
      </trkpt>
      <trkpt lat="45.84414" lon="6.24037">
        <ele>1055</ele>
        <time>2010-04-23T18:15:45Z</time>
      </trkpt>
      <trkpt lat="45.84414" lon="6.24043">
        <ele>1057</ele>
        <time>2010-04-23T18:15:47Z</time>
      </trkpt>
      <trkpt lat="45.84415" lon="6.24048">
        <ele>1058</ele>
        <time>2010-04-23T18:15:49Z</time>
      </trkpt>
      <trkpt lat="45.84415" lon="6.24055">
        <ele>1060</ele>
        <time>2010-04-23T18:15:51Z</time>
      </trkpt>
      <trkpt lat="45.84414" lon="6.24061">
        <ele>1061</ele>
        <time>2010-04-23T18:15:53Z</time>
      </trkpt>
      <trkpt lat="45.84415" lon="6.24065">
        <ele>1063</ele>
        <time>2010-04-23T18:15:55Z</time>
      </trkpt>
      <trkpt lat="45.84414" lon="6.24069">
        <ele>1065</ele>
        <time>2010-04-23T18:15:57Z</time>
      </trkpt>
      <trkpt lat="45.84413" lon="6.24077">
        <ele>1066</ele>
        <time>2010-04-23T18:15:59Z</time>
      </trkpt>
      <trkpt lat="45.84413" lon="6.24085">
        <ele>1068</ele>
        <time>2010-04-23T18:16:01Z</time>
      </trkpt>
      <trkpt lat="45.84413" lon="6.24092">
        <ele>1070</ele>
        <time>2010-04-23T18:16:03Z</time>
      </trkpt>
      <trkpt lat="45.84413" lon="6.241">
        <ele>1072</ele>
        <time>2010-04-23T18:16:05Z</time>
      </trkpt>
      <trkpt lat="45.84415" lon="6.24104">
        <ele>1074</ele>
        <time>2010-04-23T18:16:07Z</time>
      </trkpt>
      <trkpt lat="45.84415" lon="6.24112">
        <ele>1074</ele>
        <time>2010-04-23T18:16:09Z</time>
      </trkpt>
      <trkpt lat="45.84415" lon="6.2412">
        <ele>1075</ele>
        <time>2010-04-23T18:16:11Z</time>
      </trkpt>
      <trkpt lat="45.84415" lon="6.24124">
        <ele>1077</ele>
        <time>2010-04-23T18:16:13Z</time>
      </trkpt>
      <trkpt lat="45.84418" lon="6.24127">
        <ele>1079</ele>
        <time>2010-04-23T18:16:15Z</time>
      </trkpt>
      <trkpt lat="45.84419" lon="6.24129">
        <ele>1081</ele>
        <time>2010-04-23T18:16:17Z</time>
      </trkpt>
      <trkpt lat="45.84422" lon="6.24132">
        <ele>1082</ele>
        <time>2010-04-23T18:16:19Z</time>
      </trkpt>
      <trkpt lat="45.84423" lon="6.24136">
        <ele>1082</ele>
        <time>2010-04-23T18:16:21Z</time>
      </trkpt>
      <trkpt lat="45.84422" lon="6.24143">
        <ele>1083</ele>
        <time>2010-04-23T18:16:23Z</time>
      </trkpt>
      <trkpt lat="45.84423" lon="6.24147">
        <ele>1084</ele>
        <time>2010-04-23T18:16:25Z</time>
      </trkpt>
      <trkpt lat="45.84426" lon="6.24152">
        <ele>1084</ele>
        <time>2010-04-23T18:16:27Z</time>
      </trkpt>
      <trkpt lat="45.84428" lon="6.24157">
        <ele>1084</ele>
        <time>2010-04-23T18:16:29Z</time>
      </trkpt>
      <trkpt lat="45.84428" lon="6.24161">
        <ele>1085</ele>
        <time>2010-04-23T18:16:31Z</time>
      </trkpt>
      <trkpt lat="45.84429" lon="6.24165">
        <ele>1086</ele>
        <time>2010-04-23T18:16:33Z</time>
      </trkpt>
      <trkpt lat="45.8443" lon="6.24167">
        <ele>1086</ele>
        <time>2010-04-23T18:16:35Z</time>
      </trkpt>
      <trkpt lat="45.84431" lon="6.24171">
        <ele>1086</ele>
        <time>2010-04-23T18:16:37Z</time>
      </trkpt>
      <trkpt lat="45.84431" lon="6.24173">
        <ele>1086</ele>
        <time>2010-04-23T18:16:39Z</time>
      </trkpt>
      <trkpt lat="45.84431" lon="6.24175">
        <ele>1087</ele>
        <time>2010-04-23T18:16:41Z</time>
      </trkpt>
      <trkpt lat="45.84432" lon="6.24178">
        <ele>1087</ele>
        <time>2010-04-23T18:16:43Z</time>
      </trkpt>
      <trkpt lat="45.84433" lon="6.24184">
        <ele>1087</ele>
        <time>2010-04-23T18:16:46Z</time>
      </trkpt>
      <trkpt lat="45.84434" lon="6.24188">
        <ele>1087</ele>
        <time>2010-04-23T18:16:48Z</time>
      </trkpt>
      <trkpt lat="45.84435" lon="6.24194">
        <ele>1087</ele>
        <time>2010-04-23T18:16:50Z</time>
      </trkpt>
      <trkpt lat="45.84436" lon="6.24198">
        <ele>1087</ele>
        <time>2010-04-23T18:16:53Z</time>
      </trkpt>
      <trkpt lat="45.84438" lon="6.242">
        <ele>1087</ele>
        <time>2010-04-23T18:16:55Z</time>
      </trkpt>
      <trkpt lat="45.8444" lon="6.24203">
        <ele>1087</ele>
        <time>2010-04-23T18:16:57Z</time>
      </trkpt>
      <trkpt lat="45.84444" lon="6.24206">
        <ele>1087</ele>
        <time>2010-04-23T18:16:59Z</time>
      </trkpt>
      <trkpt lat="45.84444" lon="6.24211">
        <ele>1087</ele>
        <time>2010-04-23T18:17:01Z</time>
      </trkpt>
      <trkpt lat="45.84447" lon="6.24213">
        <ele>1088</ele>
        <time>2010-04-23T18:17:03Z</time>
      </trkpt>
      <trkpt lat="45.84448" lon="6.24217">
        <ele>1091</ele>
        <time>2010-04-23T18:17:06Z</time>
      </trkpt>
      <trkpt lat="45.8445" lon="6.2422">
        <ele>1092</ele>
        <time>2010-04-23T18:17:08Z</time>
      </trkpt>
      <trkpt lat="45.84449" lon="6.24223">
        <ele>1093</ele>
        <time>2010-04-23T18:17:10Z</time>
      </trkpt>
      <trkpt lat="45.84449" lon="6.24228">
        <ele>1096</ele>
        <time>2010-04-23T18:17:13Z</time>
      </trkpt>
      <trkpt lat="45.8445" lon="6.24234">
        <ele>1099</ele>
        <time>2010-04-23T18:17:17Z</time>
      </trkpt>
      <trkpt lat="45.84451" lon="6.24238">
        <ele>1100</ele>
        <time>2010-04-23T18:17:19Z</time>
      </trkpt>
      <trkpt lat="45.84452" lon="6.24242">
        <ele>1101</ele>
        <time>2010-04-23T18:17:22Z</time>
      </trkpt>
      <trkpt lat="45.84452" lon="6.24244">
        <ele>1103</ele>
        <time>2010-04-23T18:17:25Z</time>
      </trkpt>
      <trkpt lat="45.84453" lon="6.24248">
        <ele>1104</ele>
        <time>2010-04-23T18:17:28Z</time>
      </trkpt>
      <trkpt lat="45.84458" lon="6.24248">
        <ele>1104</ele>
        <time>2010-04-23T18:17:30Z</time>
      </trkpt>
      <trkpt lat="45.8446" lon="6.2425">
        <ele>1104</ele>
        <time>2010-04-23T18:17:32Z</time>
      </trkpt>
      <trkpt lat="45.84462" lon="6.2425">
        <ele>1104</ele>
        <time>2010-04-23T18:17:34Z</time>
      </trkpt>
      <trkpt lat="45.84464" lon="6.24253">
        <ele>1104</ele>
        <time>2010-04-23T18:17:36Z</time>
      </trkpt>
      <trkpt lat="45.84465" lon="6.24256">
        <ele>1104</ele>
        <time>2010-04-23T18:17:38Z</time>
      </trkpt>
      <trkpt lat="45.84466" lon="6.24259">
        <ele>1103</ele>
        <time>2010-04-23T18:17:40Z</time>
      </trkpt>
      <trkpt lat="45.84467" lon="6.24262">
        <ele>1103</ele>
        <time>2010-04-23T18:17:42Z</time>
      </trkpt>
      <trkpt lat="45.84469" lon="6.24266">
        <ele>1103</ele>
        <time>2010-04-23T18:17:46Z</time>
      </trkpt>
      <trkpt lat="45.84471" lon="6.24271">
        <ele>1103</ele>
        <time>2010-04-23T18:17:48Z</time>
      </trkpt>
      <trkpt lat="45.84472" lon="6.24274">
        <ele>1103</ele>
        <time>2010-04-23T18:17:50Z</time>
      </trkpt>
      <trkpt lat="45.84471" lon="6.24277">
        <ele>1105</ele>
        <time>2010-04-23T18:17:52Z</time>
      </trkpt>
      <trkpt lat="45.8447" lon="6.24281">
        <ele>1107</ele>
        <time>2010-04-23T18:17:54Z</time>
      </trkpt>
      <trkpt lat="45.84469" lon="6.24283">
        <ele>1111</ele>
        <time>2010-04-23T18:17:57Z</time>
      </trkpt>
      <trkpt lat="45.8447" lon="6.24287">
        <ele>1115</ele>
        <time>2010-04-23T18:17:59Z</time>
      </trkpt>
      <trkpt lat="45.84471" lon="6.24289">
        <ele>1119</ele>
        <time>2010-04-23T18:18:03Z</time>
      </trkpt>
      <trkpt lat="45.84474" lon="6.24294">
        <ele>1122</ele>
        <time>2010-04-23T18:18:06Z</time>
      </trkpt>
      <trkpt lat="45.84473" lon="6.24298">
        <ele>1124</ele>
        <time>2010-04-23T18:18:08Z</time>
      </trkpt>
      <trkpt lat="45.84472" lon="6.24299">
        <ele>1126</ele>
        <time>2010-04-23T18:18:10Z</time>
      </trkpt>
      <trkpt lat="45.84472" lon="6.24303">
        <ele>1129</ele>
        <time>2010-04-23T18:18:17Z</time>
      </trkpt>
      <trkpt lat="45.84473" lon="6.24308">
        <ele>1129</ele>
        <time>2010-04-23T18:18:19Z</time>
      </trkpt>
      <trkpt lat="45.84474" lon="6.2431">
        <ele>1128</ele>
        <time>2010-04-23T18:18:22Z</time>
      </trkpt>
      <trkpt lat="45.84476" lon="6.24314">
        <ele>1126</ele>
        <time>2010-04-23T18:18:24Z</time>
      </trkpt>
      <trkpt lat="45.84476" lon="6.24317">
        <ele>1124</ele>
        <time>2010-04-23T18:18:27Z</time>
      </trkpt>
      <trkpt lat="45.84478" lon="6.2432">
        <ele>1124</ele>
        <time>2010-04-23T18:18:29Z</time>
      </trkpt>
      <trkpt lat="45.84476" lon="6.2432">
        <ele>1124</ele>
        <time>2010-04-23T18:18:31Z</time>
      </trkpt>
      <trkpt lat="45.84476" lon="6.24322">
        <ele>1124</ele>
        <time>2010-04-23T18:18:33Z</time>
      </trkpt>
      <trkpt lat="45.84477" lon="6.24325">
        <ele>1124</ele>
        <time>2010-04-23T18:18:35Z</time>
      </trkpt>
      <trkpt lat="45.84479" lon="6.24328">
        <ele>1124</ele>
        <time>2010-04-23T18:18:37Z</time>
      </trkpt>
      <trkpt lat="45.8448" lon="6.24331">
        <ele>1124</ele>
        <time>2010-04-23T18:18:39Z</time>
      </trkpt>
      <trkpt lat="45.84481" lon="6.24336">
        <ele>1124</ele>
        <time>2010-04-23T18:18:42Z</time>
      </trkpt>
      <trkpt lat="45.84484" lon="6.24337">
        <ele>1124</ele>
        <time>2010-04-23T18:18:44Z</time>
      </trkpt>
      <trkpt lat="45.84486" lon="6.24337">
        <ele>1124</ele>
        <time>2010-04-23T18:18:46Z</time>
      </trkpt>
      <trkpt lat="45.84487" lon="6.24338">
        <ele>1124</ele>
        <time>2010-04-23T18:18:49Z</time>
      </trkpt>
      <trkpt lat="45.84486" lon="6.24343">
        <ele>1124</ele>
        <time>2010-04-23T18:18:51Z</time>
      </trkpt>
      <trkpt lat="45.84486" lon="6.24345">
        <ele>1125</ele>
        <time>2010-04-23T18:18:53Z</time>
      </trkpt>
      <trkpt lat="45.84487" lon="6.24349">
        <ele>1127</ele>
        <time>2010-04-23T18:18:55Z</time>
      </trkpt>
      <trkpt lat="45.84489" lon="6.24351">
        <ele>1129</ele>
        <time>2010-04-23T18:18:57Z</time>
      </trkpt>
      <trkpt lat="45.84491" lon="6.24353">
        <ele>1129</ele>
        <time>2010-04-23T18:18:59Z</time>
      </trkpt>
      <trkpt lat="45.84492" lon="6.24355">
        <ele>1129</ele>
        <time>2010-04-23T18:19:01Z</time>
      </trkpt>
      <trkpt lat="45.84494" lon="6.24356">
        <ele>1129</ele>
        <time>2010-04-23T18:19:03Z</time>
      </trkpt>
      <trkpt lat="45.84496" lon="6.24359">
        <ele>1129</ele>
        <time>2010-04-23T18:19:05Z</time>
      </trkpt>
      <trkpt lat="45.84497" lon="6.24362">
        <ele>1129</ele>
        <time>2010-04-23T18:19:07Z</time>
      </trkpt>
      <trkpt lat="45.84497" lon="6.24366">
        <ele>1129</ele>
        <time>2010-04-23T18:19:09Z</time>
      </trkpt>
      <trkpt lat="45.845" lon="6.24369">
        <ele>1129</ele>
        <time>2010-04-23T18:19:11Z</time>
      </trkpt>
      <trkpt lat="45.845" lon="6.24374">
        <ele>1129</ele>
        <time>2010-04-23T18:19:13Z</time>
      </trkpt>
      <trkpt lat="45.84501" lon="6.24378">
        <ele>1129</ele>
        <time>2010-04-23T18:19:15Z</time>
      </trkpt>
      <trkpt lat="45.84501" lon="6.24382">
        <ele>1129</ele>
        <time>2010-04-23T18:19:17Z</time>
      </trkpt>
      <trkpt lat="45.84502" lon="6.24385">
        <ele>1129</ele>
        <time>2010-04-23T18:19:19Z</time>
      </trkpt>
      <trkpt lat="45.84502" lon="6.24387">
        <ele>1131</ele>
        <time>2010-04-23T18:19:21Z</time>
      </trkpt>
      <trkpt lat="45.84502" lon="6.2439">
        <ele>1134</ele>
        <time>2010-04-23T18:19:24Z</time>
      </trkpt>
      <trkpt lat="45.84501" lon="6.24393">
        <ele>1135</ele>
        <time>2010-04-23T18:19:26Z</time>
      </trkpt>
      <trkpt lat="45.845" lon="6.24399">
        <ele>1137</ele>
        <time>2010-04-23T18:19:29Z</time>
      </trkpt>
      <trkpt lat="45.84499" lon="6.24403">
        <ele>1139</ele>
        <time>2010-04-23T18:19:31Z</time>
      </trkpt>
      <trkpt lat="45.84496" lon="6.24409">
        <ele>1141</ele>
        <time>2010-04-23T18:19:33Z</time>
      </trkpt>
      <trkpt lat="45.84496" lon="6.24414">
        <ele>1144</ele>
        <time>2010-04-23T18:19:36Z</time>
      </trkpt>
      <trkpt lat="45.84497" lon="6.24418">
        <ele>1145</ele>
        <time>2010-04-23T18:19:41Z</time>
      </trkpt>
      <trkpt lat="45.84498" lon="6.24424">
        <ele>1145</ele>
        <time>2010-04-23T18:19:43Z</time>
      </trkpt>
      <trkpt lat="45.845" lon="6.24429">
        <ele>1145</ele>
        <time>2010-04-23T18:19:45Z</time>
      </trkpt>
      <trkpt lat="45.845" lon="6.24433">
        <ele>1145</ele>
        <time>2010-04-23T18:19:48Z</time>
      </trkpt>
      <trkpt lat="45.845" lon="6.24435">
        <ele>1145</ele>
        <time>2010-04-23T18:19:50Z</time>
      </trkpt>
      <trkpt lat="45.84501" lon="6.24439">
        <ele>1145</ele>
        <time>2010-04-23T18:19:53Z</time>
      </trkpt>
      <trkpt lat="45.84502" lon="6.24443">
        <ele>1145</ele>
        <time>2010-04-23T18:19:55Z</time>
      </trkpt>
      <trkpt lat="45.84504" lon="6.24445">
        <ele>1145</ele>
        <time>2010-04-23T18:19:58Z</time>
      </trkpt>
      <trkpt lat="45.84507" lon="6.24449">
        <ele>1145</ele>
        <time>2010-04-23T18:20:01Z</time>
      </trkpt>
      <trkpt lat="45.84507" lon="6.24452">
        <ele>1145</ele>
        <time>2010-04-23T18:20:04Z</time>
      </trkpt>
      <trkpt lat="45.84507" lon="6.24457">
        <ele>1145</ele>
        <time>2010-04-23T18:20:07Z</time>
      </trkpt>
      <trkpt lat="45.84504" lon="6.24458">
        <ele>1145</ele>
        <time>2010-04-23T18:20:11Z</time>
      </trkpt>
      <trkpt lat="45.84501" lon="6.24457">
        <ele>1145</ele>
        <time>2010-04-23T18:20:14Z</time>
      </trkpt>
      <trkpt lat="45.84503" lon="6.24461">
        <ele>1147</ele>
        <time>2010-04-23T18:20:17Z</time>
      </trkpt>
      <trkpt lat="45.84506" lon="6.24465">
        <ele>1149</ele>
        <time>2010-04-23T18:20:19Z</time>
      </trkpt>
      <trkpt lat="45.8451" lon="6.24471">
        <ele>1150</ele>
        <time>2010-04-23T18:20:21Z</time>
      </trkpt>
      <trkpt lat="45.8451" lon="6.24476">
        <ele>1150</ele>
        <time>2010-04-23T18:20:23Z</time>
      </trkpt>
      <trkpt lat="45.8451" lon="6.24482">
        <ele>1150</ele>
        <time>2010-04-23T18:20:25Z</time>
      </trkpt>
      <trkpt lat="45.84512" lon="6.24488">
        <ele>1150</ele>
        <time>2010-04-23T18:20:27Z</time>
      </trkpt>
      <trkpt lat="45.84512" lon="6.24494">
        <ele>1150</ele>
        <time>2010-04-23T18:20:30Z</time>
      </trkpt>
      <trkpt lat="45.84511" lon="6.24498">
        <ele>1150</ele>
        <time>2010-04-23T18:20:33Z</time>
      </trkpt>
      <trkpt lat="45.84515" lon="6.24506">
        <ele>1152</ele>
        <time>2010-04-23T18:20:36Z</time>
      </trkpt>
      <trkpt lat="45.84518" lon="6.2451">
        <ele>1156</ele>
        <time>2010-04-23T18:20:40Z</time>
      </trkpt>
      <trkpt lat="45.84515" lon="6.24511">
        <ele>1158</ele>
        <time>2010-04-23T18:20:42Z</time>
      </trkpt>
      <trkpt lat="45.84512" lon="6.24515">
        <ele>1160</ele>
        <time>2010-04-23T18:20:44Z</time>
      </trkpt>
      <trkpt lat="45.84509" lon="6.24519">
        <ele>1162</ele>
        <time>2010-04-23T18:20:46Z</time>
      </trkpt>
      <trkpt lat="45.84507" lon="6.24522">
        <ele>1163</ele>
        <time>2010-04-23T18:20:48Z</time>
      </trkpt>
      <trkpt lat="45.84506" lon="6.24527">
        <ele>1164</ele>
        <time>2010-04-23T18:20:50Z</time>
      </trkpt>
      <trkpt lat="45.84504" lon="6.24531">
        <ele>1164</ele>
        <time>2010-04-23T18:20:52Z</time>
      </trkpt>
      <trkpt lat="45.845" lon="6.24535">
        <ele>1164</ele>
        <time>2010-04-23T18:20:54Z</time>
      </trkpt>
      <trkpt lat="45.84497" lon="6.2454">
        <ele>1164</ele>
        <time>2010-04-23T18:20:56Z</time>
      </trkpt>
      <trkpt lat="45.84495" lon="6.24544">
        <ele>1164</ele>
        <time>2010-04-23T18:20:58Z</time>
      </trkpt>
      <trkpt lat="45.84493" lon="6.24548">
        <ele>1164</ele>
        <time>2010-04-23T18:21:00Z</time>
      </trkpt>
      <trkpt lat="45.84492" lon="6.24554">
        <ele>1163</ele>
        <time>2010-04-23T18:21:02Z</time>
      </trkpt>
      <trkpt lat="45.84491" lon="6.24558">
        <ele>1160</ele>
        <time>2010-04-23T18:21:05Z</time>
      </trkpt>
      <trkpt lat="45.84491" lon="6.24561">
        <ele>1158</ele>
        <time>2010-04-23T18:21:07Z</time>
      </trkpt>
      <trkpt lat="45.84492" lon="6.24564">
        <ele>1156</ele>
        <time>2010-04-23T18:21:09Z</time>
      </trkpt>
      <trkpt lat="45.84491" lon="6.24563">
        <ele>1154</ele>
        <time>2010-04-23T18:21:11Z</time>
      </trkpt>
      <trkpt lat="45.84489" lon="6.24566">
        <ele>1152</ele>
        <time>2010-04-23T18:21:13Z</time>
      </trkpt>
      <trkpt lat="45.84488" lon="6.2457">
        <ele>1152</ele>
        <time>2010-04-23T18:21:16Z</time>
      </trkpt>
      <trkpt lat="45.84486" lon="6.2457">
        <ele>1152</ele>
        <time>2010-04-23T18:21:18Z</time>
      </trkpt>
      <trkpt lat="45.84483" lon="6.24568">
        <ele>1152</ele>
        <time>2010-04-23T18:21:20Z</time>
      </trkpt>
      <trkpt lat="45.84481" lon="6.24567">
        <ele>1152</ele>
        <time>2010-04-23T18:21:22Z</time>
      </trkpt>
      <trkpt lat="45.84481" lon="6.24572">
        <ele>1153</ele>
        <time>2010-04-23T18:21:24Z</time>
      </trkpt>
      <trkpt lat="45.8448" lon="6.24576">
        <ele>1154</ele>
        <time>2010-04-23T18:21:26Z</time>
      </trkpt>
      <trkpt lat="45.84478" lon="6.24578">
        <ele>1154</ele>
        <time>2010-04-23T18:21:28Z</time>
      </trkpt>
      <trkpt lat="45.84479" lon="6.2458">
        <ele>1155</ele>
        <time>2010-04-23T18:21:31Z</time>
      </trkpt>
      <trkpt lat="45.84479" lon="6.24584">
        <ele>1155</ele>
        <time>2010-04-23T18:21:33Z</time>
      </trkpt>
      <trkpt lat="45.84475" lon="6.24588">
        <ele>1155</ele>
        <time>2010-04-23T18:21:35Z</time>
      </trkpt>
      <trkpt lat="45.84475" lon="6.24593">
        <ele>1155</ele>
        <time>2010-04-23T18:21:37Z</time>
      </trkpt>
      <trkpt lat="45.84475" lon="6.24595">
        <ele>1155</ele>
        <time>2010-04-23T18:21:39Z</time>
      </trkpt>
      <trkpt lat="45.84474" lon="6.24596">
        <ele>1153</ele>
        <time>2010-04-23T18:21:41Z</time>
      </trkpt>
      <trkpt lat="45.84473" lon="6.24597">
        <ele>1152</ele>
        <time>2010-04-23T18:21:43Z</time>
      </trkpt>
      <trkpt lat="45.84471" lon="6.24597">
        <ele>1152</ele>
        <time>2010-04-23T18:21:45Z</time>
      </trkpt>
      <trkpt lat="45.84467" lon="6.24595">
        <ele>1148</ele>
        <time>2010-04-23T18:21:50Z</time>
      </trkpt>
      <trkpt lat="45.84463" lon="6.24593">
        <ele>1146</ele>
        <time>2010-04-23T18:21:52Z</time>
      </trkpt>
      <trkpt lat="45.84459" lon="6.24592">
        <ele>1144</ele>
        <time>2010-04-23T18:21:54Z</time>
      </trkpt>
      <trkpt lat="45.84454" lon="6.24591">
        <ele>1142</ele>
        <time>2010-04-23T18:21:56Z</time>
      </trkpt>
      <trkpt lat="45.84451" lon="6.24591">
        <ele>1140</ele>
        <time>2010-04-23T18:21:58Z</time>
      </trkpt>
      <trkpt lat="45.84448" lon="6.24593">
        <ele>1138</ele>
        <time>2010-04-23T18:22:00Z</time>
      </trkpt>
      <trkpt lat="45.84444" lon="6.24593">
        <ele>1137</ele>
        <time>2010-04-23T18:22:02Z</time>
      </trkpt>
      <trkpt lat="45.8444" lon="6.24591">
        <ele>1137</ele>
        <time>2010-04-23T18:22:04Z</time>
      </trkpt>
      <trkpt lat="45.84435" lon="6.2459">
        <ele>1137</ele>
        <time>2010-04-23T18:22:06Z</time>
      </trkpt>
      <trkpt lat="45.8443" lon="6.24586">
        <ele>1137</ele>
        <time>2010-04-23T18:22:08Z</time>
      </trkpt>
      <trkpt lat="45.84424" lon="6.24585">
        <ele>1137</ele>
        <time>2010-04-23T18:22:10Z</time>
      </trkpt>
      <trkpt lat="45.8442" lon="6.24586">
        <ele>1137</ele>
        <time>2010-04-23T18:22:12Z</time>
      </trkpt>
      <trkpt lat="45.84415" lon="6.24587">
        <ele>1138</ele>
        <time>2010-04-23T18:22:14Z</time>
      </trkpt>
      <trkpt lat="45.8441" lon="6.24587">
        <ele>1139</ele>
        <time>2010-04-23T18:22:16Z</time>
      </trkpt>
      <trkpt lat="45.84405" lon="6.24589">
        <ele>1140</ele>
        <time>2010-04-23T18:22:18Z</time>
      </trkpt>
      <trkpt lat="45.84401" lon="6.24588">
        <ele>1142</ele>
        <time>2010-04-23T18:22:20Z</time>
      </trkpt>
      <trkpt lat="45.84398" lon="6.24591">
        <ele>1142</ele>
        <time>2010-04-23T18:22:24Z</time>
      </trkpt>
      <trkpt lat="45.84394" lon="6.24591">
        <ele>1142</ele>
        <time>2010-04-23T18:22:26Z</time>
      </trkpt>
      <trkpt lat="45.84388" lon="6.2459">
        <ele>1142</ele>
        <time>2010-04-23T18:22:28Z</time>
      </trkpt>
      <trkpt lat="45.84382" lon="6.24592">
        <ele>1142</ele>
        <time>2010-04-23T18:22:30Z</time>
      </trkpt>
      <trkpt lat="45.84376" lon="6.24594">
        <ele>1142</ele>
        <time>2010-04-23T18:22:32Z</time>
      </trkpt>
      <trkpt lat="45.84371" lon="6.24597">
        <ele>1142</ele>
        <time>2010-04-23T18:22:34Z</time>
      </trkpt>
      <trkpt lat="45.84367" lon="6.24601">
        <ele>1142</ele>
        <time>2010-04-23T18:22:36Z</time>
      </trkpt>
      <trkpt lat="45.84362" lon="6.24605">
        <ele>1140</ele>
        <time>2010-04-23T18:22:38Z</time>
      </trkpt>
      <trkpt lat="45.84359" lon="6.24614">
        <ele>1138</ele>
        <time>2010-04-23T18:22:40Z</time>
      </trkpt>
      <trkpt lat="45.84357" lon="6.24624">
        <ele>1136</ele>
        <time>2010-04-23T18:22:42Z</time>
      </trkpt>
      <trkpt lat="45.84354" lon="6.24635">
        <ele>1134</ele>
        <time>2010-04-23T18:22:44Z</time>
      </trkpt>
      <trkpt lat="45.84351" lon="6.24643">
        <ele>1132</ele>
        <time>2010-04-23T18:22:46Z</time>
      </trkpt>
      <trkpt lat="45.84347" lon="6.24647">
        <ele>1130</ele>
        <time>2010-04-23T18:22:48Z</time>
      </trkpt>
      <trkpt lat="45.84342" lon="6.24649">
        <ele>1129</ele>
        <time>2010-04-23T18:22:50Z</time>
      </trkpt>
      <trkpt lat="45.84336" lon="6.24649">
        <ele>1129</ele>
        <time>2010-04-23T18:22:52Z</time>
      </trkpt>
      <trkpt lat="45.84331" lon="6.24645">
        <ele>1129</ele>
        <time>2010-04-23T18:22:54Z</time>
      </trkpt>
      <trkpt lat="45.84327" lon="6.2464">
        <ele>1129</ele>
        <time>2010-04-23T18:22:56Z</time>
      </trkpt>
      <trkpt lat="45.84321" lon="6.24635">
        <ele>1129</ele>
        <time>2010-04-23T18:22:58Z</time>
      </trkpt>
      <trkpt lat="45.84315" lon="6.24632">
        <ele>1129</ele>
        <time>2010-04-23T18:23:00Z</time>
      </trkpt>
      <trkpt lat="45.84308" lon="6.24632">
        <ele>1128</ele>
        <time>2010-04-23T18:23:02Z</time>
      </trkpt>
      <trkpt lat="45.84299" lon="6.2463">
        <ele>1128</ele>
        <time>2010-04-23T18:23:04Z</time>
      </trkpt>
      <trkpt lat="45.84291" lon="6.24626">
        <ele>1128</ele>
        <time>2010-04-23T18:23:06Z</time>
      </trkpt>
      <trkpt lat="45.84284" lon="6.24626">
        <ele>1128</ele>
        <time>2010-04-23T18:23:08Z</time>
      </trkpt>
      <trkpt lat="45.84276" lon="6.24621">
        <ele>1128</ele>
        <time>2010-04-23T18:23:10Z</time>
      </trkpt>
      <trkpt lat="45.84269" lon="6.24622">
        <ele>1128</ele>
        <time>2010-04-23T18:23:12Z</time>
      </trkpt>
      <trkpt lat="45.84262" lon="6.24621">
        <ele>1128</ele>
        <time>2010-04-23T18:23:14Z</time>
      </trkpt>
      <trkpt lat="45.84255" lon="6.24617">
        <ele>1128</ele>
        <time>2010-04-23T18:23:16Z</time>
      </trkpt>
      <trkpt lat="45.84249" lon="6.24614">
        <ele>1128</ele>
        <time>2010-04-23T18:23:18Z</time>
      </trkpt>
      <trkpt lat="45.84243" lon="6.24614">
        <ele>1128</ele>
        <time>2010-04-23T18:23:20Z</time>
      </trkpt>
      <trkpt lat="45.84236" lon="6.24613">
        <ele>1128</ele>
        <time>2010-04-23T18:23:22Z</time>
      </trkpt>
      <trkpt lat="45.8423" lon="6.24614">
        <ele>1128</ele>
        <time>2010-04-23T18:23:24Z</time>
      </trkpt>
      <trkpt lat="45.84225" lon="6.24615">
        <ele>1127</ele>
        <time>2010-04-23T18:23:26Z</time>
      </trkpt>
      <trkpt lat="45.84218" lon="6.24618">
        <ele>1125</ele>
        <time>2010-04-23T18:23:28Z</time>
      </trkpt>
      <trkpt lat="45.84213" lon="6.24619">
        <ele>1124</ele>
        <time>2010-04-23T18:23:30Z</time>
      </trkpt>
      <trkpt lat="45.84209" lon="6.24622">
        <ele>1123</ele>
        <time>2010-04-23T18:23:32Z</time>
      </trkpt>
      <trkpt lat="45.84204" lon="6.24625">
        <ele>1121</ele>
        <time>2010-04-23T18:23:34Z</time>
      </trkpt>
      <trkpt lat="45.842" lon="6.24632">
        <ele>1119</ele>
        <time>2010-04-23T18:23:36Z</time>
      </trkpt>
      <trkpt lat="45.84193" lon="6.24632">
        <ele>1117</ele>
        <time>2010-04-23T18:23:38Z</time>
      </trkpt>
      <trkpt lat="45.84188" lon="6.24638">
        <ele>1116</ele>
        <time>2010-04-23T18:23:40Z</time>
      </trkpt>
      <trkpt lat="45.84185" lon="6.24648">
        <ele>1115</ele>
        <time>2010-04-23T18:23:42Z</time>
      </trkpt>
      <trkpt lat="45.84181" lon="6.24657">
        <ele>1113</ele>
        <time>2010-04-23T18:23:44Z</time>
      </trkpt>
      <trkpt lat="45.84176" lon="6.24667">
        <ele>1111</ele>
        <time>2010-04-23T18:23:46Z</time>
      </trkpt>
      <trkpt lat="45.84172" lon="6.24676">
        <ele>1109</ele>
        <time>2010-04-23T18:23:48Z</time>
      </trkpt>
      <trkpt lat="45.84166" lon="6.24686">
        <ele>1107</ele>
        <time>2010-04-23T18:23:50Z</time>
      </trkpt>
      <trkpt lat="45.84163" lon="6.24697">
        <ele>1105</ele>
        <time>2010-04-23T18:23:52Z</time>
      </trkpt>
      <trkpt lat="45.8416" lon="6.24706">
        <ele>1103</ele>
        <time>2010-04-23T18:23:54Z</time>
      </trkpt>
      <trkpt lat="45.84157" lon="6.24712">
        <ele>1101</ele>
        <time>2010-04-23T18:23:56Z</time>
      </trkpt>
      <trkpt lat="45.84154" lon="6.24719">
        <ele>1100</ele>
        <time>2010-04-23T18:23:58Z</time>
      </trkpt>
      <trkpt lat="45.84151" lon="6.24728">
        <ele>1100</ele>
        <time>2010-04-23T18:24:00Z</time>
      </trkpt>
      <trkpt lat="45.84147" lon="6.24737">
        <ele>1100</ele>
        <time>2010-04-23T18:24:02Z</time>
      </trkpt>
      <trkpt lat="45.84143" lon="6.24744">
        <ele>1100</ele>
        <time>2010-04-23T18:24:04Z</time>
      </trkpt>
      <trkpt lat="45.84141" lon="6.24753">
        <ele>1100</ele>
        <time>2010-04-23T18:24:06Z</time>
      </trkpt>
      <trkpt lat="45.84138" lon="6.2476">
        <ele>1100</ele>
        <time>2010-04-23T18:24:08Z</time>
      </trkpt>
      <trkpt lat="45.84135" lon="6.24769">
        <ele>1100</ele>
        <time>2010-04-23T18:24:10Z</time>
      </trkpt>
      <trkpt lat="45.84134" lon="6.24778">
        <ele>1100</ele>
        <time>2010-04-23T18:24:12Z</time>
      </trkpt>
      <trkpt lat="45.84134" lon="6.24785">
        <ele>1100</ele>
        <time>2010-04-23T18:24:14Z</time>
      </trkpt>
      <trkpt lat="45.84133" lon="6.24791">
        <ele>1100</ele>
        <time>2010-04-23T18:24:16Z</time>
      </trkpt>
      <trkpt lat="45.84131" lon="6.24799">
        <ele>1100</ele>
        <time>2010-04-23T18:24:18Z</time>
      </trkpt>
      <trkpt lat="45.84131" lon="6.2481">
        <ele>1101</ele>
        <time>2010-04-23T18:24:20Z</time>
      </trkpt>
      <trkpt lat="45.84128" lon="6.2482">
        <ele>1101</ele>
        <time>2010-04-23T18:24:22Z</time>
      </trkpt>
      <trkpt lat="45.84122" lon="6.24827">
        <ele>1102</ele>
        <time>2010-04-23T18:24:24Z</time>
      </trkpt>
      <trkpt lat="45.84115" lon="6.24832">
        <ele>1104</ele>
        <time>2010-04-23T18:24:26Z</time>
      </trkpt>
      <trkpt lat="45.84112" lon="6.24835">
        <ele>1106</ele>
        <time>2010-04-23T18:24:28Z</time>
      </trkpt>
      <trkpt lat="45.8411" lon="6.24842">
        <ele>1107</ele>
        <time>2010-04-23T18:24:30Z</time>
      </trkpt>
      <trkpt lat="45.84109" lon="6.24848">
        <ele>1107</ele>
        <time>2010-04-23T18:24:32Z</time>
      </trkpt>
      <trkpt lat="45.84108" lon="6.24856">
        <ele>1107</ele>
        <time>2010-04-23T18:24:34Z</time>
      </trkpt>
      <trkpt lat="45.84105" lon="6.24864">
        <ele>1107</ele>
        <time>2010-04-23T18:24:36Z</time>
      </trkpt>
      <trkpt lat="45.84102" lon="6.24869">
        <ele>1107</ele>
        <time>2010-04-23T18:24:38Z</time>
      </trkpt>
      <trkpt lat="45.841" lon="6.24876">
        <ele>1107</ele>
        <time>2010-04-23T18:24:40Z</time>
      </trkpt>
      <trkpt lat="45.84097" lon="6.24884">
        <ele>1107</ele>
        <time>2010-04-23T18:24:42Z</time>
      </trkpt>
      <trkpt lat="45.84093" lon="6.24888">
        <ele>1107</ele>
        <time>2010-04-23T18:24:44Z</time>
      </trkpt>
      <trkpt lat="45.84088" lon="6.24889">
        <ele>1106</ele>
        <time>2010-04-23T18:24:46Z</time>
      </trkpt>
      <trkpt lat="45.84085" lon="6.24891">
        <ele>1106</ele>
        <time>2010-04-23T18:24:49Z</time>
      </trkpt>
      <trkpt lat="45.84083" lon="6.24888">
        <ele>1105</ele>
        <time>2010-04-23T18:24:52Z</time>
      </trkpt>
      <trkpt lat="45.84083" lon="6.24892">
        <ele>1105</ele>
        <time>2010-04-23T18:24:56Z</time>
      </trkpt>
      <trkpt lat="45.84084" lon="6.24896">
        <ele>1104</ele>
        <time>2010-04-23T18:24:59Z</time>
      </trkpt>
      <trkpt lat="45.84082" lon="6.24897">
        <ele>1102</ele>
        <time>2010-04-23T18:25:01Z</time>
      </trkpt>
      <trkpt lat="45.84079" lon="6.24897">
        <ele>1101</ele>
        <time>2010-04-23T18:25:03Z</time>
      </trkpt>
      <trkpt lat="45.84075" lon="6.24893">
        <ele>1101</ele>
        <time>2010-04-23T18:25:05Z</time>
      </trkpt>
      <trkpt lat="45.84071" lon="6.24888">
        <ele>1101</ele>
        <time>2010-04-23T18:25:07Z</time>
      </trkpt>
      <trkpt lat="45.84066" lon="6.24887">
        <ele>1101</ele>
        <time>2010-04-23T18:25:09Z</time>
      </trkpt>
      <trkpt lat="45.84061" lon="6.24885">
        <ele>1101</ele>
        <time>2010-04-23T18:25:11Z</time>
      </trkpt>
      <trkpt lat="45.84056" lon="6.24884">
        <ele>1101</ele>
        <time>2010-04-23T18:25:13Z</time>
      </trkpt>
      <trkpt lat="45.84052" lon="6.24883">
        <ele>1101</ele>
        <time>2010-04-23T18:25:15Z</time>
      </trkpt>
      <trkpt lat="45.84046" lon="6.2488">
        <ele>1101</ele>
        <time>2010-04-23T18:25:17Z</time>
      </trkpt>
      <trkpt lat="45.8404" lon="6.24876">
        <ele>1101</ele>
        <time>2010-04-23T18:25:19Z</time>
      </trkpt>
      <trkpt lat="45.84033" lon="6.24875">
        <ele>1101</ele>
        <time>2010-04-23T18:25:21Z</time>
      </trkpt>
      <trkpt lat="45.84026" lon="6.24873">
        <ele>1101</ele>
        <time>2010-04-23T18:25:23Z</time>
      </trkpt>
      <trkpt lat="45.84021" lon="6.24871">
        <ele>1101</ele>
        <time>2010-04-23T18:25:25Z</time>
      </trkpt>
      <trkpt lat="45.84016" lon="6.24874">
        <ele>1101</ele>
        <time>2010-04-23T18:25:27Z</time>
      </trkpt>
      <trkpt lat="45.84012" lon="6.24877">
        <ele>1101</ele>
        <time>2010-04-23T18:25:29Z</time>
      </trkpt>
      <trkpt lat="45.84008" lon="6.24881">
        <ele>1101</ele>
        <time>2010-04-23T18:25:31Z</time>
      </trkpt>
      <trkpt lat="45.84004" lon="6.24886">
        <ele>1101</ele>
        <time>2010-04-23T18:25:33Z</time>
      </trkpt>
      <trkpt lat="45.83999" lon="6.24895">
        <ele>1101</ele>
        <time>2010-04-23T18:25:35Z</time>
      </trkpt>
      <trkpt lat="45.83995" lon="6.24899">
        <ele>1101</ele>
        <time>2010-04-23T18:25:37Z</time>
      </trkpt>
      <trkpt lat="45.8399" lon="6.24904">
        <ele>1101</ele>
        <time>2010-04-23T18:25:39Z</time>
      </trkpt>
      <trkpt lat="45.83986" lon="6.24909">
        <ele>1101</ele>
        <time>2010-04-23T18:25:41Z</time>
      </trkpt>
      <trkpt lat="45.83982" lon="6.24915">
        <ele>1100</ele>
        <time>2010-04-23T18:25:43Z</time>
      </trkpt>
      <trkpt lat="45.83978" lon="6.24919">
        <ele>1099</ele>
        <time>2010-04-23T18:25:45Z</time>
      </trkpt>
      <trkpt lat="45.83974" lon="6.24926">
        <ele>1098</ele>
        <time>2010-04-23T18:25:47Z</time>
      </trkpt>
      <trkpt lat="45.83969" lon="6.2493">
        <ele>1098</ele>
        <time>2010-04-23T18:25:49Z</time>
      </trkpt>
      <trkpt lat="45.83965" lon="6.24937">
        <ele>1098</ele>
        <time>2010-04-23T18:25:51Z</time>
      </trkpt>
      <trkpt lat="45.83962" lon="6.24944">
        <ele>1098</ele>
        <time>2010-04-23T18:25:53Z</time>
      </trkpt>
      <trkpt lat="45.8396" lon="6.24951">
        <ele>1098</ele>
        <time>2010-04-23T18:25:55Z</time>
      </trkpt>
      <trkpt lat="45.83959" lon="6.24958">
        <ele>1098</ele>
        <time>2010-04-23T18:25:57Z</time>
      </trkpt>
      <trkpt lat="45.83957" lon="6.24967">
        <ele>1098</ele>
        <time>2010-04-23T18:25:59Z</time>
      </trkpt>
      <trkpt lat="45.83955" lon="6.24971">
        <ele>1098</ele>
        <time>2010-04-23T18:26:01Z</time>
      </trkpt>
      <trkpt lat="45.83954" lon="6.24976">
        <ele>1098</ele>
        <time>2010-04-23T18:26:03Z</time>
      </trkpt>
      <trkpt lat="45.83954" lon="6.24981">
        <ele>1098</ele>
        <time>2010-04-23T18:26:05Z</time>
      </trkpt>
      <trkpt lat="45.83953" lon="6.24988">
        <ele>1098</ele>
        <time>2010-04-23T18:26:07Z</time>
      </trkpt>
      <trkpt lat="45.83952" lon="6.24993">
        <ele>1098</ele>
        <time>2010-04-23T18:26:09Z</time>
      </trkpt>
      <trkpt lat="45.83952" lon="6.24998">
        <ele>1098</ele>
        <time>2010-04-23T18:26:11Z</time>
      </trkpt>
      <trkpt lat="45.83951" lon="6.25004">
        <ele>1098</ele>
        <time>2010-04-23T18:26:13Z</time>
      </trkpt>
      <trkpt lat="45.8395" lon="6.25011">
        <ele>1098</ele>
        <time>2010-04-23T18:26:15Z</time>
      </trkpt>
      <trkpt lat="45.83949" lon="6.25019">
        <ele>1098</ele>
        <time>2010-04-23T18:26:17Z</time>
      </trkpt>
      <trkpt lat="45.83949" lon="6.25027">
        <ele>1098</ele>
        <time>2010-04-23T18:26:19Z</time>
      </trkpt>
      <trkpt lat="45.83948" lon="6.25035">
        <ele>1098</ele>
        <time>2010-04-23T18:26:21Z</time>
      </trkpt>
      <trkpt lat="45.83948" lon="6.25043">
        <ele>1097</ele>
        <time>2010-04-23T18:26:23Z</time>
      </trkpt>
      <trkpt lat="45.83946" lon="6.2505">
        <ele>1097</ele>
        <time>2010-04-23T18:26:25Z</time>
      </trkpt>
      <trkpt lat="45.83944" lon="6.25057">
        <ele>1096</ele>
        <time>2010-04-23T18:26:27Z</time>
      </trkpt>
      <trkpt lat="45.8394" lon="6.25064">
        <ele>1095</ele>
        <time>2010-04-23T18:26:29Z</time>
      </trkpt>
      <trkpt lat="45.83935" lon="6.25071">
        <ele>1094</ele>
        <time>2010-04-23T18:26:31Z</time>
      </trkpt>
      <trkpt lat="45.83928" lon="6.25077">
        <ele>1094</ele>
        <time>2010-04-23T18:26:33Z</time>
      </trkpt>
      <trkpt lat="45.83922" lon="6.25077">
        <ele>1094</ele>
        <time>2010-04-23T18:26:35Z</time>
      </trkpt>
      <trkpt lat="45.83916" lon="6.25077">
        <ele>1094</ele>
        <time>2010-04-23T18:26:37Z</time>
      </trkpt>
      <trkpt lat="45.8391" lon="6.25073">
        <ele>1094</ele>
        <time>2010-04-23T18:26:39Z</time>
      </trkpt>
      <trkpt lat="45.83903" lon="6.2507">
        <ele>1094</ele>
        <time>2010-04-23T18:26:41Z</time>
      </trkpt>
      <trkpt lat="45.83897" lon="6.25067">
        <ele>1094</ele>
        <time>2010-04-23T18:26:43Z</time>
      </trkpt>
      <trkpt lat="45.83893" lon="6.25068">
        <ele>1094</ele>
        <time>2010-04-23T18:26:45Z</time>
      </trkpt>
      <trkpt lat="45.83888" lon="6.25067">
        <ele>1093</ele>
        <time>2010-04-23T18:26:47Z</time>
      </trkpt>
      <trkpt lat="45.83883" lon="6.25066">
        <ele>1092</ele>
        <time>2010-04-23T18:26:49Z</time>
      </trkpt>
      <trkpt lat="45.83878" lon="6.25069">
        <ele>1091</ele>
        <time>2010-04-23T18:26:51Z</time>
      </trkpt>
      <trkpt lat="45.83873" lon="6.25068">
        <ele>1090</ele>
        <time>2010-04-23T18:26:53Z</time>
      </trkpt>
      <trkpt lat="45.83869" lon="6.2507">
        <ele>1089</ele>
        <time>2010-04-23T18:26:55Z</time>
      </trkpt>
      <trkpt lat="45.83866" lon="6.25076">
        <ele>1088</ele>
        <time>2010-04-23T18:26:57Z</time>
      </trkpt>
      <trkpt lat="45.83863" lon="6.25081">
        <ele>1086</ele>
        <time>2010-04-23T18:26:59Z</time>
      </trkpt>
      <trkpt lat="45.8386" lon="6.25089">
        <ele>1086</ele>
        <time>2010-04-23T18:27:01Z</time>
      </trkpt>
      <trkpt lat="45.83858" lon="6.25094">
        <ele>1084</ele>
        <time>2010-04-23T18:27:03Z</time>
      </trkpt>
      <trkpt lat="45.83855" lon="6.25101">
        <ele>1083</ele>
        <time>2010-04-23T18:27:05Z</time>
      </trkpt>
      <trkpt lat="45.83857" lon="6.25104">
        <ele>1078</ele>
        <time>2010-04-23T18:27:10Z</time>
      </trkpt>
      <trkpt lat="45.83858" lon="6.25106">
        <ele>1076</ele>
        <time>2010-04-23T18:27:14Z</time>
      </trkpt>
      <trkpt lat="45.83857" lon="6.25107">
        <ele>1076</ele>
        <time>2010-04-23T18:27:16Z</time>
      </trkpt>
      <trkpt lat="45.83857" lon="6.25108">
        <ele>1076</ele>
        <time>2010-04-23T18:27:18Z</time>
      </trkpt>
      <trkpt lat="45.83858" lon="6.2511">
        <ele>1075</ele>
        <time>2010-04-23T18:27:20Z</time>
      </trkpt>
      <trkpt lat="45.83858" lon="6.25114">
        <ele>1075</ele>
        <time>2010-04-23T18:27:23Z</time>
      </trkpt>
      <trkpt lat="45.83858" lon="6.25118">
        <ele>1075</ele>
        <time>2010-04-23T18:27:26Z</time>
      </trkpt>
      <trkpt lat="45.83856" lon="6.25116">
        <ele>1075</ele>
        <time>2010-04-23T18:27:28Z</time>
      </trkpt>
      <trkpt lat="45.83855" lon="6.25113">
        <ele>1075</ele>
        <time>2010-04-23T18:27:30Z</time>
      </trkpt>
      <trkpt lat="45.83854" lon="6.25109">
        <ele>1075</ele>
        <time>2010-04-23T18:27:33Z</time>
      </trkpt>
      <trkpt lat="45.83855" lon="6.25109">
        <ele>1075</ele>
        <time>2010-04-23T18:27:39Z</time>
      </trkpt>
      <trkpt lat="45.83856" lon="6.2511">
        <ele>1075</ele>
        <time>2010-04-23T18:27:42Z</time>
      </trkpt>
      <trkpt lat="45.83858" lon="6.25113">
        <ele>1075</ele>
        <time>2010-04-23T18:27:44Z</time>
      </trkpt>
      <trkpt lat="45.8386" lon="6.25115">
        <ele>1075</ele>
        <time>2010-04-23T18:27:46Z</time>
      </trkpt>
      <trkpt lat="45.8386" lon="6.25118">
        <ele>1075</ele>
        <time>2010-04-23T18:27:49Z</time>
      </trkpt>
      <trkpt lat="45.8386" lon="6.2512">
        <ele>1075</ele>
        <time>2010-04-23T18:27:51Z</time>
      </trkpt>
      <trkpt lat="45.8386" lon="6.25121">
        <ele>1072</ele>
        <time>2010-04-23T18:27:57Z</time>
      </trkpt>
      <trkpt lat="45.83858" lon="6.25119">
        <ele>1071</ele>
        <time>2010-04-23T18:28:03Z</time>
      </trkpt>
      <trkpt lat="45.83857" lon="6.25119">
        <ele>1071</ele>
        <time>2010-04-23T18:28:06Z</time>
      </trkpt>
      <trkpt lat="45.83855" lon="6.25119">
        <ele>1071</ele>
        <time>2010-04-23T18:28:12Z</time>
      </trkpt>
      <trkpt lat="45.83857" lon="6.25124">
        <ele>1071</ele>
        <time>2010-04-23T18:28:15Z</time>
      </trkpt>
      <trkpt lat="45.83857" lon="6.25126">
        <ele>1071</ele>
        <time>2010-04-23T18:28:17Z</time>
      </trkpt>
      <trkpt lat="45.83857" lon="6.25127">
        <ele>1071</ele>
        <time>2010-04-23T18:28:24Z</time>
      </trkpt>
      <trkpt lat="45.83857" lon="6.25129">
        <ele>1071</ele>
        <time>2010-04-23T18:28:27Z</time>
      </trkpt>
      <trkpt lat="45.83859" lon="6.25133">
        <ele>1069</ele>
        <time>2010-04-23T18:28:30Z</time>
      </trkpt>
      <trkpt lat="45.8386" lon="6.25136">
        <ele>1064</ele>
        <time>2010-04-23T18:28:35Z</time>
      </trkpt>
      <trkpt lat="45.8386" lon="6.2514">
        <ele>1061</ele>
        <time>2010-04-23T18:28:38Z</time>
      </trkpt>
      <trkpt lat="45.83859" lon="6.25139">
        <ele>1061</ele>
        <time>2010-04-23T18:28:44Z</time>
      </trkpt>
      <trkpt lat="45.83859" lon="6.25137">
        <ele>1061</ele>
        <time>2010-04-23T18:28:51Z</time>
      </trkpt>
      <trkpt lat="45.83858" lon="6.25136">
        <ele>1061</ele>
        <time>2010-04-23T18:28:54Z</time>
      </trkpt>
      <trkpt lat="45.83857" lon="6.25134">
        <ele>1061</ele>
        <time>2010-04-23T18:28:59Z</time>
      </trkpt>
      <trkpt lat="45.83855" lon="6.25132">
        <ele>1061</ele>
        <time>2010-04-23T18:29:01Z</time>
      </trkpt>
      <trkpt lat="45.83854" lon="6.25133">
        <ele>1061</ele>
        <time>2010-04-23T18:29:04Z</time>
      </trkpt>
      <trkpt lat="45.83854" lon="6.25136">
        <ele>1061</ele>
        <time>2010-04-23T18:29:06Z</time>
      </trkpt>
      <trkpt lat="45.83855" lon="6.25141">
        <ele>1061</ele>
        <time>2010-04-23T18:29:09Z</time>
      </trkpt>
      <trkpt lat="45.83855" lon="6.25145">
        <ele>1061</ele>
        <time>2010-04-23T18:29:11Z</time>
      </trkpt>
      <trkpt lat="45.83855" lon="6.25154">
        <ele>1061</ele>
        <time>2010-04-23T18:29:13Z</time>
      </trkpt>
      <trkpt lat="45.83855" lon="6.2516">
        <ele>1061</ele>
        <time>2010-04-23T18:29:15Z</time>
      </trkpt>
      <trkpt lat="45.83854" lon="6.25162">
        <ele>1061</ele>
        <time>2010-04-23T18:29:17Z</time>
      </trkpt>
      <trkpt lat="45.8385" lon="6.25163">
        <ele>1061</ele>
        <time>2010-04-23T18:29:19Z</time>
      </trkpt>
      <trkpt lat="45.83844" lon="6.25162">
        <ele>1061</ele>
        <time>2010-04-23T18:29:21Z</time>
      </trkpt>
      <trkpt lat="45.83839" lon="6.25161">
        <ele>1061</ele>
        <time>2010-04-23T18:29:23Z</time>
      </trkpt>
      <trkpt lat="45.83832" lon="6.25161">
        <ele>1061</ele>
        <time>2010-04-23T18:29:25Z</time>
      </trkpt>
      <trkpt lat="45.83828" lon="6.25163">
        <ele>1061</ele>
        <time>2010-04-23T18:29:27Z</time>
      </trkpt>
      <trkpt lat="45.83826" lon="6.25165">
        <ele>1061</ele>
        <time>2010-04-23T18:29:29Z</time>
      </trkpt>
      <trkpt lat="45.83825" lon="6.25167">
        <ele>1061</ele>
        <time>2010-04-23T18:29:31Z</time>
      </trkpt>
      <trkpt lat="45.83823" lon="6.25168">
        <ele>1061</ele>
        <time>2010-04-23T18:29:33Z</time>
      </trkpt>
      <trkpt lat="45.83821" lon="6.25168">
        <ele>1061</ele>
        <time>2010-04-23T18:29:36Z</time>
      </trkpt>
      <trkpt lat="45.83819" lon="6.25163">
        <ele>1061</ele>
        <time>2010-04-23T18:29:38Z</time>
      </trkpt>
      <trkpt lat="45.83817" lon="6.25161">
        <ele>1062</ele>
        <time>2010-04-23T18:29:40Z</time>
      </trkpt>
      <trkpt lat="45.83815" lon="6.25157">
        <ele>1065</ele>
        <time>2010-04-23T18:29:44Z</time>
      </trkpt>
      <trkpt lat="45.83815" lon="6.25159">
        <ele>1066</ele>
        <time>2010-04-23T18:29:48Z</time>
      </trkpt>
      <trkpt lat="45.83815" lon="6.25161">
        <ele>1066</ele>
        <time>2010-04-23T18:29:53Z</time>
      </trkpt>
      <trkpt lat="45.83813" lon="6.25163">
        <ele>1066</ele>
        <time>2010-04-23T18:29:58Z</time>
      </trkpt>
      <trkpt lat="45.83813" lon="6.25166">
        <ele>1066</ele>
        <time>2010-04-23T18:30:01Z</time>
      </trkpt>
      <trkpt lat="45.83815" lon="6.25169">
        <ele>1066</ele>
        <time>2010-04-23T18:30:03Z</time>
      </trkpt>
      <trkpt lat="45.83816" lon="6.25172">
        <ele>1065</ele>
        <time>2010-04-23T18:30:06Z</time>
      </trkpt>
      <trkpt lat="45.83816" lon="6.25174">
        <ele>1063</ele>
        <time>2010-04-23T18:30:08Z</time>
      </trkpt>
      <trkpt lat="45.83818" lon="6.25175">
        <ele>1061</ele>
        <time>2010-04-23T18:30:10Z</time>
      </trkpt>
      <trkpt lat="45.83817" lon="6.25175">
        <ele>1058</ele>
        <time>2010-04-23T18:30:14Z</time>
      </trkpt>
      <trkpt lat="45.83812" lon="6.25172">
        <ele>1058</ele>
        <time>2010-04-23T18:30:16Z</time>
      </trkpt>
      <trkpt lat="45.83806" lon="6.25172">
        <ele>1058</ele>
        <time>2010-04-23T18:30:18Z</time>
      </trkpt>
      <trkpt lat="45.83801" lon="6.25172">
        <ele>1058</ele>
        <time>2010-04-23T18:30:20Z</time>
      </trkpt>
      <trkpt lat="45.83793" lon="6.25167">
        <ele>1058</ele>
        <time>2010-04-23T18:30:22Z</time>
      </trkpt>
      <trkpt lat="45.83785" lon="6.25169">
        <ele>1058</ele>
        <time>2010-04-23T18:30:24Z</time>
      </trkpt>
      <trkpt lat="45.83781" lon="6.25169">
        <ele>1059</ele>
        <time>2010-04-23T18:30:26Z</time>
      </trkpt>
      <trkpt lat="45.83778" lon="6.25172">
        <ele>1060</ele>
        <time>2010-04-23T18:30:28Z</time>
      </trkpt>
      <trkpt lat="45.83774" lon="6.25174">
        <ele>1060</ele>
        <time>2010-04-23T18:30:30Z</time>
      </trkpt>
      <trkpt lat="45.83767" lon="6.25177">
        <ele>1060</ele>
        <time>2010-04-23T18:30:32Z</time>
      </trkpt>
      <trkpt lat="45.83765" lon="6.25181">
        <ele>1060</ele>
        <time>2010-04-23T18:30:34Z</time>
      </trkpt>
      <trkpt lat="45.83762" lon="6.25184">
        <ele>1059</ele>
        <time>2010-04-23T18:30:36Z</time>
      </trkpt>
      <trkpt lat="45.8376" lon="6.25189">
        <ele>1057</ele>
        <time>2010-04-23T18:30:38Z</time>
      </trkpt>
      <trkpt lat="45.83757" lon="6.25194">
        <ele>1055</ele>
        <time>2010-04-23T18:30:40Z</time>
      </trkpt>
      <trkpt lat="45.83756" lon="6.25203">
        <ele>1053</ele>
        <time>2010-04-23T18:30:42Z</time>
      </trkpt>
      <trkpt lat="45.83754" lon="6.25213">
        <ele>1051</ele>
        <time>2010-04-23T18:30:44Z</time>
      </trkpt>
      <trkpt lat="45.83754" lon="6.25222">
        <ele>1049</ele>
        <time>2010-04-23T18:30:46Z</time>
      </trkpt>
      <trkpt lat="45.83751" lon="6.2523">
        <ele>1047</ele>
        <time>2010-04-23T18:30:48Z</time>
      </trkpt>
      <trkpt lat="45.8375" lon="6.25242">
        <ele>1045</ele>
        <time>2010-04-23T18:30:50Z</time>
      </trkpt>
      <trkpt lat="45.83746" lon="6.25251">
        <ele>1042</ele>
        <time>2010-04-23T18:30:52Z</time>
      </trkpt>
      <trkpt lat="45.83744" lon="6.25263">
        <ele>1040</ele>
        <time>2010-04-23T18:30:54Z</time>
      </trkpt>
      <trkpt lat="45.83743" lon="6.25275">
        <ele>1038</ele>
        <time>2010-04-23T18:30:56Z</time>
      </trkpt>
      <trkpt lat="45.83742" lon="6.25282">
        <ele>1036</ele>
        <time>2010-04-23T18:30:58Z</time>
      </trkpt>
      <trkpt lat="45.83742" lon="6.25289">
        <ele>1034</ele>
        <time>2010-04-23T18:31:00Z</time>
      </trkpt>
      <trkpt lat="45.83744" lon="6.253">
        <ele>1032</ele>
        <time>2010-04-23T18:31:02Z</time>
      </trkpt>
      <trkpt lat="45.83747" lon="6.2531">
        <ele>1031</ele>
        <time>2010-04-23T18:31:04Z</time>
      </trkpt>
      <trkpt lat="45.83749" lon="6.25319">
        <ele>1030</ele>
        <time>2010-04-23T18:31:06Z</time>
      </trkpt>
      <trkpt lat="45.83751" lon="6.25327">
        <ele>1028</ele>
        <time>2010-04-23T18:31:08Z</time>
      </trkpt>
      <trkpt lat="45.83751" lon="6.25341">
        <ele>1028</ele>
        <time>2010-04-23T18:31:10Z</time>
      </trkpt>
      <trkpt lat="45.83751" lon="6.25357">
        <ele>1027</ele>
        <time>2010-04-23T18:31:13Z</time>
      </trkpt>
      <trkpt lat="45.83751" lon="6.25366">
        <ele>1026</ele>
        <time>2010-04-23T18:31:15Z</time>
      </trkpt>
      <trkpt lat="45.83748" lon="6.25376">
        <ele>1026</ele>
        <time>2010-04-23T18:31:17Z</time>
      </trkpt>
      <trkpt lat="45.83746" lon="6.25381">
        <ele>1026</ele>
        <time>2010-04-23T18:31:19Z</time>
      </trkpt>
      <trkpt lat="45.83741" lon="6.25386">
        <ele>1026</ele>
        <time>2010-04-23T18:31:21Z</time>
      </trkpt>
      <trkpt lat="45.83736" lon="6.2539">
        <ele>1026</ele>
        <time>2010-04-23T18:31:23Z</time>
      </trkpt>
      <trkpt lat="45.83732" lon="6.25392">
        <ele>1026</ele>
        <time>2010-04-23T18:31:26Z</time>
      </trkpt>
      <trkpt lat="45.83731" lon="6.2539">
        <ele>1026</ele>
        <time>2010-04-23T18:31:28Z</time>
      </trkpt>
      <trkpt lat="45.83729" lon="6.25391">
        <ele>1026</ele>
        <time>2010-04-23T18:31:31Z</time>
      </trkpt>
      <trkpt lat="45.83726" lon="6.25394">
        <ele>1026</ele>
        <time>2010-04-23T18:31:33Z</time>
      </trkpt>
      <trkpt lat="45.83724" lon="6.25395">
        <ele>1026</ele>
        <time>2010-04-23T18:31:36Z</time>
      </trkpt>
      <trkpt lat="45.83723" lon="6.25391">
        <ele>1026</ele>
        <time>2010-04-23T18:31:38Z</time>
      </trkpt>
      <trkpt lat="45.83723" lon="6.25392">
        <ele>1026</ele>
        <time>2010-04-23T18:31:40Z</time>
      </trkpt>
      <trkpt lat="45.83726" lon="6.25398">
        <ele>1026</ele>
        <time>2010-04-23T18:31:42Z</time>
      </trkpt>
      <trkpt lat="45.83726" lon="6.25398">
        <ele>1026</ele>
        <time>2010-04-23T18:31:45Z</time>
      </trkpt>
      <trkpt lat="45.83727" lon="6.25403">
        <ele>1026</ele>
        <time>2010-04-23T18:31:47Z</time>
      </trkpt>
      <trkpt lat="45.83728" lon="6.25407">
        <ele>1026</ele>
        <time>2010-04-23T18:31:49Z</time>
      </trkpt>
      <trkpt lat="45.83729" lon="6.25411">
        <ele>1026</ele>
        <time>2010-04-23T18:31:51Z</time>
      </trkpt>
      <trkpt lat="45.83731" lon="6.25414">
        <ele>1026</ele>
        <time>2010-04-23T18:31:53Z</time>
      </trkpt>
      <trkpt lat="45.8373" lon="6.25417">
        <ele>1026</ele>
        <time>2010-04-23T18:31:56Z</time>
      </trkpt>
      <trkpt lat="45.83728" lon="6.25423">
        <ele>1026</ele>
        <time>2010-04-23T18:31:58Z</time>
      </trkpt>
      <trkpt lat="45.83726" lon="6.25427">
        <ele>1026</ele>
        <time>2010-04-23T18:32:00Z</time>
      </trkpt>
      <trkpt lat="45.83726" lon="6.25431">
        <ele>1026</ele>
        <time>2010-04-23T18:32:02Z</time>
      </trkpt>
      <trkpt lat="45.83723" lon="6.25435">
        <ele>1026</ele>
        <time>2010-04-23T18:32:04Z</time>
      </trkpt>
      <trkpt lat="45.8372" lon="6.25433">
        <ele>1026</ele>
        <time>2010-04-23T18:32:06Z</time>
      </trkpt>
      <trkpt lat="45.83716" lon="6.25433">
        <ele>1029</ele>
        <time>2010-04-23T18:32:09Z</time>
      </trkpt>
      <trkpt lat="45.83713" lon="6.25434">
        <ele>1030</ele>
        <time>2010-04-23T18:32:11Z</time>
      </trkpt>
      <trkpt lat="45.83712" lon="6.25435">
        <ele>1031</ele>
        <time>2010-04-23T18:32:13Z</time>
      </trkpt>
      <trkpt lat="45.83711" lon="6.25438">
        <ele>1032</ele>
        <time>2010-04-23T18:32:15Z</time>
      </trkpt>
      <trkpt lat="45.83711" lon="6.25441">
        <ele>1032</ele>
        <time>2010-04-23T18:32:17Z</time>
      </trkpt>
      <trkpt lat="45.83711" lon="6.25444">
        <ele>1032</ele>
        <time>2010-04-23T18:32:19Z</time>
      </trkpt>
      <trkpt lat="45.8371" lon="6.25446">
        <ele>1032</ele>
        <time>2010-04-23T18:32:21Z</time>
      </trkpt>
      <trkpt lat="45.83708" lon="6.25446">
        <ele>1032</ele>
        <time>2010-04-23T18:32:24Z</time>
      </trkpt>
      <trkpt lat="45.83708" lon="6.25447">
        <ele>1032</ele>
        <time>2010-04-23T18:32:26Z</time>
      </trkpt>
      <trkpt lat="45.83704" lon="6.25449">
        <ele>1032</ele>
        <time>2010-04-23T18:32:29Z</time>
      </trkpt>
      <trkpt lat="45.83702" lon="6.25451">
        <ele>1033</ele>
        <time>2010-04-23T18:32:31Z</time>
      </trkpt>
      <trkpt lat="45.83699" lon="6.25452">
        <ele>1035</ele>
        <time>2010-04-23T18:32:33Z</time>
      </trkpt>
      <trkpt lat="45.83695" lon="6.25453">
        <ele>1037</ele>
        <time>2010-04-23T18:32:35Z</time>
      </trkpt>
      <trkpt lat="45.83691" lon="6.2545">
        <ele>1039</ele>
        <time>2010-04-23T18:32:37Z</time>
      </trkpt>
      <trkpt lat="45.83687" lon="6.25451">
        <ele>1042</ele>
        <time>2010-04-23T18:32:40Z</time>
      </trkpt>
      <trkpt lat="45.83686" lon="6.25453">
        <ele>1045</ele>
        <time>2010-04-23T18:32:43Z</time>
      </trkpt>
      <trkpt lat="45.83685" lon="6.25453">
        <ele>1046</ele>
        <time>2010-04-23T18:32:46Z</time>
      </trkpt>
      <trkpt lat="45.83682" lon="6.25455">
        <ele>1048</ele>
        <time>2010-04-23T18:32:49Z</time>
      </trkpt>
      <trkpt lat="45.83681" lon="6.25457">
        <ele>1048</ele>
        <time>2010-04-23T18:32:51Z</time>
      </trkpt>
      <trkpt lat="45.8368" lon="6.25463">
        <ele>1048</ele>
        <time>2010-04-23T18:32:54Z</time>
      </trkpt>
      <trkpt lat="45.83678" lon="6.25465">
        <ele>1048</ele>
        <time>2010-04-23T18:32:57Z</time>
      </trkpt>
      <trkpt lat="45.83678" lon="6.25468">
        <ele>1049</ele>
        <time>2010-04-23T18:33:00Z</time>
      </trkpt>
      <trkpt lat="45.83679" lon="6.25472">
        <ele>1049</ele>
        <time>2010-04-23T18:33:02Z</time>
      </trkpt>
      <trkpt lat="45.83678" lon="6.25478">
        <ele>1049</ele>
        <time>2010-04-23T18:33:05Z</time>
      </trkpt>
      <trkpt lat="45.83678" lon="6.25482">
        <ele>1051</ele>
        <time>2010-04-23T18:33:08Z</time>
      </trkpt>
      <trkpt lat="45.8368" lon="6.25487">
        <ele>1053</ele>
        <time>2010-04-23T18:33:11Z</time>
      </trkpt>
      <trkpt lat="45.8368" lon="6.25491">
        <ele>1055</ele>
        <time>2010-04-23T18:33:13Z</time>
      </trkpt>
      <trkpt lat="45.83681" lon="6.25494">
        <ele>1056</ele>
        <time>2010-04-23T18:33:15Z</time>
      </trkpt>
      <trkpt lat="45.83683" lon="6.25498">
        <ele>1058</ele>
        <time>2010-04-23T18:33:17Z</time>
      </trkpt>
      <trkpt lat="45.83683" lon="6.25501">
        <ele>1060</ele>
        <time>2010-04-23T18:33:19Z</time>
      </trkpt>
      <trkpt lat="45.83684" lon="6.25505">
        <ele>1061</ele>
        <time>2010-04-23T18:33:21Z</time>
      </trkpt>
      <trkpt lat="45.83685" lon="6.25508">
        <ele>1062</ele>
        <time>2010-04-23T18:33:23Z</time>
      </trkpt>
      <trkpt lat="45.83686" lon="6.25513">
        <ele>1064</ele>
        <time>2010-04-23T18:33:25Z</time>
      </trkpt>
      <trkpt lat="45.83688" lon="6.25517">
        <ele>1066</ele>
        <time>2010-04-23T18:33:28Z</time>
      </trkpt>
      <trkpt lat="45.83691" lon="6.2552">
        <ele>1066</ele>
        <time>2010-04-23T18:33:30Z</time>
      </trkpt>
      <trkpt lat="45.83691" lon="6.25522">
        <ele>1067</ele>
        <time>2010-04-23T18:33:32Z</time>
      </trkpt>
      <trkpt lat="45.83689" lon="6.25522">
        <ele>1069</ele>
        <time>2010-04-23T18:33:35Z</time>
      </trkpt>
      <trkpt lat="45.83685" lon="6.25527">
        <ele>1069</ele>
        <time>2010-04-23T18:33:37Z</time>
      </trkpt>
      <trkpt lat="45.83681" lon="6.2553">
        <ele>1069</ele>
        <time>2010-04-23T18:33:40Z</time>
      </trkpt>
      <trkpt lat="45.8368" lon="6.25535">
        <ele>1069</ele>
        <time>2010-04-23T18:33:42Z</time>
      </trkpt>
      <trkpt lat="45.8368" lon="6.2554">
        <ele>1069</ele>
        <time>2010-04-23T18:33:44Z</time>
      </trkpt>
      <trkpt lat="45.83679" lon="6.25548">
        <ele>1069</ele>
        <time>2010-04-23T18:33:47Z</time>
      </trkpt>
      <trkpt lat="45.83681" lon="6.25551">
        <ele>1069</ele>
        <time>2010-04-23T18:33:49Z</time>
      </trkpt>
      <trkpt lat="45.83679" lon="6.25557">
        <ele>1071</ele>
        <time>2010-04-23T18:33:51Z</time>
      </trkpt>
      <trkpt lat="45.83682" lon="6.2556">
        <ele>1071</ele>
        <time>2010-04-23T18:33:53Z</time>
      </trkpt>
      <trkpt lat="45.83683" lon="6.25562">
        <ele>1071</ele>
        <time>2010-04-23T18:33:55Z</time>
      </trkpt>
      <trkpt lat="45.8368" lon="6.25565">
        <ele>1071</ele>
        <time>2010-04-23T18:33:57Z</time>
      </trkpt>
      <trkpt lat="45.83679" lon="6.25563">
        <ele>1072</ele>
        <time>2010-04-23T18:33:59Z</time>
      </trkpt>
      <trkpt lat="45.8368" lon="6.25564">
        <ele>1075</ele>
        <time>2010-04-23T18:34:02Z</time>
      </trkpt>
      <trkpt lat="45.83681" lon="6.25566">
        <ele>1078</ele>
        <time>2010-04-23T18:34:05Z</time>
      </trkpt>
      <trkpt lat="45.83682" lon="6.2557">
        <ele>1080</ele>
        <time>2010-04-23T18:34:10Z</time>
      </trkpt>
      <trkpt lat="45.83685" lon="6.25571">
        <ele>1082</ele>
        <time>2010-04-23T18:34:13Z</time>
      </trkpt>
      <trkpt lat="45.83685" lon="6.25576">
        <ele>1086</ele>
        <time>2010-04-23T18:34:17Z</time>
      </trkpt>
      <trkpt lat="45.83688" lon="6.25581">
        <ele>1088</ele>
        <time>2010-04-23T18:34:21Z</time>
      </trkpt>
      <trkpt lat="45.83691" lon="6.25581">
        <ele>1090</ele>
        <time>2010-04-23T18:34:23Z</time>
      </trkpt>
      <trkpt lat="45.83691" lon="6.25583">
        <ele>1092</ele>
        <time>2010-04-23T18:34:25Z</time>
      </trkpt>
      <trkpt lat="45.83692" lon="6.25585">
        <ele>1095</ele>
        <time>2010-04-23T18:34:27Z</time>
      </trkpt>
      <trkpt lat="45.83698" lon="6.25587">
        <ele>1098</ele>
        <time>2010-04-23T18:34:29Z</time>
      </trkpt>
      <trkpt lat="45.837" lon="6.2559">
        <ele>1102</ele>
        <time>2010-04-23T18:34:31Z</time>
      </trkpt>
      <trkpt lat="45.83701" lon="6.25594">
        <ele>1107</ele>
        <time>2010-04-23T18:34:35Z</time>
      </trkpt>
      <trkpt lat="45.83705" lon="6.25598">
        <ele>1109</ele>
        <time>2010-04-23T18:34:37Z</time>
      </trkpt>
      <trkpt lat="45.8371" lon="6.25605">
        <ele>1114</ele>
        <time>2010-04-23T18:34:40Z</time>
      </trkpt>
      <trkpt lat="45.83711" lon="6.25602">
        <ele>1123</ele>
        <time>2010-04-23T18:34:46Z</time>
      </trkpt>
      <trkpt lat="45.83709" lon="6.25598">
        <ele>1126</ele>
        <time>2010-04-23T18:34:49Z</time>
      </trkpt>
      <trkpt lat="45.83708" lon="6.25596">
        <ele>1126</ele>
        <time>2010-04-23T18:34:51Z</time>
      </trkpt>
      <trkpt lat="45.83707" lon="6.25593">
        <ele>1126</ele>
        <time>2010-04-23T18:34:53Z</time>
      </trkpt>
      <trkpt lat="45.83708" lon="6.25589">
        <ele>1126</ele>
        <time>2010-04-23T18:34:55Z</time>
      </trkpt>
      <trkpt lat="45.83709" lon="6.25586">
        <ele>1126</ele>
        <time>2010-04-23T18:34:57Z</time>
      </trkpt>
      <trkpt lat="45.8371" lon="6.25582">
        <ele>1126</ele>
        <time>2010-04-23T18:34:59Z</time>
      </trkpt>
      <trkpt lat="45.83712" lon="6.25579">
        <ele>1126</ele>
        <time>2010-04-23T18:35:01Z</time>
      </trkpt>
      <trkpt lat="45.83714" lon="6.25574">
        <ele>1126</ele>
        <time>2010-04-23T18:35:03Z</time>
      </trkpt>
      <trkpt lat="45.83716" lon="6.2557">
        <ele>1126</ele>
        <time>2010-04-23T18:35:06Z</time>
      </trkpt>
      <trkpt lat="45.83719" lon="6.25566">
        <ele>1126</ele>
        <time>2010-04-23T18:35:09Z</time>
      </trkpt>
      <trkpt lat="45.8372" lon="6.25568">
        <ele>1126</ele>
        <time>2010-04-23T18:35:11Z</time>
      </trkpt>
      <trkpt lat="45.83722" lon="6.25566">
        <ele>1126</ele>
        <time>2010-04-23T18:35:13Z</time>
      </trkpt>
      <trkpt lat="45.83723" lon="6.25564">
        <ele>1126</ele>
        <time>2010-04-23T18:35:15Z</time>
      </trkpt>
      <trkpt lat="45.83725" lon="6.25562">
        <ele>1126</ele>
        <time>2010-04-23T18:35:17Z</time>
      </trkpt>
      <trkpt lat="45.83728" lon="6.25561">
        <ele>1126</ele>
        <time>2010-04-23T18:35:20Z</time>
      </trkpt>
      <trkpt lat="45.8373" lon="6.25558">
        <ele>1126</ele>
        <time>2010-04-23T18:35:22Z</time>
      </trkpt>
      <trkpt lat="45.83732" lon="6.25555">
        <ele>1126</ele>
        <time>2010-04-23T18:35:24Z</time>
      </trkpt>
      <trkpt lat="45.83734" lon="6.25553">
        <ele>1126</ele>
        <time>2010-04-23T18:35:26Z</time>
      </trkpt>
      <trkpt lat="45.83736" lon="6.25552">
        <ele>1126</ele>
        <time>2010-04-23T18:35:28Z</time>
      </trkpt>
      <trkpt lat="45.83738" lon="6.25551">
        <ele>1127</ele>
        <time>2010-04-23T18:35:30Z</time>
      </trkpt>
      <trkpt lat="45.83742" lon="6.25548">
        <ele>1128</ele>
        <time>2010-04-23T18:35:34Z</time>
      </trkpt>
      <trkpt lat="45.83744" lon="6.25545">
        <ele>1128</ele>
        <time>2010-04-23T18:35:38Z</time>
      </trkpt>
      <trkpt lat="45.83746" lon="6.25542">
        <ele>1128</ele>
        <time>2010-04-23T18:35:40Z</time>
      </trkpt>
      <trkpt lat="45.83749" lon="6.2554">
        <ele>1128</ele>
        <time>2010-04-23T18:35:44Z</time>
      </trkpt>
      <trkpt lat="45.83751" lon="6.2554">
        <ele>1128</ele>
        <time>2010-04-23T18:35:46Z</time>
      </trkpt>
      <trkpt lat="45.83755" lon="6.25538">
        <ele>1128</ele>
        <time>2010-04-23T18:35:50Z</time>
      </trkpt>
      <trkpt lat="45.83757" lon="6.25536">
        <ele>1128</ele>
        <time>2010-04-23T18:35:53Z</time>
      </trkpt>
      <trkpt lat="45.83758" lon="6.25535">
        <ele>1128</ele>
        <time>2010-04-23T18:35:55Z</time>
      </trkpt>
      <trkpt lat="45.8376" lon="6.25535">
        <ele>1128</ele>
        <time>2010-04-23T18:35:57Z</time>
      </trkpt>
      <trkpt lat="45.83762" lon="6.25537">
        <ele>1128</ele>
        <time>2010-04-23T18:35:59Z</time>
      </trkpt>
      <trkpt lat="45.83764" lon="6.25541">
        <ele>1128</ele>
        <time>2010-04-23T18:36:02Z</time>
      </trkpt>
      <trkpt lat="45.83765" lon="6.25545">
        <ele>1126</ele>
        <time>2010-04-23T18:36:05Z</time>
      </trkpt>
      <trkpt lat="45.8376" lon="6.25547">
        <ele>1124</ele>
        <time>2010-04-23T18:36:07Z</time>
      </trkpt>
      <trkpt lat="45.83758" lon="6.2555">
        <ele>1121</ele>
        <time>2010-04-23T18:36:10Z</time>
      </trkpt>
      <trkpt lat="45.83757" lon="6.25549">
        <ele>1113</ele>
        <time>2010-04-23T18:36:17Z</time>
      </trkpt>
      <trkpt lat="45.83759" lon="6.25553">
        <ele>1112</ele>
        <time>2010-04-23T18:36:20Z</time>
      </trkpt>
      <trkpt lat="45.8376" lon="6.25553">
        <ele>1112</ele>
        <time>2010-04-23T18:36:22Z</time>
      </trkpt>
      <trkpt lat="45.83762" lon="6.25554">
        <ele>1112</ele>
        <time>2010-04-23T18:36:24Z</time>
      </trkpt>
      <trkpt lat="45.83764" lon="6.25554">
        <ele>1112</ele>
        <time>2010-04-23T18:36:26Z</time>
      </trkpt>
      <trkpt lat="45.83765" lon="6.25555">
        <ele>1112</ele>
        <time>2010-04-23T18:36:28Z</time>
      </trkpt>
      <trkpt lat="45.83768" lon="6.25559">
        <ele>1112</ele>
        <time>2010-04-23T18:36:31Z</time>
      </trkpt>
      <trkpt lat="45.83769" lon="6.25563">
        <ele>1112</ele>
        <time>2010-04-23T18:36:33Z</time>
      </trkpt>
      <trkpt lat="45.83768" lon="6.25566">
        <ele>1112</ele>
        <time>2010-04-23T18:36:35Z</time>
      </trkpt>
      <trkpt lat="45.83767" lon="6.2557">
        <ele>1112</ele>
        <time>2010-04-23T18:36:39Z</time>
      </trkpt>
      <trkpt lat="45.83765" lon="6.25573">
        <ele>1112</ele>
        <time>2010-04-23T18:36:42Z</time>
      </trkpt>
      <trkpt lat="45.83765" lon="6.25576">
        <ele>1113</ele>
        <time>2010-04-23T18:36:45Z</time>
      </trkpt>
      <trkpt lat="45.83763" lon="6.25575">
        <ele>1115</ele>
        <time>2010-04-23T18:36:47Z</time>
      </trkpt>
      <trkpt lat="45.83761" lon="6.25575">
        <ele>1117</ele>
        <time>2010-04-23T18:36:49Z</time>
      </trkpt>
      <trkpt lat="45.83761" lon="6.25577">
        <ele>1119</ele>
        <time>2010-04-23T18:36:51Z</time>
      </trkpt>
      <trkpt lat="45.8376" lon="6.2558">
        <ele>1122</ele>
        <time>2010-04-23T18:36:54Z</time>
      </trkpt>
      <trkpt lat="45.83758" lon="6.2558">
        <ele>1123</ele>
        <time>2010-04-23T18:36:56Z</time>
      </trkpt>
      <trkpt lat="45.83756" lon="6.2558">
        <ele>1125</ele>
        <time>2010-04-23T18:36:58Z</time>
      </trkpt>
      <trkpt lat="45.83755" lon="6.25585">
        <ele>1127</ele>
        <time>2010-04-23T18:37:01Z</time>
      </trkpt>
      <trkpt lat="45.83754" lon="6.25589">
        <ele>1127</ele>
        <time>2010-04-23T18:37:03Z</time>
      </trkpt>
      <trkpt lat="45.83756" lon="6.25592">
        <ele>1127</ele>
        <time>2010-04-23T18:37:06Z</time>
      </trkpt>
      <trkpt lat="45.83758" lon="6.25593">
        <ele>1130</ele>
        <time>2010-04-23T18:37:09Z</time>
      </trkpt>
      <trkpt lat="45.83756" lon="6.25598">
        <ele>1133</ele>
        <time>2010-04-23T18:37:12Z</time>
      </trkpt>
      <trkpt lat="45.83756" lon="6.25601">
        <ele>1135</ele>
        <time>2010-04-23T18:37:14Z</time>
      </trkpt>
      <trkpt lat="45.83756" lon="6.25605">
        <ele>1137</ele>
        <time>2010-04-23T18:37:17Z</time>
      </trkpt>
      <trkpt lat="45.83756" lon="6.25611">
        <ele>1138</ele>
        <time>2010-04-23T18:37:20Z</time>
      </trkpt>
      <trkpt lat="45.83756" lon="6.25618">
        <ele>1138</ele>
        <time>2010-04-23T18:37:23Z</time>
      </trkpt>
      <trkpt lat="45.83755" lon="6.25622">
        <ele>1138</ele>
        <time>2010-04-23T18:37:26Z</time>
      </trkpt>
      <trkpt lat="45.83754" lon="6.25626">
        <ele>1138</ele>
        <time>2010-04-23T18:37:28Z</time>
      </trkpt>
      <trkpt lat="45.83753" lon="6.25632">
        <ele>1138</ele>
        <time>2010-04-23T18:37:31Z</time>
      </trkpt>
      <trkpt lat="45.83752" lon="6.25635">
        <ele>1138</ele>
        <time>2010-04-23T18:37:33Z</time>
      </trkpt>
      <trkpt lat="45.8375" lon="6.25641">
        <ele>1138</ele>
        <time>2010-04-23T18:37:37Z</time>
      </trkpt>
      <trkpt lat="45.83748" lon="6.25643">
        <ele>1138</ele>
        <time>2010-04-23T18:37:39Z</time>
      </trkpt>
      <trkpt lat="45.83744" lon="6.25646">
        <ele>1138</ele>
        <time>2010-04-23T18:37:41Z</time>
      </trkpt>
      <trkpt lat="45.83745" lon="6.25652">
        <ele>1138</ele>
        <time>2010-04-23T18:37:45Z</time>
      </trkpt>
      <trkpt lat="45.83748" lon="6.25655">
        <ele>1138</ele>
        <time>2010-04-23T18:37:49Z</time>
      </trkpt>
      <trkpt lat="45.83747" lon="6.25657">
        <ele>1138</ele>
        <time>2010-04-23T18:37:52Z</time>
      </trkpt>
      <trkpt lat="45.83745" lon="6.25661">
        <ele>1141</ele>
        <time>2010-04-23T18:37:56Z</time>
      </trkpt>
      <trkpt lat="45.83751" lon="6.25663">
        <ele>1144</ele>
        <time>2010-04-23T18:37:59Z</time>
      </trkpt>
      <trkpt lat="45.83756" lon="6.25667">
        <ele>1147</ele>
        <time>2010-04-23T18:38:01Z</time>
      </trkpt>
      <trkpt lat="45.83761" lon="6.25671">
        <ele>1151</ele>
        <time>2010-04-23T18:38:03Z</time>
      </trkpt>
      <trkpt lat="45.83764" lon="6.25675">
        <ele>1155</ele>
        <time>2010-04-23T18:38:05Z</time>
      </trkpt>
      <trkpt lat="45.83767" lon="6.25678">
        <ele>1159</ele>
        <time>2010-04-23T18:38:07Z</time>
      </trkpt>
      <trkpt lat="45.83771" lon="6.25684">
        <ele>1165</ele>
        <time>2010-04-23T18:38:10Z</time>
      </trkpt>
      <trkpt lat="45.83773" lon="6.25687">
        <ele>1169</ele>
        <time>2010-04-23T18:38:12Z</time>
      </trkpt>
      <trkpt lat="45.83768" lon="6.25692">
        <ele>1172</ele>
        <time>2010-04-23T18:38:15Z</time>
      </trkpt>
      <trkpt lat="45.83767" lon="6.25696">
        <ele>1174</ele>
        <time>2010-04-23T18:38:17Z</time>
      </trkpt>
      <trkpt lat="45.83764" lon="6.25703">
        <ele>1174</ele>
        <time>2010-04-23T18:38:20Z</time>
      </trkpt>
      <trkpt lat="45.83762" lon="6.25705">
        <ele>1172</ele>
        <time>2010-04-23T18:38:22Z</time>
      </trkpt>
      <trkpt lat="45.83762" lon="6.25713">
        <ele>1172</ele>
        <time>2010-04-23T18:38:25Z</time>
      </trkpt>
      <trkpt lat="45.83761" lon="6.25716">
        <ele>1172</ele>
        <time>2010-04-23T18:38:27Z</time>
      </trkpt>
      <trkpt lat="45.83755" lon="6.25725">
        <ele>1169</ele>
        <time>2010-04-23T18:38:30Z</time>
      </trkpt>
      <trkpt lat="45.83753" lon="6.25725">
        <ele>1165</ele>
        <time>2010-04-23T18:38:34Z</time>
      </trkpt>
      <trkpt lat="45.83754" lon="6.25721">
        <ele>1162</ele>
        <time>2010-04-23T18:38:37Z</time>
      </trkpt>
      <trkpt lat="45.83755" lon="6.25721">
        <ele>1162</ele>
        <time>2010-04-23T18:38:40Z</time>
      </trkpt>
      <trkpt lat="45.83757" lon="6.25722">
        <ele>1162</ele>
        <time>2010-04-23T18:38:43Z</time>
      </trkpt>
      <trkpt lat="45.83755" lon="6.25727">
        <ele>1162</ele>
        <time>2010-04-23T18:38:45Z</time>
      </trkpt>
      <trkpt lat="45.83755" lon="6.25736">
        <ele>1163</ele>
        <time>2010-04-23T18:38:48Z</time>
      </trkpt>
      <trkpt lat="45.83754" lon="6.25739">
        <ele>1164</ele>
        <time>2010-04-23T18:38:50Z</time>
      </trkpt>
      <trkpt lat="45.83752" lon="6.25745">
        <ele>1166</ele>
        <time>2010-04-23T18:38:54Z</time>
      </trkpt>
      <trkpt lat="45.83752" lon="6.25748">
        <ele>1167</ele>
        <time>2010-04-23T18:38:56Z</time>
      </trkpt>
      <trkpt lat="45.83752" lon="6.25755">
        <ele>1167</ele>
        <time>2010-04-23T18:38:58Z</time>
      </trkpt>
      <trkpt lat="45.83751" lon="6.25759">
        <ele>1167</ele>
        <time>2010-04-23T18:39:01Z</time>
      </trkpt>
      <trkpt lat="45.83751" lon="6.25761">
        <ele>1167</ele>
        <time>2010-04-23T18:39:05Z</time>
      </trkpt>
      <trkpt lat="45.83751" lon="6.25766">
        <ele>1167</ele>
        <time>2010-04-23T18:39:08Z</time>
      </trkpt>
      <trkpt lat="45.83744" lon="6.25772">
        <ele>1167</ele>
        <time>2010-04-23T18:39:10Z</time>
      </trkpt>
      <trkpt lat="45.83743" lon="6.25775">
        <ele>1167</ele>
        <time>2010-04-23T18:39:12Z</time>
      </trkpt>
      <trkpt lat="45.83741" lon="6.25776">
        <ele>1167</ele>
        <time>2010-04-23T18:39:14Z</time>
      </trkpt>
      <trkpt lat="45.83741" lon="6.25779">
        <ele>1167</ele>
        <time>2010-04-23T18:39:17Z</time>
      </trkpt>
      <trkpt lat="45.83749" lon="6.25787">
        <ele>1169</ele>
        <time>2010-04-23T18:39:20Z</time>
      </trkpt>
      <trkpt lat="45.83752" lon="6.25794">
        <ele>1171</ele>
        <time>2010-04-23T18:39:22Z</time>
      </trkpt>
      <trkpt lat="45.83746" lon="6.25797">
        <ele>1175</ele>
        <time>2010-04-23T18:39:25Z</time>
      </trkpt>
      <trkpt lat="45.83746" lon="6.258">
        <ele>1177</ele>
        <time>2010-04-23T18:39:27Z</time>
      </trkpt>
      <trkpt lat="45.8375" lon="6.25803">
        <ele>1179</ele>
        <time>2010-04-23T18:39:29Z</time>
      </trkpt>
      <trkpt lat="45.83754" lon="6.25808">
        <ele>1181</ele>
        <time>2010-04-23T18:39:31Z</time>
      </trkpt>
      <trkpt lat="45.83755" lon="6.2581">
        <ele>1183</ele>
        <time>2010-04-23T18:39:33Z</time>
      </trkpt>
      <trkpt lat="45.83754" lon="6.2581">
        <ele>1186</ele>
        <time>2010-04-23T18:39:36Z</time>
      </trkpt>
      <trkpt lat="45.83751" lon="6.25813">
        <ele>1188</ele>
        <time>2010-04-23T18:39:38Z</time>
      </trkpt>
      <trkpt lat="45.83751" lon="6.25819">
        <ele>1188</ele>
        <time>2010-04-23T18:39:41Z</time>
      </trkpt>
      <trkpt lat="45.83754" lon="6.25823">
        <ele>1186</ele>
        <time>2010-04-23T18:39:43Z</time>
      </trkpt>
      <trkpt lat="45.83754" lon="6.25826">
        <ele>1185</ele>
        <time>2010-04-23T18:39:45Z</time>
      </trkpt>
      <trkpt lat="45.83747" lon="6.2583">
        <ele>1182</ele>
        <time>2010-04-23T18:39:48Z</time>
      </trkpt>
      <trkpt lat="45.83738" lon="6.25831">
        <ele>1179</ele>
        <time>2010-04-23T18:39:51Z</time>
      </trkpt>
      <trkpt lat="45.83736" lon="6.25831">
        <ele>1177</ele>
        <time>2010-04-23T18:39:53Z</time>
      </trkpt>
      <trkpt lat="45.83733" lon="6.25832">
        <ele>1177</ele>
        <time>2010-04-23T18:39:56Z</time>
      </trkpt>
      <trkpt lat="45.83727" lon="6.25835">
        <ele>1177</ele>
        <time>2010-04-23T18:39:58Z</time>
      </trkpt>
      <trkpt lat="45.83725" lon="6.25838">
        <ele>1177</ele>
        <time>2010-04-23T18:40:01Z</time>
      </trkpt>
      <trkpt lat="45.83727" lon="6.2584">
        <ele>1177</ele>
        <time>2010-04-23T18:40:03Z</time>
      </trkpt>
      <trkpt lat="45.83726" lon="6.25843">
        <ele>1179</ele>
        <time>2010-04-23T18:40:06Z</time>
      </trkpt>
      <trkpt lat="45.83728" lon="6.25847">
        <ele>1181</ele>
        <time>2010-04-23T18:40:08Z</time>
      </trkpt>
      <trkpt lat="45.83733" lon="6.2585">
        <ele>1184</ele>
        <time>2010-04-23T18:40:11Z</time>
      </trkpt>
      <trkpt lat="45.83734" lon="6.25854">
        <ele>1189</ele>
        <time>2010-04-23T18:40:14Z</time>
      </trkpt>
      <trkpt lat="45.83733" lon="6.25857">
        <ele>1195</ele>
        <time>2010-04-23T18:40:17Z</time>
      </trkpt>
      <trkpt lat="45.83738" lon="6.25861">
        <ele>1199</ele>
        <time>2010-04-23T18:40:19Z</time>
      </trkpt>
      <trkpt lat="45.83736" lon="6.25866">
        <ele>1207</ele>
        <time>2010-04-23T18:40:24Z</time>
      </trkpt>
      <trkpt lat="45.83733" lon="6.25872">
        <ele>1210</ele>
        <time>2010-04-23T18:40:27Z</time>
      </trkpt>
      <trkpt lat="45.83731" lon="6.25876">
        <ele>1210</ele>
        <time>2010-04-23T18:40:30Z</time>
      </trkpt>
      <trkpt lat="45.83738" lon="6.25893">
        <ele>1210</ele>
        <time>2010-04-23T18:40:33Z</time>
      </trkpt>
      <trkpt lat="45.83737" lon="6.259">
        <ele>1209</ele>
        <time>2010-04-23T18:40:35Z</time>
      </trkpt>
      <trkpt lat="45.83736" lon="6.25904">
        <ele>1208</ele>
        <time>2010-04-23T18:40:37Z</time>
      </trkpt>
      <trkpt lat="45.83734" lon="6.25907">
        <ele>1207</ele>
        <time>2010-04-23T18:40:39Z</time>
      </trkpt>
      <trkpt lat="45.83733" lon="6.25913">
        <ele>1207</ele>
        <time>2010-04-23T18:40:41Z</time>
      </trkpt>
      <trkpt lat="45.8373" lon="6.25917">
        <ele>1206</ele>
        <time>2010-04-23T18:40:43Z</time>
      </trkpt>
      <trkpt lat="45.8373" lon="6.25921">
        <ele>1206</ele>
        <time>2010-04-23T18:40:46Z</time>
      </trkpt>
      <trkpt lat="45.83724" lon="6.25922">
        <ele>1206</ele>
        <time>2010-04-23T18:40:49Z</time>
      </trkpt>
      <trkpt lat="45.83724" lon="6.25924">
        <ele>1206</ele>
        <time>2010-04-23T18:40:51Z</time>
      </trkpt>
      <trkpt lat="45.83721" lon="6.25926">
        <ele>1206</ele>
        <time>2010-04-23T18:40:53Z</time>
      </trkpt>
      <trkpt lat="45.83721" lon="6.25931">
        <ele>1210</ele>
        <time>2010-04-23T18:40:57Z</time>
      </trkpt>
      <trkpt lat="45.83719" lon="6.25934">
        <ele>1212</ele>
        <time>2010-04-23T18:40:59Z</time>
      </trkpt>
      <trkpt lat="45.83716" lon="6.25938">
        <ele>1215</ele>
        <time>2010-04-23T18:41:02Z</time>
      </trkpt>
      <trkpt lat="45.83717" lon="6.25941">
        <ele>1215</ele>
        <time>2010-04-23T18:41:05Z</time>
      </trkpt>
      <trkpt lat="45.8372" lon="6.25943">
        <ele>1216</ele>
        <time>2010-04-23T18:41:07Z</time>
      </trkpt>
      <trkpt lat="45.83721" lon="6.25945">
        <ele>1218</ele>
        <time>2010-04-23T18:41:09Z</time>
      </trkpt>
      <trkpt lat="45.83719" lon="6.25948">
        <ele>1220</ele>
        <time>2010-04-23T18:41:12Z</time>
      </trkpt>
      <trkpt lat="45.83717" lon="6.2595">
        <ele>1222</ele>
        <time>2010-04-23T18:41:15Z</time>
      </trkpt>
      <trkpt lat="45.83712" lon="6.25954">
        <ele>1223</ele>
        <time>2010-04-23T18:41:17Z</time>
      </trkpt>
      <trkpt lat="45.83704" lon="6.25958">
        <ele>1223</ele>
        <time>2010-04-23T18:41:20Z</time>
      </trkpt>
      <trkpt lat="45.83702" lon="6.25961">
        <ele>1222</ele>
        <time>2010-04-23T18:41:22Z</time>
      </trkpt>
      <trkpt lat="45.83698" lon="6.25969">
        <ele>1219</ele>
        <time>2010-04-23T18:41:25Z</time>
      </trkpt>
      <trkpt lat="45.83693" lon="6.25973">
        <ele>1217</ele>
        <time>2010-04-23T18:41:27Z</time>
      </trkpt>
      <trkpt lat="45.8369" lon="6.25979">
        <ele>1214</ele>
        <time>2010-04-23T18:41:30Z</time>
      </trkpt>
      <trkpt lat="45.8369" lon="6.25982">
        <ele>1213</ele>
        <time>2010-04-23T18:41:34Z</time>
      </trkpt>
      <trkpt lat="45.8369" lon="6.25983">
        <ele>1212</ele>
        <time>2010-04-23T18:41:38Z</time>
      </trkpt>
      <trkpt lat="45.83693" lon="6.25983">
        <ele>1211</ele>
        <time>2010-04-23T18:41:40Z</time>
      </trkpt>
      <trkpt lat="45.83696" lon="6.25984">
        <ele>1211</ele>
        <time>2010-04-23T18:41:42Z</time>
      </trkpt>
      <trkpt lat="45.83699" lon="6.25983">
        <ele>1211</ele>
        <time>2010-04-23T18:41:44Z</time>
      </trkpt>
      <trkpt lat="45.83702" lon="6.25983">
        <ele>1213</ele>
        <time>2010-04-23T18:41:46Z</time>
      </trkpt>
      <trkpt lat="45.83706" lon="6.25984">
        <ele>1215</ele>
        <time>2010-04-23T18:41:48Z</time>
      </trkpt>
      <trkpt lat="45.83705" lon="6.25988">
        <ele>1218</ele>
        <time>2010-04-23T18:41:50Z</time>
      </trkpt>
      <trkpt lat="45.83701" lon="6.2599">
        <ele>1222</ele>
        <time>2010-04-23T18:41:54Z</time>
      </trkpt>
      <trkpt lat="45.83704" lon="6.25996">
        <ele>1223</ele>
        <time>2010-04-23T18:41:57Z</time>
      </trkpt>
      <trkpt lat="45.83707" lon="6.25999">
        <ele>1224</ele>
        <time>2010-04-23T18:41:59Z</time>
      </trkpt>
      <trkpt lat="45.83709" lon="6.26003">
        <ele>1226</ele>
        <time>2010-04-23T18:42:01Z</time>
      </trkpt>
      <trkpt lat="45.83711" lon="6.26006">
        <ele>1228</ele>
        <time>2010-04-23T18:42:03Z</time>
      </trkpt>
      <trkpt lat="45.83711" lon="6.26007">
        <ele>1231</ele>
        <time>2010-04-23T18:42:06Z</time>
      </trkpt>
      <trkpt lat="45.83709" lon="6.26007">
        <ele>1233</ele>
        <time>2010-04-23T18:42:09Z</time>
      </trkpt>
      <trkpt lat="45.83708" lon="6.26009">
        <ele>1233</ele>
        <time>2010-04-23T18:42:11Z</time>
      </trkpt>
      <trkpt lat="45.83708" lon="6.26006">
        <ele>1233</ele>
        <time>2010-04-23T18:42:16Z</time>
      </trkpt>
      <trkpt lat="45.83709" lon="6.26004">
        <ele>1236</ele>
        <time>2010-04-23T18:42:21Z</time>
      </trkpt>
      <trkpt lat="45.83711" lon="6.26003">
        <ele>1239</ele>
        <time>2010-04-23T18:42:24Z</time>
      </trkpt>
      <trkpt lat="45.83713" lon="6.26007">
        <ele>1240</ele>
        <time>2010-04-23T18:42:26Z</time>
      </trkpt>
      <trkpt lat="45.8371" lon="6.26011">
        <ele>1240</ele>
        <time>2010-04-23T18:42:28Z</time>
      </trkpt>
      <trkpt lat="45.83707" lon="6.26015">
        <ele>1240</ele>
        <time>2010-04-23T18:42:30Z</time>
      </trkpt>
      <trkpt lat="45.83708" lon="6.26018">
        <ele>1238</ele>
        <time>2010-04-23T18:42:32Z</time>
      </trkpt>
      <trkpt lat="45.83707" lon="6.2602">
        <ele>1235</ele>
        <time>2010-04-23T18:42:35Z</time>
      </trkpt>
      <trkpt lat="45.83707" lon="6.26017">
        <ele>1233</ele>
        <time>2010-04-23T18:42:37Z</time>
      </trkpt>
      <trkpt lat="45.83712" lon="6.26016">
        <ele>1230</ele>
        <time>2010-04-23T18:42:40Z</time>
      </trkpt>
      <trkpt lat="45.83716" lon="6.26016">
        <ele>1229</ele>
        <time>2010-04-23T18:42:42Z</time>
      </trkpt>
      <trkpt lat="45.83719" lon="6.26015">
        <ele>1229</ele>
        <time>2010-04-23T18:42:45Z</time>
      </trkpt>
      <trkpt lat="45.8372" lon="6.26013">
        <ele>1229</ele>
        <time>2010-04-23T18:42:47Z</time>
      </trkpt>
      <trkpt lat="45.83725" lon="6.26013">
        <ele>1229</ele>
        <time>2010-04-23T18:42:50Z</time>
      </trkpt>
      <trkpt lat="45.83727" lon="6.26013">
        <ele>1229</ele>
        <time>2010-04-23T18:42:52Z</time>
      </trkpt>
      <trkpt lat="45.8373" lon="6.26012">
        <ele>1229</ele>
        <time>2010-04-23T18:42:54Z</time>
      </trkpt>
      <trkpt lat="45.83733" lon="6.26011">
        <ele>1230</ele>
        <time>2010-04-23T18:42:56Z</time>
      </trkpt>
      <trkpt lat="45.83736" lon="6.2601">
        <ele>1232</ele>
        <time>2010-04-23T18:42:58Z</time>
      </trkpt>
      <trkpt lat="45.83739" lon="6.26011">
        <ele>1235</ele>
        <time>2010-04-23T18:43:01Z</time>
      </trkpt>
      <trkpt lat="45.83741" lon="6.26008">
        <ele>1236</ele>
        <time>2010-04-23T18:43:03Z</time>
      </trkpt>
      <trkpt lat="45.83745" lon="6.26011">
        <ele>1236</ele>
        <time>2010-04-23T18:43:05Z</time>
      </trkpt>
      <trkpt lat="45.83746" lon="6.26012">
        <ele>1236</ele>
        <time>2010-04-23T18:43:07Z</time>
      </trkpt>
      <trkpt lat="45.83748" lon="6.26013">
        <ele>1236</ele>
        <time>2010-04-23T18:43:09Z</time>
      </trkpt>
      <trkpt lat="45.83749" lon="6.26013">
        <ele>1236</ele>
        <time>2010-04-23T18:43:11Z</time>
      </trkpt>
      <trkpt lat="45.83751" lon="6.26016">
        <ele>1236</ele>
        <time>2010-04-23T18:43:13Z</time>
      </trkpt>
      <trkpt lat="45.83753" lon="6.2602">
        <ele>1237</ele>
        <time>2010-04-23T18:43:15Z</time>
      </trkpt>
      <trkpt lat="45.83757" lon="6.26023">
        <ele>1239</ele>
        <time>2010-04-23T18:43:17Z</time>
      </trkpt>
      <trkpt lat="45.83759" lon="6.26028">
        <ele>1241</ele>
        <time>2010-04-23T18:43:19Z</time>
      </trkpt>
      <trkpt lat="45.8376" lon="6.26031">
        <ele>1243</ele>
        <time>2010-04-23T18:43:21Z</time>
      </trkpt>
      <trkpt lat="45.83761" lon="6.26032">
        <ele>1245</ele>
        <time>2010-04-23T18:43:23Z</time>
      </trkpt>
      <trkpt lat="45.83763" lon="6.26036">
        <ele>1248</ele>
        <time>2010-04-23T18:43:26Z</time>
      </trkpt>
      <trkpt lat="45.83762" lon="6.2604">
        <ele>1249</ele>
        <time>2010-04-23T18:43:28Z</time>
      </trkpt>
      <trkpt lat="45.83762" lon="6.26044">
        <ele>1249</ele>
        <time>2010-04-23T18:43:31Z</time>
      </trkpt>
      <trkpt lat="45.83763" lon="6.26047">
        <ele>1249</ele>
        <time>2010-04-23T18:43:33Z</time>
      </trkpt>
      <trkpt lat="45.83765" lon="6.2605">
        <ele>1250</ele>
        <time>2010-04-23T18:43:35Z</time>
      </trkpt>
      <trkpt lat="45.83768" lon="6.26051">
        <ele>1252</ele>
        <time>2010-04-23T18:43:37Z</time>
      </trkpt>
      <trkpt lat="45.83767" lon="6.26054">
        <ele>1255</ele>
        <time>2010-04-23T18:43:40Z</time>
      </trkpt>
      <trkpt lat="45.8376" lon="6.26061">
        <ele>1257</ele>
        <time>2010-04-23T18:43:42Z</time>
      </trkpt>
      <trkpt lat="45.8376" lon="6.26063">
        <ele>1257</ele>
        <time>2010-04-23T18:43:44Z</time>
      </trkpt>
      <trkpt lat="45.83764" lon="6.26066">
        <ele>1258</ele>
        <time>2010-04-23T18:43:47Z</time>
      </trkpt>
      <trkpt lat="45.83767" lon="6.26064">
        <ele>1260</ele>
        <time>2010-04-23T18:43:49Z</time>
      </trkpt>
      <trkpt lat="45.83771" lon="6.26067">
        <ele>1264</ele>
        <time>2010-04-23T18:43:53Z</time>
      </trkpt>
      <trkpt lat="45.83771" lon="6.2607">
        <ele>1268</ele>
        <time>2010-04-23T18:43:57Z</time>
      </trkpt>
      <trkpt lat="45.83772" lon="6.26073">
        <ele>1270</ele>
        <time>2010-04-23T18:43:59Z</time>
      </trkpt>
      <trkpt lat="45.83771" lon="6.26076">
        <ele>1270</ele>
        <time>2010-04-23T18:44:01Z</time>
      </trkpt>
      <trkpt lat="45.83773" lon="6.2608">
        <ele>1270</ele>
        <time>2010-04-23T18:44:03Z</time>
      </trkpt>
      <trkpt lat="45.83774" lon="6.26084">
        <ele>1271</ele>
        <time>2010-04-23T18:44:05Z</time>
      </trkpt>
      <trkpt lat="45.83778" lon="6.26089">
        <ele>1273</ele>
        <time>2010-04-23T18:44:07Z</time>
      </trkpt>
      <trkpt lat="45.83781" lon="6.26092">
        <ele>1275</ele>
        <time>2010-04-23T18:44:09Z</time>
      </trkpt>
      <trkpt lat="45.83788" lon="6.26094">
        <ele>1278</ele>
        <time>2010-04-23T18:44:11Z</time>
      </trkpt>
      <trkpt lat="45.83791" lon="6.26098">
        <ele>1283</ele>
        <time>2010-04-23T18:44:13Z</time>
      </trkpt>
      <trkpt lat="45.83788" lon="6.26101">
        <ele>1288</ele>
        <time>2010-04-23T18:44:15Z</time>
      </trkpt>
      <trkpt lat="45.83784" lon="6.26103">
        <ele>1292</ele>
        <time>2010-04-23T18:44:17Z</time>
      </trkpt>
      <trkpt lat="45.8378" lon="6.26106">
        <ele>1294</ele>
        <time>2010-04-23T18:44:19Z</time>
      </trkpt>
      <trkpt lat="45.83777" lon="6.26106">
        <ele>1296</ele>
        <time>2010-04-23T18:44:21Z</time>
      </trkpt>
      <trkpt lat="45.83776" lon="6.26109">
        <ele>1296</ele>
        <time>2010-04-23T18:44:23Z</time>
      </trkpt>
      <trkpt lat="45.83778" lon="6.26116">
        <ele>1296</ele>
        <time>2010-04-23T18:44:25Z</time>
      </trkpt>
      <trkpt lat="45.83779" lon="6.26121">
        <ele>1296</ele>
        <time>2010-04-23T18:44:28Z</time>
      </trkpt>
      <trkpt lat="45.83778" lon="6.26124">
        <ele>1296</ele>
        <time>2010-04-23T18:44:31Z</time>
      </trkpt>
      <trkpt lat="45.83777" lon="6.26127">
        <ele>1296</ele>
        <time>2010-04-23T18:44:33Z</time>
      </trkpt>
      <trkpt lat="45.83775" lon="6.26131">
        <ele>1296</ele>
        <time>2010-04-23T18:44:36Z</time>
      </trkpt>
      <trkpt lat="45.83772" lon="6.26133">
        <ele>1295</ele>
        <time>2010-04-23T18:44:38Z</time>
      </trkpt>
      <trkpt lat="45.83771" lon="6.26135">
        <ele>1293</ele>
        <time>2010-04-23T18:44:40Z</time>
      </trkpt>
      <trkpt lat="45.83768" lon="6.26139">
        <ele>1291</ele>
        <time>2010-04-23T18:44:42Z</time>
      </trkpt>
      <trkpt lat="45.83767" lon="6.26141">
        <ele>1289</ele>
        <time>2010-04-23T18:44:44Z</time>
      </trkpt>
      <trkpt lat="45.83768" lon="6.26143">
        <ele>1287</ele>
        <time>2010-04-23T18:44:46Z</time>
      </trkpt>
      <trkpt lat="45.83766" lon="6.26145">
        <ele>1285</ele>
        <time>2010-04-23T18:44:48Z</time>
      </trkpt>
      <trkpt lat="45.83764" lon="6.26145">
        <ele>1285</ele>
        <time>2010-04-23T18:44:50Z</time>
      </trkpt>
      <trkpt lat="45.83763" lon="6.2615">
        <ele>1285</ele>
        <time>2010-04-23T18:44:53Z</time>
      </trkpt>
      <trkpt lat="45.83761" lon="6.26152">
        <ele>1283</ele>
        <time>2010-04-23T18:44:55Z</time>
      </trkpt>
      <trkpt lat="45.83756" lon="6.26154">
        <ele>1281</ele>
        <time>2010-04-23T18:44:57Z</time>
      </trkpt>
      <trkpt lat="45.83754" lon="6.26156">
        <ele>1278</ele>
        <time>2010-04-23T18:45:00Z</time>
      </trkpt>
      <trkpt lat="45.83754" lon="6.2616">
        <ele>1276</ele>
        <time>2010-04-23T18:45:02Z</time>
      </trkpt>
      <trkpt lat="45.83757" lon="6.26162">
        <ele>1276</ele>
        <time>2010-04-23T18:45:04Z</time>
      </trkpt>
      <trkpt lat="45.83759" lon="6.26166">
        <ele>1276</ele>
        <time>2010-04-23T18:45:06Z</time>
      </trkpt>
      <trkpt lat="45.8376" lon="6.26168">
        <ele>1276</ele>
        <time>2010-04-23T18:45:08Z</time>
      </trkpt>
      <trkpt lat="45.83761" lon="6.26173">
        <ele>1276</ele>
        <time>2010-04-23T18:45:10Z</time>
      </trkpt>
      <trkpt lat="45.83762" lon="6.26179">
        <ele>1276</ele>
        <time>2010-04-23T18:45:12Z</time>
      </trkpt>
      <trkpt lat="45.83768" lon="6.26185">
        <ele>1276</ele>
        <time>2010-04-23T18:45:14Z</time>
      </trkpt>
      <trkpt lat="45.8377" lon="6.2619">
        <ele>1276</ele>
        <time>2010-04-23T18:45:16Z</time>
      </trkpt>
      <trkpt lat="45.83771" lon="6.26196">
        <ele>1277</ele>
        <time>2010-04-23T18:45:18Z</time>
      </trkpt>
      <trkpt lat="45.83773" lon="6.26202">
        <ele>1278</ele>
        <time>2010-04-23T18:45:20Z</time>
      </trkpt>
      <trkpt lat="45.8377" lon="6.26213">
        <ele>1278</ele>
        <time>2010-04-23T18:45:22Z</time>
      </trkpt>
      <trkpt lat="45.83775" lon="6.26227">
        <ele>1278</ele>
        <time>2010-04-23T18:45:26Z</time>
      </trkpt>
      <trkpt lat="45.83782" lon="6.26235">
        <ele>1278</ele>
        <time>2010-04-23T18:45:28Z</time>
      </trkpt>
      <trkpt lat="45.83787" lon="6.26243">
        <ele>1279</ele>
        <time>2010-04-23T18:45:30Z</time>
      </trkpt>
      <trkpt lat="45.83789" lon="6.26249">
        <ele>1281</ele>
        <time>2010-04-23T18:45:32Z</time>
      </trkpt>
      <trkpt lat="45.83794" lon="6.26255">
        <ele>1285</ele>
        <time>2010-04-23T18:45:34Z</time>
      </trkpt>
      <trkpt lat="45.83799" lon="6.2626">
        <ele>1289</ele>
        <time>2010-04-23T18:45:36Z</time>
      </trkpt>
      <trkpt lat="45.83804" lon="6.26265">
        <ele>1293</ele>
        <time>2010-04-23T18:45:38Z</time>
      </trkpt>
      <trkpt lat="45.83806" lon="6.26269">
        <ele>1299</ele>
        <time>2010-04-23T18:45:40Z</time>
      </trkpt>
      <trkpt lat="45.83804" lon="6.26274">
        <ele>1303</ele>
        <time>2010-04-23T18:45:42Z</time>
      </trkpt>
      <trkpt lat="45.83803" lon="6.26279">
        <ele>1307</ele>
        <time>2010-04-23T18:45:44Z</time>
      </trkpt>
      <trkpt lat="45.83804" lon="6.26283">
        <ele>1311</ele>
        <time>2010-04-23T18:45:46Z</time>
      </trkpt>
      <trkpt lat="45.83806" lon="6.26287">
        <ele>1317</ele>
        <time>2010-04-23T18:45:49Z</time>
      </trkpt>
      <trkpt lat="45.83807" lon="6.26289">
        <ele>1323</ele>
        <time>2010-04-23T18:45:52Z</time>
      </trkpt>
      <trkpt lat="45.83807" lon="6.26286">
        <ele>1326</ele>
        <time>2010-04-23T18:45:54Z</time>
      </trkpt>
      <trkpt lat="45.83806" lon="6.26283">
        <ele>1328</ele>
        <time>2010-04-23T18:45:56Z</time>
      </trkpt>
      <trkpt lat="45.83801" lon="6.2628">
        <ele>1330</ele>
        <time>2010-04-23T18:45:58Z</time>
      </trkpt>
      <trkpt lat="45.83795" lon="6.2628">
        <ele>1330</ele>
        <time>2010-04-23T18:46:00Z</time>
      </trkpt>
      <trkpt lat="45.8379" lon="6.26277">
        <ele>1328</ele>
        <time>2010-04-23T18:46:02Z</time>
      </trkpt>
      <trkpt lat="45.83788" lon="6.26275">
        <ele>1326</ele>
        <time>2010-04-23T18:46:04Z</time>
      </trkpt>
      <trkpt lat="45.83781" lon="6.26277">
        <ele>1324</ele>
        <time>2010-04-23T18:46:06Z</time>
      </trkpt>
      <trkpt lat="45.83778" lon="6.2628">
        <ele>1321</ele>
        <time>2010-04-23T18:46:08Z</time>
      </trkpt>
      <trkpt lat="45.83777" lon="6.26281">
        <ele>1317</ele>
        <time>2010-04-23T18:46:10Z</time>
      </trkpt>
      <trkpt lat="45.83771" lon="6.26285">
        <ele>1315</ele>
        <time>2010-04-23T18:46:12Z</time>
      </trkpt>
      <trkpt lat="45.83767" lon="6.26287">
        <ele>1312</ele>
        <time>2010-04-23T18:46:14Z</time>
      </trkpt>
      <trkpt lat="45.83764" lon="6.26289">
        <ele>1309</ele>
        <time>2010-04-23T18:46:17Z</time>
      </trkpt>
      <trkpt lat="45.83763" lon="6.26293">
        <ele>1307</ele>
        <time>2010-04-23T18:46:19Z</time>
      </trkpt>
      <trkpt lat="45.83763" lon="6.26298">
        <ele>1305</ele>
        <time>2010-04-23T18:46:21Z</time>
      </trkpt>
      <trkpt lat="45.83761" lon="6.26302">
        <ele>1303</ele>
        <time>2010-04-23T18:46:23Z</time>
      </trkpt>
      <trkpt lat="45.8376" lon="6.26308">
        <ele>1301</ele>
        <time>2010-04-23T18:46:25Z</time>
      </trkpt>
      <trkpt lat="45.83755" lon="6.26312">
        <ele>1298</ele>
        <time>2010-04-23T18:46:27Z</time>
      </trkpt>
      <trkpt lat="45.83755" lon="6.26316">
        <ele>1296</ele>
        <time>2010-04-23T18:46:29Z</time>
      </trkpt>
      <trkpt lat="45.83755" lon="6.2632">
        <ele>1294</ele>
        <time>2010-04-23T18:46:32Z</time>
      </trkpt>
      <trkpt lat="45.83755" lon="6.26324">
        <ele>1294</ele>
        <time>2010-04-23T18:46:34Z</time>
      </trkpt>
      <trkpt lat="45.83758" lon="6.26328">
        <ele>1294</ele>
        <time>2010-04-23T18:46:36Z</time>
      </trkpt>
      <trkpt lat="45.83762" lon="6.2633">
        <ele>1296</ele>
        <time>2010-04-23T18:46:38Z</time>
      </trkpt>
      <trkpt lat="45.8376" lon="6.26333">
        <ele>1298</ele>
        <time>2010-04-23T18:46:40Z</time>
      </trkpt>
      <trkpt lat="45.83759" lon="6.26336">
        <ele>1300</ele>
        <time>2010-04-23T18:46:42Z</time>
      </trkpt>
      <trkpt lat="45.83755" lon="6.26338">
        <ele>1300</ele>
        <time>2010-04-23T18:46:44Z</time>
      </trkpt>
      <trkpt lat="45.83755" lon="6.26342">
        <ele>1300</ele>
        <time>2010-04-23T18:46:46Z</time>
      </trkpt>
      <trkpt lat="45.83756" lon="6.26345">
        <ele>1302</ele>
        <time>2010-04-23T18:46:49Z</time>
      </trkpt>
      <trkpt lat="45.83756" lon="6.26347">
        <ele>1304</ele>
        <time>2010-04-23T18:46:51Z</time>
      </trkpt>
      <trkpt lat="45.83753" lon="6.26348">
        <ele>1306</ele>
        <time>2010-04-23T18:46:53Z</time>
      </trkpt>
      <trkpt lat="45.83753" lon="6.26353">
        <ele>1309</ele>
        <time>2010-04-23T18:46:55Z</time>
      </trkpt>
      <trkpt lat="45.8375" lon="6.26357">
        <ele>1313</ele>
        <time>2010-04-23T18:46:58Z</time>
      </trkpt>
      <trkpt lat="45.83748" lon="6.26361">
        <ele>1315</ele>
        <time>2010-04-23T18:47:00Z</time>
      </trkpt>
      <trkpt lat="45.83746" lon="6.26369">
        <ele>1317</ele>
        <time>2010-04-23T18:47:02Z</time>
      </trkpt>
      <trkpt lat="45.83745" lon="6.26375">
        <ele>1317</ele>
        <time>2010-04-23T18:47:04Z</time>
      </trkpt>
      <trkpt lat="45.83747" lon="6.26381">
        <ele>1317</ele>
        <time>2010-04-23T18:47:06Z</time>
      </trkpt>
      <trkpt lat="45.83751" lon="6.26388">
        <ele>1317</ele>
        <time>2010-04-23T18:47:08Z</time>
      </trkpt>
      <trkpt lat="45.83752" lon="6.26397">
        <ele>1317</ele>
        <time>2010-04-23T18:47:10Z</time>
      </trkpt>
      <trkpt lat="45.83751" lon="6.26404">
        <ele>1319</ele>
        <time>2010-04-23T18:47:12Z</time>
      </trkpt>
      <trkpt lat="45.83753" lon="6.26409">
        <ele>1320</ele>
        <time>2010-04-23T18:47:14Z</time>
      </trkpt>
      <trkpt lat="45.8375" lon="6.26414">
        <ele>1320</ele>
        <time>2010-04-23T18:47:16Z</time>
      </trkpt>
      <trkpt lat="45.83744" lon="6.26417">
        <ele>1320</ele>
        <time>2010-04-23T18:47:18Z</time>
      </trkpt>
      <trkpt lat="45.8374" lon="6.26416">
        <ele>1319</ele>
        <time>2010-04-23T18:47:20Z</time>
      </trkpt>
      <trkpt lat="45.83738" lon="6.26414">
        <ele>1317</ele>
        <time>2010-04-23T18:47:22Z</time>
      </trkpt>
      <trkpt lat="45.83736" lon="6.26411">
        <ele>1315</ele>
        <time>2010-04-23T18:47:24Z</time>
      </trkpt>
      <trkpt lat="45.8373" lon="6.26408">
        <ele>1312</ele>
        <time>2010-04-23T18:47:27Z</time>
      </trkpt>
      <trkpt lat="45.83729" lon="6.26404">
        <ele>1310</ele>
        <time>2010-04-23T18:47:29Z</time>
      </trkpt>
      <trkpt lat="45.83725" lon="6.26401">
        <ele>1307</ele>
        <time>2010-04-23T18:47:32Z</time>
      </trkpt>
      <trkpt lat="45.83721" lon="6.26396">
        <ele>1304</ele>
        <time>2010-04-23T18:47:35Z</time>
      </trkpt>
      <trkpt lat="45.8372" lon="6.26394">
        <ele>1303</ele>
        <time>2010-04-23T18:47:39Z</time>
      </trkpt>
      <trkpt lat="45.83715" lon="6.26395">
        <ele>1303</ele>
        <time>2010-04-23T18:47:41Z</time>
      </trkpt>
      <trkpt lat="45.83709" lon="6.26396">
        <ele>1303</ele>
        <time>2010-04-23T18:47:43Z</time>
      </trkpt>
      <trkpt lat="45.83708" lon="6.26399">
        <ele>1302</ele>
        <time>2010-04-23T18:47:45Z</time>
      </trkpt>
      <trkpt lat="45.83707" lon="6.26404">
        <ele>1301</ele>
        <time>2010-04-23T18:47:47Z</time>
      </trkpt>
      <trkpt lat="45.83706" lon="6.26407">
        <ele>1301</ele>
        <time>2010-04-23T18:47:49Z</time>
      </trkpt>
      <trkpt lat="45.83703" lon="6.26411">
        <ele>1303</ele>
        <time>2010-04-23T18:47:51Z</time>
      </trkpt>
      <trkpt lat="45.83697" lon="6.26417">
        <ele>1304</ele>
        <time>2010-04-23T18:47:53Z</time>
      </trkpt>
      <trkpt lat="45.83692" lon="6.26421">
        <ele>1304</ele>
        <time>2010-04-23T18:47:55Z</time>
      </trkpt>
      <trkpt lat="45.8369" lon="6.26424">
        <ele>1304</ele>
        <time>2010-04-23T18:47:58Z</time>
      </trkpt>
      <trkpt lat="45.83686" lon="6.26425">
        <ele>1304</ele>
        <time>2010-04-23T18:48:00Z</time>
      </trkpt>
      <trkpt lat="45.83681" lon="6.2642">
        <ele>1304</ele>
        <time>2010-04-23T18:48:03Z</time>
      </trkpt>
      <trkpt lat="45.83678" lon="6.26418">
        <ele>1304</ele>
        <time>2010-04-23T18:48:06Z</time>
      </trkpt>
      <trkpt lat="45.83674" lon="6.26417">
        <ele>1303</ele>
        <time>2010-04-23T18:48:08Z</time>
      </trkpt>
      <trkpt lat="45.83675" lon="6.26416">
        <ele>1303</ele>
        <time>2010-04-23T18:48:10Z</time>
      </trkpt>
      <trkpt lat="45.8368" lon="6.26416">
        <ele>1303</ele>
        <time>2010-04-23T18:48:12Z</time>
      </trkpt>
      <trkpt lat="45.8368" lon="6.26419">
        <ele>1307</ele>
        <time>2010-04-23T18:48:16Z</time>
      </trkpt>
      <trkpt lat="45.83681" lon="6.2642">
        <ele>1310</ele>
        <time>2010-04-23T18:48:19Z</time>
      </trkpt>
      <trkpt lat="45.83681" lon="6.26423">
        <ele>1312</ele>
        <time>2010-04-23T18:48:21Z</time>
      </trkpt>
      <trkpt lat="45.83679" lon="6.26424">
        <ele>1314</ele>
        <time>2010-04-23T18:48:23Z</time>
      </trkpt>
      <trkpt lat="45.83674" lon="6.26425">
        <ele>1314</ele>
        <time>2010-04-23T18:48:25Z</time>
      </trkpt>
      <trkpt lat="45.8367" lon="6.26427">
        <ele>1314</ele>
        <time>2010-04-23T18:48:28Z</time>
      </trkpt>
      <trkpt lat="45.83667" lon="6.26427">
        <ele>1314</ele>
        <time>2010-04-23T18:48:30Z</time>
      </trkpt>
      <trkpt lat="45.83669" lon="6.26428">
        <ele>1314</ele>
        <time>2010-04-23T18:48:34Z</time>
      </trkpt>
      <trkpt lat="45.8367" lon="6.26427">
        <ele>1314</ele>
        <time>2010-04-23T18:48:36Z</time>
      </trkpt>
      <trkpt lat="45.8367" lon="6.26429">
        <ele>1314</ele>
        <time>2010-04-23T18:48:38Z</time>
      </trkpt>
      <trkpt lat="45.83671" lon="6.26431">
        <ele>1314</ele>
        <time>2010-04-23T18:48:41Z</time>
      </trkpt>
      <trkpt lat="45.83671" lon="6.26433">
        <ele>1314</ele>
        <time>2010-04-23T18:48:43Z</time>
      </trkpt>
      <trkpt lat="45.83672" lon="6.26436">
        <ele>1314</ele>
        <time>2010-04-23T18:48:45Z</time>
      </trkpt>
      <trkpt lat="45.83673" lon="6.26439">
        <ele>1314</ele>
        <time>2010-04-23T18:48:47Z</time>
      </trkpt>
      <trkpt lat="45.83674" lon="6.26441">
        <ele>1314</ele>
        <time>2010-04-23T18:48:49Z</time>
      </trkpt>
      <trkpt lat="45.83674" lon="6.26443">
        <ele>1314</ele>
        <time>2010-04-23T18:48:51Z</time>
      </trkpt>
      <trkpt lat="45.83676" lon="6.26446">
        <ele>1314</ele>
        <time>2010-04-23T18:48:53Z</time>
      </trkpt>
      <trkpt lat="45.83675" lon="6.26448">
        <ele>1314</ele>
        <time>2010-04-23T18:48:56Z</time>
      </trkpt>
      <trkpt lat="45.83674" lon="6.26451">
        <ele>1314</ele>
        <time>2010-04-23T18:48:58Z</time>
      </trkpt>
      <trkpt lat="45.83674" lon="6.26453">
        <ele>1314</ele>
        <time>2010-04-23T18:49:00Z</time>
      </trkpt>
      <trkpt lat="45.83675" lon="6.26456">
        <ele>1315</ele>
        <time>2010-04-23T18:49:02Z</time>
      </trkpt>
      <trkpt lat="45.83673" lon="6.26459">
        <ele>1317</ele>
        <time>2010-04-23T18:49:05Z</time>
      </trkpt>
      <trkpt lat="45.83669" lon="6.26462">
        <ele>1317</ele>
        <time>2010-04-23T18:49:07Z</time>
      </trkpt>
      <trkpt lat="45.83667" lon="6.26466">
        <ele>1317</ele>
        <time>2010-04-23T18:49:10Z</time>
      </trkpt>
      <trkpt lat="45.83662" lon="6.26468">
        <ele>1316</ele>
        <time>2010-04-23T18:49:12Z</time>
      </trkpt>
      <trkpt lat="45.83662" lon="6.2647">
        <ele>1314</ele>
        <time>2010-04-23T18:49:14Z</time>
      </trkpt>
      <trkpt lat="45.83664" lon="6.26472">
        <ele>1313</ele>
        <time>2010-04-23T18:49:17Z</time>
      </trkpt>
      <trkpt lat="45.83667" lon="6.26474">
        <ele>1313</ele>
        <time>2010-04-23T18:49:20Z</time>
      </trkpt>
      <trkpt lat="45.83669" lon="6.26477">
        <ele>1313</ele>
        <time>2010-04-23T18:49:23Z</time>
      </trkpt>
      <trkpt lat="45.83667" lon="6.2648">
        <ele>1314</ele>
        <time>2010-04-23T18:49:25Z</time>
      </trkpt>
      <trkpt lat="45.83666" lon="6.26482">
        <ele>1314</ele>
        <time>2010-04-23T18:49:27Z</time>
      </trkpt>
      <trkpt lat="45.83663" lon="6.26483">
        <ele>1315</ele>
        <time>2010-04-23T18:49:29Z</time>
      </trkpt>
      <trkpt lat="45.83659" lon="6.26483">
        <ele>1315</ele>
        <time>2010-04-23T18:49:31Z</time>
      </trkpt>
      <trkpt lat="45.83659" lon="6.26485">
        <ele>1315</ele>
        <time>2010-04-23T18:49:35Z</time>
      </trkpt>
      <trkpt lat="45.8366" lon="6.26486">
        <ele>1315</ele>
        <time>2010-04-23T18:49:37Z</time>
      </trkpt>
      <trkpt lat="45.83662" lon="6.26489">
        <ele>1315</ele>
        <time>2010-04-23T18:49:39Z</time>
      </trkpt>
      <trkpt lat="45.8366" lon="6.26493">
        <ele>1315</ele>
        <time>2010-04-23T18:49:41Z</time>
      </trkpt>
      <trkpt lat="45.83661" lon="6.26498">
        <ele>1315</ele>
        <time>2010-04-23T18:49:44Z</time>
      </trkpt>
      <trkpt lat="45.83664" lon="6.26501">
        <ele>1315</ele>
        <time>2010-04-23T18:49:46Z</time>
      </trkpt>
      <trkpt lat="45.83666" lon="6.26503">
        <ele>1318</ele>
        <time>2010-04-23T18:49:49Z</time>
      </trkpt>
      <trkpt lat="45.83667" lon="6.26504">
        <ele>1319</ele>
        <time>2010-04-23T18:49:51Z</time>
      </trkpt>
      <trkpt lat="45.83666" lon="6.26504">
        <ele>1323</ele>
        <time>2010-04-23T18:49:55Z</time>
      </trkpt>
      <trkpt lat="45.83662" lon="6.26504">
        <ele>1325</ele>
        <time>2010-04-23T18:49:57Z</time>
      </trkpt>
      <trkpt lat="45.83664" lon="6.26509">
        <ele>1329</ele>
        <time>2010-04-23T18:49:59Z</time>
      </trkpt>
      <trkpt lat="45.83665" lon="6.26512">
        <ele>1334</ele>
        <time>2010-04-23T18:50:02Z</time>
      </trkpt>
      <trkpt lat="45.83666" lon="6.26513">
        <ele>1336</ele>
        <time>2010-04-23T18:50:04Z</time>
      </trkpt>
      <trkpt lat="45.83667" lon="6.26515">
        <ele>1338</ele>
        <time>2010-04-23T18:50:06Z</time>
      </trkpt>
      <trkpt lat="45.83668" lon="6.26518">
        <ele>1339</ele>
        <time>2010-04-23T18:50:08Z</time>
      </trkpt>
      <trkpt lat="45.83669" lon="6.26519">
        <ele>1339</ele>
        <time>2010-04-23T18:50:10Z</time>
      </trkpt>
      <trkpt lat="45.83669" lon="6.26522">
        <ele>1339</ele>
        <time>2010-04-23T18:50:13Z</time>
      </trkpt>
      <trkpt lat="45.83668" lon="6.26528">
        <ele>1339</ele>
        <time>2010-04-23T18:50:16Z</time>
      </trkpt>
      <trkpt lat="45.83666" lon="6.26532">
        <ele>1340</ele>
        <time>2010-04-23T18:50:18Z</time>
      </trkpt>
      <trkpt lat="45.83664" lon="6.26535">
        <ele>1341</ele>
        <time>2010-04-23T18:50:20Z</time>
      </trkpt>
      <trkpt lat="45.83662" lon="6.26538">
        <ele>1343</ele>
        <time>2010-04-23T18:50:22Z</time>
      </trkpt>
      <trkpt lat="45.8366" lon="6.26536">
        <ele>1343</ele>
        <time>2010-04-23T18:50:25Z</time>
      </trkpt>
      <trkpt lat="45.8366" lon="6.26534">
        <ele>1343</ele>
        <time>2010-04-23T18:50:28Z</time>
      </trkpt>
      <trkpt lat="45.8366" lon="6.26533">
        <ele>1343</ele>
        <time>2010-04-23T18:50:33Z</time>
      </trkpt>
      <trkpt lat="45.83662" lon="6.26532">
        <ele>1343</ele>
        <time>2010-04-23T18:50:38Z</time>
      </trkpt>
      <trkpt lat="45.83663" lon="6.26533">
        <ele>1343</ele>
        <time>2010-04-23T18:50:40Z</time>
      </trkpt>
      <trkpt lat="45.83664" lon="6.26535">
        <ele>1343</ele>
        <time>2010-04-23T18:50:44Z</time>
      </trkpt>
      <trkpt lat="45.83664" lon="6.26537">
        <ele>1343</ele>
        <time>2010-04-23T18:50:49Z</time>
      </trkpt>
      <trkpt lat="45.83661" lon="6.26539">
        <ele>1343</ele>
        <time>2010-04-23T18:50:51Z</time>
      </trkpt>
      <trkpt lat="45.8366" lon="6.26542">
        <ele>1343</ele>
        <time>2010-04-23T18:50:53Z</time>
      </trkpt>
      <trkpt lat="45.83659" lon="6.26545">
        <ele>1343</ele>
        <time>2010-04-23T18:50:55Z</time>
      </trkpt>
      <trkpt lat="45.83659" lon="6.26549">
        <ele>1343</ele>
        <time>2010-04-23T18:50:58Z</time>
      </trkpt>
      <trkpt lat="45.83659" lon="6.26551">
        <ele>1343</ele>
        <time>2010-04-23T18:51:00Z</time>
      </trkpt>
      <trkpt lat="45.83659" lon="6.26553">
        <ele>1343</ele>
        <time>2010-04-23T18:51:02Z</time>
      </trkpt>
      <trkpt lat="45.83657" lon="6.26556">
        <ele>1343</ele>
        <time>2010-04-23T18:51:04Z</time>
      </trkpt>
      <trkpt lat="45.83656" lon="6.26559">
        <ele>1343</ele>
        <time>2010-04-23T18:51:06Z</time>
      </trkpt>
      <trkpt lat="45.83655" lon="6.26562">
        <ele>1343</ele>
        <time>2010-04-23T18:51:08Z</time>
      </trkpt>
      <trkpt lat="45.83654" lon="6.26566">
        <ele>1343</ele>
        <time>2010-04-23T18:51:10Z</time>
      </trkpt>
      <trkpt lat="45.83653" lon="6.2657">
        <ele>1343</ele>
        <time>2010-04-23T18:51:13Z</time>
      </trkpt>
      <trkpt lat="45.83655" lon="6.26574">
        <ele>1343</ele>
        <time>2010-04-23T18:51:15Z</time>
      </trkpt>
      <trkpt lat="45.83656" lon="6.26578">
        <ele>1343</ele>
        <time>2010-04-23T18:51:18Z</time>
      </trkpt>
      <trkpt lat="45.83658" lon="6.26581">
        <ele>1343</ele>
        <time>2010-04-23T18:51:21Z</time>
      </trkpt>
      <trkpt lat="45.83661" lon="6.26582">
        <ele>1343</ele>
        <time>2010-04-23T18:51:24Z</time>
      </trkpt>
      <trkpt lat="45.83662" lon="6.26583">
        <ele>1345</ele>
        <time>2010-04-23T18:51:29Z</time>
      </trkpt>
      <trkpt lat="45.83663" lon="6.26583">
        <ele>1345</ele>
        <time>2010-04-23T18:51:32Z</time>
      </trkpt>
      <trkpt lat="45.83663" lon="6.26585">
        <ele>1346</ele>
        <time>2010-04-23T18:51:35Z</time>
      </trkpt>
      <trkpt lat="45.83664" lon="6.26587">
        <ele>1346</ele>
        <time>2010-04-23T18:51:38Z</time>
      </trkpt>
      <trkpt lat="45.83663" lon="6.26584">
        <ele>1346</ele>
        <time>2010-04-23T18:51:42Z</time>
      </trkpt>
      <trkpt lat="45.83664" lon="6.26582">
        <ele>1346</ele>
        <time>2010-04-23T18:51:44Z</time>
      </trkpt>
      <trkpt lat="45.83666" lon="6.26579">
        <ele>1346</ele>
        <time>2010-04-23T18:51:48Z</time>
      </trkpt>
      <trkpt lat="45.83667" lon="6.26577">
        <ele>1346</ele>
        <time>2010-04-23T18:51:50Z</time>
      </trkpt>
      <trkpt lat="45.83669" lon="6.26576">
        <ele>1346</ele>
        <time>2010-04-23T18:51:52Z</time>
      </trkpt>
      <trkpt lat="45.83672" lon="6.26577">
        <ele>1346</ele>
        <time>2010-04-23T18:51:55Z</time>
      </trkpt>
      <trkpt lat="45.83674" lon="6.26578">
        <ele>1346</ele>
        <time>2010-04-23T18:51:57Z</time>
      </trkpt>
      <trkpt lat="45.83675" lon="6.2658">
        <ele>1346</ele>
        <time>2010-04-23T18:51:59Z</time>
      </trkpt>
      <trkpt lat="45.83676" lon="6.26582">
        <ele>1346</ele>
        <time>2010-04-23T18:52:01Z</time>
      </trkpt>
      <trkpt lat="45.83677" lon="6.26584">
        <ele>1346</ele>
        <time>2010-04-23T18:52:03Z</time>
      </trkpt>
      <trkpt lat="45.83679" lon="6.26588">
        <ele>1346</ele>
        <time>2010-04-23T18:52:06Z</time>
      </trkpt>
      <trkpt lat="45.83681" lon="6.2659">
        <ele>1347</ele>
        <time>2010-04-23T18:52:08Z</time>
      </trkpt>
      <trkpt lat="45.83683" lon="6.26592">
        <ele>1347</ele>
        <time>2010-04-23T18:52:10Z</time>
      </trkpt>
      <trkpt lat="45.83685" lon="6.26594">
        <ele>1348</ele>
        <time>2010-04-23T18:52:12Z</time>
      </trkpt>
      <trkpt lat="45.83688" lon="6.26595">
        <ele>1348</ele>
        <time>2010-04-23T18:52:14Z</time>
      </trkpt>
      <trkpt lat="45.83691" lon="6.26598">
        <ele>1349</ele>
        <time>2010-04-23T18:52:17Z</time>
      </trkpt>
      <trkpt lat="45.83693" lon="6.266">
        <ele>1350</ele>
        <time>2010-04-23T18:52:19Z</time>
      </trkpt>
      <trkpt lat="45.83694" lon="6.26602">
        <ele>1350</ele>
        <time>2010-04-23T18:52:21Z</time>
      </trkpt>
      <trkpt lat="45.83696" lon="6.26604">
        <ele>1351</ele>
        <time>2010-04-23T18:52:23Z</time>
      </trkpt>
      <trkpt lat="45.83698" lon="6.26606">
        <ele>1352</ele>
        <time>2010-04-23T18:52:31Z</time>
      </trkpt>
      <trkpt lat="45.837" lon="6.26608">
        <ele>1352</ele>
        <time>2010-04-23T18:52:33Z</time>
      </trkpt>
      <trkpt lat="45.83702" lon="6.2661">
        <ele>1352</ele>
        <time>2010-04-23T18:52:35Z</time>
      </trkpt>
      <trkpt lat="45.83704" lon="6.26612">
        <ele>1352</ele>
        <time>2010-04-23T18:52:37Z</time>
      </trkpt>
      <trkpt lat="45.83706" lon="6.26614">
        <ele>1352</ele>
        <time>2010-04-23T18:52:39Z</time>
      </trkpt>
      <trkpt lat="45.83709" lon="6.26616">
        <ele>1353</ele>
        <time>2010-04-23T18:52:41Z</time>
      </trkpt>
      <trkpt lat="45.83711" lon="6.26617">
        <ele>1353</ele>
        <time>2010-04-23T18:52:43Z</time>
      </trkpt>
      <trkpt lat="45.83714" lon="6.26618">
        <ele>1354</ele>
        <time>2010-04-23T18:52:45Z</time>
      </trkpt>
      <trkpt lat="45.83716" lon="6.2662">
        <ele>1354</ele>
        <time>2010-04-23T18:52:47Z</time>
      </trkpt>
      <trkpt lat="45.83719" lon="6.26622">
        <ele>1355</ele>
        <time>2010-04-23T18:52:49Z</time>
      </trkpt>
      <trkpt lat="45.83722" lon="6.26625">
        <ele>1355</ele>
        <time>2010-04-23T18:52:52Z</time>
      </trkpt>
      <trkpt lat="45.83724" lon="6.26628">
        <ele>1355</ele>
        <time>2010-04-23T18:52:54Z</time>
      </trkpt>
      <trkpt lat="45.83726" lon="6.26631">
        <ele>1355</ele>
        <time>2010-04-23T18:52:56Z</time>
      </trkpt>
      <trkpt lat="45.83728" lon="6.26633">
        <ele>1356</ele>
        <time>2010-04-23T18:52:58Z</time>
      </trkpt>
      <trkpt lat="45.83731" lon="6.26637">
        <ele>1356</ele>
        <time>2010-04-23T18:53:01Z</time>
      </trkpt>
      <trkpt lat="45.83734" lon="6.26639">
        <ele>1356</ele>
        <time>2010-04-23T18:53:03Z</time>
      </trkpt>
      <trkpt lat="45.83737" lon="6.26643">
        <ele>1357</ele>
        <time>2010-04-23T18:53:06Z</time>
      </trkpt>
      <trkpt lat="45.83739" lon="6.26645">
        <ele>1357</ele>
        <time>2010-04-23T18:53:08Z</time>
      </trkpt>
      <trkpt lat="45.83741" lon="6.26646">
        <ele>1358</ele>
        <time>2010-04-23T18:53:10Z</time>
      </trkpt>
      <trkpt lat="45.83745" lon="6.26649">
        <ele>1358</ele>
        <time>2010-04-23T18:53:13Z</time>
      </trkpt>
      <trkpt lat="45.83747" lon="6.26651">
        <ele>1359</ele>
        <time>2010-04-23T18:53:15Z</time>
      </trkpt>
      <trkpt lat="45.83749" lon="6.26654">
        <ele>1360</ele>
        <time>2010-04-23T18:53:17Z</time>
      </trkpt>
      <trkpt lat="45.83751" lon="6.26656">
        <ele>1360</ele>
        <time>2010-04-23T18:53:19Z</time>
      </trkpt>
      <trkpt lat="45.83753" lon="6.26658">
        <ele>1360</ele>
        <time>2010-04-23T18:53:21Z</time>
      </trkpt>
      <trkpt lat="45.83756" lon="6.26659">
        <ele>1361</ele>
        <time>2010-04-23T18:53:23Z</time>
      </trkpt>
      <trkpt lat="45.83759" lon="6.2666">
        <ele>1361</ele>
        <time>2010-04-23T18:53:25Z</time>
      </trkpt>
      <trkpt lat="45.83763" lon="6.26659">
        <ele>1362</ele>
        <time>2010-04-23T18:53:27Z</time>
      </trkpt>
      <trkpt lat="45.83767" lon="6.26659">
        <ele>1362</ele>
        <time>2010-04-23T18:53:29Z</time>
      </trkpt>
      <trkpt lat="45.83773" lon="6.26658">
        <ele>1363</ele>
        <time>2010-04-23T18:53:31Z</time>
      </trkpt>
      <trkpt lat="45.83777" lon="6.26659">
        <ele>1363</ele>
        <time>2010-04-23T18:53:33Z</time>
      </trkpt>
      <trkpt lat="45.83781" lon="6.26662">
        <ele>1364</ele>
        <time>2010-04-23T18:53:35Z</time>
      </trkpt>
      <trkpt lat="45.83786" lon="6.26665">
        <ele>1364</ele>
        <time>2010-04-23T18:53:37Z</time>
      </trkpt>
      <trkpt lat="45.83789" lon="6.26667">
        <ele>1365</ele>
        <time>2010-04-23T18:53:39Z</time>
      </trkpt>
      <trkpt lat="45.83792" lon="6.26669">
        <ele>1366</ele>
        <time>2010-04-23T18:53:43Z</time>
      </trkpt>
      <trkpt lat="45.83793" lon="6.26667">
        <ele>1367</ele>
        <time>2010-04-23T18:53:47Z</time>
      </trkpt>
      <trkpt lat="45.83796" lon="6.26666">
        <ele>1369</ele>
        <time>2010-04-23T18:53:50Z</time>
      </trkpt>
      <trkpt lat="45.83799" lon="6.2667">
        <ele>1370</ele>
        <time>2010-04-23T18:53:52Z</time>
      </trkpt>
      <trkpt lat="45.83802" lon="6.26674">
        <ele>1370</ele>
        <time>2010-04-23T18:53:54Z</time>
      </trkpt>
      <trkpt lat="45.83805" lon="6.26679">
        <ele>1371</ele>
        <time>2010-04-23T18:53:56Z</time>
      </trkpt>
      <trkpt lat="45.83807" lon="6.26683">
        <ele>1371</ele>
        <time>2010-04-23T18:53:59Z</time>
      </trkpt>
      <trkpt lat="45.83811" lon="6.26686">
        <ele>1372</ele>
        <time>2010-04-23T18:54:01Z</time>
      </trkpt>
      <trkpt lat="45.83815" lon="6.26687">
        <ele>1373</ele>
        <time>2010-04-23T18:54:03Z</time>
      </trkpt>
      <trkpt lat="45.83818" lon="6.26688">
        <ele>1374</ele>
        <time>2010-04-23T18:54:05Z</time>
      </trkpt>
      <trkpt lat="45.83822" lon="6.26688">
        <ele>1374</ele>
        <time>2010-04-23T18:54:07Z</time>
      </trkpt>
      <trkpt lat="45.83826" lon="6.26688">
        <ele>1375</ele>
        <time>2010-04-23T18:54:09Z</time>
      </trkpt>
      <trkpt lat="45.8383" lon="6.26688">
        <ele>1375</ele>
        <time>2010-04-23T18:54:11Z</time>
      </trkpt>
      <trkpt lat="45.83833" lon="6.26685">
        <ele>1375</ele>
        <time>2010-04-23T18:54:13Z</time>
      </trkpt>
      <trkpt lat="45.83836" lon="6.26682">
        <ele>1376</ele>
        <time>2010-04-23T18:54:15Z</time>
      </trkpt>
      <trkpt lat="45.8384" lon="6.2668">
        <ele>1378</ele>
        <time>2010-04-23T18:54:17Z</time>
      </trkpt>
      <trkpt lat="45.83844" lon="6.26682">
        <ele>1378</ele>
        <time>2010-04-23T18:54:19Z</time>
      </trkpt>
      <trkpt lat="45.83848" lon="6.26684">
        <ele>1378</ele>
        <time>2010-04-23T18:54:21Z</time>
      </trkpt>
      <trkpt lat="45.83852" lon="6.26689">
        <ele>1378</ele>
        <time>2010-04-23T18:54:23Z</time>
      </trkpt>
      <trkpt lat="45.83855" lon="6.26692">
        <ele>1379</ele>
        <time>2010-04-23T18:54:25Z</time>
      </trkpt>
      <trkpt lat="45.83854" lon="6.26695">
        <ele>1379</ele>
        <time>2010-04-23T18:54:27Z</time>
      </trkpt>
      <trkpt lat="45.83853" lon="6.26699">
        <ele>1379</ele>
        <time>2010-04-23T18:54:30Z</time>
      </trkpt>
      <trkpt lat="45.83857" lon="6.26701">
        <ele>1379</ele>
        <time>2010-04-23T18:54:32Z</time>
      </trkpt>
      <trkpt lat="45.83861" lon="6.267">
        <ele>1379</ele>
        <time>2010-04-23T18:54:34Z</time>
      </trkpt>
      <trkpt lat="45.83865" lon="6.267">
        <ele>1379</ele>
        <time>2010-04-23T18:54:36Z</time>
      </trkpt>
      <trkpt lat="45.8387" lon="6.267">
        <ele>1379</ele>
        <time>2010-04-23T18:54:38Z</time>
      </trkpt>
      <trkpt lat="45.83873" lon="6.267">
        <ele>1379</ele>
        <time>2010-04-23T18:54:40Z</time>
      </trkpt>
      <trkpt lat="45.83876" lon="6.26702">
        <ele>1380</ele>
        <time>2010-04-23T18:54:42Z</time>
      </trkpt>
      <trkpt lat="45.83877" lon="6.26704">
        <ele>1380</ele>
        <time>2010-04-23T18:54:44Z</time>
      </trkpt>
      <trkpt lat="45.83878" lon="6.26707">
        <ele>1380</ele>
        <time>2010-04-23T18:54:46Z</time>
      </trkpt>
      <trkpt lat="45.83883" lon="6.26709">
        <ele>1380</ele>
        <time>2010-04-23T18:54:48Z</time>
      </trkpt>
      <trkpt lat="45.83888" lon="6.26713">
        <ele>1380</ele>
        <time>2010-04-23T18:54:50Z</time>
      </trkpt>
      <trkpt lat="45.8389" lon="6.26717">
        <ele>1381</ele>
        <time>2010-04-23T18:54:52Z</time>
      </trkpt>
      <trkpt lat="45.83894" lon="6.26719">
        <ele>1382</ele>
        <time>2010-04-23T18:54:54Z</time>
      </trkpt>
      <trkpt lat="45.83897" lon="6.26722">
        <ele>1382</ele>
        <time>2010-04-23T18:54:56Z</time>
      </trkpt>
      <trkpt lat="45.839" lon="6.26726">
        <ele>1382</ele>
        <time>2010-04-23T18:54:58Z</time>
      </trkpt>
      <trkpt lat="45.83904" lon="6.26729">
        <ele>1382</ele>
        <time>2010-04-23T18:55:00Z</time>
      </trkpt>
      <trkpt lat="45.83906" lon="6.26732">
        <ele>1382</ele>
        <time>2010-04-23T18:55:02Z</time>
      </trkpt>
      <trkpt lat="45.8391" lon="6.26735">
        <ele>1382</ele>
        <time>2010-04-23T18:55:04Z</time>
      </trkpt>
      <trkpt lat="45.83913" lon="6.26737">
        <ele>1382</ele>
        <time>2010-04-23T18:55:06Z</time>
      </trkpt>
      <trkpt lat="45.83916" lon="6.26739">
        <ele>1382</ele>
        <time>2010-04-23T18:55:08Z</time>
      </trkpt>
      <trkpt lat="45.83921" lon="6.2674">
        <ele>1383</ele>
        <time>2010-04-23T18:55:10Z</time>
      </trkpt>
      <trkpt lat="45.83924" lon="6.26739">
        <ele>1385</ele>
        <time>2010-04-23T18:55:12Z</time>
      </trkpt>
      <trkpt lat="45.83929" lon="6.26737">
        <ele>1386</ele>
        <time>2010-04-23T18:55:14Z</time>
      </trkpt>
      <trkpt lat="45.83932" lon="6.26738">
        <ele>1386</ele>
        <time>2010-04-23T18:55:16Z</time>
      </trkpt>
      <trkpt lat="45.83934" lon="6.26737">
        <ele>1387</ele>
        <time>2010-04-23T18:55:18Z</time>
      </trkpt>
      <trkpt lat="45.83937" lon="6.26735">
        <ele>1387</ele>
        <time>2010-04-23T18:55:20Z</time>
      </trkpt>
      <trkpt lat="45.83939" lon="6.26734">
        <ele>1387</ele>
        <time>2010-04-23T18:55:22Z</time>
      </trkpt>
      <trkpt lat="45.83942" lon="6.26735">
        <ele>1387</ele>
        <time>2010-04-23T18:55:24Z</time>
      </trkpt>
      <trkpt lat="45.83947" lon="6.26737">
        <ele>1388</ele>
        <time>2010-04-23T18:55:26Z</time>
      </trkpt>
      <trkpt lat="45.8395" lon="6.26741">
        <ele>1389</ele>
        <time>2010-04-23T18:55:28Z</time>
      </trkpt>
      <trkpt lat="45.8395" lon="6.26745">
        <ele>1390</ele>
        <time>2010-04-23T18:55:30Z</time>
      </trkpt>
      <trkpt lat="45.8395" lon="6.26748">
        <ele>1391</ele>
        <time>2010-04-23T18:55:32Z</time>
      </trkpt>
      <trkpt lat="45.83951" lon="6.26751">
        <ele>1391</ele>
        <time>2010-04-23T18:55:34Z</time>
      </trkpt>
      <trkpt lat="45.83953" lon="6.26754">
        <ele>1391</ele>
        <time>2010-04-23T18:55:36Z</time>
      </trkpt>
      <trkpt lat="45.83954" lon="6.26755">
        <ele>1391</ele>
        <time>2010-04-23T18:55:38Z</time>
      </trkpt>
      <trkpt lat="45.83955" lon="6.26756">
        <ele>1391</ele>
        <time>2010-04-23T18:55:40Z</time>
      </trkpt>
      <trkpt lat="45.83957" lon="6.26758">
        <ele>1391</ele>
        <time>2010-04-23T18:55:42Z</time>
      </trkpt>
      <trkpt lat="45.83959" lon="6.26759">
        <ele>1391</ele>
        <time>2010-04-23T18:55:44Z</time>
      </trkpt>
      <trkpt lat="45.83961" lon="6.26761">
        <ele>1391</ele>
        <time>2010-04-23T18:55:46Z</time>
      </trkpt>
      <trkpt lat="45.83961" lon="6.26765">
        <ele>1391</ele>
        <time>2010-04-23T18:55:48Z</time>
      </trkpt>
      <trkpt lat="45.83964" lon="6.26767">
        <ele>1392</ele>
        <time>2010-04-23T18:55:51Z</time>
      </trkpt>
      <trkpt lat="45.83967" lon="6.26767">
        <ele>1392</ele>
        <time>2010-04-23T18:55:53Z</time>
      </trkpt>
      <trkpt lat="45.83972" lon="6.26767">
        <ele>1394</ele>
        <time>2010-04-23T18:55:55Z</time>
      </trkpt>
      <trkpt lat="45.83975" lon="6.26767">
        <ele>1394</ele>
        <time>2010-04-23T18:55:57Z</time>
      </trkpt>
      <trkpt lat="45.83978" lon="6.26768">
        <ele>1395</ele>
        <time>2010-04-23T18:55:59Z</time>
      </trkpt>
      <trkpt lat="45.83981" lon="6.26771">
        <ele>1395</ele>
        <time>2010-04-23T18:56:01Z</time>
      </trkpt>
      <trkpt lat="45.83984" lon="6.26776">
        <ele>1395</ele>
        <time>2010-04-23T18:56:03Z</time>
      </trkpt>
      <trkpt lat="45.83987" lon="6.26779">
        <ele>1396</ele>
        <time>2010-04-23T18:56:05Z</time>
      </trkpt>
      <trkpt lat="45.8399" lon="6.26781">
        <ele>1396</ele>
        <time>2010-04-23T18:56:07Z</time>
      </trkpt>
      <trkpt lat="45.83993" lon="6.26782">
        <ele>1396</ele>
        <time>2010-04-23T18:56:09Z</time>
      </trkpt>
      <trkpt lat="45.83996" lon="6.26784">
        <ele>1397</ele>
        <time>2010-04-23T18:56:11Z</time>
      </trkpt>
      <trkpt lat="45.83998" lon="6.26788">
        <ele>1397</ele>
        <time>2010-04-23T18:56:13Z</time>
      </trkpt>
      <trkpt lat="45.84" lon="6.26791">
        <ele>1398</ele>
        <time>2010-04-23T18:56:15Z</time>
      </trkpt>
      <trkpt lat="45.84" lon="6.26793">
        <ele>1398</ele>
        <time>2010-04-23T18:56:17Z</time>
      </trkpt>
      <trkpt lat="45.84002" lon="6.26791">
        <ele>1401</ele>
        <time>2010-04-23T18:56:28Z</time>
      </trkpt>
      <trkpt lat="45.84004" lon="6.26792">
        <ele>1401</ele>
        <time>2010-04-23T18:56:30Z</time>
      </trkpt>
      <trkpt lat="45.84007" lon="6.26795">
        <ele>1401</ele>
        <time>2010-04-23T18:56:32Z</time>
      </trkpt>
      <trkpt lat="45.84008" lon="6.26798">
        <ele>1401</ele>
        <time>2010-04-23T18:56:34Z</time>
      </trkpt>
      <trkpt lat="45.84009" lon="6.26801">
        <ele>1402</ele>
        <time>2010-04-23T18:56:36Z</time>
      </trkpt>
      <trkpt lat="45.84011" lon="6.26803">
        <ele>1402</ele>
        <time>2010-04-23T18:56:38Z</time>
      </trkpt>
      <trkpt lat="45.84014" lon="6.26805">
        <ele>1402</ele>
        <time>2010-04-23T18:56:40Z</time>
      </trkpt>
      <trkpt lat="45.84017" lon="6.26805">
        <ele>1403</ele>
        <time>2010-04-23T18:56:43Z</time>
      </trkpt>
      <trkpt lat="45.84019" lon="6.26804">
        <ele>1403</ele>
        <time>2010-04-23T18:56:45Z</time>
      </trkpt>
      <trkpt lat="45.84022" lon="6.26802">
        <ele>1404</ele>
        <time>2010-04-23T18:56:47Z</time>
      </trkpt>
      <trkpt lat="45.84024" lon="6.26799">
        <ele>1405</ele>
        <time>2010-04-23T18:56:49Z</time>
      </trkpt>
      <trkpt lat="45.84027" lon="6.26796">
        <ele>1406</ele>
        <time>2010-04-23T18:56:51Z</time>
      </trkpt>
      <trkpt lat="45.84029" lon="6.26793">
        <ele>1406</ele>
        <time>2010-04-23T18:56:53Z</time>
      </trkpt>
      <trkpt lat="45.84032" lon="6.26791">
        <ele>1407</ele>
        <time>2010-04-23T18:56:55Z</time>
      </trkpt>
      <trkpt lat="45.84035" lon="6.2679">
        <ele>1407</ele>
        <time>2010-04-23T18:56:57Z</time>
      </trkpt>
      <trkpt lat="45.84038" lon="6.26795">
        <ele>1408</ele>
        <time>2010-04-23T18:57:00Z</time>
      </trkpt>
      <trkpt lat="45.84038" lon="6.268">
        <ele>1409</ele>
        <time>2010-04-23T18:57:02Z</time>
      </trkpt>
      <trkpt lat="45.84037" lon="6.26806">
        <ele>1409</ele>
        <time>2010-04-23T18:57:04Z</time>
      </trkpt>
      <trkpt lat="45.84035" lon="6.26812">
        <ele>1409</ele>
        <time>2010-04-23T18:57:06Z</time>
      </trkpt>
      <trkpt lat="45.84034" lon="6.26817">
        <ele>1410</ele>
        <time>2010-04-23T18:57:08Z</time>
      </trkpt>
      <trkpt lat="45.84033" lon="6.26822">
        <ele>1410</ele>
        <time>2010-04-23T18:57:10Z</time>
      </trkpt>
      <trkpt lat="45.84031" lon="6.26828">
        <ele>1411</ele>
        <time>2010-04-23T18:57:12Z</time>
      </trkpt>
      <trkpt lat="45.84029" lon="6.26833">
        <ele>1412</ele>
        <time>2010-04-23T18:57:14Z</time>
      </trkpt>
      <trkpt lat="45.84029" lon="6.26838">
        <ele>1412</ele>
        <time>2010-04-23T18:57:16Z</time>
      </trkpt>
      <trkpt lat="45.84027" lon="6.26843">
        <ele>1413</ele>
        <time>2010-04-23T18:57:18Z</time>
      </trkpt>
      <trkpt lat="45.84027" lon="6.26847">
        <ele>1413</ele>
        <time>2010-04-23T18:57:20Z</time>
      </trkpt>
      <trkpt lat="45.84026" lon="6.26851">
        <ele>1414</ele>
        <time>2010-04-23T18:57:22Z</time>
      </trkpt>
      <trkpt lat="45.84024" lon="6.26855">
        <ele>1414</ele>
        <time>2010-04-23T18:57:24Z</time>
      </trkpt>
      <trkpt lat="45.84025" lon="6.26858">
        <ele>1414</ele>
        <time>2010-04-23T18:57:27Z</time>
      </trkpt>
      <trkpt lat="45.84026" lon="6.26859">
        <ele>1414</ele>
        <time>2010-04-23T18:57:29Z</time>
      </trkpt>
      <trkpt lat="45.84028" lon="6.2686">
        <ele>1414</ele>
        <time>2010-04-23T18:57:31Z</time>
      </trkpt>
      <trkpt lat="45.84031" lon="6.26862">
        <ele>1414</ele>
        <time>2010-04-23T18:57:35Z</time>
      </trkpt>
      <trkpt lat="45.84032" lon="6.26862">
        <ele>1414</ele>
        <time>2010-04-23T18:57:37Z</time>
      </trkpt>
      <trkpt lat="45.84034" lon="6.26861">
        <ele>1414</ele>
        <time>2010-04-23T18:57:41Z</time>
      </trkpt>
      <trkpt lat="45.84036" lon="6.2686">
        <ele>1414</ele>
        <time>2010-04-23T18:57:50Z</time>
      </trkpt>
      <trkpt lat="45.84039" lon="6.2686">
        <ele>1414</ele>
        <time>2010-04-23T18:57:53Z</time>
      </trkpt>
      <trkpt lat="45.8404" lon="6.26857">
        <ele>1415</ele>
        <time>2010-04-23T18:58:02Z</time>
      </trkpt>
      <trkpt lat="45.84041" lon="6.26855">
        <ele>1415</ele>
        <time>2010-04-23T18:58:04Z</time>
      </trkpt>
      <trkpt lat="45.84042" lon="6.26856">
        <ele>1416</ele>
        <time>2010-04-23T18:58:07Z</time>
      </trkpt>
      <trkpt lat="45.84044" lon="6.26856">
        <ele>1418</ele>
        <time>2010-04-23T18:58:10Z</time>
      </trkpt>
      <trkpt lat="45.84045" lon="6.26856">
        <ele>1418</ele>
        <time>2010-04-23T18:58:12Z</time>
      </trkpt>
      <trkpt lat="45.84047" lon="6.26856">
        <ele>1420</ele>
        <time>2010-04-23T18:58:26Z</time>
      </trkpt>
      <trkpt lat="45.84048" lon="6.26854">
        <ele>1420</ele>
        <time>2010-04-23T18:58:39Z</time>
      </trkpt>
      <trkpt lat="45.84049" lon="6.26852">
        <ele>1420</ele>
        <time>2010-04-23T18:58:41Z</time>
      </trkpt>
      <trkpt lat="45.8405" lon="6.26849">
        <ele>1421</ele>
        <time>2010-04-23T18:58:43Z</time>
      </trkpt>
      <trkpt lat="45.8405" lon="6.26846">
        <ele>1421</ele>
        <time>2010-04-23T18:58:45Z</time>
      </trkpt>
      <trkpt lat="45.84051" lon="6.26842">
        <ele>1421</ele>
        <time>2010-04-23T18:58:47Z</time>
      </trkpt>
      <trkpt lat="45.84052" lon="6.26838">
        <ele>1421</ele>
        <time>2010-04-23T18:58:49Z</time>
      </trkpt>
      <trkpt lat="45.84053" lon="6.26835">
        <ele>1422</ele>
        <time>2010-04-23T18:58:51Z</time>
      </trkpt>
      <trkpt lat="45.84054" lon="6.26832">
        <ele>1422</ele>
        <time>2010-04-23T18:58:53Z</time>
      </trkpt>
      <trkpt lat="45.84053" lon="6.26827">
        <ele>1422</ele>
        <time>2010-04-23T18:58:55Z</time>
      </trkpt>
      <trkpt lat="45.84054" lon="6.26824">
        <ele>1422</ele>
        <time>2010-04-23T18:58:57Z</time>
      </trkpt>
      <trkpt lat="45.84055" lon="6.2682">
        <ele>1422</ele>
        <time>2010-04-23T18:58:59Z</time>
      </trkpt>
      <trkpt lat="45.84057" lon="6.26816">
        <ele>1422</ele>
        <time>2010-04-23T18:59:01Z</time>
      </trkpt>
      <trkpt lat="45.84058" lon="6.26813">
        <ele>1422</ele>
        <time>2010-04-23T18:59:03Z</time>
      </trkpt>
      <trkpt lat="45.84061" lon="6.26808">
        <ele>1422</ele>
        <time>2010-04-23T18:59:05Z</time>
      </trkpt>
      <trkpt lat="45.84063" lon="6.26803">
        <ele>1422</ele>
        <time>2010-04-23T18:59:07Z</time>
      </trkpt>
      <trkpt lat="45.84067" lon="6.26799">
        <ele>1422</ele>
        <time>2010-04-23T18:59:09Z</time>
      </trkpt>
      <trkpt lat="45.8407" lon="6.26794">
        <ele>1422</ele>
        <time>2010-04-23T18:59:11Z</time>
      </trkpt>
      <trkpt lat="45.84074" lon="6.26791">
        <ele>1422</ele>
        <time>2010-04-23T18:59:13Z</time>
      </trkpt>
      <trkpt lat="45.84077" lon="6.26788">
        <ele>1422</ele>
        <time>2010-04-23T18:59:15Z</time>
      </trkpt>
      <trkpt lat="45.84079" lon="6.26786">
        <ele>1422</ele>
        <time>2010-04-23T18:59:17Z</time>
      </trkpt>
      <trkpt lat="45.8408" lon="6.26784">
        <ele>1422</ele>
        <time>2010-04-23T18:59:19Z</time>
      </trkpt>
      <trkpt lat="45.84082" lon="6.26782">
        <ele>1422</ele>
        <time>2010-04-23T18:59:21Z</time>
      </trkpt>
      <trkpt lat="45.84086" lon="6.26745">
        <ele>1423</ele>
        <time>2010-04-23T18:59:23Z</time>
      </trkpt>
      <trkpt lat="45.84085" lon="6.26739">
        <ele>1423</ele>
        <time>2010-04-23T18:59:25Z</time>
      </trkpt>
      <trkpt lat="45.84084" lon="6.26733">
        <ele>1423</ele>
        <time>2010-04-23T18:59:27Z</time>
      </trkpt>
      <trkpt lat="45.84084" lon="6.26726">
        <ele>1423</ele>
        <time>2010-04-23T18:59:29Z</time>
      </trkpt>
      <trkpt lat="45.84084" lon="6.26719">
        <ele>1423</ele>
        <time>2010-04-23T18:59:31Z</time>
      </trkpt>
      <trkpt lat="45.84085" lon="6.26712">
        <ele>1423</ele>
        <time>2010-04-23T18:59:33Z</time>
      </trkpt>
      <trkpt lat="45.84087" lon="6.26706">
        <ele>1423</ele>
        <time>2010-04-23T18:59:35Z</time>
      </trkpt>
      <trkpt lat="45.84087" lon="6.267">
        <ele>1423</ele>
        <time>2010-04-23T18:59:37Z</time>
      </trkpt>
      <trkpt lat="45.84089" lon="6.26694">
        <ele>1423</ele>
        <time>2010-04-23T18:59:39Z</time>
      </trkpt>
      <trkpt lat="45.84091" lon="6.26685">
        <ele>1423</ele>
        <time>2010-04-23T18:59:41Z</time>
      </trkpt>
      <trkpt lat="45.84093" lon="6.26678">
        <ele>1423</ele>
        <time>2010-04-23T18:59:43Z</time>
      </trkpt>
      <trkpt lat="45.84095" lon="6.26672">
        <ele>1423</ele>
        <time>2010-04-23T18:59:45Z</time>
      </trkpt>
      <trkpt lat="45.84098" lon="6.26665">
        <ele>1423</ele>
        <time>2010-04-23T18:59:47Z</time>
      </trkpt>
      <trkpt lat="45.84101" lon="6.2666">
        <ele>1423</ele>
        <time>2010-04-23T18:59:49Z</time>
      </trkpt>
      <trkpt lat="45.84103" lon="6.26655">
        <ele>1423</ele>
        <time>2010-04-23T18:59:51Z</time>
      </trkpt>
      <trkpt lat="45.84106" lon="6.26649">
        <ele>1423</ele>
        <time>2010-04-23T18:59:53Z</time>
      </trkpt>
      <trkpt lat="45.84108" lon="6.26643">
        <ele>1423</ele>
        <time>2010-04-23T18:59:55Z</time>
      </trkpt>
      <trkpt lat="45.8411" lon="6.26638">
        <ele>1423</ele>
        <time>2010-04-23T18:59:57Z</time>
      </trkpt>
      <trkpt lat="45.84111" lon="6.2663">
        <ele>1423</ele>
        <time>2010-04-23T18:59:59Z</time>
      </trkpt>
      <trkpt lat="45.84112" lon="6.26623">
        <ele>1423</ele>
        <time>2010-04-23T19:00:01Z</time>
      </trkpt>
      <trkpt lat="45.84113" lon="6.26616">
        <ele>1423</ele>
        <time>2010-04-23T19:00:03Z</time>
      </trkpt>
      <trkpt lat="45.84115" lon="6.2661">
        <ele>1423</ele>
        <time>2010-04-23T19:00:05Z</time>
      </trkpt>
      <trkpt lat="45.84119" lon="6.26605">
        <ele>1423</ele>
        <time>2010-04-23T19:00:07Z</time>
      </trkpt>
      <trkpt lat="45.84121" lon="6.26601">
        <ele>1423</ele>
        <time>2010-04-23T19:00:09Z</time>
      </trkpt>
      <trkpt lat="45.84124" lon="6.26598">
        <ele>1423</ele>
        <time>2010-04-23T19:00:11Z</time>
      </trkpt>
      <trkpt lat="45.84127" lon="6.26593">
        <ele>1423</ele>
        <time>2010-04-23T19:00:13Z</time>
      </trkpt>
      <trkpt lat="45.84127" lon="6.26588">
        <ele>1423</ele>
        <time>2010-04-23T19:00:15Z</time>
      </trkpt>
      <trkpt lat="45.84125" lon="6.26582">
        <ele>1423</ele>
        <time>2010-04-23T19:00:17Z</time>
      </trkpt>
      <trkpt lat="45.84124" lon="6.26576">
        <ele>1423</ele>
        <time>2010-04-23T19:00:19Z</time>
      </trkpt>
      <trkpt lat="45.84121" lon="6.26573">
        <ele>1424</ele>
        <time>2010-04-23T19:00:21Z</time>
      </trkpt>
      <trkpt lat="45.84119" lon="6.2657">
        <ele>1425</ele>
        <time>2010-04-23T19:00:23Z</time>
      </trkpt>
      <trkpt lat="45.84118" lon="6.26567">
        <ele>1426</ele>
        <time>2010-04-23T19:00:25Z</time>
      </trkpt>
      <trkpt lat="45.84118" lon="6.26565">
        <ele>1428</ele>
        <time>2010-04-23T19:00:27Z</time>
      </trkpt>
      <trkpt lat="45.84118" lon="6.26562">
        <ele>1429</ele>
        <time>2010-04-23T19:00:29Z</time>
      </trkpt>
      <trkpt lat="45.84118" lon="6.26558">
        <ele>1430</ele>
        <time>2010-04-23T19:00:31Z</time>
      </trkpt>
      <trkpt lat="45.84118" lon="6.26554">
        <ele>1431</ele>
        <time>2010-04-23T19:00:33Z</time>
      </trkpt>
      <trkpt lat="45.84119" lon="6.26549">
        <ele>1432</ele>
        <time>2010-04-23T19:00:35Z</time>
      </trkpt>
      <trkpt lat="45.8412" lon="6.26545">
        <ele>1433</ele>
        <time>2010-04-23T19:00:37Z</time>
      </trkpt>
      <trkpt lat="45.84121" lon="6.26539">
        <ele>1433</ele>
        <time>2010-04-23T19:00:39Z</time>
      </trkpt>
      <trkpt lat="45.84122" lon="6.26533">
        <ele>1434</ele>
        <time>2010-04-23T19:00:41Z</time>
      </trkpt>
      <trkpt lat="45.84122" lon="6.26526">
        <ele>1435</ele>
        <time>2010-04-23T19:00:43Z</time>
      </trkpt>
      <trkpt lat="45.84123" lon="6.26519">
        <ele>1435</ele>
        <time>2010-04-23T19:00:45Z</time>
      </trkpt>
      <trkpt lat="45.84124" lon="6.26513">
        <ele>1436</ele>
        <time>2010-04-23T19:00:47Z</time>
      </trkpt>
      <trkpt lat="45.84124" lon="6.26508">
        <ele>1436</ele>
        <time>2010-04-23T19:00:49Z</time>
      </trkpt>
      <trkpt lat="45.84125" lon="6.26502">
        <ele>1436</ele>
        <time>2010-04-23T19:00:51Z</time>
      </trkpt>
      <trkpt lat="45.84126" lon="6.26496">
        <ele>1436</ele>
        <time>2010-04-23T19:00:53Z</time>
      </trkpt>
      <trkpt lat="45.84127" lon="6.2649">
        <ele>1436</ele>
        <time>2010-04-23T19:00:55Z</time>
      </trkpt>
      <trkpt lat="45.84127" lon="6.26484">
        <ele>1436</ele>
        <time>2010-04-23T19:00:57Z</time>
      </trkpt>
      <trkpt lat="45.84127" lon="6.26479">
        <ele>1436</ele>
        <time>2010-04-23T19:00:59Z</time>
      </trkpt>
      <trkpt lat="45.84126" lon="6.26473">
        <ele>1437</ele>
        <time>2010-04-23T19:01:01Z</time>
      </trkpt>
      <trkpt lat="45.84123" lon="6.26469">
        <ele>1438</ele>
        <time>2010-04-23T19:01:03Z</time>
      </trkpt>
      <trkpt lat="45.8412" lon="6.26464">
        <ele>1439</ele>
        <time>2010-04-23T19:01:05Z</time>
      </trkpt>
      <trkpt lat="45.84117" lon="6.26459">
        <ele>1440</ele>
        <time>2010-04-23T19:01:07Z</time>
      </trkpt>
      <trkpt lat="45.84114" lon="6.26454">
        <ele>1441</ele>
        <time>2010-04-23T19:01:09Z</time>
      </trkpt>
      <trkpt lat="45.84113" lon="6.2645">
        <ele>1442</ele>
        <time>2010-04-23T19:01:11Z</time>
      </trkpt>
      <trkpt lat="45.84111" lon="6.26445">
        <ele>1442</ele>
        <time>2010-04-23T19:01:13Z</time>
      </trkpt>
      <trkpt lat="45.84109" lon="6.26441">
        <ele>1443</ele>
        <time>2010-04-23T19:01:15Z</time>
      </trkpt>
      <trkpt lat="45.84106" lon="6.26437">
        <ele>1444</ele>
        <time>2010-04-23T19:01:17Z</time>
      </trkpt>
      <trkpt lat="45.84104" lon="6.26432">
        <ele>1445</ele>
        <time>2010-04-23T19:01:19Z</time>
      </trkpt>
      <trkpt lat="45.84103" lon="6.26428">
        <ele>1446</ele>
        <time>2010-04-23T19:01:21Z</time>
      </trkpt>
      <trkpt lat="45.841" lon="6.26423">
        <ele>1447</ele>
        <time>2010-04-23T19:01:23Z</time>
      </trkpt>
      <trkpt lat="45.84098" lon="6.26418">
        <ele>1448</ele>
        <time>2010-04-23T19:01:25Z</time>
      </trkpt>
      <trkpt lat="45.84096" lon="6.26413">
        <ele>1450</ele>
        <time>2010-04-23T19:01:27Z</time>
      </trkpt>
      <trkpt lat="45.84093" lon="6.26408">
        <ele>1451</ele>
        <time>2010-04-23T19:01:29Z</time>
      </trkpt>
      <trkpt lat="45.84092" lon="6.26403">
        <ele>1452</ele>
        <time>2010-04-23T19:01:31Z</time>
      </trkpt>
      <trkpt lat="45.8409" lon="6.26399">
        <ele>1453</ele>
        <time>2010-04-23T19:01:33Z</time>
      </trkpt>
      <trkpt lat="45.84088" lon="6.26393">
        <ele>1454</ele>
        <time>2010-04-23T19:01:35Z</time>
      </trkpt>
      <trkpt lat="45.84087" lon="6.26389">
        <ele>1456</ele>
        <time>2010-04-23T19:01:37Z</time>
      </trkpt>
      <trkpt lat="45.84086" lon="6.26385">
        <ele>1457</ele>
        <time>2010-04-23T19:01:39Z</time>
      </trkpt>
      <trkpt lat="45.84086" lon="6.26382">
        <ele>1458</ele>
        <time>2010-04-23T19:01:41Z</time>
      </trkpt>
      <trkpt lat="45.84086" lon="6.2638">
        <ele>1459</ele>
        <time>2010-04-23T19:01:43Z</time>
      </trkpt>
      <trkpt lat="45.84088" lon="6.26381">
        <ele>1459</ele>
        <time>2010-04-23T19:01:45Z</time>
      </trkpt>
      <trkpt lat="45.8409" lon="6.26381">
        <ele>1459</ele>
        <time>2010-04-23T19:01:47Z</time>
      </trkpt>
      <trkpt lat="45.84091" lon="6.26382">
        <ele>1460</ele>
        <time>2010-04-23T19:01:51Z</time>
      </trkpt>
      <trkpt lat="45.84093" lon="6.26383">
        <ele>1460</ele>
        <time>2010-04-23T19:01:53Z</time>
      </trkpt>
      <trkpt lat="45.84093" lon="6.26381">
        <ele>1460</ele>
        <time>2010-04-23T19:01:57Z</time>
      </trkpt>
      <trkpt lat="45.84095" lon="6.26381">
        <ele>1460</ele>
        <time>2010-04-23T19:02:00Z</time>
      </trkpt>
      <trkpt lat="45.84095" lon="6.26379">
        <ele>1460</ele>
        <time>2010-04-23T19:02:02Z</time>
      </trkpt>
      <trkpt lat="45.84093" lon="6.26378">
        <ele>1460</ele>
        <time>2010-04-23T19:02:08Z</time>
      </trkpt>
      <trkpt lat="45.84094" lon="6.2638">
        <ele>1460</ele>
        <time>2010-04-23T19:02:10Z</time>
      </trkpt>
      <trkpt lat="45.84094" lon="6.26379">
        <ele>1460</ele>
        <time>2010-04-23T19:02:14Z</time>
      </trkpt>
      <trkpt lat="45.84093" lon="6.26374">
        <ele>1460</ele>
        <time>2010-04-23T19:02:17Z</time>
      </trkpt>
      <trkpt lat="45.84092" lon="6.26371">
        <ele>1460</ele>
        <time>2010-04-23T19:02:19Z</time>
      </trkpt>
      <trkpt lat="45.84092" lon="6.26368">
        <ele>1460</ele>
        <time>2010-04-23T19:02:21Z</time>
      </trkpt>
      <trkpt lat="45.84095" lon="6.26364">
        <ele>1461</ele>
        <time>2010-04-23T19:02:24Z</time>
      </trkpt>
      <trkpt lat="45.84096" lon="6.26359">
        <ele>1461</ele>
        <time>2010-04-23T19:02:26Z</time>
      </trkpt>
      <trkpt lat="45.84098" lon="6.26354">
        <ele>1461</ele>
        <time>2010-04-23T19:02:28Z</time>
      </trkpt>
      <trkpt lat="45.84102" lon="6.2635">
        <ele>1461</ele>
        <time>2010-04-23T19:02:30Z</time>
      </trkpt>
      <trkpt lat="45.84103" lon="6.26346">
        <ele>1461</ele>
        <time>2010-04-23T19:02:32Z</time>
      </trkpt>
      <trkpt lat="45.84101" lon="6.26342">
        <ele>1461</ele>
        <time>2010-04-23T19:02:34Z</time>
      </trkpt>
      <trkpt lat="45.84099" lon="6.26337">
        <ele>1461</ele>
        <time>2010-04-23T19:02:36Z</time>
      </trkpt>
      <trkpt lat="45.84096" lon="6.26331">
        <ele>1461</ele>
        <time>2010-04-23T19:02:38Z</time>
      </trkpt>
      <trkpt lat="45.84094" lon="6.26326">
        <ele>1461</ele>
        <time>2010-04-23T19:02:40Z</time>
      </trkpt>
      <trkpt lat="45.84094" lon="6.26323">
        <ele>1462</ele>
        <time>2010-04-23T19:02:42Z</time>
      </trkpt>
      <trkpt lat="45.84095" lon="6.26317">
        <ele>1463</ele>
        <time>2010-04-23T19:02:44Z</time>
      </trkpt>
      <trkpt lat="45.84098" lon="6.26312">
        <ele>1464</ele>
        <time>2010-04-23T19:02:47Z</time>
      </trkpt>
      <trkpt lat="45.841" lon="6.26311">
        <ele>1465</ele>
        <time>2010-04-23T19:02:49Z</time>
      </trkpt>
      <trkpt lat="45.84104" lon="6.26314">
        <ele>1466</ele>
        <time>2010-04-23T19:02:52Z</time>
      </trkpt>
      <trkpt lat="45.84105" lon="6.26317">
        <ele>1467</ele>
        <time>2010-04-23T19:02:54Z</time>
      </trkpt>
      <trkpt lat="45.84108" lon="6.26321">
        <ele>1468</ele>
        <time>2010-04-23T19:02:57Z</time>
      </trkpt>
      <trkpt lat="45.84109" lon="6.26324">
        <ele>1468</ele>
        <time>2010-04-23T19:02:59Z</time>
      </trkpt>
      <trkpt lat="45.84111" lon="6.26326">
        <ele>1468</ele>
        <time>2010-04-23T19:03:01Z</time>
      </trkpt>
      <trkpt lat="45.84113" lon="6.26328">
        <ele>1468</ele>
        <time>2010-04-23T19:03:03Z</time>
      </trkpt>
      <trkpt lat="45.84115" lon="6.26328">
        <ele>1468</ele>
        <time>2010-04-23T19:03:05Z</time>
      </trkpt>
      <trkpt lat="45.84115" lon="6.26325">
        <ele>1469</ele>
        <time>2010-04-23T19:03:07Z</time>
      </trkpt>
      <trkpt lat="45.84115" lon="6.26321">
        <ele>1469</ele>
        <time>2010-04-23T19:03:09Z</time>
      </trkpt>
      <trkpt lat="45.84116" lon="6.26318">
        <ele>1469</ele>
        <time>2010-04-23T19:03:11Z</time>
      </trkpt>
      <trkpt lat="45.84118" lon="6.26315">
        <ele>1470</ele>
        <time>2010-04-23T19:03:13Z</time>
      </trkpt>
      <trkpt lat="45.84119" lon="6.26312">
        <ele>1470</ele>
        <time>2010-04-23T19:03:15Z</time>
      </trkpt>
      <trkpt lat="45.8412" lon="6.26308">
        <ele>1471</ele>
        <time>2010-04-23T19:03:17Z</time>
      </trkpt>
      <trkpt lat="45.84122" lon="6.26305">
        <ele>1471</ele>
        <time>2010-04-23T19:03:19Z</time>
      </trkpt>
      <trkpt lat="45.84124" lon="6.26302">
        <ele>1471</ele>
        <time>2010-04-23T19:03:21Z</time>
      </trkpt>
      <trkpt lat="45.84125" lon="6.26305">
        <ele>1472</ele>
        <time>2010-04-23T19:03:24Z</time>
      </trkpt>
      <trkpt lat="45.84124" lon="6.26308">
        <ele>1473</ele>
        <time>2010-04-23T19:03:26Z</time>
      </trkpt>
      <trkpt lat="45.84126" lon="6.26313">
        <ele>1475</ele>
        <time>2010-04-23T19:03:29Z</time>
      </trkpt>
      <trkpt lat="45.84128" lon="6.26315">
        <ele>1475</ele>
        <time>2010-04-23T19:03:31Z</time>
      </trkpt>
      <trkpt lat="45.84129" lon="6.26318">
        <ele>1475</ele>
        <time>2010-04-23T19:03:33Z</time>
      </trkpt>
      <trkpt lat="45.8413" lon="6.26321">
        <ele>1475</ele>
        <time>2010-04-23T19:03:35Z</time>
      </trkpt>
      <trkpt lat="45.84132" lon="6.26325">
        <ele>1476</ele>
        <time>2010-04-23T19:03:37Z</time>
      </trkpt>
      <trkpt lat="45.84133" lon="6.26328">
        <ele>1477</ele>
        <time>2010-04-23T19:03:40Z</time>
      </trkpt>
      <trkpt lat="45.84135" lon="6.2633">
        <ele>1478</ele>
        <time>2010-04-23T19:03:42Z</time>
      </trkpt>
      <trkpt lat="45.84136" lon="6.26332">
        <ele>1478</ele>
        <time>2010-04-23T19:03:44Z</time>
      </trkpt>
      <trkpt lat="45.84137" lon="6.26334">
        <ele>1478</ele>
        <time>2010-04-23T19:03:46Z</time>
      </trkpt>
      <trkpt lat="45.8414" lon="6.26336">
        <ele>1479</ele>
        <time>2010-04-23T19:03:49Z</time>
      </trkpt>
      <trkpt lat="45.84142" lon="6.26338">
        <ele>1481</ele>
        <time>2010-04-23T19:03:51Z</time>
      </trkpt>
      <trkpt lat="45.84144" lon="6.26339">
        <ele>1483</ele>
        <time>2010-04-23T19:03:53Z</time>
      </trkpt>
      <trkpt lat="45.84145" lon="6.26339">
        <ele>1484</ele>
        <time>2010-04-23T19:03:55Z</time>
      </trkpt>
      <trkpt lat="45.84147" lon="6.2634">
        <ele>1484</ele>
        <time>2010-04-23T19:03:57Z</time>
      </trkpt>
      <trkpt lat="45.84148" lon="6.2634">
        <ele>1485</ele>
        <time>2010-04-23T19:03:59Z</time>
      </trkpt>
      <trkpt lat="45.8415" lon="6.2634">
        <ele>1485</ele>
        <time>2010-04-23T19:04:01Z</time>
      </trkpt>
      <trkpt lat="45.84151" lon="6.26341">
        <ele>1485</ele>
        <time>2010-04-23T19:04:03Z</time>
      </trkpt>
      <trkpt lat="45.84153" lon="6.26341">
        <ele>1486</ele>
        <time>2010-04-23T19:04:05Z</time>
      </trkpt>
      <trkpt lat="45.84155" lon="6.26341">
        <ele>1486</ele>
        <time>2010-04-23T19:04:07Z</time>
      </trkpt>
      <trkpt lat="45.84156" lon="6.26343">
        <ele>1487</ele>
        <time>2010-04-23T19:04:09Z</time>
      </trkpt>
      <trkpt lat="45.84157" lon="6.26344">
        <ele>1487</ele>
        <time>2010-04-23T19:04:11Z</time>
      </trkpt>
      <trkpt lat="45.8416" lon="6.26345">
        <ele>1487</ele>
        <time>2010-04-23T19:04:14Z</time>
      </trkpt>
      <trkpt lat="45.84161" lon="6.26344">
        <ele>1492</ele>
        <time>2010-04-23T19:04:19Z</time>
      </trkpt>
      <trkpt lat="45.84162" lon="6.26343">
        <ele>1494</ele>
        <time>2010-04-23T19:04:21Z</time>
      </trkpt>
      <trkpt lat="45.84163" lon="6.26345">
        <ele>1495</ele>
        <time>2010-04-23T19:04:27Z</time>
      </trkpt>
      <trkpt lat="45.84164" lon="6.26347">
        <ele>1496</ele>
        <time>2010-04-23T19:04:32Z</time>
      </trkpt>
      <trkpt lat="45.84164" lon="6.26348">
        <ele>1496</ele>
        <time>2010-04-23T19:04:34Z</time>
      </trkpt>
      <trkpt lat="45.84166" lon="6.2635">
        <ele>1496</ele>
        <time>2010-04-23T19:04:36Z</time>
      </trkpt>
      <trkpt lat="45.84167" lon="6.26352">
        <ele>1496</ele>
        <time>2010-04-23T19:04:38Z</time>
      </trkpt>
      <trkpt lat="45.84169" lon="6.26355">
        <ele>1496</ele>
        <time>2010-04-23T19:04:40Z</time>
      </trkpt>
      <trkpt lat="45.84171" lon="6.26357">
        <ele>1496</ele>
        <time>2010-04-23T19:04:42Z</time>
      </trkpt>
      <trkpt lat="45.84173" lon="6.2636">
        <ele>1496</ele>
        <time>2010-04-23T19:04:44Z</time>
      </trkpt>
      <trkpt lat="45.84176" lon="6.26362">
        <ele>1496</ele>
        <time>2010-04-23T19:04:46Z</time>
      </trkpt>
      <trkpt lat="45.84177" lon="6.26364">
        <ele>1498</ele>
        <time>2010-04-23T19:04:48Z</time>
      </trkpt>
      <trkpt lat="45.84179" lon="6.26366">
        <ele>1499</ele>
        <time>2010-04-23T19:04:50Z</time>
      </trkpt>
      <trkpt lat="45.8418" lon="6.26366">
        <ele>1500</ele>
        <time>2010-04-23T19:04:52Z</time>
      </trkpt>
      <trkpt lat="45.84182" lon="6.26367">
        <ele>1501</ele>
        <time>2010-04-23T19:04:54Z</time>
      </trkpt>
      <trkpt lat="45.84184" lon="6.26369">
        <ele>1502</ele>
        <time>2010-04-23T19:04:56Z</time>
      </trkpt>
      <trkpt lat="45.84185" lon="6.26369">
        <ele>1502</ele>
        <time>2010-04-23T19:04:58Z</time>
      </trkpt>
      <trkpt lat="45.84187" lon="6.2637">
        <ele>1503</ele>
        <time>2010-04-23T19:05:00Z</time>
      </trkpt>
      <trkpt lat="45.84189" lon="6.26374">
        <ele>1503</ele>
        <time>2010-04-23T19:05:03Z</time>
      </trkpt>
      <trkpt lat="45.84191" lon="6.26376">
        <ele>1504</ele>
        <time>2010-04-23T19:05:05Z</time>
      </trkpt>
      <trkpt lat="45.84192" lon="6.26377">
        <ele>1504</ele>
        <time>2010-04-23T19:05:07Z</time>
      </trkpt>
      <trkpt lat="45.84194" lon="6.26379">
        <ele>1505</ele>
        <time>2010-04-23T19:05:10Z</time>
      </trkpt>
      <trkpt lat="45.84196" lon="6.2638">
        <ele>1505</ele>
        <time>2010-04-23T19:05:12Z</time>
      </trkpt>
      <trkpt lat="45.84198" lon="6.26382">
        <ele>1505</ele>
        <time>2010-04-23T19:05:14Z</time>
      </trkpt>
      <trkpt lat="45.842" lon="6.26383">
        <ele>1505</ele>
        <time>2010-04-23T19:05:16Z</time>
      </trkpt>
      <trkpt lat="45.84202" lon="6.26384">
        <ele>1506</ele>
        <time>2010-04-23T19:05:18Z</time>
      </trkpt>
      <trkpt lat="45.84203" lon="6.26384">
        <ele>1507</ele>
        <time>2010-04-23T19:05:20Z</time>
      </trkpt>
      <trkpt lat="45.84207" lon="6.26384">
        <ele>1509</ele>
        <time>2010-04-23T19:05:23Z</time>
      </trkpt>
      <trkpt lat="45.84209" lon="6.26385">
        <ele>1509</ele>
        <time>2010-04-23T19:05:25Z</time>
      </trkpt>
      <trkpt lat="45.84212" lon="6.26387">
        <ele>1510</ele>
        <time>2010-04-23T19:05:28Z</time>
      </trkpt>
      <trkpt lat="45.84215" lon="6.26388">
        <ele>1511</ele>
        <time>2010-04-23T19:05:30Z</time>
      </trkpt>
      <trkpt lat="45.84217" lon="6.26389">
        <ele>1512</ele>
        <time>2010-04-23T19:05:32Z</time>
      </trkpt>
      <trkpt lat="45.8422" lon="6.2639">
        <ele>1513</ele>
        <time>2010-04-23T19:05:34Z</time>
      </trkpt>
      <trkpt lat="45.84222" lon="6.26392">
        <ele>1514</ele>
        <time>2010-04-23T19:05:36Z</time>
      </trkpt>
      <trkpt lat="45.84226" lon="6.26393">
        <ele>1514</ele>
        <time>2010-04-23T19:05:38Z</time>
      </trkpt>
      <trkpt lat="45.84229" lon="6.26394">
        <ele>1515</ele>
        <time>2010-04-23T19:05:40Z</time>
      </trkpt>
      <trkpt lat="45.84231" lon="6.26395">
        <ele>1515</ele>
        <time>2010-04-23T19:05:42Z</time>
      </trkpt>
      <trkpt lat="45.84235" lon="6.26397">
        <ele>1517</ele>
        <time>2010-04-23T19:05:45Z</time>
      </trkpt>
      <trkpt lat="45.84237" lon="6.26399">
        <ele>1518</ele>
        <time>2010-04-23T19:05:47Z</time>
      </trkpt>
      <trkpt lat="45.84239" lon="6.264">
        <ele>1519</ele>
        <time>2010-04-23T19:05:49Z</time>
      </trkpt>
      <trkpt lat="45.84242" lon="6.26402">
        <ele>1520</ele>
        <time>2010-04-23T19:05:51Z</time>
      </trkpt>
      <trkpt lat="45.84245" lon="6.26403">
        <ele>1521</ele>
        <time>2010-04-23T19:05:53Z</time>
      </trkpt>
      <trkpt lat="45.84248" lon="6.26405">
        <ele>1522</ele>
        <time>2010-04-23T19:05:56Z</time>
      </trkpt>
      <trkpt lat="45.84251" lon="6.26406">
        <ele>1523</ele>
        <time>2010-04-23T19:05:58Z</time>
      </trkpt>
      <trkpt lat="45.84254" lon="6.26406">
        <ele>1523</ele>
        <time>2010-04-23T19:06:00Z</time>
      </trkpt>
      <trkpt lat="45.84256" lon="6.26406">
        <ele>1524</ele>
        <time>2010-04-23T19:06:02Z</time>
      </trkpt>
      <trkpt lat="45.84259" lon="6.26406">
        <ele>1524</ele>
        <time>2010-04-23T19:06:04Z</time>
      </trkpt>
      <trkpt lat="45.84261" lon="6.26405">
        <ele>1524</ele>
        <time>2010-04-23T19:06:06Z</time>
      </trkpt>
      <trkpt lat="45.84264" lon="6.26404">
        <ele>1524</ele>
        <time>2010-04-23T19:06:08Z</time>
      </trkpt>
      <trkpt lat="45.84265" lon="6.26404">
        <ele>1525</ele>
        <time>2010-04-23T19:06:10Z</time>
      </trkpt>
      <trkpt lat="45.84266" lon="6.26403">
        <ele>1526</ele>
        <time>2010-04-23T19:06:13Z</time>
      </trkpt>
      <trkpt lat="45.84264" lon="6.26401">
        <ele>1527</ele>
        <time>2010-04-23T19:06:15Z</time>
      </trkpt>
      <trkpt lat="45.84263" lon="6.26399">
        <ele>1528</ele>
        <time>2010-04-23T19:06:17Z</time>
      </trkpt>
      <trkpt lat="45.84261" lon="6.26396">
        <ele>1529</ele>
        <time>2010-04-23T19:06:19Z</time>
      </trkpt>
      <trkpt lat="45.8426" lon="6.26394">
        <ele>1530</ele>
        <time>2010-04-23T19:06:21Z</time>
      </trkpt>
      <trkpt lat="45.84258" lon="6.26392">
        <ele>1531</ele>
        <time>2010-04-23T19:06:23Z</time>
      </trkpt>
      <trkpt lat="45.84256" lon="6.26388">
        <ele>1531</ele>
        <time>2010-04-23T19:06:26Z</time>
      </trkpt>
      <trkpt lat="45.84254" lon="6.26385">
        <ele>1531</ele>
        <time>2010-04-23T19:06:28Z</time>
      </trkpt>
      <trkpt lat="45.84253" lon="6.26381">
        <ele>1532</ele>
        <time>2010-04-23T19:06:30Z</time>
      </trkpt>
      <trkpt lat="45.84252" lon="6.26378">
        <ele>1533</ele>
        <time>2010-04-23T19:06:32Z</time>
      </trkpt>
      <trkpt lat="45.84251" lon="6.26375">
        <ele>1534</ele>
        <time>2010-04-23T19:06:34Z</time>
      </trkpt>
      <trkpt lat="45.8425" lon="6.26372">
        <ele>1534</ele>
        <time>2010-04-23T19:06:36Z</time>
      </trkpt>
      <trkpt lat="45.8425" lon="6.26369">
        <ele>1534</ele>
        <time>2010-04-23T19:06:38Z</time>
      </trkpt>
      <trkpt lat="45.8425" lon="6.26365">
        <ele>1534</ele>
        <time>2010-04-23T19:06:40Z</time>
      </trkpt>
      <trkpt lat="45.84249" lon="6.26361">
        <ele>1534</ele>
        <time>2010-04-23T19:06:42Z</time>
      </trkpt>
      <trkpt lat="45.84248" lon="6.26357">
        <ele>1534</ele>
        <time>2010-04-23T19:06:44Z</time>
      </trkpt>
      <trkpt lat="45.84247" lon="6.26354">
        <ele>1534</ele>
        <time>2010-04-23T19:06:46Z</time>
      </trkpt>
      <trkpt lat="45.84246" lon="6.26349">
        <ele>1535</ele>
        <time>2010-04-23T19:06:48Z</time>
      </trkpt>
      <trkpt lat="45.84246" lon="6.26345">
        <ele>1536</ele>
        <time>2010-04-23T19:06:50Z</time>
      </trkpt>
      <trkpt lat="45.84246" lon="6.26341">
        <ele>1537</ele>
        <time>2010-04-23T19:06:52Z</time>
      </trkpt>
      <trkpt lat="45.84246" lon="6.26337">
        <ele>1538</ele>
        <time>2010-04-23T19:06:54Z</time>
      </trkpt>
      <trkpt lat="45.84245" lon="6.26335">
        <ele>1539</ele>
        <time>2010-04-23T19:06:56Z</time>
      </trkpt>
      <trkpt lat="45.84245" lon="6.26333">
        <ele>1540</ele>
        <time>2010-04-23T19:06:58Z</time>
      </trkpt>
      <trkpt lat="45.84243" lon="6.2633">
        <ele>1540</ele>
        <time>2010-04-23T19:07:00Z</time>
      </trkpt>
      <trkpt lat="45.84242" lon="6.26328">
        <ele>1540</ele>
        <time>2010-04-23T19:07:02Z</time>
      </trkpt>
      <trkpt lat="45.84241" lon="6.26325">
        <ele>1540</ele>
        <time>2010-04-23T19:07:04Z</time>
      </trkpt>
      <trkpt lat="45.8424" lon="6.2632">
        <ele>1540</ele>
        <time>2010-04-23T19:07:06Z</time>
      </trkpt>
      <trkpt lat="45.84241" lon="6.26321">
        <ele>1540</ele>
        <time>2010-04-23T19:07:08Z</time>
      </trkpt>
      <trkpt lat="45.84243" lon="6.26322">
        <ele>1540</ele>
        <time>2010-04-23T19:07:10Z</time>
      </trkpt>
      <trkpt lat="45.84245" lon="6.26322">
        <ele>1540</ele>
        <time>2010-04-23T19:07:12Z</time>
      </trkpt>
      <trkpt lat="45.84247" lon="6.26323">
        <ele>1540</ele>
        <time>2010-04-23T19:07:14Z</time>
      </trkpt>
      <trkpt lat="45.8425" lon="6.26325">
        <ele>1540</ele>
        <time>2010-04-23T19:07:17Z</time>
      </trkpt>
      <trkpt lat="45.84252" lon="6.26325">
        <ele>1541</ele>
        <time>2010-04-23T19:07:19Z</time>
      </trkpt>
      <trkpt lat="45.84254" lon="6.26326">
        <ele>1541</ele>
        <time>2010-04-23T19:07:21Z</time>
      </trkpt>
      <trkpt lat="45.84257" lon="6.26327">
        <ele>1542</ele>
        <time>2010-04-23T19:07:23Z</time>
      </trkpt>
      <trkpt lat="45.8426" lon="6.26326">
        <ele>1543</ele>
        <time>2010-04-23T19:07:25Z</time>
      </trkpt>
      <trkpt lat="45.84262" lon="6.26327">
        <ele>1544</ele>
        <time>2010-04-23T19:07:27Z</time>
      </trkpt>
      <trkpt lat="45.84264" lon="6.26327">
        <ele>1544</ele>
        <time>2010-04-23T19:07:29Z</time>
      </trkpt>
      <trkpt lat="45.84267" lon="6.26326">
        <ele>1545</ele>
        <time>2010-04-23T19:07:31Z</time>
      </trkpt>
      <trkpt lat="45.84269" lon="6.26325">
        <ele>1545</ele>
        <time>2010-04-23T19:07:34Z</time>
      </trkpt>
      <trkpt lat="45.84271" lon="6.26324">
        <ele>1546</ele>
        <time>2010-04-23T19:07:36Z</time>
      </trkpt>
      <trkpt lat="45.8427" lon="6.26322">
        <ele>1547</ele>
        <time>2010-04-23T19:07:40Z</time>
      </trkpt>
      <trkpt lat="45.84268" lon="6.26319">
        <ele>1549</ele>
        <time>2010-04-23T19:07:42Z</time>
      </trkpt>
      <trkpt lat="45.84267" lon="6.26315">
        <ele>1550</ele>
        <time>2010-04-23T19:07:44Z</time>
      </trkpt>
      <trkpt lat="45.84266" lon="6.26312">
        <ele>1551</ele>
        <time>2010-04-23T19:07:46Z</time>
      </trkpt>
      <trkpt lat="45.84266" lon="6.26309">
        <ele>1551</ele>
        <time>2010-04-23T19:07:48Z</time>
      </trkpt>
      <trkpt lat="45.84265" lon="6.26307">
        <ele>1552</ele>
        <time>2010-04-23T19:07:50Z</time>
      </trkpt>
      <trkpt lat="45.84265" lon="6.26304">
        <ele>1552</ele>
        <time>2010-04-23T19:07:52Z</time>
      </trkpt>
      <trkpt lat="45.84264" lon="6.263">
        <ele>1552</ele>
        <time>2010-04-23T19:07:55Z</time>
      </trkpt>
      <trkpt lat="45.84263" lon="6.26299">
        <ele>1554</ele>
        <time>2010-04-23T19:08:00Z</time>
      </trkpt>
      <trkpt lat="45.84263" lon="6.26297">
        <ele>1556</ele>
        <time>2010-04-23T19:08:05Z</time>
      </trkpt>
      <trkpt lat="45.84264" lon="6.26295">
        <ele>1557</ele>
        <time>2010-04-23T19:08:08Z</time>
      </trkpt>
      <trkpt lat="45.84264" lon="6.26292">
        <ele>1558</ele>
        <time>2010-04-23T19:08:10Z</time>
      </trkpt>
      <trkpt lat="45.84266" lon="6.26288">
        <ele>1559</ele>
        <time>2010-04-23T19:08:12Z</time>
      </trkpt>
      <trkpt lat="45.84267" lon="6.26286">
        <ele>1559</ele>
        <time>2010-04-23T19:08:14Z</time>
      </trkpt>
      <trkpt lat="45.84269" lon="6.26284">
        <ele>1559</ele>
        <time>2010-04-23T19:08:16Z</time>
      </trkpt>
      <trkpt lat="45.84271" lon="6.26281">
        <ele>1559</ele>
        <time>2010-04-23T19:08:18Z</time>
      </trkpt>
      <trkpt lat="45.84274" lon="6.26277">
        <ele>1559</ele>
        <time>2010-04-23T19:08:21Z</time>
      </trkpt>
      <trkpt lat="45.84276" lon="6.26275">
        <ele>1560</ele>
        <time>2010-04-23T19:08:23Z</time>
      </trkpt>
      <trkpt lat="45.84278" lon="6.26273">
        <ele>1561</ele>
        <time>2010-04-23T19:08:25Z</time>
      </trkpt>
      <trkpt lat="45.8428" lon="6.26269">
        <ele>1562</ele>
        <time>2010-04-23T19:08:28Z</time>
      </trkpt>
      <trkpt lat="45.84281" lon="6.26266">
        <ele>1562</ele>
        <time>2010-04-23T19:08:30Z</time>
      </trkpt>
      <trkpt lat="45.84283" lon="6.26264">
        <ele>1562</ele>
        <time>2010-04-23T19:08:32Z</time>
      </trkpt>
      <trkpt lat="45.84284" lon="6.26262">
        <ele>1563</ele>
        <time>2010-04-23T19:08:34Z</time>
      </trkpt>
      <trkpt lat="45.84286" lon="6.2626">
        <ele>1563</ele>
        <time>2010-04-23T19:08:36Z</time>
      </trkpt>
      <trkpt lat="45.84288" lon="6.26256">
        <ele>1564</ele>
        <time>2010-04-23T19:08:38Z</time>
      </trkpt>
      <trkpt lat="45.84289" lon="6.26253">
        <ele>1564</ele>
        <time>2010-04-23T19:08:40Z</time>
      </trkpt>
      <trkpt lat="45.8429" lon="6.26251">
        <ele>1564</ele>
        <time>2010-04-23T19:08:42Z</time>
      </trkpt>
      <trkpt lat="45.84292" lon="6.26247">
        <ele>1565</ele>
        <time>2010-04-23T19:08:44Z</time>
      </trkpt>
      <trkpt lat="45.84293" lon="6.26244">
        <ele>1565</ele>
        <time>2010-04-23T19:08:46Z</time>
      </trkpt>
      <trkpt lat="45.84296" lon="6.26242">
        <ele>1566</ele>
        <time>2010-04-23T19:08:48Z</time>
      </trkpt>
      <trkpt lat="45.84297" lon="6.26241">
        <ele>1566</ele>
        <time>2010-04-23T19:08:50Z</time>
      </trkpt>
      <trkpt lat="45.84299" lon="6.26239">
        <ele>1566</ele>
        <time>2010-04-23T19:08:57Z</time>
      </trkpt>
      <trkpt lat="45.843" lon="6.26238">
        <ele>1566</ele>
        <time>2010-04-23T19:08:59Z</time>
      </trkpt>
      <trkpt lat="45.84302" lon="6.26236">
        <ele>1566</ele>
        <time>2010-04-23T19:09:01Z</time>
      </trkpt>
      <trkpt lat="45.84303" lon="6.26234">
        <ele>1567</ele>
        <time>2010-04-23T19:09:03Z</time>
      </trkpt>
      <trkpt lat="45.84304" lon="6.26232">
        <ele>1567</ele>
        <time>2010-04-23T19:09:05Z</time>
      </trkpt>
      <trkpt lat="45.84306" lon="6.2623">
        <ele>1567</ele>
        <time>2010-04-23T19:09:07Z</time>
      </trkpt>
      <trkpt lat="45.84307" lon="6.26228">
        <ele>1568</ele>
        <time>2010-04-23T19:09:09Z</time>
      </trkpt>
      <trkpt lat="45.84309" lon="6.26224">
        <ele>1569</ele>
        <time>2010-04-23T19:09:12Z</time>
      </trkpt>
      <trkpt lat="45.8431" lon="6.26222">
        <ele>1569</ele>
        <time>2010-04-23T19:09:14Z</time>
      </trkpt>
      <trkpt lat="45.84312" lon="6.2622">
        <ele>1570</ele>
        <time>2010-04-23T19:09:16Z</time>
      </trkpt>
      <trkpt lat="45.84313" lon="6.26217">
        <ele>1570</ele>
        <time>2010-04-23T19:09:18Z</time>
      </trkpt>
      <trkpt lat="45.84314" lon="6.26214">
        <ele>1571</ele>
        <time>2010-04-23T19:09:20Z</time>
      </trkpt>
      <trkpt lat="45.84315" lon="6.26212">
        <ele>1571</ele>
        <time>2010-04-23T19:09:22Z</time>
      </trkpt>
      <trkpt lat="45.84317" lon="6.26209">
        <ele>1573</ele>
        <time>2010-04-23T19:09:24Z</time>
      </trkpt>
      <trkpt lat="45.84318" lon="6.26207">
        <ele>1574</ele>
        <time>2010-04-23T19:09:26Z</time>
      </trkpt>
      <trkpt lat="45.8432" lon="6.26205">
        <ele>1575</ele>
        <time>2010-04-23T19:09:28Z</time>
      </trkpt>
      <trkpt lat="45.84322" lon="6.26203">
        <ele>1576</ele>
        <time>2010-04-23T19:09:30Z</time>
      </trkpt>
      <trkpt lat="45.84322" lon="6.26201">
        <ele>1577</ele>
        <time>2010-04-23T19:09:32Z</time>
      </trkpt>
      <trkpt lat="45.84322" lon="6.26199">
        <ele>1577</ele>
        <time>2010-04-23T19:09:34Z</time>
      </trkpt>
      <trkpt lat="45.84323" lon="6.26196">
        <ele>1578</ele>
        <time>2010-04-23T19:09:36Z</time>
      </trkpt>
      <trkpt lat="45.84323" lon="6.26194">
        <ele>1578</ele>
        <time>2010-04-23T19:09:38Z</time>
      </trkpt>
      <trkpt lat="45.84324" lon="6.26192">
        <ele>1578</ele>
        <time>2010-04-23T19:09:40Z</time>
      </trkpt>
      <trkpt lat="45.84326" lon="6.26189">
        <ele>1579</ele>
        <time>2010-04-23T19:09:42Z</time>
      </trkpt>
      <trkpt lat="45.84328" lon="6.26187">
        <ele>1579</ele>
        <time>2010-04-23T19:09:44Z</time>
      </trkpt>
      <trkpt lat="45.8433" lon="6.26183">
        <ele>1579</ele>
        <time>2010-04-23T19:09:46Z</time>
      </trkpt>
      <trkpt lat="45.84331" lon="6.2618">
        <ele>1580</ele>
        <time>2010-04-23T19:09:48Z</time>
      </trkpt>
      <trkpt lat="45.84333" lon="6.26177">
        <ele>1581</ele>
        <time>2010-04-23T19:09:50Z</time>
      </trkpt>
      <trkpt lat="45.84335" lon="6.26174">
        <ele>1581</ele>
        <time>2010-04-23T19:09:52Z</time>
      </trkpt>
      <trkpt lat="45.84337" lon="6.26173">
        <ele>1583</ele>
        <time>2010-04-23T19:09:54Z</time>
      </trkpt>
      <trkpt lat="45.84337" lon="6.26171">
        <ele>1584</ele>
        <time>2010-04-23T19:09:56Z</time>
      </trkpt>
      <trkpt lat="45.84337" lon="6.26169">
        <ele>1584</ele>
        <time>2010-04-23T19:09:58Z</time>
      </trkpt>
      <trkpt lat="45.84337" lon="6.26166">
        <ele>1585</ele>
        <time>2010-04-23T19:10:00Z</time>
      </trkpt>
      <trkpt lat="45.84338" lon="6.26163">
        <ele>1585</ele>
        <time>2010-04-23T19:10:02Z</time>
      </trkpt>
      <trkpt lat="45.84339" lon="6.26162">
        <ele>1586</ele>
        <time>2010-04-23T19:10:04Z</time>
      </trkpt>
      <trkpt lat="45.84342" lon="6.26161">
        <ele>1587</ele>
        <time>2010-04-23T19:10:06Z</time>
      </trkpt>
      <trkpt lat="45.84344" lon="6.26161">
        <ele>1588</ele>
        <time>2010-04-23T19:10:08Z</time>
      </trkpt>
      <trkpt lat="45.84346" lon="6.2616">
        <ele>1588</ele>
        <time>2010-04-23T19:10:10Z</time>
      </trkpt>
      <trkpt lat="45.84347" lon="6.26159">
        <ele>1589</ele>
        <time>2010-04-23T19:10:13Z</time>
      </trkpt>
      <trkpt lat="45.84347" lon="6.26157">
        <ele>1590</ele>
        <time>2010-04-23T19:10:15Z</time>
      </trkpt>
      <trkpt lat="45.84348" lon="6.26155">
        <ele>1591</ele>
        <time>2010-04-23T19:10:17Z</time>
      </trkpt>
      <trkpt lat="45.84349" lon="6.26154">
        <ele>1592</ele>
        <time>2010-04-23T19:10:19Z</time>
      </trkpt>
      <trkpt lat="45.8435" lon="6.26152">
        <ele>1593</ele>
        <time>2010-04-23T19:10:21Z</time>
      </trkpt>
      <trkpt lat="45.84351" lon="6.2615">
        <ele>1594</ele>
        <time>2010-04-23T19:10:24Z</time>
      </trkpt>
      <trkpt lat="45.84351" lon="6.26148">
        <ele>1595</ele>
        <time>2010-04-23T19:10:26Z</time>
      </trkpt>
      <trkpt lat="45.84351" lon="6.26146">
        <ele>1595</ele>
        <time>2010-04-23T19:10:28Z</time>
      </trkpt>
      <trkpt lat="45.84351" lon="6.26144">
        <ele>1597</ele>
        <time>2010-04-23T19:10:37Z</time>
      </trkpt>
      <trkpt lat="45.84352" lon="6.26143">
        <ele>1597</ele>
        <time>2010-04-23T19:10:39Z</time>
      </trkpt>
      <trkpt lat="45.84354" lon="6.26143">
        <ele>1598</ele>
        <time>2010-04-23T19:10:41Z</time>
      </trkpt>
      <trkpt lat="45.84356" lon="6.26144">
        <ele>1599</ele>
        <time>2010-04-23T19:10:43Z</time>
      </trkpt>
      <trkpt lat="45.84358" lon="6.26144">
        <ele>1600</ele>
        <time>2010-04-23T19:10:45Z</time>
      </trkpt>
      <trkpt lat="45.84359" lon="6.26142">
        <ele>1602</ele>
        <time>2010-04-23T19:10:48Z</time>
      </trkpt>
      <trkpt lat="45.8436" lon="6.2614">
        <ele>1602</ele>
        <time>2010-04-23T19:10:50Z</time>
      </trkpt>
      <trkpt lat="45.84361" lon="6.26138">
        <ele>1603</ele>
        <time>2010-04-23T19:10:54Z</time>
      </trkpt>
      <trkpt lat="45.84362" lon="6.26136">
        <ele>1603</ele>
        <time>2010-04-23T19:10:56Z</time>
      </trkpt>
      <trkpt lat="45.84362" lon="6.26134">
        <ele>1604</ele>
        <time>2010-04-23T19:10:58Z</time>
      </trkpt>
      <trkpt lat="45.84364" lon="6.26132">
        <ele>1606</ele>
        <time>2010-04-23T19:11:00Z</time>
      </trkpt>
      <trkpt lat="45.84364" lon="6.26131">
        <ele>1607</ele>
        <time>2010-04-23T19:11:03Z</time>
      </trkpt>
      <trkpt lat="45.84365" lon="6.26128">
        <ele>1608</ele>
        <time>2010-04-23T19:11:05Z</time>
      </trkpt>
      <trkpt lat="45.84366" lon="6.26127">
        <ele>1608</ele>
        <time>2010-04-23T19:11:07Z</time>
      </trkpt>
      <trkpt lat="45.84367" lon="6.26125">
        <ele>1610</ele>
        <time>2010-04-23T19:11:10Z</time>
      </trkpt>
      <trkpt lat="45.84367" lon="6.26123">
        <ele>1612</ele>
        <time>2010-04-23T19:11:14Z</time>
      </trkpt>
      <trkpt lat="45.84367" lon="6.26121">
        <ele>1613</ele>
        <time>2010-04-23T19:11:16Z</time>
      </trkpt>
      <trkpt lat="45.84367" lon="6.26119">
        <ele>1614</ele>
        <time>2010-04-23T19:11:18Z</time>
      </trkpt>
      <trkpt lat="45.84368" lon="6.26117">
        <ele>1615</ele>
        <time>2010-04-23T19:11:20Z</time>
      </trkpt>
      <trkpt lat="45.84367" lon="6.26114">
        <ele>1615</ele>
        <time>2010-04-23T19:11:22Z</time>
      </trkpt>
      <trkpt lat="45.84369" lon="6.26113">
        <ele>1616</ele>
        <time>2010-04-23T19:11:24Z</time>
      </trkpt>
      <trkpt lat="45.84371" lon="6.26115">
        <ele>1617</ele>
        <time>2010-04-23T19:11:27Z</time>
      </trkpt>
      <trkpt lat="45.84371" lon="6.26117">
        <ele>1617</ele>
        <time>2010-04-23T19:11:29Z</time>
      </trkpt>
      <trkpt lat="45.84373" lon="6.26119">
        <ele>1617</ele>
        <time>2010-04-23T19:11:31Z</time>
      </trkpt>
      <trkpt lat="45.84374" lon="6.26121">
        <ele>1617</ele>
        <time>2010-04-23T19:11:33Z</time>
      </trkpt>
      <trkpt lat="45.84376" lon="6.26122">
        <ele>1618</ele>
        <time>2010-04-23T19:11:35Z</time>
      </trkpt>
      <trkpt lat="45.84377" lon="6.2612">
        <ele>1618</ele>
        <time>2010-04-23T19:11:37Z</time>
      </trkpt>
      <trkpt lat="45.84378" lon="6.26119">
        <ele>1619</ele>
        <time>2010-04-23T19:11:39Z</time>
      </trkpt>
      <trkpt lat="45.84379" lon="6.26117">
        <ele>1620</ele>
        <time>2010-04-23T19:11:41Z</time>
      </trkpt>
      <trkpt lat="45.8438" lon="6.26115">
        <ele>1621</ele>
        <time>2010-04-23T19:11:43Z</time>
      </trkpt>
      <trkpt lat="45.8438" lon="6.26113">
        <ele>1621</ele>
        <time>2010-04-23T19:11:45Z</time>
      </trkpt>
      <trkpt lat="45.8438" lon="6.26112">
        <ele>1623</ele>
        <time>2010-04-23T19:11:53Z</time>
      </trkpt>
      <trkpt lat="45.84381" lon="6.2611">
        <ele>1625</ele>
        <time>2010-04-23T19:12:01Z</time>
      </trkpt>
      <trkpt lat="45.84383" lon="6.26109">
        <ele>1626</ele>
        <time>2010-04-23T19:12:03Z</time>
      </trkpt>
      <trkpt lat="45.84384" lon="6.26108">
        <ele>1626</ele>
        <time>2010-04-23T19:12:05Z</time>
      </trkpt>
      <trkpt lat="45.84385" lon="6.2611">
        <ele>1626</ele>
        <time>2010-04-23T19:12:07Z</time>
      </trkpt>
      <trkpt lat="45.84385" lon="6.26112">
        <ele>1627</ele>
        <time>2010-04-23T19:12:13Z</time>
      </trkpt>
      <trkpt lat="45.84386" lon="6.26114">
        <ele>1627</ele>
        <time>2010-04-23T19:12:19Z</time>
      </trkpt>
      <trkpt lat="45.84387" lon="6.26114">
        <ele>1627</ele>
        <time>2010-04-23T19:12:21Z</time>
      </trkpt>
      <trkpt lat="45.84388" lon="6.26115">
        <ele>1627</ele>
        <time>2010-04-23T19:12:23Z</time>
      </trkpt>
      <trkpt lat="45.84389" lon="6.26117">
        <ele>1627</ele>
        <time>2010-04-23T19:12:25Z</time>
      </trkpt>
      <trkpt lat="45.84391" lon="6.26119">
        <ele>1627</ele>
        <time>2010-04-23T19:12:27Z</time>
      </trkpt>
      <trkpt lat="45.84393" lon="6.2612">
        <ele>1627</ele>
        <time>2010-04-23T19:12:29Z</time>
      </trkpt>
      <trkpt lat="45.84397" lon="6.2612">
        <ele>1627</ele>
        <time>2010-04-23T19:12:32Z</time>
      </trkpt>
      <trkpt lat="45.84398" lon="6.26118">
        <ele>1628</ele>
        <time>2010-04-23T19:12:35Z</time>
      </trkpt>
      <trkpt lat="45.84399" lon="6.26116">
        <ele>1629</ele>
        <time>2010-04-23T19:12:37Z</time>
      </trkpt>
      <trkpt lat="45.844" lon="6.26114">
        <ele>1629</ele>
        <time>2010-04-23T19:12:39Z</time>
      </trkpt>
      <trkpt lat="45.84402" lon="6.26113">
        <ele>1630</ele>
        <time>2010-04-23T19:12:41Z</time>
      </trkpt>
      <trkpt lat="45.84403" lon="6.26113">
        <ele>1631</ele>
        <time>2010-04-23T19:12:43Z</time>
      </trkpt>
      <trkpt lat="45.84405" lon="6.26113">
        <ele>1632</ele>
        <time>2010-04-23T19:12:45Z</time>
      </trkpt>
      <trkpt lat="45.84406" lon="6.26112">
        <ele>1632</ele>
        <time>2010-04-23T19:12:47Z</time>
      </trkpt>
      <trkpt lat="45.84407" lon="6.2611">
        <ele>1633</ele>
        <time>2010-04-23T19:12:49Z</time>
      </trkpt>
      <trkpt lat="45.84409" lon="6.2611">
        <ele>1634</ele>
        <time>2010-04-23T19:12:51Z</time>
      </trkpt>
      <trkpt lat="45.8441" lon="6.26111">
        <ele>1635</ele>
        <time>2010-04-23T19:12:53Z</time>
      </trkpt>
      <trkpt lat="45.84412" lon="6.26112">
        <ele>1635</ele>
        <time>2010-04-23T19:12:55Z</time>
      </trkpt>
      <trkpt lat="45.84413" lon="6.26114">
        <ele>1636</ele>
        <time>2010-04-23T19:12:57Z</time>
      </trkpt>
      <trkpt lat="45.84414" lon="6.26114">
        <ele>1637</ele>
        <time>2010-04-23T19:12:59Z</time>
      </trkpt>
      <trkpt lat="45.84416" lon="6.26114">
        <ele>1639</ele>
        <time>2010-04-23T19:13:02Z</time>
      </trkpt>
      <trkpt lat="45.84416" lon="6.26112">
        <ele>1640</ele>
        <time>2010-04-23T19:13:04Z</time>
      </trkpt>
      <trkpt lat="45.84417" lon="6.2611">
        <ele>1640</ele>
        <time>2010-04-23T19:13:06Z</time>
      </trkpt>
      <trkpt lat="45.84418" lon="6.26111">
        <ele>1641</ele>
        <time>2010-04-23T19:13:10Z</time>
      </trkpt>
      <trkpt lat="45.8442" lon="6.26112">
        <ele>1642</ele>
        <time>2010-04-23T19:13:13Z</time>
      </trkpt>
      <trkpt lat="45.84422" lon="6.26112">
        <ele>1643</ele>
        <time>2010-04-23T19:13:16Z</time>
      </trkpt>
      <trkpt lat="45.84423" lon="6.26112">
        <ele>1644</ele>
        <time>2010-04-23T19:13:18Z</time>
      </trkpt>
      <trkpt lat="45.84425" lon="6.26112">
        <ele>1644</ele>
        <time>2010-04-23T19:13:20Z</time>
      </trkpt>
      <trkpt lat="45.84426" lon="6.26111">
        <ele>1645</ele>
        <time>2010-04-23T19:13:22Z</time>
      </trkpt>
      <trkpt lat="45.84428" lon="6.26111">
        <ele>1646</ele>
        <time>2010-04-23T19:13:24Z</time>
      </trkpt>
      <trkpt lat="45.8443" lon="6.26112">
        <ele>1647</ele>
        <time>2010-04-23T19:13:26Z</time>
      </trkpt>
      <trkpt lat="45.84433" lon="6.26112">
        <ele>1648</ele>
        <time>2010-04-23T19:13:28Z</time>
      </trkpt>
      <trkpt lat="45.84434" lon="6.26112">
        <ele>1648</ele>
        <time>2010-04-23T19:13:30Z</time>
      </trkpt>
      <trkpt lat="45.84436" lon="6.26113">
        <ele>1649</ele>
        <time>2010-04-23T19:13:34Z</time>
      </trkpt>
      <trkpt lat="45.84437" lon="6.26111">
        <ele>1652</ele>
        <time>2010-04-23T19:13:50Z</time>
      </trkpt>
      <trkpt lat="45.84439" lon="6.2611">
        <ele>1652</ele>
        <time>2010-04-23T19:13:53Z</time>
      </trkpt>
      <trkpt lat="45.84441" lon="6.26109">
        <ele>1652</ele>
        <time>2010-04-23T19:13:55Z</time>
      </trkpt>
      <trkpt lat="45.84444" lon="6.26108">
        <ele>1652</ele>
        <time>2010-04-23T19:13:58Z</time>
      </trkpt>
      <trkpt lat="45.84444" lon="6.26105">
        <ele>1652</ele>
        <time>2010-04-23T19:14:00Z</time>
      </trkpt>
      <trkpt lat="45.84444" lon="6.26101">
        <ele>1652</ele>
        <time>2010-04-23T19:14:02Z</time>
      </trkpt>
      <trkpt lat="45.84442" lon="6.26097">
        <ele>1652</ele>
        <time>2010-04-23T19:14:04Z</time>
      </trkpt>
      <trkpt lat="45.84439" lon="6.26094">
        <ele>1652</ele>
        <time>2010-04-23T19:14:06Z</time>
      </trkpt>
      <trkpt lat="45.84439" lon="6.2609">
        <ele>1652</ele>
        <time>2010-04-23T19:14:08Z</time>
      </trkpt>
      <trkpt lat="45.8444" lon="6.26088">
        <ele>1652</ele>
        <time>2010-04-23T19:14:10Z</time>
      </trkpt>
      <trkpt lat="45.84441" lon="6.26086">
        <ele>1652</ele>
        <time>2010-04-23T19:14:12Z</time>
      </trkpt>
      <trkpt lat="45.84441" lon="6.26084">
        <ele>1652</ele>
        <time>2010-04-23T19:14:14Z</time>
      </trkpt>
      <trkpt lat="45.84443" lon="6.26083">
        <ele>1652</ele>
        <time>2010-04-23T19:14:16Z</time>
      </trkpt>
      <trkpt lat="45.84445" lon="6.26083">
        <ele>1652</ele>
        <time>2010-04-23T19:14:18Z</time>
      </trkpt>
      <trkpt lat="45.84447" lon="6.26084">
        <ele>1650</ele>
        <time>2010-04-23T19:14:21Z</time>
      </trkpt>
      <trkpt lat="45.84448" lon="6.26083">
        <ele>1650</ele>
        <time>2010-04-23T19:14:23Z</time>
      </trkpt>
      <trkpt lat="45.84448" lon="6.2608">
        <ele>1649</ele>
        <time>2010-04-23T19:14:25Z</time>
      </trkpt>
      <trkpt lat="45.84448" lon="6.26078">
        <ele>1649</ele>
        <time>2010-04-23T19:14:27Z</time>
      </trkpt>
      <trkpt lat="45.84448" lon="6.26075">
        <ele>1649</ele>
        <time>2010-04-23T19:14:30Z</time>
      </trkpt>
      <trkpt lat="45.84449" lon="6.26073">
        <ele>1650</ele>
        <time>2010-04-23T19:14:32Z</time>
      </trkpt>
      <trkpt lat="45.84449" lon="6.2607">
        <ele>1653</ele>
        <time>2010-04-23T19:14:35Z</time>
      </trkpt>
      <trkpt lat="45.84449" lon="6.26069">
        <ele>1654</ele>
        <time>2010-04-23T19:14:37Z</time>
      </trkpt>
      <trkpt lat="45.8445" lon="6.26067">
        <ele>1655</ele>
        <time>2010-04-23T19:14:39Z</time>
      </trkpt>
      <trkpt lat="45.84451" lon="6.26066">
        <ele>1658</ele>
        <time>2010-04-23T19:14:43Z</time>
      </trkpt>
      <trkpt lat="45.84451" lon="6.26063">
        <ele>1658</ele>
        <time>2010-04-23T19:14:45Z</time>
      </trkpt>
      <trkpt lat="45.84451" lon="6.26061">
        <ele>1659</ele>
        <time>2010-04-23T19:14:47Z</time>
      </trkpt>
      <trkpt lat="45.84452" lon="6.2606">
        <ele>1660</ele>
        <time>2010-04-23T19:14:49Z</time>
      </trkpt>
      <trkpt lat="45.84454" lon="6.26061">
        <ele>1660</ele>
        <time>2010-04-23T19:14:51Z</time>
      </trkpt>
      <trkpt lat="45.84456" lon="6.2606">
        <ele>1660</ele>
        <time>2010-04-23T19:14:54Z</time>
      </trkpt>
      <trkpt lat="45.84456" lon="6.26058">
        <ele>1660</ele>
        <time>2010-04-23T19:14:58Z</time>
      </trkpt>
      <trkpt lat="45.84456" lon="6.26056">
        <ele>1663</ele>
        <time>2010-04-23T19:15:08Z</time>
      </trkpt>
      <trkpt lat="45.84456" lon="6.26055">
        <ele>1663</ele>
        <time>2010-04-23T19:15:10Z</time>
      </trkpt>
      <trkpt lat="45.84458" lon="6.26053">
        <ele>1663</ele>
        <time>2010-04-23T19:15:12Z</time>
      </trkpt>
      <trkpt lat="45.84459" lon="6.26051">
        <ele>1663</ele>
        <time>2010-04-23T19:15:14Z</time>
      </trkpt>
      <trkpt lat="45.8446" lon="6.26048">
        <ele>1663</ele>
        <time>2010-04-23T19:15:16Z</time>
      </trkpt>
      <trkpt lat="45.84462" lon="6.26046">
        <ele>1663</ele>
        <time>2010-04-23T19:15:18Z</time>
      </trkpt>
      <trkpt lat="45.84465" lon="6.26045">
        <ele>1663</ele>
        <time>2010-04-23T19:15:21Z</time>
      </trkpt>
      <trkpt lat="45.84467" lon="6.26045">
        <ele>1664</ele>
        <time>2010-04-23T19:15:23Z</time>
      </trkpt>
      <trkpt lat="45.84469" lon="6.26045">
        <ele>1664</ele>
        <time>2010-04-23T19:15:25Z</time>
      </trkpt>
      <trkpt lat="45.8447" lon="6.26044">
        <ele>1665</ele>
        <time>2010-04-23T19:15:27Z</time>
      </trkpt>
      <trkpt lat="45.84472" lon="6.26045">
        <ele>1665</ele>
        <time>2010-04-23T19:15:30Z</time>
      </trkpt>
      <trkpt lat="45.84473" lon="6.26046">
        <ele>1666</ele>
        <time>2010-04-23T19:15:39Z</time>
      </trkpt>
      <trkpt lat="45.84474" lon="6.26048">
        <ele>1666</ele>
        <time>2010-04-23T19:15:41Z</time>
      </trkpt>
      <trkpt lat="45.84475" lon="6.2605">
        <ele>1667</ele>
        <time>2010-04-23T19:15:43Z</time>
      </trkpt>
      <trkpt lat="45.84478" lon="6.26054">
        <ele>1667</ele>
        <time>2010-04-23T19:15:45Z</time>
      </trkpt>
      <trkpt lat="45.84481" lon="6.26056">
        <ele>1667</ele>
        <time>2010-04-23T19:15:47Z</time>
      </trkpt>
      <trkpt lat="45.84484" lon="6.26058">
        <ele>1667</ele>
        <time>2010-04-23T19:15:49Z</time>
      </trkpt>
      <trkpt lat="45.84489" lon="6.2606">
        <ele>1667</ele>
        <time>2010-04-23T19:15:51Z</time>
      </trkpt>
      <trkpt lat="45.84494" lon="6.26062">
        <ele>1667</ele>
        <time>2010-04-23T19:15:53Z</time>
      </trkpt>
      <trkpt lat="45.84499" lon="6.26064">
        <ele>1667</ele>
        <time>2010-04-23T19:15:55Z</time>
      </trkpt>
      <trkpt lat="45.84504" lon="6.26065">
        <ele>1667</ele>
        <time>2010-04-23T19:15:57Z</time>
      </trkpt>
      <trkpt lat="45.84509" lon="6.26067">
        <ele>1668</ele>
        <time>2010-04-23T19:15:59Z</time>
      </trkpt>
      <trkpt lat="45.84513" lon="6.26071">
        <ele>1668</ele>
        <time>2010-04-23T19:16:01Z</time>
      </trkpt>
      <trkpt lat="45.84518" lon="6.26072">
        <ele>1668</ele>
        <time>2010-04-23T19:16:03Z</time>
      </trkpt>
      <trkpt lat="45.84524" lon="6.26073">
        <ele>1668</ele>
        <time>2010-04-23T19:16:05Z</time>
      </trkpt>
      <trkpt lat="45.84529" lon="6.26075">
        <ele>1668</ele>
        <time>2010-04-23T19:16:07Z</time>
      </trkpt>
      <trkpt lat="45.84534" lon="6.26077">
        <ele>1668</ele>
        <time>2010-04-23T19:16:09Z</time>
      </trkpt>
      <trkpt lat="45.8454" lon="6.26079">
        <ele>1668</ele>
        <time>2010-04-23T19:16:11Z</time>
      </trkpt>
      <trkpt lat="45.84545" lon="6.2608">
        <ele>1668</ele>
        <time>2010-04-23T19:16:13Z</time>
      </trkpt>
      <trkpt lat="45.8455" lon="6.26081">
        <ele>1668</ele>
        <time>2010-04-23T19:16:15Z</time>
      </trkpt>
      <trkpt lat="45.84556" lon="6.26082">
        <ele>1668</ele>
        <time>2010-04-23T19:16:17Z</time>
      </trkpt>
      <trkpt lat="45.84562" lon="6.26083">
        <ele>1668</ele>
        <time>2010-04-23T19:16:19Z</time>
      </trkpt>
      <trkpt lat="45.84567" lon="6.26085">
        <ele>1668</ele>
        <time>2010-04-23T19:16:21Z</time>
      </trkpt>
      <trkpt lat="45.84572" lon="6.26086">
        <ele>1668</ele>
        <time>2010-04-23T19:16:23Z</time>
      </trkpt>
      <trkpt lat="45.84577" lon="6.26087">
        <ele>1668</ele>
        <time>2010-04-23T19:16:25Z</time>
      </trkpt>
      <trkpt lat="45.8458" lon="6.26087">
        <ele>1668</ele>
        <time>2010-04-23T19:16:27Z</time>
      </trkpt>
      <trkpt lat="45.84583" lon="6.26088">
        <ele>1668</ele>
        <time>2010-04-23T19:16:29Z</time>
      </trkpt>
      <trkpt lat="45.84586" lon="6.26089">
        <ele>1668</ele>
        <time>2010-04-23T19:16:31Z</time>
      </trkpt>
      <trkpt lat="45.84589" lon="6.26091">
        <ele>1668</ele>
        <time>2010-04-23T19:16:33Z</time>
      </trkpt>
      <trkpt lat="45.84592" lon="6.26092">
        <ele>1668</ele>
        <time>2010-04-23T19:16:35Z</time>
      </trkpt>
      <trkpt lat="45.84597" lon="6.26094">
        <ele>1668</ele>
        <time>2010-04-23T19:16:37Z</time>
      </trkpt>
      <trkpt lat="45.84601" lon="6.26094">
        <ele>1668</ele>
        <time>2010-04-23T19:16:39Z</time>
      </trkpt>
      <trkpt lat="45.84606" lon="6.26096">
        <ele>1668</ele>
        <time>2010-04-23T19:16:41Z</time>
      </trkpt>
      <trkpt lat="45.8461" lon="6.26098">
        <ele>1668</ele>
        <time>2010-04-23T19:16:43Z</time>
      </trkpt>
      <trkpt lat="45.84616" lon="6.261">
        <ele>1668</ele>
        <time>2010-04-23T19:16:45Z</time>
      </trkpt>
      <trkpt lat="45.84621" lon="6.26102">
        <ele>1668</ele>
        <time>2010-04-23T19:16:47Z</time>
      </trkpt>
      <trkpt lat="45.84625" lon="6.26104">
        <ele>1668</ele>
        <time>2010-04-23T19:16:49Z</time>
      </trkpt>
      <trkpt lat="45.84629" lon="6.26105">
        <ele>1668</ele>
        <time>2010-04-23T19:16:51Z</time>
      </trkpt>
      <trkpt lat="45.84632" lon="6.26105">
        <ele>1668</ele>
        <time>2010-04-23T19:16:53Z</time>
      </trkpt>
      <trkpt lat="45.84634" lon="6.26106">
        <ele>1668</ele>
        <time>2010-04-23T19:16:55Z</time>
      </trkpt>
      <trkpt lat="45.84637" lon="6.26105">
        <ele>1668</ele>
        <time>2010-04-23T19:16:57Z</time>
      </trkpt>
      <trkpt lat="45.8464" lon="6.26105">
        <ele>1668</ele>
        <time>2010-04-23T19:16:59Z</time>
      </trkpt>
      <trkpt lat="45.84642" lon="6.26105">
        <ele>1668</ele>
        <time>2010-04-23T19:17:01Z</time>
      </trkpt>
      <trkpt lat="45.84644" lon="6.26106">
        <ele>1668</ele>
        <time>2010-04-23T19:17:03Z</time>
      </trkpt>
      <trkpt lat="45.84646" lon="6.26107">
        <ele>1668</ele>
        <time>2010-04-23T19:17:05Z</time>
      </trkpt>
      <trkpt lat="45.84648" lon="6.26108">
        <ele>1668</ele>
        <time>2010-04-23T19:17:07Z</time>
      </trkpt>
      <trkpt lat="45.8465" lon="6.26108">
        <ele>1668</ele>
        <time>2010-04-23T19:17:09Z</time>
      </trkpt>
      <trkpt lat="45.84651" lon="6.26108">
        <ele>1668</ele>
        <time>2010-04-23T19:17:11Z</time>
      </trkpt>
      <trkpt lat="45.84655" lon="6.26105">
        <ele>1668</ele>
        <time>2010-04-23T19:17:14Z</time>
      </trkpt>
      <trkpt lat="45.84658" lon="6.26105">
        <ele>1668</ele>
        <time>2010-04-23T19:17:16Z</time>
      </trkpt>
      <trkpt lat="45.8466" lon="6.26106">
        <ele>1668</ele>
        <time>2010-04-23T19:17:18Z</time>
      </trkpt>
      <trkpt lat="45.84663" lon="6.26107">
        <ele>1668</ele>
        <time>2010-04-23T19:17:20Z</time>
      </trkpt>
      <trkpt lat="45.84664" lon="6.26107">
        <ele>1668</ele>
        <time>2010-04-23T19:17:24Z</time>
      </trkpt>
      <trkpt lat="45.84666" lon="6.26107">
        <ele>1668</ele>
        <time>2010-04-23T19:17:30Z</time>
      </trkpt>
      <trkpt lat="45.84668" lon="6.26107">
        <ele>1668</ele>
        <time>2010-04-23T19:17:32Z</time>
      </trkpt>
      <trkpt lat="45.84671" lon="6.26108">
        <ele>1668</ele>
        <time>2010-04-23T19:17:34Z</time>
      </trkpt>
      <trkpt lat="45.84673" lon="6.26109">
        <ele>1668</ele>
        <time>2010-04-23T19:17:36Z</time>
      </trkpt>
      <trkpt lat="45.84676" lon="6.2611">
        <ele>1668</ele>
        <time>2010-04-23T19:17:38Z</time>
      </trkpt>
      <trkpt lat="45.84679" lon="6.2611">
        <ele>1668</ele>
        <time>2010-04-23T19:17:40Z</time>
      </trkpt>
      <trkpt lat="45.84681" lon="6.2611">
        <ele>1668</ele>
        <time>2010-04-23T19:17:42Z</time>
      </trkpt>
      <trkpt lat="45.84684" lon="6.26111">
        <ele>1668</ele>
        <time>2010-04-23T19:17:44Z</time>
      </trkpt>
      <trkpt lat="45.84685" lon="6.26111">
        <ele>1668</ele>
        <time>2010-04-23T19:17:48Z</time>
      </trkpt>
      <trkpt lat="45.84688" lon="6.26111">
        <ele>1668</ele>
        <time>2010-04-23T19:17:50Z</time>
      </trkpt>
      <trkpt lat="45.8469" lon="6.26112">
        <ele>1668</ele>
        <time>2010-04-23T19:17:52Z</time>
      </trkpt>
      <trkpt lat="45.84694" lon="6.26111">
        <ele>1668</ele>
        <time>2010-04-23T19:17:55Z</time>
      </trkpt>
      <trkpt lat="45.84696" lon="6.2611">
        <ele>1668</ele>
        <time>2010-04-23T19:17:58Z</time>
      </trkpt>
      <trkpt lat="45.84698" lon="6.26109">
        <ele>1668</ele>
        <time>2010-04-23T19:18:00Z</time>
      </trkpt>
      <trkpt lat="45.84701" lon="6.26107">
        <ele>1668</ele>
        <time>2010-04-23T19:18:03Z</time>
      </trkpt>
      <trkpt lat="45.84703" lon="6.26107">
        <ele>1668</ele>
        <time>2010-04-23T19:18:05Z</time>
      </trkpt>
      <trkpt lat="45.84706" lon="6.26107">
        <ele>1667</ele>
        <time>2010-04-23T19:18:08Z</time>
      </trkpt>
      <trkpt lat="45.84708" lon="6.26106">
        <ele>1666</ele>
        <time>2010-04-23T19:18:10Z</time>
      </trkpt>
      <trkpt lat="45.8471" lon="6.26104">
        <ele>1665</ele>
        <time>2010-04-23T19:18:12Z</time>
      </trkpt>
      <trkpt lat="45.84714" lon="6.26103">
        <ele>1664</ele>
        <time>2010-04-23T19:18:15Z</time>
      </trkpt>
      <trkpt lat="45.84716" lon="6.26102">
        <ele>1663</ele>
        <time>2010-04-23T19:18:17Z</time>
      </trkpt>
      <trkpt lat="45.84718" lon="6.26101">
        <ele>1662</ele>
        <time>2010-04-23T19:18:19Z</time>
      </trkpt>
      <trkpt lat="45.84717" lon="6.26099">
        <ele>1660</ele>
        <time>2010-04-23T19:18:25Z</time>
      </trkpt>
      <trkpt lat="45.84718" lon="6.26099">
        <ele>1660</ele>
        <time>2010-04-23T19:18:31Z</time>
      </trkpt>
      <trkpt lat="45.8472" lon="6.26098">
        <ele>1659</ele>
        <time>2010-04-23T19:18:35Z</time>
      </trkpt>
      <trkpt lat="45.84721" lon="6.26097">
        <ele>1659</ele>
        <time>2010-04-23T19:18:37Z</time>
      </trkpt>
      <trkpt lat="45.84723" lon="6.26098">
        <ele>1659</ele>
        <time>2010-04-23T19:18:40Z</time>
      </trkpt>
      <trkpt lat="45.84725" lon="6.26099">
        <ele>1659</ele>
        <time>2010-04-23T19:18:42Z</time>
      </trkpt>
      <trkpt lat="45.84727" lon="6.261">
        <ele>1659</ele>
        <time>2010-04-23T19:18:44Z</time>
      </trkpt>
      <trkpt lat="45.84729" lon="6.26101">
        <ele>1659</ele>
        <time>2010-04-23T19:18:48Z</time>
      </trkpt>
      <trkpt lat="45.84731" lon="6.26101">
        <ele>1659</ele>
        <time>2010-04-23T19:18:50Z</time>
      </trkpt>
      <trkpt lat="45.84732" lon="6.26099">
        <ele>1659</ele>
        <time>2010-04-23T19:18:53Z</time>
      </trkpt>
      <trkpt lat="45.84734" lon="6.26099">
        <ele>1659</ele>
        <time>2010-04-23T19:18:56Z</time>
      </trkpt>
      <trkpt lat="45.84734" lon="6.26101">
        <ele>1659</ele>
        <time>2010-04-23T19:19:00Z</time>
      </trkpt>
      <trkpt lat="45.84736" lon="6.26102">
        <ele>1659</ele>
        <time>2010-04-23T19:19:03Z</time>
      </trkpt>
      <trkpt lat="45.84737" lon="6.26102">
        <ele>1659</ele>
        <time>2010-04-23T19:19:06Z</time>
      </trkpt>
      <trkpt lat="45.84738" lon="6.26101">
        <ele>1658</ele>
        <time>2010-04-23T19:19:09Z</time>
      </trkpt>
      <trkpt lat="45.84739" lon="6.26101">
        <ele>1658</ele>
        <time>2010-04-23T19:19:12Z</time>
      </trkpt>
      <trkpt lat="45.84741" lon="6.261">
        <ele>1657</ele>
        <time>2010-04-23T19:19:15Z</time>
      </trkpt>
      <trkpt lat="45.84743" lon="6.261">
        <ele>1657</ele>
        <time>2010-04-23T19:19:17Z</time>
      </trkpt>
      <trkpt lat="45.84747" lon="6.26102">
        <ele>1656</ele>
        <time>2010-04-23T19:19:20Z</time>
      </trkpt>
      <trkpt lat="45.8475" lon="6.26102">
        <ele>1655</ele>
        <time>2010-04-23T19:19:23Z</time>
      </trkpt>
      <trkpt lat="45.84752" lon="6.261">
        <ele>1655</ele>
        <time>2010-04-23T19:19:25Z</time>
      </trkpt>
      <trkpt lat="45.84753" lon="6.26099">
        <ele>1654</ele>
        <time>2010-04-23T19:19:27Z</time>
      </trkpt>
      <trkpt lat="45.84754" lon="6.26099">
        <ele>1653</ele>
        <time>2010-04-23T19:19:29Z</time>
      </trkpt>
      <trkpt lat="45.84756" lon="6.26099">
        <ele>1653</ele>
        <time>2010-04-23T19:19:33Z</time>
      </trkpt>
      <trkpt lat="45.84758" lon="6.26099">
        <ele>1653</ele>
        <time>2010-04-23T19:19:35Z</time>
      </trkpt>
      <trkpt lat="45.84761" lon="6.26097">
        <ele>1653</ele>
        <time>2010-04-23T19:19:37Z</time>
      </trkpt>
      <trkpt lat="45.84766" lon="6.26096">
        <ele>1652</ele>
        <time>2010-04-23T19:19:40Z</time>
      </trkpt>
      <trkpt lat="45.84768" lon="6.26097">
        <ele>1652</ele>
        <time>2010-04-23T19:19:42Z</time>
      </trkpt>
      <trkpt lat="45.8477" lon="6.26096">
        <ele>1652</ele>
        <time>2010-04-23T19:19:44Z</time>
      </trkpt>
      <trkpt lat="45.84772" lon="6.26093">
        <ele>1651</ele>
        <time>2010-04-23T19:19:46Z</time>
      </trkpt>
      <trkpt lat="45.84777" lon="6.26085">
        <ele>1650</ele>
        <time>2010-04-23T19:19:48Z</time>
      </trkpt>
      <trkpt lat="45.84782" lon="6.26077">
        <ele>1649</ele>
        <time>2010-04-23T19:19:50Z</time>
      </trkpt>
      <trkpt lat="45.84786" lon="6.2607">
        <ele>1648</ele>
        <time>2010-04-23T19:19:52Z</time>
      </trkpt>
      <trkpt lat="45.84792" lon="6.26065">
        <ele>1646</ele>
        <time>2010-04-23T19:19:54Z</time>
      </trkpt>
      <trkpt lat="45.84798" lon="6.26063">
        <ele>1645</ele>
        <time>2010-04-23T19:19:56Z</time>
      </trkpt>
      <trkpt lat="45.84802" lon="6.2606">
        <ele>1643</ele>
        <time>2010-04-23T19:19:58Z</time>
      </trkpt>
      <trkpt lat="45.84805" lon="6.26059">
        <ele>1641</ele>
        <time>2010-04-23T19:20:00Z</time>
      </trkpt>
      <trkpt lat="45.84807" lon="6.26057">
        <ele>1640</ele>
        <time>2010-04-23T19:20:02Z</time>
      </trkpt>
      <trkpt lat="45.84811" lon="6.26057">
        <ele>1639</ele>
        <time>2010-04-23T19:20:05Z</time>
      </trkpt>
      <trkpt lat="45.84813" lon="6.26058">
        <ele>1638</ele>
        <time>2010-04-23T19:20:07Z</time>
      </trkpt>
      <trkpt lat="45.84815" lon="6.26059">
        <ele>1638</ele>
        <time>2010-04-23T19:20:09Z</time>
      </trkpt>
      <trkpt lat="45.8482" lon="6.26059">
        <ele>1637</ele>
        <time>2010-04-23T19:20:11Z</time>
      </trkpt>
      <trkpt lat="45.84826" lon="6.26057">
        <ele>1637</ele>
        <time>2010-04-23T19:20:13Z</time>
      </trkpt>
      <trkpt lat="45.84832" lon="6.26056">
        <ele>1636</ele>
        <time>2010-04-23T19:20:15Z</time>
      </trkpt>
      <trkpt lat="45.84838" lon="6.26056">
        <ele>1635</ele>
        <time>2010-04-23T19:20:17Z</time>
      </trkpt>
      <trkpt lat="45.84844" lon="6.26054">
        <ele>1634</ele>
        <time>2010-04-23T19:20:19Z</time>
      </trkpt>
      <trkpt lat="45.84851" lon="6.26052">
        <ele>1632</ele>
        <time>2010-04-23T19:20:21Z</time>
      </trkpt>
      <trkpt lat="45.84856" lon="6.26052">
        <ele>1631</ele>
        <time>2010-04-23T19:20:23Z</time>
      </trkpt>
      <trkpt lat="45.84861" lon="6.26052">
        <ele>1630</ele>
        <time>2010-04-23T19:20:25Z</time>
      </trkpt>
      <trkpt lat="45.84864" lon="6.26054">
        <ele>1629</ele>
        <time>2010-04-23T19:20:28Z</time>
      </trkpt>
      <trkpt lat="45.84865" lon="6.26056">
        <ele>1628</ele>
        <time>2010-04-23T19:20:30Z</time>
      </trkpt>
      <trkpt lat="45.84867" lon="6.26057">
        <ele>1628</ele>
        <time>2010-04-23T19:20:32Z</time>
      </trkpt>
      <trkpt lat="45.84868" lon="6.26058">
        <ele>1628</ele>
        <time>2010-04-23T19:20:38Z</time>
      </trkpt>
      <trkpt lat="45.84868" lon="6.26059">
        <ele>1628</ele>
        <time>2010-04-23T19:21:10Z</time>
      </trkpt>
      <trkpt lat="45.84867" lon="6.26061">
        <ele>1627</ele>
        <time>2010-04-23T19:21:21Z</time>
      </trkpt>
      <trkpt lat="45.84866" lon="6.26061">
        <ele>1626</ele>
        <time>2010-04-23T19:21:26Z</time>
      </trkpt>
      <trkpt lat="45.84867" lon="6.26059">
        <ele>1626</ele>
        <time>2010-04-23T19:21:48Z</time>
      </trkpt>
      <trkpt lat="45.84869" lon="6.26054">
        <ele>1626</ele>
        <time>2010-04-23T19:21:50Z</time>
      </trkpt>
      <trkpt lat="45.84873" lon="6.26047">
        <ele>1626</ele>
        <time>2010-04-23T19:21:52Z</time>
      </trkpt>
      <trkpt lat="45.84876" lon="6.2604">
        <ele>1624</ele>
        <time>2010-04-23T19:21:54Z</time>
      </trkpt>
      <trkpt lat="45.8488" lon="6.26033">
        <ele>1623</ele>
        <time>2010-04-23T19:21:56Z</time>
      </trkpt>
      <trkpt lat="45.84883" lon="6.26024">
        <ele>1621</ele>
        <time>2010-04-23T19:21:58Z</time>
      </trkpt>
      <trkpt lat="45.84885" lon="6.26017">
        <ele>1619</ele>
        <time>2010-04-23T19:22:00Z</time>
      </trkpt>
      <trkpt lat="45.84889" lon="6.26011">
        <ele>1618</ele>
        <time>2010-04-23T19:22:02Z</time>
      </trkpt>
      <trkpt lat="45.84893" lon="6.26003">
        <ele>1616</ele>
        <time>2010-04-23T19:22:04Z</time>
      </trkpt>
      <trkpt lat="45.84896" lon="6.25995">
        <ele>1615</ele>
        <time>2010-04-23T19:22:06Z</time>
      </trkpt>
      <trkpt lat="45.849" lon="6.25987">
        <ele>1614</ele>
        <time>2010-04-23T19:22:08Z</time>
      </trkpt>
      <trkpt lat="45.84903" lon="6.25981">
        <ele>1612</ele>
        <time>2010-04-23T19:22:10Z</time>
      </trkpt>
      <trkpt lat="45.84905" lon="6.25977">
        <ele>1612</ele>
        <time>2010-04-23T19:22:12Z</time>
      </trkpt>
      <trkpt lat="45.84907" lon="6.25974">
        <ele>1612</ele>
        <time>2010-04-23T19:22:14Z</time>
      </trkpt>
      <trkpt lat="45.84911" lon="6.25972">
        <ele>1612</ele>
        <time>2010-04-23T19:22:16Z</time>
      </trkpt>
      <trkpt lat="45.84914" lon="6.25968">
        <ele>1612</ele>
        <time>2010-04-23T19:22:18Z</time>
      </trkpt>
      <trkpt lat="45.84917" lon="6.25965">
        <ele>1612</ele>
        <time>2010-04-23T19:22:20Z</time>
      </trkpt>
      <trkpt lat="45.84919" lon="6.25963">
        <ele>1612</ele>
        <time>2010-04-23T19:22:22Z</time>
      </trkpt>
      <trkpt lat="45.8492" lon="6.25961">
        <ele>1612</ele>
        <time>2010-04-23T19:22:24Z</time>
      </trkpt>
      <trkpt lat="45.84922" lon="6.25958">
        <ele>1612</ele>
        <time>2010-04-23T19:22:26Z</time>
      </trkpt>
      <trkpt lat="45.84924" lon="6.25956">
        <ele>1612</ele>
        <time>2010-04-23T19:22:28Z</time>
      </trkpt>
      <trkpt lat="45.84925" lon="6.25954">
        <ele>1612</ele>
        <time>2010-04-23T19:22:30Z</time>
      </trkpt>
      <trkpt lat="45.84927" lon="6.25952">
        <ele>1612</ele>
        <time>2010-04-23T19:22:32Z</time>
      </trkpt>
      <trkpt lat="45.84928" lon="6.25949">
        <ele>1612</ele>
        <time>2010-04-23T19:22:34Z</time>
      </trkpt>
      <trkpt lat="45.84929" lon="6.25947">
        <ele>1612</ele>
        <time>2010-04-23T19:22:36Z</time>
      </trkpt>
      <trkpt lat="45.8493" lon="6.25944">
        <ele>1612</ele>
        <time>2010-04-23T19:22:38Z</time>
      </trkpt>
      <trkpt lat="45.84931" lon="6.25943">
        <ele>1612</ele>
        <time>2010-04-23T19:22:40Z</time>
      </trkpt>
      <trkpt lat="45.84932" lon="6.25941">
        <ele>1612</ele>
        <time>2010-04-23T19:22:42Z</time>
      </trkpt>
      <trkpt lat="45.84933" lon="6.25938">
        <ele>1612</ele>
        <time>2010-04-23T19:22:44Z</time>
      </trkpt>
      <trkpt lat="45.84935" lon="6.25935">
        <ele>1612</ele>
        <time>2010-04-23T19:22:46Z</time>
      </trkpt>
      <trkpt lat="45.84937" lon="6.25933">
        <ele>1612</ele>
        <time>2010-04-23T19:22:48Z</time>
      </trkpt>
      <trkpt lat="45.84939" lon="6.2593">
        <ele>1612</ele>
        <time>2010-04-23T19:22:50Z</time>
      </trkpt>
      <trkpt lat="45.84942" lon="6.25927">
        <ele>1612</ele>
        <time>2010-04-23T19:22:53Z</time>
      </trkpt>
      <trkpt lat="45.84943" lon="6.25925">
        <ele>1612</ele>
        <time>2010-04-23T19:22:55Z</time>
      </trkpt>
      <trkpt lat="45.84945" lon="6.25922">
        <ele>1612</ele>
        <time>2010-04-23T19:22:57Z</time>
      </trkpt>
      <trkpt lat="45.84947" lon="6.2592">
        <ele>1612</ele>
        <time>2010-04-23T19:22:59Z</time>
      </trkpt>
      <trkpt lat="45.84949" lon="6.25918">
        <ele>1612</ele>
        <time>2010-04-23T19:23:01Z</time>
      </trkpt>
      <trkpt lat="45.84952" lon="6.25917">
        <ele>1612</ele>
        <time>2010-04-23T19:23:03Z</time>
      </trkpt>
      <trkpt lat="45.84955" lon="6.25916">
        <ele>1612</ele>
        <time>2010-04-23T19:23:05Z</time>
      </trkpt>
      <trkpt lat="45.84959" lon="6.25914">
        <ele>1611</ele>
        <time>2010-04-23T19:23:07Z</time>
      </trkpt>
      <trkpt lat="45.84964" lon="6.25912">
        <ele>1611</ele>
        <time>2010-04-23T19:23:09Z</time>
      </trkpt>
      <trkpt lat="45.84969" lon="6.25911">
        <ele>1610</ele>
        <time>2010-04-23T19:23:11Z</time>
      </trkpt>
      <trkpt lat="45.84973" lon="6.2591">
        <ele>1610</ele>
        <time>2010-04-23T19:23:13Z</time>
      </trkpt>
      <trkpt lat="45.84977" lon="6.2591">
        <ele>1610</ele>
        <time>2010-04-23T19:23:15Z</time>
      </trkpt>
      <trkpt lat="45.84982" lon="6.2591">
        <ele>1609</ele>
        <time>2010-04-23T19:23:18Z</time>
      </trkpt>
      <trkpt lat="45.84984" lon="6.25909">
        <ele>1609</ele>
        <time>2010-04-23T19:23:20Z</time>
      </trkpt>
      <trkpt lat="45.84988" lon="6.2591">
        <ele>1609</ele>
        <time>2010-04-23T19:23:23Z</time>
      </trkpt>
      <trkpt lat="45.84992" lon="6.25912">
        <ele>1609</ele>
        <time>2010-04-23T19:23:25Z</time>
      </trkpt>
      <trkpt lat="45.84996" lon="6.25912">
        <ele>1609</ele>
        <time>2010-04-23T19:23:27Z</time>
      </trkpt>
      <trkpt lat="45.85" lon="6.2591">
        <ele>1609</ele>
        <time>2010-04-23T19:23:29Z</time>
      </trkpt>
      <trkpt lat="45.85004" lon="6.25908">
        <ele>1609</ele>
        <time>2010-04-23T19:23:31Z</time>
      </trkpt>
      <trkpt lat="45.85005" lon="6.25907">
        <ele>1609</ele>
        <time>2010-04-23T19:23:33Z</time>
      </trkpt>
      <trkpt lat="45.85007" lon="6.25905">
        <ele>1609</ele>
        <time>2010-04-23T19:23:35Z</time>
      </trkpt>
      <trkpt lat="45.8501" lon="6.25904">
        <ele>1609</ele>
        <time>2010-04-23T19:23:37Z</time>
      </trkpt>
      <trkpt lat="45.85012" lon="6.25902">
        <ele>1609</ele>
        <time>2010-04-23T19:23:39Z</time>
      </trkpt>
      <trkpt lat="45.85015" lon="6.259">
        <ele>1609</ele>
        <time>2010-04-23T19:23:42Z</time>
      </trkpt>
      <trkpt lat="45.85018" lon="6.25899">
        <ele>1609</ele>
        <time>2010-04-23T19:23:44Z</time>
      </trkpt>
      <trkpt lat="45.8502" lon="6.25897">
        <ele>1609</ele>
        <time>2010-04-23T19:23:46Z</time>
      </trkpt>
      <trkpt lat="45.85022" lon="6.25896">
        <ele>1609</ele>
        <time>2010-04-23T19:23:48Z</time>
      </trkpt>
      <trkpt lat="45.85023" lon="6.25894">
        <ele>1609</ele>
        <time>2010-04-23T19:23:50Z</time>
      </trkpt>
      <trkpt lat="45.85025" lon="6.25893">
        <ele>1609</ele>
        <time>2010-04-23T19:23:52Z</time>
      </trkpt>
      <trkpt lat="45.85028" lon="6.25892">
        <ele>1609</ele>
        <time>2010-04-23T19:23:55Z</time>
      </trkpt>
      <trkpt lat="45.8503" lon="6.25891">
        <ele>1609</ele>
        <time>2010-04-23T19:23:57Z</time>
      </trkpt>
      <trkpt lat="45.85032" lon="6.25889">
        <ele>1609</ele>
        <time>2010-04-23T19:23:59Z</time>
      </trkpt>
      <trkpt lat="45.85034" lon="6.25889">
        <ele>1609</ele>
        <time>2010-04-23T19:24:01Z</time>
      </trkpt>
      <trkpt lat="45.85036" lon="6.25887">
        <ele>1609</ele>
        <time>2010-04-23T19:24:03Z</time>
      </trkpt>
      <trkpt lat="45.85038" lon="6.25886">
        <ele>1609</ele>
        <time>2010-04-23T19:24:05Z</time>
      </trkpt>
      <trkpt lat="45.8504" lon="6.25885">
        <ele>1609</ele>
        <time>2010-04-23T19:24:07Z</time>
      </trkpt>
      <trkpt lat="45.85042" lon="6.25884">
        <ele>1609</ele>
        <time>2010-04-23T19:24:09Z</time>
      </trkpt>
      <trkpt lat="45.85045" lon="6.25884">
        <ele>1609</ele>
        <time>2010-04-23T19:24:11Z</time>
      </trkpt>
      <trkpt lat="45.85047" lon="6.25883">
        <ele>1609</ele>
        <time>2010-04-23T19:24:13Z</time>
      </trkpt>
      <trkpt lat="45.85049" lon="6.25882">
        <ele>1609</ele>
        <time>2010-04-23T19:24:15Z</time>
      </trkpt>
      <trkpt lat="45.85052" lon="6.25883">
        <ele>1609</ele>
        <time>2010-04-23T19:24:17Z</time>
      </trkpt>
      <trkpt lat="45.85055" lon="6.25882">
        <ele>1609</ele>
        <time>2010-04-23T19:24:19Z</time>
      </trkpt>
      <trkpt lat="45.85058" lon="6.25881">
        <ele>1609</ele>
        <time>2010-04-23T19:24:21Z</time>
      </trkpt>
      <trkpt lat="45.8506" lon="6.25881">
        <ele>1610</ele>
        <time>2010-04-23T19:24:23Z</time>
      </trkpt>
      <trkpt lat="45.85062" lon="6.2588">
        <ele>1610</ele>
        <time>2010-04-23T19:24:25Z</time>
      </trkpt>
      <trkpt lat="45.85064" lon="6.25879">
        <ele>1610</ele>
        <time>2010-04-23T19:24:27Z</time>
      </trkpt>
      <trkpt lat="45.85067" lon="6.25878">
        <ele>1610</ele>
        <time>2010-04-23T19:24:29Z</time>
      </trkpt>
      <trkpt lat="45.85069" lon="6.25877">
        <ele>1611</ele>
        <time>2010-04-23T19:24:31Z</time>
      </trkpt>
      <trkpt lat="45.85071" lon="6.25876">
        <ele>1611</ele>
        <time>2010-04-23T19:24:33Z</time>
      </trkpt>
      <trkpt lat="45.85073" lon="6.25875">
        <ele>1611</ele>
        <time>2010-04-23T19:24:35Z</time>
      </trkpt>
      <trkpt lat="45.85075" lon="6.25874">
        <ele>1611</ele>
        <time>2010-04-23T19:24:37Z</time>
      </trkpt>
      <trkpt lat="45.85078" lon="6.25872">
        <ele>1611</ele>
        <time>2010-04-23T19:24:39Z</time>
      </trkpt>
      <trkpt lat="45.8508" lon="6.25871">
        <ele>1611</ele>
        <time>2010-04-23T19:24:41Z</time>
      </trkpt>
      <trkpt lat="45.85083" lon="6.25869">
        <ele>1611</ele>
        <time>2010-04-23T19:24:44Z</time>
      </trkpt>
      <trkpt lat="45.85085" lon="6.25869">
        <ele>1611</ele>
        <time>2010-04-23T19:24:46Z</time>
      </trkpt>
      <trkpt lat="45.85088" lon="6.25867">
        <ele>1611</ele>
        <time>2010-04-23T19:24:49Z</time>
      </trkpt>
      <trkpt lat="45.8509" lon="6.25866">
        <ele>1611</ele>
        <time>2010-04-23T19:24:51Z</time>
      </trkpt>
      <trkpt lat="45.85093" lon="6.25865">
        <ele>1611</ele>
        <time>2010-04-23T19:24:53Z</time>
      </trkpt>
      <trkpt lat="45.85095" lon="6.25864">
        <ele>1611</ele>
        <time>2010-04-23T19:24:55Z</time>
      </trkpt>
      <trkpt lat="45.85097" lon="6.25862">
        <ele>1611</ele>
        <time>2010-04-23T19:24:57Z</time>
      </trkpt>
      <trkpt lat="45.85098" lon="6.25861">
        <ele>1611</ele>
        <time>2010-04-23T19:24:59Z</time>
      </trkpt>
      <trkpt lat="45.85101" lon="6.25859">
        <ele>1611</ele>
        <time>2010-04-23T19:25:01Z</time>
      </trkpt>
      <trkpt lat="45.85104" lon="6.25857">
        <ele>1611</ele>
        <time>2010-04-23T19:25:03Z</time>
      </trkpt>
      <trkpt lat="45.85107" lon="6.25854">
        <ele>1611</ele>
        <time>2010-04-23T19:25:05Z</time>
      </trkpt>
      <trkpt lat="45.8511" lon="6.25852">
        <ele>1611</ele>
        <time>2010-04-23T19:25:07Z</time>
      </trkpt>
      <trkpt lat="45.85113" lon="6.2585">
        <ele>1611</ele>
        <time>2010-04-23T19:25:09Z</time>
      </trkpt>
      <trkpt lat="45.85115" lon="6.25848">
        <ele>1611</ele>
        <time>2010-04-23T19:25:11Z</time>
      </trkpt>
      <trkpt lat="45.85117" lon="6.25846">
        <ele>1611</ele>
        <time>2010-04-23T19:25:13Z</time>
      </trkpt>
      <trkpt lat="45.8512" lon="6.25841">
        <ele>1611</ele>
        <time>2010-04-23T19:25:16Z</time>
      </trkpt>
      <trkpt lat="45.85121" lon="6.25838">
        <ele>1611</ele>
        <time>2010-04-23T19:25:18Z</time>
      </trkpt>
      <trkpt lat="45.85123" lon="6.25832">
        <ele>1611</ele>
        <time>2010-04-23T19:25:20Z</time>
      </trkpt>
      <trkpt lat="45.85124" lon="6.25826">
        <ele>1611</ele>
        <time>2010-04-23T19:25:22Z</time>
      </trkpt>
      <trkpt lat="45.85125" lon="6.25823">
        <ele>1611</ele>
        <time>2010-04-23T19:25:24Z</time>
      </trkpt>
      <trkpt lat="45.85126" lon="6.25821">
        <ele>1611</ele>
        <time>2010-04-23T19:25:26Z</time>
      </trkpt>
      <trkpt lat="45.85128" lon="6.25819">
        <ele>1611</ele>
        <time>2010-04-23T19:25:28Z</time>
      </trkpt>
      <trkpt lat="45.85129" lon="6.25817">
        <ele>1611</ele>
        <time>2010-04-23T19:25:30Z</time>
      </trkpt>
      <trkpt lat="45.85131" lon="6.25815">
        <ele>1611</ele>
        <time>2010-04-23T19:25:32Z</time>
      </trkpt>
      <trkpt lat="45.85135" lon="6.25815">
        <ele>1611</ele>
        <time>2010-04-23T19:25:35Z</time>
      </trkpt>
      <trkpt lat="45.85138" lon="6.25813">
        <ele>1611</ele>
        <time>2010-04-23T19:25:38Z</time>
      </trkpt>
      <trkpt lat="45.85139" lon="6.25811">
        <ele>1611</ele>
        <time>2010-04-23T19:25:40Z</time>
      </trkpt>
      <trkpt lat="45.85141" lon="6.25809">
        <ele>1611</ele>
        <time>2010-04-23T19:25:42Z</time>
      </trkpt>
      <trkpt lat="45.85145" lon="6.25806">
        <ele>1611</ele>
        <time>2010-04-23T19:25:44Z</time>
      </trkpt>
      <trkpt lat="45.8515" lon="6.25803">
        <ele>1611</ele>
        <time>2010-04-23T19:25:46Z</time>
      </trkpt>
      <trkpt lat="45.85154" lon="6.25799">
        <ele>1611</ele>
        <time>2010-04-23T19:25:48Z</time>
      </trkpt>
      <trkpt lat="45.85161" lon="6.25794">
        <ele>1611</ele>
        <time>2010-04-23T19:25:51Z</time>
      </trkpt>
      <trkpt lat="45.85165" lon="6.25791">
        <ele>1611</ele>
        <time>2010-04-23T19:25:53Z</time>
      </trkpt>
      <trkpt lat="45.8517" lon="6.25788">
        <ele>1611</ele>
        <time>2010-04-23T19:25:55Z</time>
      </trkpt>
      <trkpt lat="45.85174" lon="6.25783">
        <ele>1611</ele>
        <time>2010-04-23T19:25:57Z</time>
      </trkpt>
      <trkpt lat="45.85178" lon="6.2578">
        <ele>1611</ele>
        <time>2010-04-23T19:25:59Z</time>
      </trkpt>
      <trkpt lat="45.85183" lon="6.25776">
        <ele>1611</ele>
        <time>2010-04-23T19:26:01Z</time>
      </trkpt>
      <trkpt lat="45.85187" lon="6.25772">
        <ele>1611</ele>
        <time>2010-04-23T19:26:03Z</time>
      </trkpt>
      <trkpt lat="45.85192" lon="6.25768">
        <ele>1610</ele>
        <time>2010-04-23T19:26:05Z</time>
      </trkpt>
      <trkpt lat="45.85197" lon="6.25765">
        <ele>1610</ele>
        <time>2010-04-23T19:26:07Z</time>
      </trkpt>
      <trkpt lat="45.85205" lon="6.2576">
        <ele>1608</ele>
        <time>2010-04-23T19:26:10Z</time>
      </trkpt>
      <trkpt lat="45.85209" lon="6.25757">
        <ele>1607</ele>
        <time>2010-04-23T19:26:12Z</time>
      </trkpt>
      <trkpt lat="45.85215" lon="6.2575">
        <ele>1606</ele>
        <time>2010-04-23T19:26:15Z</time>
      </trkpt>
      <trkpt lat="45.85218" lon="6.25745">
        <ele>1605</ele>
        <time>2010-04-23T19:26:17Z</time>
      </trkpt>
      <trkpt lat="45.85222" lon="6.25741">
        <ele>1604</ele>
        <time>2010-04-23T19:26:19Z</time>
      </trkpt>
      <trkpt lat="45.85225" lon="6.25736">
        <ele>1602</ele>
        <time>2010-04-23T19:26:21Z</time>
      </trkpt>
      <trkpt lat="45.85228" lon="6.2573">
        <ele>1601</ele>
        <time>2010-04-23T19:26:23Z</time>
      </trkpt>
      <trkpt lat="45.85231" lon="6.25723">
        <ele>1599</ele>
        <time>2010-04-23T19:26:25Z</time>
      </trkpt>
      <trkpt lat="45.85234" lon="6.25712">
        <ele>1597</ele>
        <time>2010-04-23T19:26:28Z</time>
      </trkpt>
      <trkpt lat="45.85236" lon="6.25704">
        <ele>1596</ele>
        <time>2010-04-23T19:26:30Z</time>
      </trkpt>
      <trkpt lat="45.85239" lon="6.25695">
        <ele>1594</ele>
        <time>2010-04-23T19:26:33Z</time>
      </trkpt>
      <trkpt lat="45.85241" lon="6.25688">
        <ele>1593</ele>
        <time>2010-04-23T19:26:35Z</time>
      </trkpt>
      <trkpt lat="45.85243" lon="6.2568">
        <ele>1591</ele>
        <time>2010-04-23T19:26:37Z</time>
      </trkpt>
      <trkpt lat="45.85245" lon="6.25674">
        <ele>1590</ele>
        <time>2010-04-23T19:26:39Z</time>
      </trkpt>
      <trkpt lat="45.8525" lon="6.25667">
        <ele>1588</ele>
        <time>2010-04-23T19:26:42Z</time>
      </trkpt>
      <trkpt lat="45.85254" lon="6.25662">
        <ele>1587</ele>
        <time>2010-04-23T19:26:44Z</time>
      </trkpt>
      <trkpt lat="45.85258" lon="6.25657">
        <ele>1586</ele>
        <time>2010-04-23T19:26:46Z</time>
      </trkpt>
      <trkpt lat="45.85265" lon="6.25652">
        <ele>1584</ele>
        <time>2010-04-23T19:26:49Z</time>
      </trkpt>
      <trkpt lat="45.85272" lon="6.25645">
        <ele>1582</ele>
        <time>2010-04-23T19:26:52Z</time>
      </trkpt>
      <trkpt lat="45.85276" lon="6.25641">
        <ele>1580</ele>
        <time>2010-04-23T19:26:54Z</time>
      </trkpt>
      <trkpt lat="45.85284" lon="6.25634">
        <ele>1577</ele>
        <time>2010-04-23T19:26:57Z</time>
      </trkpt>
      <trkpt lat="45.85288" lon="6.25629">
        <ele>1575</ele>
        <time>2010-04-23T19:26:59Z</time>
      </trkpt>
      <trkpt lat="45.85292" lon="6.2562">
        <ele>1573</ele>
        <time>2010-04-23T19:27:02Z</time>
      </trkpt>
      <trkpt lat="45.85294" lon="6.25613">
        <ele>1572</ele>
        <time>2010-04-23T19:27:04Z</time>
      </trkpt>
      <trkpt lat="45.85298" lon="6.25604">
        <ele>1571</ele>
        <time>2010-04-23T19:27:07Z</time>
      </trkpt>
      <trkpt lat="45.85302" lon="6.25597">
        <ele>1570</ele>
        <time>2010-04-23T19:27:09Z</time>
      </trkpt>
      <trkpt lat="45.85303" lon="6.25589">
        <ele>1568</ele>
        <time>2010-04-23T19:27:12Z</time>
      </trkpt>
      <trkpt lat="45.85303" lon="6.25585">
        <ele>1567</ele>
        <time>2010-04-23T19:27:14Z</time>
      </trkpt>
      <trkpt lat="45.85303" lon="6.25581">
        <ele>1567</ele>
        <time>2010-04-23T19:27:17Z</time>
      </trkpt>
      <trkpt lat="45.85303" lon="6.25579">
        <ele>1567</ele>
        <time>2010-04-23T19:27:19Z</time>
      </trkpt>
      <trkpt lat="45.85304" lon="6.25574">
        <ele>1567</ele>
        <time>2010-04-23T19:27:22Z</time>
      </trkpt>
      <trkpt lat="45.85304" lon="6.2557">
        <ele>1566</ele>
        <time>2010-04-23T19:27:25Z</time>
      </trkpt>
      <trkpt lat="45.85302" lon="6.25564">
        <ele>1566</ele>
        <time>2010-04-23T19:27:28Z</time>
      </trkpt>
      <trkpt lat="45.85301" lon="6.25561">
        <ele>1566</ele>
        <time>2010-04-23T19:27:30Z</time>
      </trkpt>
      <trkpt lat="45.85303" lon="6.25555">
        <ele>1566</ele>
        <time>2010-04-23T19:27:34Z</time>
      </trkpt>
      <trkpt lat="45.85304" lon="6.25551">
        <ele>1566</ele>
        <time>2010-04-23T19:27:36Z</time>
      </trkpt>
      <trkpt lat="45.85306" lon="6.25541">
        <ele>1566</ele>
        <time>2010-04-23T19:27:39Z</time>
      </trkpt>
      <trkpt lat="45.85308" lon="6.25535">
        <ele>1565</ele>
        <time>2010-04-23T19:27:41Z</time>
      </trkpt>
      <trkpt lat="45.85313" lon="6.2553">
        <ele>1565</ele>
        <time>2010-04-23T19:27:43Z</time>
      </trkpt>
      <trkpt lat="45.85317" lon="6.25528">
        <ele>1564</ele>
        <time>2010-04-23T19:27:45Z</time>
      </trkpt>
      <trkpt lat="45.85322" lon="6.25526">
        <ele>1563</ele>
        <time>2010-04-23T19:27:47Z</time>
      </trkpt>
      <trkpt lat="45.85326" lon="6.25522">
        <ele>1562</ele>
        <time>2010-04-23T19:27:49Z</time>
      </trkpt>
      <trkpt lat="45.8533" lon="6.25518">
        <ele>1561</ele>
        <time>2010-04-23T19:27:51Z</time>
      </trkpt>
      <trkpt lat="45.85334" lon="6.25514">
        <ele>1559</ele>
        <time>2010-04-23T19:27:53Z</time>
      </trkpt>
      <trkpt lat="45.85339" lon="6.25512">
        <ele>1558</ele>
        <time>2010-04-23T19:27:55Z</time>
      </trkpt>
      <trkpt lat="45.85343" lon="6.2551">
        <ele>1557</ele>
        <time>2010-04-23T19:27:57Z</time>
      </trkpt>
      <trkpt lat="45.85349" lon="6.25508">
        <ele>1554</ele>
        <time>2010-04-23T19:28:00Z</time>
      </trkpt>
      <trkpt lat="45.85352" lon="6.25505">
        <ele>1552</ele>
        <time>2010-04-23T19:28:02Z</time>
      </trkpt>
      <trkpt lat="45.85352" lon="6.255">
        <ele>1550</ele>
        <time>2010-04-23T19:28:04Z</time>
      </trkpt>
      <trkpt lat="45.8535" lon="6.25495">
        <ele>1549</ele>
        <time>2010-04-23T19:28:07Z</time>
      </trkpt>
      <trkpt lat="45.85347" lon="6.25492">
        <ele>1548</ele>
        <time>2010-04-23T19:28:10Z</time>
      </trkpt>
      <trkpt lat="45.85344" lon="6.2549">
        <ele>1548</ele>
        <time>2010-04-23T19:28:12Z</time>
      </trkpt>
      <trkpt lat="45.85341" lon="6.25485">
        <ele>1547</ele>
        <time>2010-04-23T19:28:15Z</time>
      </trkpt>
      <trkpt lat="45.85339" lon="6.25481">
        <ele>1546</ele>
        <time>2010-04-23T19:28:17Z</time>
      </trkpt>
      <trkpt lat="45.85342" lon="6.25476">
        <ele>1545</ele>
        <time>2010-04-23T19:28:20Z</time>
      </trkpt>
      <trkpt lat="45.85345" lon="6.25469">
        <ele>1545</ele>
        <time>2010-04-23T19:28:22Z</time>
      </trkpt>
      <trkpt lat="45.85353" lon="6.25461">
        <ele>1543</ele>
        <time>2010-04-23T19:28:25Z</time>
      </trkpt>
      <trkpt lat="45.85358" lon="6.25457">
        <ele>1541</ele>
        <time>2010-04-23T19:28:27Z</time>
      </trkpt>
      <trkpt lat="45.85366" lon="6.25454">
        <ele>1538</ele>
        <time>2010-04-23T19:28:30Z</time>
      </trkpt>
      <trkpt lat="45.85371" lon="6.25453">
        <ele>1536</ele>
        <time>2010-04-23T19:28:32Z</time>
      </trkpt>
      <trkpt lat="45.85379" lon="6.25451">
        <ele>1533</ele>
        <time>2010-04-23T19:28:35Z</time>
      </trkpt>
      <trkpt lat="45.85382" lon="6.25449">
        <ele>1531</ele>
        <time>2010-04-23T19:28:37Z</time>
      </trkpt>
      <trkpt lat="45.85388" lon="6.25445">
        <ele>1528</ele>
        <time>2010-04-23T19:28:40Z</time>
      </trkpt>
      <trkpt lat="45.85392" lon="6.25441">
        <ele>1527</ele>
        <time>2010-04-23T19:28:42Z</time>
      </trkpt>
      <trkpt lat="45.85395" lon="6.25437">
        <ele>1526</ele>
        <time>2010-04-23T19:28:44Z</time>
      </trkpt>
      <trkpt lat="45.85398" lon="6.25435">
        <ele>1525</ele>
        <time>2010-04-23T19:28:46Z</time>
      </trkpt>
      <trkpt lat="45.85397" lon="6.25435">
        <ele>1518</ele>
        <time>2010-04-23T19:29:07Z</time>
      </trkpt>
      <trkpt lat="45.85397" lon="6.25434">
        <ele>1518</ele>
        <time>2010-04-23T19:29:10Z</time>
      </trkpt>
      <trkpt lat="45.85399" lon="6.25432">
        <ele>1518</ele>
        <time>2010-04-23T19:29:14Z</time>
      </trkpt>
      <trkpt lat="45.85401" lon="6.25427">
        <ele>1518</ele>
        <time>2010-04-23T19:29:17Z</time>
      </trkpt>
      <trkpt lat="45.85404" lon="6.25424">
        <ele>1517</ele>
        <time>2010-04-23T19:29:19Z</time>
      </trkpt>
      <trkpt lat="45.85406" lon="6.2542">
        <ele>1515</ele>
        <time>2010-04-23T19:29:23Z</time>
      </trkpt>
      <trkpt lat="45.85408" lon="6.25418">
        <ele>1514</ele>
        <time>2010-04-23T19:29:25Z</time>
      </trkpt>
      <trkpt lat="45.85411" lon="6.25414">
        <ele>1513</ele>
        <time>2010-04-23T19:29:28Z</time>
      </trkpt>
      <trkpt lat="45.85412" lon="6.2541">
        <ele>1512</ele>
        <time>2010-04-23T19:29:31Z</time>
      </trkpt>
      <trkpt lat="45.85413" lon="6.25407">
        <ele>1511</ele>
        <time>2010-04-23T19:29:44Z</time>
      </trkpt>
      <trkpt lat="45.85414" lon="6.25406">
        <ele>1511</ele>
        <time>2010-04-23T19:29:47Z</time>
      </trkpt>
      <trkpt lat="45.85415" lon="6.25404">
        <ele>1511</ele>
        <time>2010-04-23T19:29:53Z</time>
      </trkpt>
      <trkpt lat="45.85416" lon="6.25402">
        <ele>1510</ele>
        <time>2010-04-23T19:29:56Z</time>
      </trkpt>
      <trkpt lat="45.85417" lon="6.25399">
        <ele>1510</ele>
        <time>2010-04-23T19:29:58Z</time>
      </trkpt>
      <trkpt lat="45.8542" lon="6.25396">
        <ele>1510</ele>
        <time>2010-04-23T19:30:01Z</time>
      </trkpt>
      <trkpt lat="45.85423" lon="6.25394">
        <ele>1510</ele>
        <time>2010-04-23T19:30:03Z</time>
      </trkpt>
      <trkpt lat="45.85427" lon="6.25392">
        <ele>1509</ele>
        <time>2010-04-23T19:30:05Z</time>
      </trkpt>
      <trkpt lat="45.85432" lon="6.2539">
        <ele>1509</ele>
        <time>2010-04-23T19:30:07Z</time>
      </trkpt>
      <trkpt lat="45.85436" lon="6.25386">
        <ele>1508</ele>
        <time>2010-04-23T19:30:09Z</time>
      </trkpt>
      <trkpt lat="45.85441" lon="6.25382">
        <ele>1508</ele>
        <time>2010-04-23T19:30:11Z</time>
      </trkpt>
      <trkpt lat="45.85446" lon="6.25378">
        <ele>1508</ele>
        <time>2010-04-23T19:30:13Z</time>
      </trkpt>
      <trkpt lat="45.8545" lon="6.25375">
        <ele>1507</ele>
        <time>2010-04-23T19:30:15Z</time>
      </trkpt>
      <trkpt lat="45.85455" lon="6.25372">
        <ele>1507</ele>
        <time>2010-04-23T19:30:17Z</time>
      </trkpt>
      <trkpt lat="45.8546" lon="6.25369">
        <ele>1507</ele>
        <time>2010-04-23T19:30:19Z</time>
      </trkpt>
      <trkpt lat="45.85465" lon="6.25366">
        <ele>1506</ele>
        <time>2010-04-23T19:30:21Z</time>
      </trkpt>
      <trkpt lat="45.85471" lon="6.25363">
        <ele>1506</ele>
        <time>2010-04-23T19:30:23Z</time>
      </trkpt>
      <trkpt lat="45.85476" lon="6.2536">
        <ele>1505</ele>
        <time>2010-04-23T19:30:25Z</time>
      </trkpt>
      <trkpt lat="45.85481" lon="6.25357">
        <ele>1505</ele>
        <time>2010-04-23T19:30:27Z</time>
      </trkpt>
      <trkpt lat="45.85487" lon="6.25355">
        <ele>1504</ele>
        <time>2010-04-23T19:30:29Z</time>
      </trkpt>
      <trkpt lat="45.85491" lon="6.25353">
        <ele>1502</ele>
        <time>2010-04-23T19:30:31Z</time>
      </trkpt>
      <trkpt lat="45.85495" lon="6.2535">
        <ele>1501</ele>
        <time>2010-04-23T19:30:33Z</time>
      </trkpt>
      <trkpt lat="45.85503" lon="6.25344">
        <ele>1500</ele>
        <time>2010-04-23T19:30:36Z</time>
      </trkpt>
      <trkpt lat="45.85508" lon="6.25339">
        <ele>1499</ele>
        <time>2010-04-23T19:30:38Z</time>
      </trkpt>
      <trkpt lat="45.85516" lon="6.25331">
        <ele>1498</ele>
        <time>2010-04-23T19:30:41Z</time>
      </trkpt>
      <trkpt lat="45.85521" lon="6.25326">
        <ele>1497</ele>
        <time>2010-04-23T19:30:43Z</time>
      </trkpt>
      <trkpt lat="45.85525" lon="6.25323">
        <ele>1496</ele>
        <time>2010-04-23T19:30:45Z</time>
      </trkpt>
      <trkpt lat="45.8553" lon="6.25318">
        <ele>1495</ele>
        <time>2010-04-23T19:30:47Z</time>
      </trkpt>
      <trkpt lat="45.85535" lon="6.25312">
        <ele>1494</ele>
        <time>2010-04-23T19:30:49Z</time>
      </trkpt>
      <trkpt lat="45.8554" lon="6.25308">
        <ele>1493</ele>
        <time>2010-04-23T19:30:51Z</time>
      </trkpt>
      <trkpt lat="45.85546" lon="6.25305">
        <ele>1492</ele>
        <time>2010-04-23T19:30:53Z</time>
      </trkpt>
      <trkpt lat="45.85551" lon="6.253">
        <ele>1491</ele>
        <time>2010-04-23T19:30:55Z</time>
      </trkpt>
      <trkpt lat="45.85556" lon="6.25295">
        <ele>1490</ele>
        <time>2010-04-23T19:30:57Z</time>
      </trkpt>
      <trkpt lat="45.85561" lon="6.2529">
        <ele>1490</ele>
        <time>2010-04-23T19:30:59Z</time>
      </trkpt>
      <trkpt lat="45.85567" lon="6.25284">
        <ele>1489</ele>
        <time>2010-04-23T19:31:01Z</time>
      </trkpt>
      <trkpt lat="45.85573" lon="6.25279">
        <ele>1488</ele>
        <time>2010-04-23T19:31:03Z</time>
      </trkpt>
      <trkpt lat="45.85579" lon="6.25273">
        <ele>1487</ele>
        <time>2010-04-23T19:31:05Z</time>
      </trkpt>
      <trkpt lat="45.85585" lon="6.25268">
        <ele>1486</ele>
        <time>2010-04-23T19:31:07Z</time>
      </trkpt>
      <trkpt lat="45.8559" lon="6.25262">
        <ele>1484</ele>
        <time>2010-04-23T19:31:09Z</time>
      </trkpt>
      <trkpt lat="45.85596" lon="6.25258">
        <ele>1483</ele>
        <time>2010-04-23T19:31:11Z</time>
      </trkpt>
      <trkpt lat="45.85601" lon="6.25253">
        <ele>1481</ele>
        <time>2010-04-23T19:31:13Z</time>
      </trkpt>
      <trkpt lat="45.85607" lon="6.25249">
        <ele>1480</ele>
        <time>2010-04-23T19:31:15Z</time>
      </trkpt>
      <trkpt lat="45.85611" lon="6.25244">
        <ele>1479</ele>
        <time>2010-04-23T19:31:17Z</time>
      </trkpt>
      <trkpt lat="45.85616" lon="6.25241">
        <ele>1477</ele>
        <time>2010-04-23T19:31:19Z</time>
      </trkpt>
      <trkpt lat="45.85622" lon="6.25236">
        <ele>1475</ele>
        <time>2010-04-23T19:31:21Z</time>
      </trkpt>
      <trkpt lat="45.85628" lon="6.25232">
        <ele>1473</ele>
        <time>2010-04-23T19:31:23Z</time>
      </trkpt>
      <trkpt lat="45.85634" lon="6.25228">
        <ele>1471</ele>
        <time>2010-04-23T19:31:25Z</time>
      </trkpt>
      <trkpt lat="45.85639" lon="6.25222">
        <ele>1470</ele>
        <time>2010-04-23T19:31:27Z</time>
      </trkpt>
      <trkpt lat="45.85646" lon="6.25216">
        <ele>1468</ele>
        <time>2010-04-23T19:31:29Z</time>
      </trkpt>
      <trkpt lat="45.85652" lon="6.25213">
        <ele>1466</ele>
        <time>2010-04-23T19:31:31Z</time>
      </trkpt>
      <trkpt lat="45.85657" lon="6.2521">
        <ele>1464</ele>
        <time>2010-04-23T19:31:33Z</time>
      </trkpt>
      <trkpt lat="45.85662" lon="6.25207">
        <ele>1463</ele>
        <time>2010-04-23T19:31:35Z</time>
      </trkpt>
      <trkpt lat="45.85667" lon="6.25204">
        <ele>1462</ele>
        <time>2010-04-23T19:31:37Z</time>
      </trkpt>
      <trkpt lat="45.85672" lon="6.25202">
        <ele>1460</ele>
        <time>2010-04-23T19:31:39Z</time>
      </trkpt>
      <trkpt lat="45.85679" lon="6.252">
        <ele>1459</ele>
        <time>2010-04-23T19:31:41Z</time>
      </trkpt>
      <trkpt lat="45.85685" lon="6.25197">
        <ele>1459</ele>
        <time>2010-04-23T19:31:43Z</time>
      </trkpt>
      <trkpt lat="45.85691" lon="6.25193">
        <ele>1458</ele>
        <time>2010-04-23T19:31:45Z</time>
      </trkpt>
      <trkpt lat="45.85697" lon="6.25187">
        <ele>1457</ele>
        <time>2010-04-23T19:31:47Z</time>
      </trkpt>
      <trkpt lat="45.85704" lon="6.25183">
        <ele>1456</ele>
        <time>2010-04-23T19:31:49Z</time>
      </trkpt>
      <trkpt lat="45.8571" lon="6.25179">
        <ele>1455</ele>
        <time>2010-04-23T19:31:51Z</time>
      </trkpt>
      <trkpt lat="45.85717" lon="6.25178">
        <ele>1454</ele>
        <time>2010-04-23T19:31:53Z</time>
      </trkpt>
      <trkpt lat="45.85722" lon="6.25177">
        <ele>1453</ele>
        <time>2010-04-23T19:31:55Z</time>
      </trkpt>
      <trkpt lat="45.85728" lon="6.25174">
        <ele>1452</ele>
        <time>2010-04-23T19:31:57Z</time>
      </trkpt>
      <trkpt lat="45.85734" lon="6.25171">
        <ele>1451</ele>
        <time>2010-04-23T19:31:59Z</time>
      </trkpt>
      <trkpt lat="45.8574" lon="6.25168">
        <ele>1450</ele>
        <time>2010-04-23T19:32:01Z</time>
      </trkpt>
      <trkpt lat="45.85745" lon="6.25165">
        <ele>1450</ele>
        <time>2010-04-23T19:32:03Z</time>
      </trkpt>
      <trkpt lat="45.85749" lon="6.25159">
        <ele>1449</ele>
        <time>2010-04-23T19:32:05Z</time>
      </trkpt>
      <trkpt lat="45.85755" lon="6.25154">
        <ele>1449</ele>
        <time>2010-04-23T19:32:07Z</time>
      </trkpt>
      <trkpt lat="45.85761" lon="6.25147">
        <ele>1449</ele>
        <time>2010-04-23T19:32:09Z</time>
      </trkpt>
      <trkpt lat="45.85766" lon="6.25144">
        <ele>1449</ele>
        <time>2010-04-23T19:32:11Z</time>
      </trkpt>
      <trkpt lat="45.85772" lon="6.25141">
        <ele>1449</ele>
        <time>2010-04-23T19:32:13Z</time>
      </trkpt>
      <trkpt lat="45.85779" lon="6.2514">
        <ele>1449</ele>
        <time>2010-04-23T19:32:15Z</time>
      </trkpt>
      <trkpt lat="45.85785" lon="6.25137">
        <ele>1448</ele>
        <time>2010-04-23T19:32:17Z</time>
      </trkpt>
      <trkpt lat="45.85791" lon="6.25133">
        <ele>1447</ele>
        <time>2010-04-23T19:32:19Z</time>
      </trkpt>
      <trkpt lat="45.85794" lon="6.25129">
        <ele>1445</ele>
        <time>2010-04-23T19:32:21Z</time>
      </trkpt>
      <trkpt lat="45.85799" lon="6.25125">
        <ele>1444</ele>
        <time>2010-04-23T19:32:23Z</time>
      </trkpt>
      <trkpt lat="45.85804" lon="6.25121">
        <ele>1443</ele>
        <time>2010-04-23T19:32:25Z</time>
      </trkpt>
      <trkpt lat="45.8581" lon="6.25118">
        <ele>1443</ele>
        <time>2010-04-23T19:32:27Z</time>
      </trkpt>
      <trkpt lat="45.85816" lon="6.25115">
        <ele>1442</ele>
        <time>2010-04-23T19:32:29Z</time>
      </trkpt>
      <trkpt lat="45.8582" lon="6.25109">
        <ele>1442</ele>
        <time>2010-04-23T19:32:31Z</time>
      </trkpt>
      <trkpt lat="45.85824" lon="6.25106">
        <ele>1441</ele>
        <time>2010-04-23T19:32:33Z</time>
      </trkpt>
      <trkpt lat="45.85829" lon="6.25103">
        <ele>1440</ele>
        <time>2010-04-23T19:32:35Z</time>
      </trkpt>
      <trkpt lat="45.85834" lon="6.25101">
        <ele>1440</ele>
        <time>2010-04-23T19:32:37Z</time>
      </trkpt>
      <trkpt lat="45.85838" lon="6.25098">
        <ele>1439</ele>
        <time>2010-04-23T19:32:39Z</time>
      </trkpt>
      <trkpt lat="45.85842" lon="6.25094">
        <ele>1438</ele>
        <time>2010-04-23T19:32:41Z</time>
      </trkpt>
      <trkpt lat="45.85844" lon="6.25089">
        <ele>1438</ele>
        <time>2010-04-23T19:32:44Z</time>
      </trkpt>
      <trkpt lat="45.85844" lon="6.25087">
        <ele>1438</ele>
        <time>2010-04-23T19:32:47Z</time>
      </trkpt>
      <trkpt lat="45.85845" lon="6.25084">
        <ele>1438</ele>
        <time>2010-04-23T19:32:55Z</time>
      </trkpt>
      <trkpt lat="45.85848" lon="6.25081">
        <ele>1437</ele>
        <time>2010-04-23T19:32:57Z</time>
      </trkpt>
      <trkpt lat="45.85852" lon="6.2508">
        <ele>1437</ele>
        <time>2010-04-23T19:32:59Z</time>
      </trkpt>
      <trkpt lat="45.85857" lon="6.25079">
        <ele>1437</ele>
        <time>2010-04-23T19:33:01Z</time>
      </trkpt>
      <trkpt lat="45.85859" lon="6.25078">
        <ele>1437</ele>
        <time>2010-04-23T19:33:03Z</time>
      </trkpt>
      <trkpt lat="45.85862" lon="6.25076">
        <ele>1436</ele>
        <time>2010-04-23T19:33:05Z</time>
      </trkpt>
      <trkpt lat="45.85865" lon="6.25074">
        <ele>1436</ele>
        <time>2010-04-23T19:33:07Z</time>
      </trkpt>
      <trkpt lat="45.85867" lon="6.25071">
        <ele>1436</ele>
        <time>2010-04-23T19:33:09Z</time>
      </trkpt>
      <trkpt lat="45.85871" lon="6.25068">
        <ele>1435</ele>
        <time>2010-04-23T19:33:11Z</time>
      </trkpt>
      <trkpt lat="45.85875" lon="6.25063">
        <ele>1435</ele>
        <time>2010-04-23T19:33:13Z</time>
      </trkpt>
      <trkpt lat="45.85879" lon="6.25059">
        <ele>1434</ele>
        <time>2010-04-23T19:33:15Z</time>
      </trkpt>
      <trkpt lat="45.85883" lon="6.25055">
        <ele>1434</ele>
        <time>2010-04-23T19:33:17Z</time>
      </trkpt>
      <trkpt lat="45.85887" lon="6.25051">
        <ele>1433</ele>
        <time>2010-04-23T19:33:19Z</time>
      </trkpt>
      <trkpt lat="45.85891" lon="6.25049">
        <ele>1433</ele>
        <time>2010-04-23T19:33:21Z</time>
      </trkpt>
      <trkpt lat="45.85895" lon="6.25045">
        <ele>1433</ele>
        <time>2010-04-23T19:33:23Z</time>
      </trkpt>
      <trkpt lat="45.85899" lon="6.2504">
        <ele>1433</ele>
        <time>2010-04-23T19:33:25Z</time>
      </trkpt>
      <trkpt lat="45.85902" lon="6.25036">
        <ele>1433</ele>
        <time>2010-04-23T19:33:27Z</time>
      </trkpt>
      <trkpt lat="45.85906" lon="6.25032">
        <ele>1433</ele>
        <time>2010-04-23T19:33:29Z</time>
      </trkpt>
      <trkpt lat="45.85908" lon="6.25026">
        <ele>1433</ele>
        <time>2010-04-23T19:33:31Z</time>
      </trkpt>
      <trkpt lat="45.85909" lon="6.25027">
        <ele>1433</ele>
        <time>2010-04-23T19:33:35Z</time>
      </trkpt>
      <trkpt lat="45.8591" lon="6.25034">
        <ele>1433</ele>
        <time>2010-04-23T19:33:38Z</time>
      </trkpt>
      <trkpt lat="45.85912" lon="6.25039">
        <ele>1433</ele>
        <time>2010-04-23T19:33:40Z</time>
      </trkpt>
      <trkpt lat="45.85916" lon="6.25041">
        <ele>1433</ele>
        <time>2010-04-23T19:33:42Z</time>
      </trkpt>
      <trkpt lat="45.85922" lon="6.25042">
        <ele>1433</ele>
        <time>2010-04-23T19:33:44Z</time>
      </trkpt>
      <trkpt lat="45.85927" lon="6.25043">
        <ele>1433</ele>
        <time>2010-04-23T19:33:46Z</time>
      </trkpt>
      <trkpt lat="45.85932" lon="6.25043">
        <ele>1433</ele>
        <time>2010-04-23T19:33:48Z</time>
      </trkpt>
      <trkpt lat="45.85938" lon="6.25041">
        <ele>1432</ele>
        <time>2010-04-23T19:33:50Z</time>
      </trkpt>
      <trkpt lat="45.85943" lon="6.25039">
        <ele>1432</ele>
        <time>2010-04-23T19:33:52Z</time>
      </trkpt>
      <trkpt lat="45.85946" lon="6.25035">
        <ele>1431</ele>
        <time>2010-04-23T19:33:54Z</time>
      </trkpt>
      <trkpt lat="45.85948" lon="6.25029">
        <ele>1431</ele>
        <time>2010-04-23T19:33:56Z</time>
      </trkpt>
      <trkpt lat="45.85951" lon="6.25024">
        <ele>1430</ele>
        <time>2010-04-23T19:33:58Z</time>
      </trkpt>
      <trkpt lat="45.85955" lon="6.25019">
        <ele>1429</ele>
        <time>2010-04-23T19:34:00Z</time>
      </trkpt>
      <trkpt lat="45.8596" lon="6.25019">
        <ele>1427</ele>
        <time>2010-04-23T19:34:02Z</time>
      </trkpt>
      <trkpt lat="45.85966" lon="6.25018">
        <ele>1426</ele>
        <time>2010-04-23T19:34:04Z</time>
      </trkpt>
      <trkpt lat="45.85971" lon="6.25017">
        <ele>1425</ele>
        <time>2010-04-23T19:34:06Z</time>
      </trkpt>
      <trkpt lat="45.85975" lon="6.25013">
        <ele>1423</ele>
        <time>2010-04-23T19:34:08Z</time>
      </trkpt>
      <trkpt lat="45.85978" lon="6.25012">
        <ele>1423</ele>
        <time>2010-04-23T19:34:10Z</time>
      </trkpt>
      <trkpt lat="45.85982" lon="6.25012">
        <ele>1422</ele>
        <time>2010-04-23T19:34:12Z</time>
      </trkpt>
      <trkpt lat="45.85987" lon="6.25013">
        <ele>1420</ele>
        <time>2010-04-23T19:34:14Z</time>
      </trkpt>
      <trkpt lat="45.85992" lon="6.25012">
        <ele>1419</ele>
        <time>2010-04-23T19:34:16Z</time>
      </trkpt>
      <trkpt lat="45.85997" lon="6.25008">
        <ele>1417</ele>
        <time>2010-04-23T19:34:18Z</time>
      </trkpt>
      <trkpt lat="45.86" lon="6.25003">
        <ele>1415</ele>
        <time>2010-04-23T19:34:20Z</time>
      </trkpt>
      <trkpt lat="45.86004" lon="6.25">
        <ele>1414</ele>
        <time>2010-04-23T19:34:22Z</time>
      </trkpt>
      <trkpt lat="45.86009" lon="6.24997">
        <ele>1413</ele>
        <time>2010-04-23T19:34:24Z</time>
      </trkpt>
      <trkpt lat="45.86014" lon="6.24995">
        <ele>1411</ele>
        <time>2010-04-23T19:34:26Z</time>
      </trkpt>
      <trkpt lat="45.86019" lon="6.24992">
        <ele>1409</ele>
        <time>2010-04-23T19:34:28Z</time>
      </trkpt>
      <trkpt lat="45.86023" lon="6.24989">
        <ele>1407</ele>
        <time>2010-04-23T19:34:30Z</time>
      </trkpt>
      <trkpt lat="45.86029" lon="6.24986">
        <ele>1405</ele>
        <time>2010-04-23T19:34:32Z</time>
      </trkpt>
      <trkpt lat="45.86033" lon="6.2498">
        <ele>1404</ele>
        <time>2010-04-23T19:34:34Z</time>
      </trkpt>
      <trkpt lat="45.86037" lon="6.24975">
        <ele>1402</ele>
        <time>2010-04-23T19:34:36Z</time>
      </trkpt>
      <trkpt lat="45.8604" lon="6.2497">
        <ele>1401</ele>
        <time>2010-04-23T19:34:38Z</time>
      </trkpt>
      <trkpt lat="45.86044" lon="6.24963">
        <ele>1400</ele>
        <time>2010-04-23T19:34:40Z</time>
      </trkpt>
      <trkpt lat="45.86046" lon="6.24957">
        <ele>1399</ele>
        <time>2010-04-23T19:34:42Z</time>
      </trkpt>
      <trkpt lat="45.86048" lon="6.2495">
        <ele>1397</ele>
        <time>2010-04-23T19:34:44Z</time>
      </trkpt>
      <trkpt lat="45.8605" lon="6.24945">
        <ele>1396</ele>
        <time>2010-04-23T19:34:46Z</time>
      </trkpt>
      <trkpt lat="45.86052" lon="6.24937">
        <ele>1396</ele>
        <time>2010-04-23T19:34:48Z</time>
      </trkpt>
      <trkpt lat="45.86053" lon="6.24928">
        <ele>1395</ele>
        <time>2010-04-23T19:34:50Z</time>
      </trkpt>
      <trkpt lat="45.86056" lon="6.24923">
        <ele>1395</ele>
        <time>2010-04-23T19:34:52Z</time>
      </trkpt>
      <trkpt lat="45.86058" lon="6.24917">
        <ele>1394</ele>
        <time>2010-04-23T19:34:54Z</time>
      </trkpt>
      <trkpt lat="45.8606" lon="6.24911">
        <ele>1394</ele>
        <time>2010-04-23T19:34:56Z</time>
      </trkpt>
      <trkpt lat="45.86061" lon="6.24906">
        <ele>1394</ele>
        <time>2010-04-23T19:34:58Z</time>
      </trkpt>
      <trkpt lat="45.86062" lon="6.24897">
        <ele>1394</ele>
        <time>2010-04-23T19:35:00Z</time>
      </trkpt>
      <trkpt lat="45.86059" lon="6.24877">
        <ele>1394</ele>
        <time>2010-04-23T19:35:02Z</time>
      </trkpt>
      <trkpt lat="45.86065" lon="6.24884">
        <ele>1394</ele>
        <time>2010-04-23T19:35:04Z</time>
      </trkpt>
      <trkpt lat="45.86065" lon="6.24894">
        <ele>1393</ele>
        <time>2010-04-23T19:35:06Z</time>
      </trkpt>
      <trkpt lat="45.86064" lon="6.24901">
        <ele>1391</ele>
        <time>2010-04-23T19:35:08Z</time>
      </trkpt>
      <trkpt lat="45.86061" lon="6.24905">
        <ele>1390</ele>
        <time>2010-04-23T19:35:10Z</time>
      </trkpt>
      <trkpt lat="45.8606" lon="6.24908">
        <ele>1390</ele>
        <time>2010-04-23T19:35:12Z</time>
      </trkpt>
      <trkpt lat="45.8606" lon="6.24911">
        <ele>1390</ele>
        <time>2010-04-23T19:35:14Z</time>
      </trkpt>
      <trkpt lat="45.8606" lon="6.24917">
        <ele>1390</ele>
        <time>2010-04-23T19:35:16Z</time>
      </trkpt>
      <trkpt lat="45.86062" lon="6.24924">
        <ele>1390</ele>
        <time>2010-04-23T19:35:18Z</time>
      </trkpt>
      <trkpt lat="45.86063" lon="6.24932">
        <ele>1390</ele>
        <time>2010-04-23T19:35:20Z</time>
      </trkpt>
      <trkpt lat="45.86065" lon="6.2494">
        <ele>1391</ele>
        <time>2010-04-23T19:35:22Z</time>
      </trkpt>
      <trkpt lat="45.86068" lon="6.2495">
        <ele>1393</ele>
        <time>2010-04-23T19:35:24Z</time>
      </trkpt>
      <trkpt lat="45.86071" lon="6.2496">
        <ele>1395</ele>
        <time>2010-04-23T19:35:26Z</time>
      </trkpt>
      <trkpt lat="45.86076" lon="6.24971">
        <ele>1397</ele>
        <time>2010-04-23T19:35:28Z</time>
      </trkpt>
      <trkpt lat="45.8608" lon="6.24983">
        <ele>1399</ele>
        <time>2010-04-23T19:35:30Z</time>
      </trkpt>
      <trkpt lat="45.86084" lon="6.24992">
        <ele>1401</ele>
        <time>2010-04-23T19:35:32Z</time>
      </trkpt>
      <trkpt lat="45.86088" lon="6.24998">
        <ele>1402</ele>
        <time>2010-04-23T19:35:34Z</time>
      </trkpt>
      <trkpt lat="45.86091" lon="6.25005">
        <ele>1402</ele>
        <time>2010-04-23T19:35:36Z</time>
      </trkpt>
      <trkpt lat="45.86093" lon="6.25011">
        <ele>1402</ele>
        <time>2010-04-23T19:35:38Z</time>
      </trkpt>
      <trkpt lat="45.86099" lon="6.25016">
        <ele>1400</ele>
        <time>2010-04-23T19:35:40Z</time>
      </trkpt>
      <trkpt lat="45.86105" lon="6.25014">
        <ele>1398</ele>
        <time>2010-04-23T19:35:42Z</time>
      </trkpt>
      <trkpt lat="45.86109" lon="6.25007">
        <ele>1394</ele>
        <time>2010-04-23T19:35:44Z</time>
      </trkpt>
      <trkpt lat="45.86113" lon="6.25002">
        <ele>1390</ele>
        <time>2010-04-23T19:35:46Z</time>
      </trkpt>
      <trkpt lat="45.86115" lon="6.24996">
        <ele>1386</ele>
        <time>2010-04-23T19:35:48Z</time>
      </trkpt>
      <trkpt lat="45.86116" lon="6.2499">
        <ele>1383</ele>
        <time>2010-04-23T19:35:50Z</time>
      </trkpt>
      <trkpt lat="45.86117" lon="6.24984">
        <ele>1381</ele>
        <time>2010-04-23T19:35:52Z</time>
      </trkpt>
      <trkpt lat="45.8612" lon="6.2498">
        <ele>1379</ele>
        <time>2010-04-23T19:35:54Z</time>
      </trkpt>
      <trkpt lat="45.86125" lon="6.24978">
        <ele>1377</ele>
        <time>2010-04-23T19:35:56Z</time>
      </trkpt>
      <trkpt lat="45.86126" lon="6.24971">
        <ele>1375</ele>
        <time>2010-04-23T19:35:58Z</time>
      </trkpt>
      <trkpt lat="45.86127" lon="6.24965">
        <ele>1373</ele>
        <time>2010-04-23T19:36:00Z</time>
      </trkpt>
      <trkpt lat="45.86129" lon="6.24962">
        <ele>1371</ele>
        <time>2010-04-23T19:36:02Z</time>
      </trkpt>
      <trkpt lat="45.86132" lon="6.24956">
        <ele>1369</ele>
        <time>2010-04-23T19:36:05Z</time>
      </trkpt>
      <trkpt lat="45.86132" lon="6.24945">
        <ele>1368</ele>
        <time>2010-04-23T19:36:07Z</time>
      </trkpt>
      <trkpt lat="45.86131" lon="6.24936">
        <ele>1368</ele>
        <time>2010-04-23T19:36:09Z</time>
      </trkpt>
      <trkpt lat="45.86132" lon="6.24932">
        <ele>1368</ele>
        <time>2010-04-23T19:36:11Z</time>
      </trkpt>
      <trkpt lat="45.86134" lon="6.24926">
        <ele>1368</ele>
        <time>2010-04-23T19:36:13Z</time>
      </trkpt>
      <trkpt lat="45.86136" lon="6.24923">
        <ele>1368</ele>
        <time>2010-04-23T19:36:15Z</time>
      </trkpt>
      <trkpt lat="45.86139" lon="6.24922">
        <ele>1368</ele>
        <time>2010-04-23T19:36:17Z</time>
      </trkpt>
      <trkpt lat="45.86142" lon="6.24918">
        <ele>1368</ele>
        <time>2010-04-23T19:36:19Z</time>
      </trkpt>
      <trkpt lat="45.86143" lon="6.24909">
        <ele>1368</ele>
        <time>2010-04-23T19:36:21Z</time>
      </trkpt>
      <trkpt lat="45.86146" lon="6.24905">
        <ele>1368</ele>
        <time>2010-04-23T19:36:23Z</time>
      </trkpt>
      <trkpt lat="45.86151" lon="6.24901">
        <ele>1368</ele>
        <time>2010-04-23T19:36:25Z</time>
      </trkpt>
      <trkpt lat="45.86156" lon="6.24897">
        <ele>1369</ele>
        <time>2010-04-23T19:36:27Z</time>
      </trkpt>
      <trkpt lat="45.86159" lon="6.24893">
        <ele>1369</ele>
        <time>2010-04-23T19:36:29Z</time>
      </trkpt>
      <trkpt lat="45.86162" lon="6.2489">
        <ele>1370</ele>
        <time>2010-04-23T19:36:31Z</time>
      </trkpt>
      <trkpt lat="45.86166" lon="6.24889">
        <ele>1370</ele>
        <time>2010-04-23T19:36:33Z</time>
      </trkpt>
      <trkpt lat="45.86169" lon="6.24887">
        <ele>1372</ele>
        <time>2010-04-23T19:36:35Z</time>
      </trkpt>
      <trkpt lat="45.86173" lon="6.24887">
        <ele>1372</ele>
        <time>2010-04-23T19:36:37Z</time>
      </trkpt>
      <trkpt lat="45.86177" lon="6.24886">
        <ele>1373</ele>
        <time>2010-04-23T19:36:39Z</time>
      </trkpt>
      <trkpt lat="45.86182" lon="6.24886">
        <ele>1373</ele>
        <time>2010-04-23T19:36:41Z</time>
      </trkpt>
      <trkpt lat="45.86187" lon="6.24886">
        <ele>1373</ele>
        <time>2010-04-23T19:36:43Z</time>
      </trkpt>
      <trkpt lat="45.86192" lon="6.24885">
        <ele>1373</ele>
        <time>2010-04-23T19:36:45Z</time>
      </trkpt>
      <trkpt lat="45.86197" lon="6.24886">
        <ele>1374</ele>
        <time>2010-04-23T19:36:47Z</time>
      </trkpt>
      <trkpt lat="45.86203" lon="6.24887">
        <ele>1374</ele>
        <time>2010-04-23T19:36:49Z</time>
      </trkpt>
      <trkpt lat="45.86208" lon="6.24886">
        <ele>1374</ele>
        <time>2010-04-23T19:36:51Z</time>
      </trkpt>
      <trkpt lat="45.86214" lon="6.24886">
        <ele>1374</ele>
        <time>2010-04-23T19:36:53Z</time>
      </trkpt>
      <trkpt lat="45.86221" lon="6.24884">
        <ele>1374</ele>
        <time>2010-04-23T19:36:55Z</time>
      </trkpt>
      <trkpt lat="45.86226" lon="6.24879">
        <ele>1374</ele>
        <time>2010-04-23T19:36:57Z</time>
      </trkpt>
      <trkpt lat="45.8623" lon="6.24882">
        <ele>1374</ele>
        <time>2010-04-23T19:36:59Z</time>
      </trkpt>
      <trkpt lat="45.86234" lon="6.24889">
        <ele>1372</ele>
        <time>2010-04-23T19:37:01Z</time>
      </trkpt>
      <trkpt lat="45.86237" lon="6.24892">
        <ele>1367</ele>
        <time>2010-04-23T19:37:03Z</time>
      </trkpt>
      <trkpt lat="45.86239" lon="6.24895">
        <ele>1361</ele>
        <time>2010-04-23T19:37:05Z</time>
      </trkpt>
      <trkpt lat="45.86242" lon="6.24898">
        <ele>1354</ele>
        <time>2010-04-23T19:37:07Z</time>
      </trkpt>
      <trkpt lat="45.86243" lon="6.24906">
        <ele>1348</ele>
        <time>2010-04-23T19:37:09Z</time>
      </trkpt>
      <trkpt lat="45.86244" lon="6.24913">
        <ele>1342</ele>
        <time>2010-04-23T19:37:11Z</time>
      </trkpt>
      <trkpt lat="45.86242" lon="6.24918">
        <ele>1336</ele>
        <time>2010-04-23T19:37:13Z</time>
      </trkpt>
      <trkpt lat="45.8624" lon="6.24925">
        <ele>1330</ele>
        <time>2010-04-23T19:37:15Z</time>
      </trkpt>
      <trkpt lat="45.86238" lon="6.24931">
        <ele>1324</ele>
        <time>2010-04-23T19:37:17Z</time>
      </trkpt>
      <trkpt lat="45.86235" lon="6.24936">
        <ele>1320</ele>
        <time>2010-04-23T19:37:19Z</time>
      </trkpt>
      <trkpt lat="45.86233" lon="6.2494">
        <ele>1316</ele>
        <time>2010-04-23T19:37:21Z</time>
      </trkpt>
      <trkpt lat="45.86232" lon="6.24944">
        <ele>1312</ele>
        <time>2010-04-23T19:37:23Z</time>
      </trkpt>
      <trkpt lat="45.86234" lon="6.24943">
        <ele>1306</ele>
        <time>2010-04-23T19:37:26Z</time>
      </trkpt>
      <trkpt lat="45.86238" lon="6.24942">
        <ele>1303</ele>
        <time>2010-04-23T19:37:28Z</time>
      </trkpt>
      <trkpt lat="45.86243" lon="6.2494">
        <ele>1301</ele>
        <time>2010-04-23T19:37:30Z</time>
      </trkpt>
      <trkpt lat="45.86247" lon="6.24938">
        <ele>1299</ele>
        <time>2010-04-23T19:37:32Z</time>
      </trkpt>
      <trkpt lat="45.86254" lon="6.2494">
        <ele>1297</ele>
        <time>2010-04-23T19:37:34Z</time>
      </trkpt>
      <trkpt lat="45.86261" lon="6.24941">
        <ele>1295</ele>
        <time>2010-04-23T19:37:36Z</time>
      </trkpt>
      <trkpt lat="45.86267" lon="6.24939">
        <ele>1293</ele>
        <time>2010-04-23T19:37:38Z</time>
      </trkpt>
      <trkpt lat="45.8627" lon="6.24935">
        <ele>1291</ele>
        <time>2010-04-23T19:37:40Z</time>
      </trkpt>
      <trkpt lat="45.86272" lon="6.24929">
        <ele>1289</ele>
        <time>2010-04-23T19:37:42Z</time>
      </trkpt>
      <trkpt lat="45.86274" lon="6.24923">
        <ele>1287</ele>
        <time>2010-04-23T19:37:44Z</time>
      </trkpt>
      <trkpt lat="45.86275" lon="6.24917">
        <ele>1286</ele>
        <time>2010-04-23T19:37:46Z</time>
      </trkpt>
      <trkpt lat="45.86276" lon="6.24911">
        <ele>1286</ele>
        <time>2010-04-23T19:37:48Z</time>
      </trkpt>
      <trkpt lat="45.86277" lon="6.24904">
        <ele>1285</ele>
        <time>2010-04-23T19:37:50Z</time>
      </trkpt>
      <trkpt lat="45.8628" lon="6.24893">
        <ele>1285</ele>
        <time>2010-04-23T19:37:52Z</time>
      </trkpt>
      <trkpt lat="45.86279" lon="6.24884">
        <ele>1285</ele>
        <time>2010-04-23T19:37:54Z</time>
      </trkpt>
      <trkpt lat="45.8628" lon="6.24879">
        <ele>1284</ele>
        <time>2010-04-23T19:37:57Z</time>
      </trkpt>
      <trkpt lat="45.86283" lon="6.24878">
        <ele>1282</ele>
        <time>2010-04-23T19:38:00Z</time>
      </trkpt>
      <trkpt lat="45.86284" lon="6.24876">
        <ele>1282</ele>
        <time>2010-04-23T19:38:02Z</time>
      </trkpt>
      <trkpt lat="45.86284" lon="6.24872">
        <ele>1282</ele>
        <time>2010-04-23T19:38:06Z</time>
      </trkpt>
      <trkpt lat="45.86284" lon="6.2487">
        <ele>1283</ele>
        <time>2010-04-23T19:38:08Z</time>
      </trkpt>
      <trkpt lat="45.86288" lon="6.24868">
        <ele>1285</ele>
        <time>2010-04-23T19:38:10Z</time>
      </trkpt>
      <trkpt lat="45.86288" lon="6.24862">
        <ele>1287</ele>
        <time>2010-04-23T19:38:12Z</time>
      </trkpt>
      <trkpt lat="45.86289" lon="6.24859">
        <ele>1291</ele>
        <time>2010-04-23T19:38:14Z</time>
      </trkpt>
      <trkpt lat="45.86294" lon="6.2486">
        <ele>1295</ele>
        <time>2010-04-23T19:38:16Z</time>
      </trkpt>
      <trkpt lat="45.86301" lon="6.24857">
        <ele>1299</ele>
        <time>2010-04-23T19:38:18Z</time>
      </trkpt>
      <trkpt lat="45.86301" lon="6.24848">
        <ele>1303</ele>
        <time>2010-04-23T19:38:20Z</time>
      </trkpt>
      <trkpt lat="45.86306" lon="6.24847">
        <ele>1305</ele>
        <time>2010-04-23T19:38:22Z</time>
      </trkpt>
      <trkpt lat="45.86308" lon="6.24852">
        <ele>1307</ele>
        <time>2010-04-23T19:38:24Z</time>
      </trkpt>
      <trkpt lat="45.86309" lon="6.24859">
        <ele>1308</ele>
        <time>2010-04-23T19:38:27Z</time>
      </trkpt>
      <trkpt lat="45.86312" lon="6.24865">
        <ele>1307</ele>
        <time>2010-04-23T19:38:29Z</time>
      </trkpt>
      <trkpt lat="45.86316" lon="6.24867">
        <ele>1305</ele>
        <time>2010-04-23T19:38:31Z</time>
      </trkpt>
      <trkpt lat="45.86319" lon="6.24869">
        <ele>1303</ele>
        <time>2010-04-23T19:38:33Z</time>
      </trkpt>
      <trkpt lat="45.86323" lon="6.24869">
        <ele>1301</ele>
        <time>2010-04-23T19:38:35Z</time>
      </trkpt>
      <trkpt lat="45.8633" lon="6.24874">
        <ele>1298</ele>
        <time>2010-04-23T19:38:37Z</time>
      </trkpt>
      <trkpt lat="45.86333" lon="6.24876">
        <ele>1294</ele>
        <time>2010-04-23T19:38:39Z</time>
      </trkpt>
      <trkpt lat="45.86336" lon="6.24875">
        <ele>1290</ele>
        <time>2010-04-23T19:38:41Z</time>
      </trkpt>
      <trkpt lat="45.86339" lon="6.24872">
        <ele>1286</ele>
        <time>2010-04-23T19:38:43Z</time>
      </trkpt>
      <trkpt lat="45.86345" lon="6.24869">
        <ele>1283</ele>
        <time>2010-04-23T19:38:45Z</time>
      </trkpt>
      <trkpt lat="45.86353" lon="6.24869">
        <ele>1281</ele>
        <time>2010-04-23T19:38:47Z</time>
      </trkpt>
      <trkpt lat="45.86361" lon="6.24868">
        <ele>1279</ele>
        <time>2010-04-23T19:38:49Z</time>
      </trkpt>
      <trkpt lat="45.86367" lon="6.24865">
        <ele>1277</ele>
        <time>2010-04-23T19:38:51Z</time>
      </trkpt>
      <trkpt lat="45.86372" lon="6.24863">
        <ele>1275</ele>
        <time>2010-04-23T19:38:53Z</time>
      </trkpt>
      <trkpt lat="45.86375" lon="6.24862">
        <ele>1273</ele>
        <time>2010-04-23T19:38:55Z</time>
      </trkpt>
      <trkpt lat="45.86376" lon="6.2486">
        <ele>1270</ele>
        <time>2010-04-23T19:38:57Z</time>
      </trkpt>
      <trkpt lat="45.86378" lon="6.24857">
        <ele>1267</ele>
        <time>2010-04-23T19:38:59Z</time>
      </trkpt>
      <trkpt lat="45.86382" lon="6.24854">
        <ele>1265</ele>
        <time>2010-04-23T19:39:01Z</time>
      </trkpt>
      <trkpt lat="45.86383" lon="6.24843">
        <ele>1263</ele>
        <time>2010-04-23T19:39:03Z</time>
      </trkpt>
      <trkpt lat="45.86384" lon="6.24837">
        <ele>1261</ele>
        <time>2010-04-23T19:39:05Z</time>
      </trkpt>
      <trkpt lat="45.86386" lon="6.24827">
        <ele>1259</ele>
        <time>2010-04-23T19:39:07Z</time>
      </trkpt>
      <trkpt lat="45.86393" lon="6.24826">
        <ele>1259</ele>
        <time>2010-04-23T19:39:09Z</time>
      </trkpt>
      <trkpt lat="45.86399" lon="6.24828">
        <ele>1259</ele>
        <time>2010-04-23T19:39:11Z</time>
      </trkpt>
      <trkpt lat="45.86408" lon="6.24833">
        <ele>1259</ele>
        <time>2010-04-23T19:39:13Z</time>
      </trkpt>
      <trkpt lat="45.86415" lon="6.24839">
        <ele>1259</ele>
        <time>2010-04-23T19:39:15Z</time>
      </trkpt>
      <trkpt lat="45.8642" lon="6.24841">
        <ele>1259</ele>
        <time>2010-04-23T19:39:17Z</time>
      </trkpt>
      <trkpt lat="45.86427" lon="6.24842">
        <ele>1259</ele>
        <time>2010-04-23T19:39:19Z</time>
      </trkpt>
      <trkpt lat="45.86435" lon="6.24844">
        <ele>1259</ele>
        <time>2010-04-23T19:39:21Z</time>
      </trkpt>
      <trkpt lat="45.86443" lon="6.24849">
        <ele>1259</ele>
        <time>2010-04-23T19:39:23Z</time>
      </trkpt>
      <trkpt lat="45.86448" lon="6.24852">
        <ele>1259</ele>
        <time>2010-04-23T19:39:25Z</time>
      </trkpt>
      <trkpt lat="45.86454" lon="6.24854">
        <ele>1259</ele>
        <time>2010-04-23T19:39:27Z</time>
      </trkpt>
      <trkpt lat="45.86459" lon="6.24856">
        <ele>1258</ele>
        <time>2010-04-23T19:39:29Z</time>
      </trkpt>
      <trkpt lat="45.86465" lon="6.24856">
        <ele>1256</ele>
        <time>2010-04-23T19:39:31Z</time>
      </trkpt>
      <trkpt lat="45.86471" lon="6.24855">
        <ele>1254</ele>
        <time>2010-04-23T19:39:33Z</time>
      </trkpt>
      <trkpt lat="45.86477" lon="6.24854">
        <ele>1250</ele>
        <time>2010-04-23T19:39:35Z</time>
      </trkpt>
      <trkpt lat="45.86482" lon="6.24852">
        <ele>1246</ele>
        <time>2010-04-23T19:39:37Z</time>
      </trkpt>
      <trkpt lat="45.86486" lon="6.24853">
        <ele>1242</ele>
        <time>2010-04-23T19:39:39Z</time>
      </trkpt>
      <trkpt lat="45.86491" lon="6.24852">
        <ele>1240</ele>
        <time>2010-04-23T19:39:41Z</time>
      </trkpt>
      <trkpt lat="45.86495" lon="6.24852">
        <ele>1238</ele>
        <time>2010-04-23T19:39:43Z</time>
      </trkpt>
      <trkpt lat="45.86499" lon="6.24854">
        <ele>1236</ele>
        <time>2010-04-23T19:39:45Z</time>
      </trkpt>
      <trkpt lat="45.86499" lon="6.24859">
        <ele>1235</ele>
        <time>2010-04-23T19:39:47Z</time>
      </trkpt>
      <trkpt lat="45.86498" lon="6.24863">
        <ele>1235</ele>
        <time>2010-04-23T19:39:49Z</time>
      </trkpt>
      <trkpt lat="45.86497" lon="6.24867">
        <ele>1235</ele>
        <time>2010-04-23T19:39:51Z</time>
      </trkpt>
      <trkpt lat="45.86497" lon="6.2487">
        <ele>1235</ele>
        <time>2010-04-23T19:39:53Z</time>
      </trkpt>
      <trkpt lat="45.86496" lon="6.24875">
        <ele>1233</ele>
        <time>2010-04-23T19:39:55Z</time>
      </trkpt>
      <trkpt lat="45.86494" lon="6.2488">
        <ele>1231</ele>
        <time>2010-04-23T19:39:57Z</time>
      </trkpt>
      <trkpt lat="45.86498" lon="6.24885">
        <ele>1229</ele>
        <time>2010-04-23T19:39:59Z</time>
      </trkpt>
      <trkpt lat="45.86502" lon="6.2489">
        <ele>1227</ele>
        <time>2010-04-23T19:40:01Z</time>
      </trkpt>
      <trkpt lat="45.86503" lon="6.24897">
        <ele>1225</ele>
        <time>2010-04-23T19:40:03Z</time>
      </trkpt>
      <trkpt lat="45.86501" lon="6.24903">
        <ele>1223</ele>
        <time>2010-04-23T19:40:05Z</time>
      </trkpt>
      <trkpt lat="45.865" lon="6.24909">
        <ele>1221</ele>
        <time>2010-04-23T19:40:07Z</time>
      </trkpt>
      <trkpt lat="45.86502" lon="6.24913">
        <ele>1217</ele>
        <time>2010-04-23T19:40:10Z</time>
      </trkpt>
      <trkpt lat="45.86502" lon="6.24917">
        <ele>1214</ele>
        <time>2010-04-23T19:40:12Z</time>
      </trkpt>
      <trkpt lat="45.86502" lon="6.24924">
        <ele>1211</ele>
        <time>2010-04-23T19:40:14Z</time>
      </trkpt>
      <trkpt lat="45.86503" lon="6.24926">
        <ele>1205</ele>
        <time>2010-04-23T19:40:18Z</time>
      </trkpt>
      <trkpt lat="45.86505" lon="6.24935">
        <ele>1203</ele>
        <time>2010-04-23T19:40:20Z</time>
      </trkpt>
      <trkpt lat="45.86507" lon="6.24944">
        <ele>1200</ele>
        <time>2010-04-23T19:40:22Z</time>
      </trkpt>
      <trkpt lat="45.86509" lon="6.24953">
        <ele>1198</ele>
        <time>2010-04-23T19:40:24Z</time>
      </trkpt>
      <trkpt lat="45.86511" lon="6.24961">
        <ele>1196</ele>
        <time>2010-04-23T19:40:26Z</time>
      </trkpt>
      <trkpt lat="45.86514" lon="6.24968">
        <ele>1194</ele>
        <time>2010-04-23T19:40:28Z</time>
      </trkpt>
      <trkpt lat="45.86519" lon="6.24978">
        <ele>1191</ele>
        <time>2010-04-23T19:40:30Z</time>
      </trkpt>
      <trkpt lat="45.86527" lon="6.24985">
        <ele>1188</ele>
        <time>2010-04-23T19:40:32Z</time>
      </trkpt>
      <trkpt lat="45.86531" lon="6.24989">
        <ele>1186</ele>
        <time>2010-04-23T19:40:34Z</time>
      </trkpt>
      <trkpt lat="45.86536" lon="6.24986">
        <ele>1184</ele>
        <time>2010-04-23T19:40:36Z</time>
      </trkpt>
      <trkpt lat="45.86539" lon="6.24981">
        <ele>1182</ele>
        <time>2010-04-23T19:40:38Z</time>
      </trkpt>
      <trkpt lat="45.86544" lon="6.24979">
        <ele>1180</ele>
        <time>2010-04-23T19:40:40Z</time>
      </trkpt>
      <trkpt lat="45.86548" lon="6.24973">
        <ele>1178</ele>
        <time>2010-04-23T19:40:42Z</time>
      </trkpt>
      <trkpt lat="45.86552" lon="6.24968">
        <ele>1176</ele>
        <time>2010-04-23T19:40:44Z</time>
      </trkpt>
      <trkpt lat="45.86556" lon="6.24964">
        <ele>1174</ele>
        <time>2010-04-23T19:40:46Z</time>
      </trkpt>
      <trkpt lat="45.8656" lon="6.24959">
        <ele>1172</ele>
        <time>2010-04-23T19:40:48Z</time>
      </trkpt>
      <trkpt lat="45.86563" lon="6.24951">
        <ele>1171</ele>
        <time>2010-04-23T19:40:50Z</time>
      </trkpt>
      <trkpt lat="45.86569" lon="6.24942">
        <ele>1170</ele>
        <time>2010-04-23T19:40:52Z</time>
      </trkpt>
      <trkpt lat="45.86572" lon="6.24932">
        <ele>1170</ele>
        <time>2010-04-23T19:40:54Z</time>
      </trkpt>
      <trkpt lat="45.86576" lon="6.24926">
        <ele>1169</ele>
        <time>2010-04-23T19:40:56Z</time>
      </trkpt>
      <trkpt lat="45.86578" lon="6.24916">
        <ele>1169</ele>
        <time>2010-04-23T19:40:58Z</time>
      </trkpt>
      <trkpt lat="45.86583" lon="6.24912">
        <ele>1169</ele>
        <time>2010-04-23T19:41:00Z</time>
      </trkpt>
      <trkpt lat="45.86584" lon="6.24905">
        <ele>1169</ele>
        <time>2010-04-23T19:41:02Z</time>
      </trkpt>
      <trkpt lat="45.86589" lon="6.24901">
        <ele>1169</ele>
        <time>2010-04-23T19:41:04Z</time>
      </trkpt>
      <trkpt lat="45.86592" lon="6.24899">
        <ele>1169</ele>
        <time>2010-04-23T19:41:06Z</time>
      </trkpt>
      <trkpt lat="45.86598" lon="6.24898">
        <ele>1169</ele>
        <time>2010-04-23T19:41:08Z</time>
      </trkpt>
      <trkpt lat="45.86599" lon="6.24896">
        <ele>1169</ele>
        <time>2010-04-23T19:41:10Z</time>
      </trkpt>
      <trkpt lat="45.86605" lon="6.24893">
        <ele>1169</ele>
        <time>2010-04-23T19:41:12Z</time>
      </trkpt>
      <trkpt lat="45.86612" lon="6.24891">
        <ele>1169</ele>
        <time>2010-04-23T19:41:14Z</time>
      </trkpt>
      <trkpt lat="45.86617" lon="6.24888">
        <ele>1169</ele>
        <time>2010-04-23T19:41:16Z</time>
      </trkpt>
      <trkpt lat="45.86623" lon="6.24886">
        <ele>1169</ele>
        <time>2010-04-23T19:41:18Z</time>
      </trkpt>
      <trkpt lat="45.86627" lon="6.24882">
        <ele>1169</ele>
        <time>2010-04-23T19:41:20Z</time>
      </trkpt>
      <trkpt lat="45.86631" lon="6.2488">
        <ele>1169</ele>
        <time>2010-04-23T19:41:22Z</time>
      </trkpt>
      <trkpt lat="45.86636" lon="6.24878">
        <ele>1169</ele>
        <time>2010-04-23T19:41:24Z</time>
      </trkpt>
      <trkpt lat="45.86639" lon="6.24875">
        <ele>1169</ele>
        <time>2010-04-23T19:41:26Z</time>
      </trkpt>
      <trkpt lat="45.86642" lon="6.24872">
        <ele>1169</ele>
        <time>2010-04-23T19:41:28Z</time>
      </trkpt>
      <trkpt lat="45.86647" lon="6.24872">
        <ele>1169</ele>
        <time>2010-04-23T19:41:30Z</time>
      </trkpt>
      <trkpt lat="45.86652" lon="6.24874">
        <ele>1169</ele>
        <time>2010-04-23T19:41:32Z</time>
      </trkpt>
      <trkpt lat="45.86657" lon="6.24875">
        <ele>1168</ele>
        <time>2010-04-23T19:41:34Z</time>
      </trkpt>
      <trkpt lat="45.86663" lon="6.24874">
        <ele>1167</ele>
        <time>2010-04-23T19:41:36Z</time>
      </trkpt>
      <trkpt lat="45.86668" lon="6.24873">
        <ele>1165</ele>
        <time>2010-04-23T19:41:38Z</time>
      </trkpt>
      <trkpt lat="45.86673" lon="6.24873">
        <ele>1164</ele>
        <time>2010-04-23T19:41:40Z</time>
      </trkpt>
      <trkpt lat="45.86678" lon="6.24873">
        <ele>1162</ele>
        <time>2010-04-23T19:41:42Z</time>
      </trkpt>
      <trkpt lat="45.86684" lon="6.24872">
        <ele>1160</ele>
        <time>2010-04-23T19:41:44Z</time>
      </trkpt>
      <trkpt lat="45.86689" lon="6.2487">
        <ele>1158</ele>
        <time>2010-04-23T19:41:46Z</time>
      </trkpt>
      <trkpt lat="45.86694" lon="6.24871">
        <ele>1156</ele>
        <time>2010-04-23T19:41:48Z</time>
      </trkpt>
      <trkpt lat="45.86698" lon="6.24871">
        <ele>1154</ele>
        <time>2010-04-23T19:41:50Z</time>
      </trkpt>
      <trkpt lat="45.86702" lon="6.24875">
        <ele>1152</ele>
        <time>2010-04-23T19:41:52Z</time>
      </trkpt>
      <trkpt lat="45.86707" lon="6.24878">
        <ele>1150</ele>
        <time>2010-04-23T19:41:54Z</time>
      </trkpt>
      <trkpt lat="45.86712" lon="6.24882">
        <ele>1149</ele>
        <time>2010-04-23T19:41:56Z</time>
      </trkpt>
      <trkpt lat="45.86719" lon="6.24884">
        <ele>1149</ele>
        <time>2010-04-23T19:41:58Z</time>
      </trkpt>
      <trkpt lat="45.86725" lon="6.24886">
        <ele>1149</ele>
        <time>2010-04-23T19:42:00Z</time>
      </trkpt>
      <trkpt lat="45.86731" lon="6.24887">
        <ele>1147</ele>
        <time>2010-04-23T19:42:02Z</time>
      </trkpt>
      <trkpt lat="45.86738" lon="6.24886">
        <ele>1145</ele>
        <time>2010-04-23T19:42:04Z</time>
      </trkpt>
      <trkpt lat="45.86745" lon="6.24885">
        <ele>1143</ele>
        <time>2010-04-23T19:42:06Z</time>
      </trkpt>
      <trkpt lat="45.8675" lon="6.24881">
        <ele>1141</ele>
        <time>2010-04-23T19:42:08Z</time>
      </trkpt>
      <trkpt lat="45.86756" lon="6.2488">
        <ele>1138</ele>
        <time>2010-04-23T19:42:10Z</time>
      </trkpt>
      <trkpt lat="45.86761" lon="6.24879">
        <ele>1135</ele>
        <time>2010-04-23T19:42:12Z</time>
      </trkpt>
      <trkpt lat="45.86767" lon="6.24875">
        <ele>1132</ele>
        <time>2010-04-23T19:42:14Z</time>
      </trkpt>
      <trkpt lat="45.86771" lon="6.24871">
        <ele>1129</ele>
        <time>2010-04-23T19:42:16Z</time>
      </trkpt>
      <trkpt lat="45.86775" lon="6.24869">
        <ele>1127</ele>
        <time>2010-04-23T19:42:18Z</time>
      </trkpt>
      <trkpt lat="45.8678" lon="6.24865">
        <ele>1125</ele>
        <time>2010-04-23T19:42:20Z</time>
      </trkpt>
      <trkpt lat="45.86784" lon="6.24859">
        <ele>1123</ele>
        <time>2010-04-23T19:42:22Z</time>
      </trkpt>
      <trkpt lat="45.86787" lon="6.24853">
        <ele>1121</ele>
        <time>2010-04-23T19:42:24Z</time>
      </trkpt>
      <trkpt lat="45.86791" lon="6.24848">
        <ele>1119</ele>
        <time>2010-04-23T19:42:26Z</time>
      </trkpt>
      <trkpt lat="45.86795" lon="6.24841">
        <ele>1117</ele>
        <time>2010-04-23T19:42:28Z</time>
      </trkpt>
      <trkpt lat="45.868" lon="6.24834">
        <ele>1115</ele>
        <time>2010-04-23T19:42:30Z</time>
      </trkpt>
      <trkpt lat="45.86803" lon="6.24827">
        <ele>1113</ele>
        <time>2010-04-23T19:42:32Z</time>
      </trkpt>
      <trkpt lat="45.86808" lon="6.24819">
        <ele>1111</ele>
        <time>2010-04-23T19:42:34Z</time>
      </trkpt>
      <trkpt lat="45.86812" lon="6.2481">
        <ele>1109</ele>
        <time>2010-04-23T19:42:36Z</time>
      </trkpt>
      <trkpt lat="45.86818" lon="6.24804">
        <ele>1107</ele>
        <time>2010-04-23T19:42:38Z</time>
      </trkpt>
      <trkpt lat="45.86824" lon="6.248">
        <ele>1105</ele>
        <time>2010-04-23T19:42:40Z</time>
      </trkpt>
      <trkpt lat="45.8683" lon="6.24794">
        <ele>1104</ele>
        <time>2010-04-23T19:42:42Z</time>
      </trkpt>
      <trkpt lat="45.86839" lon="6.24791">
        <ele>1102</ele>
        <time>2010-04-23T19:42:44Z</time>
      </trkpt>
      <trkpt lat="45.86845" lon="6.24789">
        <ele>1101</ele>
        <time>2010-04-23T19:42:46Z</time>
      </trkpt>
      <trkpt lat="45.86848" lon="6.24787">
        <ele>1100</ele>
        <time>2010-04-23T19:42:48Z</time>
      </trkpt>
      <trkpt lat="45.86852" lon="6.24783">
        <ele>1100</ele>
        <time>2010-04-23T19:42:50Z</time>
      </trkpt>
      <trkpt lat="45.86853" lon="6.24776">
        <ele>1100</ele>
        <time>2010-04-23T19:42:52Z</time>
      </trkpt>
      <trkpt lat="45.86855" lon="6.24769">
        <ele>1099</ele>
        <time>2010-04-23T19:42:54Z</time>
      </trkpt>
      <trkpt lat="45.86857" lon="6.24761">
        <ele>1099</ele>
        <time>2010-04-23T19:42:56Z</time>
      </trkpt>
      <trkpt lat="45.86857" lon="6.24751">
        <ele>1099</ele>
        <time>2010-04-23T19:42:58Z</time>
      </trkpt>
      <trkpt lat="45.86863" lon="6.24752">
        <ele>1099</ele>
        <time>2010-04-23T19:43:00Z</time>
      </trkpt>
      <trkpt lat="45.86868" lon="6.24752">
        <ele>1099</ele>
        <time>2010-04-23T19:43:02Z</time>
      </trkpt>
      <trkpt lat="45.86871" lon="6.24751">
        <ele>1099</ele>
        <time>2010-04-23T19:43:04Z</time>
      </trkpt>
      <trkpt lat="45.86875" lon="6.24746">
        <ele>1097</ele>
        <time>2010-04-23T19:43:06Z</time>
      </trkpt>
      <trkpt lat="45.8688" lon="6.24743">
        <ele>1096</ele>
        <time>2010-04-23T19:43:08Z</time>
      </trkpt>
      <trkpt lat="45.86886" lon="6.24741">
        <ele>1095</ele>
        <time>2010-04-23T19:43:10Z</time>
      </trkpt>
      <trkpt lat="45.86893" lon="6.24742">
        <ele>1094</ele>
        <time>2010-04-23T19:43:12Z</time>
      </trkpt>
      <trkpt lat="45.869" lon="6.24746">
        <ele>1094</ele>
        <time>2010-04-23T19:43:14Z</time>
      </trkpt>
      <trkpt lat="45.86906" lon="6.24748">
        <ele>1093</ele>
        <time>2010-04-23T19:43:16Z</time>
      </trkpt>
      <trkpt lat="45.86913" lon="6.24747">
        <ele>1091</ele>
        <time>2010-04-23T19:43:18Z</time>
      </trkpt>
      <trkpt lat="45.86919" lon="6.24744">
        <ele>1089</ele>
        <time>2010-04-23T19:43:20Z</time>
      </trkpt>
      <trkpt lat="45.86928" lon="6.24741">
        <ele>1087</ele>
        <time>2010-04-23T19:43:22Z</time>
      </trkpt>
      <trkpt lat="45.86935" lon="6.24738">
        <ele>1085</ele>
        <time>2010-04-23T19:43:24Z</time>
      </trkpt>
      <trkpt lat="45.86938" lon="6.24734">
        <ele>1083</ele>
        <time>2010-04-23T19:43:26Z</time>
      </trkpt>
      <trkpt lat="45.86943" lon="6.24732">
        <ele>1081</ele>
        <time>2010-04-23T19:43:28Z</time>
      </trkpt>
      <trkpt lat="45.86949" lon="6.24733">
        <ele>1079</ele>
        <time>2010-04-23T19:43:30Z</time>
      </trkpt>
      <trkpt lat="45.86955" lon="6.24735">
        <ele>1077</ele>
        <time>2010-04-23T19:43:32Z</time>
      </trkpt>
      <trkpt lat="45.86959" lon="6.24736">
        <ele>1075</ele>
        <time>2010-04-23T19:43:34Z</time>
      </trkpt>
      <trkpt lat="45.86962" lon="6.24734">
        <ele>1073</ele>
        <time>2010-04-23T19:43:36Z</time>
      </trkpt>
      <trkpt lat="45.86964" lon="6.2473">
        <ele>1071</ele>
        <time>2010-04-23T19:43:38Z</time>
      </trkpt>
      <trkpt lat="45.86969" lon="6.24727">
        <ele>1069</ele>
        <time>2010-04-23T19:43:40Z</time>
      </trkpt>
      <trkpt lat="45.86972" lon="6.24722">
        <ele>1067</ele>
        <time>2010-04-23T19:43:42Z</time>
      </trkpt>
      <trkpt lat="45.86978" lon="6.2472">
        <ele>1066</ele>
        <time>2010-04-23T19:43:44Z</time>
      </trkpt>
      <trkpt lat="45.86983" lon="6.2472">
        <ele>1064</ele>
        <time>2010-04-23T19:43:46Z</time>
      </trkpt>
      <trkpt lat="45.86988" lon="6.24718">
        <ele>1062</ele>
        <time>2010-04-23T19:43:48Z</time>
      </trkpt>
      <trkpt lat="45.86994" lon="6.24718">
        <ele>1060</ele>
        <time>2010-04-23T19:43:50Z</time>
      </trkpt>
      <trkpt lat="45.86998" lon="6.24715">
        <ele>1058</ele>
        <time>2010-04-23T19:43:52Z</time>
      </trkpt>
      <trkpt lat="45.87002" lon="6.24712">
        <ele>1056</ele>
        <time>2010-04-23T19:43:54Z</time>
      </trkpt>
      <trkpt lat="45.87006" lon="6.24708">
        <ele>1054</ele>
        <time>2010-04-23T19:43:56Z</time>
      </trkpt>
      <trkpt lat="45.87011" lon="6.24705">
        <ele>1052</ele>
        <time>2010-04-23T19:43:58Z</time>
      </trkpt>
      <trkpt lat="45.87017" lon="6.24705">
        <ele>1051</ele>
        <time>2010-04-23T19:44:00Z</time>
      </trkpt>
      <trkpt lat="45.87021" lon="6.24706">
        <ele>1049</ele>
        <time>2010-04-23T19:44:02Z</time>
      </trkpt>
      <trkpt lat="45.87025" lon="6.24706">
        <ele>1047</ele>
        <time>2010-04-23T19:44:04Z</time>
      </trkpt>
      <trkpt lat="45.87029" lon="6.24704">
        <ele>1045</ele>
        <time>2010-04-23T19:44:06Z</time>
      </trkpt>
      <trkpt lat="45.87033" lon="6.24701">
        <ele>1043</ele>
        <time>2010-04-23T19:44:08Z</time>
      </trkpt>
      <trkpt lat="45.87036" lon="6.24696">
        <ele>1042</ele>
        <time>2010-04-23T19:44:10Z</time>
      </trkpt>
      <trkpt lat="45.8704" lon="6.24689">
        <ele>1041</ele>
        <time>2010-04-23T19:44:12Z</time>
      </trkpt>
      <trkpt lat="45.87043" lon="6.24685">
        <ele>1040</ele>
        <time>2010-04-23T19:44:14Z</time>
      </trkpt>
      <trkpt lat="45.87047" lon="6.24682">
        <ele>1040</ele>
        <time>2010-04-23T19:44:16Z</time>
      </trkpt>
      <trkpt lat="45.87052" lon="6.24682">
        <ele>1040</ele>
        <time>2010-04-23T19:44:18Z</time>
      </trkpt>
      <trkpt lat="45.87057" lon="6.24682">
        <ele>1040</ele>
        <time>2010-04-23T19:44:20Z</time>
      </trkpt>
      <trkpt lat="45.87061" lon="6.24679">
        <ele>1039</ele>
        <time>2010-04-23T19:44:22Z</time>
      </trkpt>
      <trkpt lat="45.87064" lon="6.24674">
        <ele>1037</ele>
        <time>2010-04-23T19:44:24Z</time>
      </trkpt>
      <trkpt lat="45.87067" lon="6.24668">
        <ele>1035</ele>
        <time>2010-04-23T19:44:26Z</time>
      </trkpt>
      <trkpt lat="45.87072" lon="6.24661">
        <ele>1034</ele>
        <time>2010-04-23T19:44:28Z</time>
      </trkpt>
      <trkpt lat="45.87076" lon="6.24656">
        <ele>1033</ele>
        <time>2010-04-23T19:44:30Z</time>
      </trkpt>
      <trkpt lat="45.87078" lon="6.2465">
        <ele>1033</ele>
        <time>2010-04-23T19:44:32Z</time>
      </trkpt>
      <trkpt lat="45.87078" lon="6.24641">
        <ele>1033</ele>
        <time>2010-04-23T19:44:34Z</time>
      </trkpt>
      <trkpt lat="45.87079" lon="6.24637">
        <ele>1033</ele>
        <time>2010-04-23T19:44:36Z</time>
      </trkpt>
      <trkpt lat="45.87081" lon="6.24632">
        <ele>1033</ele>
        <time>2010-04-23T19:44:38Z</time>
      </trkpt>
      <trkpt lat="45.87085" lon="6.24625">
        <ele>1033</ele>
        <time>2010-04-23T19:44:40Z</time>
      </trkpt>
      <trkpt lat="45.87088" lon="6.2462">
        <ele>1033</ele>
        <time>2010-04-23T19:44:42Z</time>
      </trkpt>
      <trkpt lat="45.8709" lon="6.24614">
        <ele>1033</ele>
        <time>2010-04-23T19:44:44Z</time>
      </trkpt>
      <trkpt lat="45.87093" lon="6.24611">
        <ele>1033</ele>
        <time>2010-04-23T19:44:46Z</time>
      </trkpt>
      <trkpt lat="45.87099" lon="6.24614">
        <ele>1033</ele>
        <time>2010-04-23T19:44:48Z</time>
      </trkpt>
      <trkpt lat="45.87101" lon="6.2461">
        <ele>1032</ele>
        <time>2010-04-23T19:44:50Z</time>
      </trkpt>
      <trkpt lat="45.87105" lon="6.24609">
        <ele>1031</ele>
        <time>2010-04-23T19:44:52Z</time>
      </trkpt>
      <trkpt lat="45.87109" lon="6.24609">
        <ele>1030</ele>
        <time>2010-04-23T19:44:54Z</time>
      </trkpt>
      <trkpt lat="45.87114" lon="6.24611">
        <ele>1030</ele>
        <time>2010-04-23T19:44:56Z</time>
      </trkpt>
      <trkpt lat="45.87117" lon="6.24611">
        <ele>1029</ele>
        <time>2010-04-23T19:44:58Z</time>
      </trkpt>
      <trkpt lat="45.87122" lon="6.24607">
        <ele>1027</ele>
        <time>2010-04-23T19:45:01Z</time>
      </trkpt>
      <trkpt lat="45.87128" lon="6.24606">
        <ele>1025</ele>
        <time>2010-04-23T19:45:03Z</time>
      </trkpt>
      <trkpt lat="45.87133" lon="6.24604">
        <ele>1024</ele>
        <time>2010-04-23T19:45:05Z</time>
      </trkpt>
      <trkpt lat="45.87139" lon="6.24601">
        <ele>1023</ele>
        <time>2010-04-23T19:45:07Z</time>
      </trkpt>
      <trkpt lat="45.87143" lon="6.24598">
        <ele>1022</ele>
        <time>2010-04-23T19:45:09Z</time>
      </trkpt>
      <trkpt lat="45.87148" lon="6.24596">
        <ele>1020</ele>
        <time>2010-04-23T19:45:11Z</time>
      </trkpt>
      <trkpt lat="45.87153" lon="6.24594">
        <ele>1018</ele>
        <time>2010-04-23T19:45:13Z</time>
      </trkpt>
      <trkpt lat="45.87158" lon="6.2459">
        <ele>1017</ele>
        <time>2010-04-23T19:45:15Z</time>
      </trkpt>
      <trkpt lat="45.87164" lon="6.24585">
        <ele>1016</ele>
        <time>2010-04-23T19:45:17Z</time>
      </trkpt>
      <trkpt lat="45.87169" lon="6.24581">
        <ele>1014</ele>
        <time>2010-04-23T19:45:19Z</time>
      </trkpt>
      <trkpt lat="45.87174" lon="6.24576">
        <ele>1012</ele>
        <time>2010-04-23T19:45:21Z</time>
      </trkpt>
      <trkpt lat="45.87175" lon="6.24569">
        <ele>1010</ele>
        <time>2010-04-23T19:45:23Z</time>
      </trkpt>
      <trkpt lat="45.87177" lon="6.24561">
        <ele>1010</ele>
        <time>2010-04-23T19:45:25Z</time>
      </trkpt>
      <trkpt lat="45.87181" lon="6.24557">
        <ele>1010</ele>
        <time>2010-04-23T19:45:27Z</time>
      </trkpt>
      <trkpt lat="45.87186" lon="6.24554">
        <ele>1008</ele>
        <time>2010-04-23T19:45:29Z</time>
      </trkpt>
      <trkpt lat="45.8719" lon="6.24549">
        <ele>1006</ele>
        <time>2010-04-23T19:45:31Z</time>
      </trkpt>
      <trkpt lat="45.87191" lon="6.24545">
        <ele>1004</ele>
        <time>2010-04-23T19:45:33Z</time>
      </trkpt>
      <trkpt lat="45.87196" lon="6.24545">
        <ele>1002</ele>
        <time>2010-04-23T19:45:35Z</time>
      </trkpt>
      <trkpt lat="45.872" lon="6.24545">
        <ele>1000</ele>
        <time>2010-04-23T19:45:37Z</time>
      </trkpt>
      <trkpt lat="45.87204" lon="6.24544">
        <ele>998</ele>
        <time>2010-04-23T19:45:39Z</time>
      </trkpt>
      <trkpt lat="45.87207" lon="6.24543">
        <ele>996</ele>
        <time>2010-04-23T19:45:41Z</time>
      </trkpt>
      <trkpt lat="45.8721" lon="6.2454">
        <ele>994</ele>
        <time>2010-04-23T19:45:43Z</time>
      </trkpt>
      <trkpt lat="45.87215" lon="6.24538">
        <ele>992</ele>
        <time>2010-04-23T19:45:45Z</time>
      </trkpt>
      <trkpt lat="45.87218" lon="6.24534">
        <ele>990</ele>
        <time>2010-04-23T19:45:47Z</time>
      </trkpt>
      <trkpt lat="45.87222" lon="6.24532">
        <ele>988</ele>
        <time>2010-04-23T19:45:49Z</time>
      </trkpt>
      <trkpt lat="45.87226" lon="6.24531">
        <ele>986</ele>
        <time>2010-04-23T19:45:51Z</time>
      </trkpt>
      <trkpt lat="45.8723" lon="6.24529">
        <ele>984</ele>
        <time>2010-04-23T19:45:53Z</time>
      </trkpt>
      <trkpt lat="45.87233" lon="6.24524">
        <ele>982</ele>
        <time>2010-04-23T19:45:55Z</time>
      </trkpt>
      <trkpt lat="45.87237" lon="6.24518">
        <ele>980</ele>
        <time>2010-04-23T19:45:57Z</time>
      </trkpt>
      <trkpt lat="45.87241" lon="6.24514">
        <ele>978</ele>
        <time>2010-04-23T19:45:59Z</time>
      </trkpt>
      <trkpt lat="45.87247" lon="6.24511">
        <ele>976</ele>
        <time>2010-04-23T19:46:01Z</time>
      </trkpt>
      <trkpt lat="45.87251" lon="6.24508">
        <ele>974</ele>
        <time>2010-04-23T19:46:03Z</time>
      </trkpt>
      <trkpt lat="45.87257" lon="6.24505">
        <ele>972</ele>
        <time>2010-04-23T19:46:05Z</time>
      </trkpt>
      <trkpt lat="45.87263" lon="6.24502">
        <ele>970</ele>
        <time>2010-04-23T19:46:07Z</time>
      </trkpt>
      <trkpt lat="45.87268" lon="6.24501">
        <ele>968</ele>
        <time>2010-04-23T19:46:09Z</time>
      </trkpt>
      <trkpt lat="45.87269" lon="6.24499">
        <ele>966</ele>
        <time>2010-04-23T19:46:11Z</time>
      </trkpt>
      <trkpt lat="45.87272" lon="6.24497">
        <ele>964</ele>
        <time>2010-04-23T19:46:13Z</time>
      </trkpt>
      <trkpt lat="45.87275" lon="6.24494">
        <ele>962</ele>
        <time>2010-04-23T19:46:15Z</time>
      </trkpt>
      <trkpt lat="45.87279" lon="6.24493">
        <ele>960</ele>
        <time>2010-04-23T19:46:17Z</time>
      </trkpt>
      <trkpt lat="45.87282" lon="6.24491">
        <ele>958</ele>
        <time>2010-04-23T19:46:19Z</time>
      </trkpt>
      <trkpt lat="45.87285" lon="6.24488">
        <ele>956</ele>
        <time>2010-04-23T19:46:21Z</time>
      </trkpt>
      <trkpt lat="45.87288" lon="6.24486">
        <ele>954</ele>
        <time>2010-04-23T19:46:23Z</time>
      </trkpt>
      <trkpt lat="45.87291" lon="6.24485">
        <ele>952</ele>
        <time>2010-04-23T19:46:25Z</time>
      </trkpt>
      <trkpt lat="45.87296" lon="6.24481">
        <ele>950</ele>
        <time>2010-04-23T19:46:27Z</time>
      </trkpt>
      <trkpt lat="45.873" lon="6.24477">
        <ele>948</ele>
        <time>2010-04-23T19:46:29Z</time>
      </trkpt>
      <trkpt lat="45.87304" lon="6.24474">
        <ele>946</ele>
        <time>2010-04-23T19:46:31Z</time>
      </trkpt>
      <trkpt lat="45.87309" lon="6.24473">
        <ele>945</ele>
        <time>2010-04-23T19:46:33Z</time>
      </trkpt>
      <trkpt lat="45.87312" lon="6.2447">
        <ele>943</ele>
        <time>2010-04-23T19:46:35Z</time>
      </trkpt>
      <trkpt lat="45.87316" lon="6.24465">
        <ele>941</ele>
        <time>2010-04-23T19:46:37Z</time>
      </trkpt>
      <trkpt lat="45.87319" lon="6.24459">
        <ele>939</ele>
        <time>2010-04-23T19:46:39Z</time>
      </trkpt>
      <trkpt lat="45.87322" lon="6.24454">
        <ele>938</ele>
        <time>2010-04-23T19:46:41Z</time>
      </trkpt>
      <trkpt lat="45.87325" lon="6.24449">
        <ele>937</ele>
        <time>2010-04-23T19:46:43Z</time>
      </trkpt>
      <trkpt lat="45.87329" lon="6.24442">
        <ele>936</ele>
        <time>2010-04-23T19:46:45Z</time>
      </trkpt>
      <trkpt lat="45.87333" lon="6.24437">
        <ele>934</ele>
        <time>2010-04-23T19:46:47Z</time>
      </trkpt>
      <trkpt lat="45.87337" lon="6.2443">
        <ele>932</ele>
        <time>2010-04-23T19:46:49Z</time>
      </trkpt>
      <trkpt lat="45.87339" lon="6.24422">
        <ele>930</ele>
        <time>2010-04-23T19:46:51Z</time>
      </trkpt>
      <trkpt lat="45.87339" lon="6.24416">
        <ele>928</ele>
        <time>2010-04-23T19:46:53Z</time>
      </trkpt>
      <trkpt lat="45.87339" lon="6.2441">
        <ele>926</ele>
        <time>2010-04-23T19:46:55Z</time>
      </trkpt>
      <trkpt lat="45.87342" lon="6.24407">
        <ele>925</ele>
        <time>2010-04-23T19:46:57Z</time>
      </trkpt>
      <trkpt lat="45.87342" lon="6.24404">
        <ele>924</ele>
        <time>2010-04-23T19:46:59Z</time>
      </trkpt>
      <trkpt lat="45.87344" lon="6.24398">
        <ele>924</ele>
        <time>2010-04-23T19:47:01Z</time>
      </trkpt>
      <trkpt lat="45.87349" lon="6.24392">
        <ele>923</ele>
        <time>2010-04-23T19:47:03Z</time>
      </trkpt>
      <trkpt lat="45.87354" lon="6.24385">
        <ele>923</ele>
        <time>2010-04-23T19:47:05Z</time>
      </trkpt>
      <trkpt lat="45.87359" lon="6.24382">
        <ele>922</ele>
        <time>2010-04-23T19:47:07Z</time>
      </trkpt>
      <trkpt lat="45.87363" lon="6.2438">
        <ele>922</ele>
        <time>2010-04-23T19:47:09Z</time>
      </trkpt>
      <trkpt lat="45.87368" lon="6.24386">
        <ele>921</ele>
        <time>2010-04-23T19:47:11Z</time>
      </trkpt>
      <trkpt lat="45.87375" lon="6.24392">
        <ele>919</ele>
        <time>2010-04-23T19:47:13Z</time>
      </trkpt>
      <trkpt lat="45.87382" lon="6.24394">
        <ele>917</ele>
        <time>2010-04-23T19:47:15Z</time>
      </trkpt>
      <trkpt lat="45.87386" lon="6.24392">
        <ele>915</ele>
        <time>2010-04-23T19:47:17Z</time>
      </trkpt>
      <trkpt lat="45.87392" lon="6.24389">
        <ele>913</ele>
        <time>2010-04-23T19:47:19Z</time>
      </trkpt>
      <trkpt lat="45.87396" lon="6.24383">
        <ele>911</ele>
        <time>2010-04-23T19:47:21Z</time>
      </trkpt>
      <trkpt lat="45.87399" lon="6.24377">
        <ele>909</ele>
        <time>2010-04-23T19:47:23Z</time>
      </trkpt>
      <trkpt lat="45.87402" lon="6.24372">
        <ele>907</ele>
        <time>2010-04-23T19:47:25Z</time>
      </trkpt>
      <trkpt lat="45.87403" lon="6.24363">
        <ele>905</ele>
        <time>2010-04-23T19:47:27Z</time>
      </trkpt>
      <trkpt lat="45.87404" lon="6.24356">
        <ele>903</ele>
        <time>2010-04-23T19:47:29Z</time>
      </trkpt>
      <trkpt lat="45.87407" lon="6.2435">
        <ele>901</ele>
        <time>2010-04-23T19:47:31Z</time>
      </trkpt>
      <trkpt lat="45.87409" lon="6.24345">
        <ele>899</ele>
        <time>2010-04-23T19:47:33Z</time>
      </trkpt>
      <trkpt lat="45.87413" lon="6.24344">
        <ele>897</ele>
        <time>2010-04-23T19:47:35Z</time>
      </trkpt>
      <trkpt lat="45.87415" lon="6.24338">
        <ele>895</ele>
        <time>2010-04-23T19:47:37Z</time>
      </trkpt>
      <trkpt lat="45.87419" lon="6.24334">
        <ele>894</ele>
        <time>2010-04-23T19:47:39Z</time>
      </trkpt>
      <trkpt lat="45.87421" lon="6.24331">
        <ele>893</ele>
        <time>2010-04-23T19:47:41Z</time>
      </trkpt>
      <trkpt lat="45.87425" lon="6.24328">
        <ele>891</ele>
        <time>2010-04-23T19:47:43Z</time>
      </trkpt>
      <trkpt lat="45.87428" lon="6.24327">
        <ele>890</ele>
        <time>2010-04-23T19:47:45Z</time>
      </trkpt>
      <trkpt lat="45.87433" lon="6.24324">
        <ele>889</ele>
        <time>2010-04-23T19:47:47Z</time>
      </trkpt>
      <trkpt lat="45.87436" lon="6.24322">
        <ele>888</ele>
        <time>2010-04-23T19:47:49Z</time>
      </trkpt>
      <trkpt lat="45.87439" lon="6.24319">
        <ele>887</ele>
        <time>2010-04-23T19:47:51Z</time>
      </trkpt>
      <trkpt lat="45.87444" lon="6.24317">
        <ele>886</ele>
        <time>2010-04-23T19:47:53Z</time>
      </trkpt>
      <trkpt lat="45.87449" lon="6.24315">
        <ele>886</ele>
        <time>2010-04-23T19:47:55Z</time>
      </trkpt>
      <trkpt lat="45.87452" lon="6.24313">
        <ele>886</ele>
        <time>2010-04-23T19:47:57Z</time>
      </trkpt>
      <trkpt lat="45.87456" lon="6.24312">
        <ele>885</ele>
        <time>2010-04-23T19:47:59Z</time>
      </trkpt>
      <trkpt lat="45.8746" lon="6.2431">
        <ele>884</ele>
        <time>2010-04-23T19:48:01Z</time>
      </trkpt>
      <trkpt lat="45.87465" lon="6.2431">
        <ele>884</ele>
        <time>2010-04-23T19:48:03Z</time>
      </trkpt>
      <trkpt lat="45.87469" lon="6.24309">
        <ele>884</ele>
        <time>2010-04-23T19:48:05Z</time>
      </trkpt>
      <trkpt lat="45.87474" lon="6.24305">
        <ele>884</ele>
        <time>2010-04-23T19:48:07Z</time>
      </trkpt>
      <trkpt lat="45.87477" lon="6.24304">
        <ele>884</ele>
        <time>2010-04-23T19:48:09Z</time>
      </trkpt>
      <trkpt lat="45.87483" lon="6.24304">
        <ele>884</ele>
        <time>2010-04-23T19:48:11Z</time>
      </trkpt>
      <trkpt lat="45.87489" lon="6.24305">
        <ele>884</ele>
        <time>2010-04-23T19:48:13Z</time>
      </trkpt>
      <trkpt lat="45.87495" lon="6.24304">
        <ele>883</ele>
        <time>2010-04-23T19:48:15Z</time>
      </trkpt>
      <trkpt lat="45.875" lon="6.24301">
        <ele>881</ele>
        <time>2010-04-23T19:48:17Z</time>
      </trkpt>
      <trkpt lat="45.87507" lon="6.24299">
        <ele>879</ele>
        <time>2010-04-23T19:48:19Z</time>
      </trkpt>
      <trkpt lat="45.87513" lon="6.24296">
        <ele>877</ele>
        <time>2010-04-23T19:48:21Z</time>
      </trkpt>
      <trkpt lat="45.87518" lon="6.24295">
        <ele>875</ele>
        <time>2010-04-23T19:48:23Z</time>
      </trkpt>
      <trkpt lat="45.87523" lon="6.24293">
        <ele>872</ele>
        <time>2010-04-23T19:48:25Z</time>
      </trkpt>
      <trkpt lat="45.87528" lon="6.24292">
        <ele>868</ele>
        <time>2010-04-23T19:48:27Z</time>
      </trkpt>
      <trkpt lat="45.87534" lon="6.24292">
        <ele>864</ele>
        <time>2010-04-23T19:48:29Z</time>
      </trkpt>
      <trkpt lat="45.8754" lon="6.24287">
        <ele>861</ele>
        <time>2010-04-23T19:48:31Z</time>
      </trkpt>
      <trkpt lat="45.87544" lon="6.24284">
        <ele>859</ele>
        <time>2010-04-23T19:48:33Z</time>
      </trkpt>
      <trkpt lat="45.8755" lon="6.24279">
        <ele>857</ele>
        <time>2010-04-23T19:48:35Z</time>
      </trkpt>
      <trkpt lat="45.87556" lon="6.24275">
        <ele>855</ele>
        <time>2010-04-23T19:48:37Z</time>
      </trkpt>
      <trkpt lat="45.87562" lon="6.24271">
        <ele>853</ele>
        <time>2010-04-23T19:48:39Z</time>
      </trkpt>
      <trkpt lat="45.87568" lon="6.24265">
        <ele>851</ele>
        <time>2010-04-23T19:48:41Z</time>
      </trkpt>
      <trkpt lat="45.87573" lon="6.24259">
        <ele>849</ele>
        <time>2010-04-23T19:48:43Z</time>
      </trkpt>
      <trkpt lat="45.87578" lon="6.24253">
        <ele>849</ele>
        <time>2010-04-23T19:48:45Z</time>
      </trkpt>
      <trkpt lat="45.87582" lon="6.24247">
        <ele>849</ele>
        <time>2010-04-23T19:48:47Z</time>
      </trkpt>
      <trkpt lat="45.87586" lon="6.2424">
        <ele>849</ele>
        <time>2010-04-23T19:48:49Z</time>
      </trkpt>
      <trkpt lat="45.87591" lon="6.24234">
        <ele>849</ele>
        <time>2010-04-23T19:48:51Z</time>
      </trkpt>
      <trkpt lat="45.87595" lon="6.24228">
        <ele>849</ele>
        <time>2010-04-23T19:48:53Z</time>
      </trkpt>
      <trkpt lat="45.876" lon="6.24221">
        <ele>849</ele>
        <time>2010-04-23T19:48:55Z</time>
      </trkpt>
      <trkpt lat="45.87605" lon="6.24213">
        <ele>849</ele>
        <time>2010-04-23T19:48:57Z</time>
      </trkpt>
      <trkpt lat="45.8761" lon="6.24208">
        <ele>848</ele>
        <time>2010-04-23T19:48:59Z</time>
      </trkpt>
      <trkpt lat="45.87615" lon="6.24203">
        <ele>846</ele>
        <time>2010-04-23T19:49:01Z</time>
      </trkpt>
      <trkpt lat="45.87622" lon="6.24199">
        <ele>844</ele>
        <time>2010-04-23T19:49:03Z</time>
      </trkpt>
      <trkpt lat="45.87628" lon="6.24195">
        <ele>842</ele>
        <time>2010-04-23T19:49:05Z</time>
      </trkpt>
      <trkpt lat="45.87632" lon="6.24192">
        <ele>840</ele>
        <time>2010-04-23T19:49:07Z</time>
      </trkpt>
      <trkpt lat="45.87635" lon="6.24186">
        <ele>838</ele>
        <time>2010-04-23T19:49:09Z</time>
      </trkpt>
      <trkpt lat="45.87639" lon="6.2418">
        <ele>836</ele>
        <time>2010-04-23T19:49:11Z</time>
      </trkpt>
      <trkpt lat="45.87643" lon="6.24179">
        <ele>836</ele>
        <time>2010-04-23T19:49:13Z</time>
      </trkpt>
      <trkpt lat="45.87646" lon="6.2418">
        <ele>836</ele>
        <time>2010-04-23T19:49:15Z</time>
      </trkpt>
      <trkpt lat="45.87648" lon="6.24177">
        <ele>836</ele>
        <time>2010-04-23T19:49:17Z</time>
      </trkpt>
      <trkpt lat="45.8765" lon="6.24174">
        <ele>836</ele>
        <time>2010-04-23T19:49:19Z</time>
      </trkpt>
      <trkpt lat="45.87652" lon="6.24173">
        <ele>836</ele>
        <time>2010-04-23T19:49:21Z</time>
      </trkpt>
      <trkpt lat="45.87654" lon="6.24176">
        <ele>836</ele>
        <time>2010-04-23T19:49:24Z</time>
      </trkpt>
      <trkpt lat="45.87657" lon="6.24179">
        <ele>835</ele>
        <time>2010-04-23T19:49:26Z</time>
      </trkpt>
      <trkpt lat="45.87658" lon="6.2418">
        <ele>834</ele>
        <time>2010-04-23T19:49:28Z</time>
      </trkpt>
      <trkpt lat="45.8766" lon="6.24181">
        <ele>833</ele>
        <time>2010-04-23T19:49:31Z</time>
      </trkpt>
      <trkpt lat="45.8766" lon="6.24179">
        <ele>831</ele>
        <time>2010-04-23T19:49:36Z</time>
      </trkpt>
      <trkpt lat="45.87661" lon="6.24177">
        <ele>831</ele>
        <time>2010-04-23T19:49:40Z</time>
      </trkpt>
      <trkpt lat="45.87663" lon="6.24171">
        <ele>831</ele>
        <time>2010-04-23T19:49:42Z</time>
      </trkpt>
      <trkpt lat="45.87663" lon="6.24166">
        <ele>831</ele>
        <time>2010-04-23T19:49:44Z</time>
      </trkpt>
      <trkpt lat="45.87664" lon="6.24163">
        <ele>831</ele>
        <time>2010-04-23T19:49:46Z</time>
      </trkpt>
      <trkpt lat="45.87668" lon="6.24158">
        <ele>831</ele>
        <time>2010-04-23T19:49:48Z</time>
      </trkpt>
      <trkpt lat="45.87671" lon="6.24154">
        <ele>831</ele>
        <time>2010-04-23T19:49:50Z</time>
      </trkpt>
      <trkpt lat="45.87672" lon="6.24149">
        <ele>831</ele>
        <time>2010-04-23T19:49:52Z</time>
      </trkpt>
      <trkpt lat="45.87674" lon="6.24147">
        <ele>832</ele>
        <time>2010-04-23T19:49:54Z</time>
      </trkpt>
      <trkpt lat="45.87678" lon="6.24145">
        <ele>832</ele>
        <time>2010-04-23T19:49:56Z</time>
      </trkpt>
      <trkpt lat="45.87681" lon="6.24143">
        <ele>832</ele>
        <time>2010-04-23T19:49:58Z</time>
      </trkpt>
      <trkpt lat="45.87683" lon="6.24139">
        <ele>832</ele>
        <time>2010-04-23T19:50:00Z</time>
      </trkpt>
      <trkpt lat="45.87687" lon="6.24135">
        <ele>832</ele>
        <time>2010-04-23T19:50:02Z</time>
      </trkpt>
      <trkpt lat="45.8769" lon="6.24131">
        <ele>832</ele>
        <time>2010-04-23T19:50:04Z</time>
      </trkpt>
      <trkpt lat="45.87691" lon="6.24127">
        <ele>832</ele>
        <time>2010-04-23T19:50:06Z</time>
      </trkpt>
      <trkpt lat="45.87691" lon="6.24123">
        <ele>832</ele>
        <time>2010-04-23T19:50:08Z</time>
      </trkpt>
      <trkpt lat="45.87692" lon="6.24121">
        <ele>832</ele>
        <time>2010-04-23T19:50:10Z</time>
      </trkpt>
      <trkpt lat="45.87694" lon="6.24116">
        <ele>830</ele>
        <time>2010-04-23T19:50:13Z</time>
      </trkpt>
      <trkpt lat="45.87695" lon="6.24113">
        <ele>829</ele>
        <time>2010-04-23T19:50:15Z</time>
      </trkpt>
      <trkpt lat="45.87696" lon="6.24108">
        <ele>828</ele>
        <time>2010-04-23T19:50:18Z</time>
      </trkpt>
      <trkpt lat="45.87699" lon="6.24105">
        <ele>826</ele>
        <time>2010-04-23T19:50:21Z</time>
      </trkpt>
      <trkpt lat="45.877" lon="6.24101">
        <ele>825</ele>
        <time>2010-04-23T19:50:23Z</time>
      </trkpt>
      <trkpt lat="45.87702" lon="6.24096">
        <ele>824</ele>
        <time>2010-04-23T19:50:25Z</time>
      </trkpt>
      <trkpt lat="45.87704" lon="6.2409">
        <ele>823</ele>
        <time>2010-04-23T19:50:27Z</time>
      </trkpt>
      <trkpt lat="45.87706" lon="6.24083">
        <ele>823</ele>
        <time>2010-04-23T19:50:29Z</time>
      </trkpt>
      <trkpt lat="45.87708" lon="6.24076">
        <ele>823</ele>
        <time>2010-04-23T19:50:31Z</time>
      </trkpt>
      <trkpt lat="45.87712" lon="6.24069">
        <ele>823</ele>
        <time>2010-04-23T19:50:33Z</time>
      </trkpt>
      <trkpt lat="45.87714" lon="6.24061">
        <ele>823</ele>
        <time>2010-04-23T19:50:35Z</time>
      </trkpt>
      <trkpt lat="45.87716" lon="6.24052">
        <ele>823</ele>
        <time>2010-04-23T19:50:37Z</time>
      </trkpt>
      <trkpt lat="45.87719" lon="6.24046">
        <ele>823</ele>
        <time>2010-04-23T19:50:39Z</time>
      </trkpt>
      <trkpt lat="45.87725" lon="6.24043">
        <ele>823</ele>
        <time>2010-04-23T19:50:41Z</time>
      </trkpt>
      <trkpt lat="45.87727" lon="6.24035">
        <ele>823</ele>
        <time>2010-04-23T19:50:43Z</time>
      </trkpt>
      <trkpt lat="45.8773" lon="6.24027">
        <ele>823</ele>
        <time>2010-04-23T19:50:45Z</time>
      </trkpt>
      <trkpt lat="45.87732" lon="6.24019">
        <ele>823</ele>
        <time>2010-04-23T19:50:47Z</time>
      </trkpt>
      <trkpt lat="45.87734" lon="6.24009">
        <ele>823</ele>
        <time>2010-04-23T19:50:49Z</time>
      </trkpt>
      <trkpt lat="45.87738" lon="6.24001">
        <ele>823</ele>
        <time>2010-04-23T19:50:51Z</time>
      </trkpt>
      <trkpt lat="45.87741" lon="6.23995">
        <ele>823</ele>
        <time>2010-04-23T19:50:53Z</time>
      </trkpt>
      <trkpt lat="45.87744" lon="6.23989">
        <ele>822</ele>
        <time>2010-04-23T19:50:55Z</time>
      </trkpt>
      <trkpt lat="45.87747" lon="6.23986">
        <ele>821</ele>
        <time>2010-04-23T19:50:57Z</time>
      </trkpt>
      <trkpt lat="45.87753" lon="6.2398">
        <ele>819</ele>
        <time>2010-04-23T19:50:59Z</time>
      </trkpt>
      <trkpt lat="45.87759" lon="6.23974">
        <ele>817</ele>
        <time>2010-04-23T19:51:01Z</time>
      </trkpt>
      <trkpt lat="45.87764" lon="6.23965">
        <ele>815</ele>
        <time>2010-04-23T19:51:03Z</time>
      </trkpt>
      <trkpt lat="45.87768" lon="6.23958">
        <ele>813</ele>
        <time>2010-04-23T19:51:05Z</time>
      </trkpt>
      <trkpt lat="45.8777" lon="6.2395">
        <ele>811</ele>
        <time>2010-04-23T19:51:07Z</time>
      </trkpt>
      <trkpt lat="45.87773" lon="6.23943">
        <ele>809</ele>
        <time>2010-04-23T19:51:09Z</time>
      </trkpt>
      <trkpt lat="45.87775" lon="6.23937">
        <ele>805</ele>
        <time>2010-04-23T19:51:11Z</time>
      </trkpt>
      <trkpt lat="45.87779" lon="6.23926">
        <ele>799</ele>
        <time>2010-04-23T19:51:14Z</time>
      </trkpt>
      <trkpt lat="45.87779" lon="6.23917">
        <ele>795</ele>
        <time>2010-04-23T19:51:16Z</time>
      </trkpt>
      <trkpt lat="45.8778" lon="6.2391">
        <ele>791</ele>
        <time>2010-04-23T19:51:18Z</time>
      </trkpt>
      <trkpt lat="45.87782" lon="6.23902">
        <ele>787</ele>
        <time>2010-04-23T19:51:20Z</time>
      </trkpt>
      <trkpt lat="45.87785" lon="6.23894">
        <ele>783</ele>
        <time>2010-04-23T19:51:22Z</time>
      </trkpt>
      <trkpt lat="45.87789" lon="6.23882">
        <ele>781</ele>
        <time>2010-04-23T19:51:24Z</time>
      </trkpt>
      <trkpt lat="45.87791" lon="6.2387">
        <ele>779</ele>
        <time>2010-04-23T19:51:26Z</time>
      </trkpt>
      <trkpt lat="45.87794" lon="6.23859">
        <ele>776</ele>
        <time>2010-04-23T19:51:28Z</time>
      </trkpt>
      <trkpt lat="45.87796" lon="6.23846">
        <ele>772</ele>
        <time>2010-04-23T19:51:30Z</time>
      </trkpt>
      <trkpt lat="45.87796" lon="6.23833">
        <ele>769</ele>
        <time>2010-04-23T19:51:32Z</time>
      </trkpt>
      <trkpt lat="45.87797" lon="6.23823">
        <ele>766</ele>
        <time>2010-04-23T19:51:34Z</time>
      </trkpt>
      <trkpt lat="45.87796" lon="6.23811">
        <ele>764</ele>
        <time>2010-04-23T19:51:36Z</time>
      </trkpt>
      <trkpt lat="45.87793" lon="6.238">
        <ele>762</ele>
        <time>2010-04-23T19:51:38Z</time>
      </trkpt>
      <trkpt lat="45.87789" lon="6.23782">
        <ele>761</ele>
        <time>2010-04-23T19:51:40Z</time>
      </trkpt>
      <trkpt lat="45.87784" lon="6.23773">
        <ele>761</ele>
        <time>2010-04-23T19:51:42Z</time>
      </trkpt>
      <trkpt lat="45.87779" lon="6.23765">
        <ele>763</ele>
        <time>2010-04-23T19:51:44Z</time>
      </trkpt>
      <trkpt lat="45.87772" lon="6.23752">
        <ele>763</ele>
        <time>2010-04-23T19:51:46Z</time>
      </trkpt>
      <trkpt lat="45.87767" lon="6.23743">
        <ele>765</ele>
        <time>2010-04-23T19:51:48Z</time>
      </trkpt>
      <trkpt lat="45.87762" lon="6.23732">
        <ele>767</ele>
        <time>2010-04-23T19:51:50Z</time>
      </trkpt>
      <trkpt lat="45.87755" lon="6.23723">
        <ele>769</ele>
        <time>2010-04-23T19:51:52Z</time>
      </trkpt>
      <trkpt lat="45.87749" lon="6.23717">
        <ele>771</ele>
        <time>2010-04-23T19:51:54Z</time>
      </trkpt>
      <trkpt lat="45.87748" lon="6.23715">
        <ele>773</ele>
        <time>2010-04-23T19:51:56Z</time>
      </trkpt>
      <trkpt lat="45.87751" lon="6.2371">
        <ele>775</ele>
        <time>2010-04-23T19:51:58Z</time>
      </trkpt>
      <trkpt lat="45.87756" lon="6.23702">
        <ele>777</ele>
        <time>2010-04-23T19:52:00Z</time>
      </trkpt>
      <trkpt lat="45.87762" lon="6.23698">
        <ele>779</ele>
        <time>2010-04-23T19:52:02Z</time>
      </trkpt>
      <trkpt lat="45.8777" lon="6.23699">
        <ele>782</ele>
        <time>2010-04-23T19:52:04Z</time>
      </trkpt>
      <trkpt lat="45.87778" lon="6.237">
        <ele>784</ele>
        <time>2010-04-23T19:52:06Z</time>
      </trkpt>
      <trkpt lat="45.87784" lon="6.237">
        <ele>786</ele>
        <time>2010-04-23T19:52:08Z</time>
      </trkpt>
      <trkpt lat="45.8779" lon="6.23701">
        <ele>788</ele>
        <time>2010-04-23T19:52:10Z</time>
      </trkpt>
      <trkpt lat="45.87797" lon="6.23701">
        <ele>790</ele>
        <time>2010-04-23T19:52:12Z</time>
      </trkpt>
      <trkpt lat="45.87804" lon="6.23699">
        <ele>791</ele>
        <time>2010-04-23T19:52:14Z</time>
      </trkpt>
      <trkpt lat="45.87812" lon="6.23693">
        <ele>791</ele>
        <time>2010-04-23T19:52:16Z</time>
      </trkpt>
      <trkpt lat="45.87817" lon="6.23691">
        <ele>791</ele>
        <time>2010-04-23T19:52:18Z</time>
      </trkpt>
      <trkpt lat="45.8782" lon="6.23689">
        <ele>790</ele>
        <time>2010-04-23T19:52:20Z</time>
      </trkpt>
      <trkpt lat="45.87822" lon="6.23687">
        <ele>788</ele>
        <time>2010-04-23T19:52:22Z</time>
      </trkpt>
      <trkpt lat="45.87823" lon="6.23683">
        <ele>786</ele>
        <time>2010-04-23T19:52:24Z</time>
      </trkpt>
      <trkpt lat="45.87825" lon="6.2368">
        <ele>784</ele>
        <time>2010-04-23T19:52:26Z</time>
      </trkpt>
      <trkpt lat="45.87826" lon="6.23678">
        <ele>782</ele>
        <time>2010-04-23T19:52:28Z</time>
      </trkpt>
      <trkpt lat="45.87828" lon="6.23675">
        <ele>780</ele>
        <time>2010-04-23T19:52:30Z</time>
      </trkpt>
      <trkpt lat="45.87829" lon="6.23671">
        <ele>778</ele>
        <time>2010-04-23T19:52:32Z</time>
      </trkpt>
      <trkpt lat="45.8783" lon="6.23667">
        <ele>776</ele>
        <time>2010-04-23T19:52:34Z</time>
      </trkpt>
      <trkpt lat="45.87831" lon="6.23664">
        <ele>774</ele>
        <time>2010-04-23T19:52:36Z</time>
      </trkpt>
      <trkpt lat="45.87831" lon="6.23661">
        <ele>772</ele>
        <time>2010-04-23T19:52:38Z</time>
      </trkpt>
      <trkpt lat="45.8783" lon="6.23657">
        <ele>770</ele>
        <time>2010-04-23T19:52:40Z</time>
      </trkpt>
      <trkpt lat="45.8783" lon="6.23653">
        <ele>770</ele>
        <time>2010-04-23T19:52:42Z</time>
      </trkpt>
      <trkpt lat="45.87829" lon="6.23646">
        <ele>770</ele>
        <time>2010-04-23T19:52:44Z</time>
      </trkpt>
      <trkpt lat="45.87828" lon="6.23638">
        <ele>770</ele>
        <time>2010-04-23T19:52:46Z</time>
      </trkpt>
      <trkpt lat="45.87827" lon="6.2363">
        <ele>770</ele>
        <time>2010-04-23T19:52:48Z</time>
      </trkpt>
      <trkpt lat="45.87825" lon="6.23618">
        <ele>770</ele>
        <time>2010-04-23T19:52:51Z</time>
      </trkpt>
      <trkpt lat="45.87823" lon="6.23609">
        <ele>770</ele>
        <time>2010-04-23T19:52:53Z</time>
      </trkpt>
      <trkpt lat="45.87822" lon="6.236">
        <ele>770</ele>
        <time>2010-04-23T19:52:55Z</time>
      </trkpt>
      <trkpt lat="45.8782" lon="6.23593">
        <ele>770</ele>
        <time>2010-04-23T19:52:57Z</time>
      </trkpt>
      <trkpt lat="45.87817" lon="6.23584">
        <ele>770</ele>
        <time>2010-04-23T19:52:59Z</time>
      </trkpt>
      <trkpt lat="45.87814" lon="6.23577">
        <ele>770</ele>
        <time>2010-04-23T19:53:01Z</time>
      </trkpt>
      <trkpt lat="45.8781" lon="6.23571">
        <ele>770</ele>
        <time>2010-04-23T19:53:03Z</time>
      </trkpt>
      <trkpt lat="45.87808" lon="6.23566">
        <ele>770</ele>
        <time>2010-04-23T19:53:05Z</time>
      </trkpt>
      <trkpt lat="45.87807" lon="6.23562">
        <ele>770</ele>
        <time>2010-04-23T19:53:08Z</time>
      </trkpt>
      <trkpt lat="45.87808" lon="6.2356">
        <ele>770</ele>
        <time>2010-04-23T19:53:12Z</time>
      </trkpt>
      <trkpt lat="45.87809" lon="6.23559">
        <ele>770</ele>
        <time>2010-04-23T19:53:23Z</time>
      </trkpt>
      <trkpt lat="45.87809" lon="6.23557">
        <ele>770</ele>
        <time>2010-04-23T19:53:25Z</time>
      </trkpt>
      <trkpt lat="45.87807" lon="6.23553">
        <ele>770</ele>
        <time>2010-04-23T19:53:28Z</time>
      </trkpt>
      <trkpt lat="45.87806" lon="6.2355">
        <ele>770</ele>
        <time>2010-04-23T19:53:30Z</time>
      </trkpt>
      <trkpt lat="45.87806" lon="6.23548">
        <ele>770</ele>
        <time>2010-04-23T19:53:32Z</time>
      </trkpt>
      <trkpt lat="45.87805" lon="6.23546">
        <ele>770</ele>
        <time>2010-04-23T19:53:34Z</time>
      </trkpt>
      <trkpt lat="45.87804" lon="6.23543">
        <ele>770</ele>
        <time>2010-04-23T19:53:36Z</time>
      </trkpt>
      <trkpt lat="45.87804" lon="6.2354">
        <ele>770</ele>
        <time>2010-04-23T19:53:38Z</time>
      </trkpt>
      <trkpt lat="45.87803" lon="6.23537">
        <ele>770</ele>
        <time>2010-04-23T19:53:40Z</time>
      </trkpt>
      <trkpt lat="45.87802" lon="6.23533">
        <ele>770</ele>
        <time>2010-04-23T19:53:42Z</time>
      </trkpt>
      <trkpt lat="45.87802" lon="6.2353">
        <ele>770</ele>
        <time>2010-04-23T19:53:44Z</time>
      </trkpt>
      <trkpt lat="45.87801" lon="6.23527">
        <ele>770</ele>
        <time>2010-04-23T19:53:46Z</time>
      </trkpt>
      <trkpt lat="45.878" lon="6.23524">
        <ele>770</ele>
        <time>2010-04-23T19:53:48Z</time>
      </trkpt>
      <trkpt lat="45.87799" lon="6.23519">
        <ele>770</ele>
        <time>2010-04-23T19:53:50Z</time>
      </trkpt>
      <trkpt lat="45.87799" lon="6.23515">
        <ele>770</ele>
        <time>2010-04-23T19:53:52Z</time>
      </trkpt>
      <trkpt lat="45.87798" lon="6.23511">
        <ele>770</ele>
        <time>2010-04-23T19:53:54Z</time>
      </trkpt>
      <trkpt lat="45.87798" lon="6.23506">
        <ele>770</ele>
        <time>2010-04-23T19:53:56Z</time>
      </trkpt>
      <trkpt lat="45.87797" lon="6.23502">
        <ele>770</ele>
        <time>2010-04-23T19:53:58Z</time>
      </trkpt>
      <trkpt lat="45.87796" lon="6.23498">
        <ele>770</ele>
        <time>2010-04-23T19:54:00Z</time>
      </trkpt>
      <trkpt lat="45.87796" lon="6.23494">
        <ele>769</ele>
        <time>2010-04-23T19:54:02Z</time>
      </trkpt>
      <trkpt lat="45.87795" lon="6.23489">
        <ele>769</ele>
        <time>2010-04-23T19:54:04Z</time>
      </trkpt>
      <trkpt lat="45.87795" lon="6.23485">
        <ele>769</ele>
        <time>2010-04-23T19:54:06Z</time>
      </trkpt>
      <trkpt lat="45.87795" lon="6.23482">
        <ele>769</ele>
        <time>2010-04-23T19:54:08Z</time>
      </trkpt>
      <trkpt lat="45.87796" lon="6.23478">
        <ele>768</ele>
        <time>2010-04-23T19:54:10Z</time>
      </trkpt>
      <trkpt lat="45.87796" lon="6.23475">
        <ele>767</ele>
        <time>2010-04-23T19:54:12Z</time>
      </trkpt>
      <trkpt lat="45.87796" lon="6.2347">
        <ele>767</ele>
        <time>2010-04-23T19:54:14Z</time>
      </trkpt>
      <trkpt lat="45.87796" lon="6.23466">
        <ele>767</ele>
        <time>2010-04-23T19:54:16Z</time>
      </trkpt>
      <trkpt lat="45.87797" lon="6.23462">
        <ele>767</ele>
        <time>2010-04-23T19:54:18Z</time>
      </trkpt>
      <trkpt lat="45.87799" lon="6.23458">
        <ele>766</ele>
        <time>2010-04-23T19:54:20Z</time>
      </trkpt>
      <trkpt lat="45.87801" lon="6.23454">
        <ele>766</ele>
        <time>2010-04-23T19:54:22Z</time>
      </trkpt>
      <trkpt lat="45.87803" lon="6.23451">
        <ele>765</ele>
        <time>2010-04-23T19:54:24Z</time>
      </trkpt>
      <trkpt lat="45.87805" lon="6.23447">
        <ele>765</ele>
        <time>2010-04-23T19:54:26Z</time>
      </trkpt>
      <trkpt lat="45.87807" lon="6.23443">
        <ele>765</ele>
        <time>2010-04-23T19:54:28Z</time>
      </trkpt>
      <trkpt lat="45.87811" lon="6.23439">
        <ele>765</ele>
        <time>2010-04-23T19:54:30Z</time>
      </trkpt>
      <trkpt lat="45.87815" lon="6.23436">
        <ele>765</ele>
        <time>2010-04-23T19:54:32Z</time>
      </trkpt>
      <trkpt lat="45.87819" lon="6.23433">
        <ele>765</ele>
        <time>2010-04-23T19:54:34Z</time>
      </trkpt>
      <trkpt lat="45.87822" lon="6.2343">
        <ele>765</ele>
        <time>2010-04-23T19:54:36Z</time>
      </trkpt>
      <trkpt lat="45.87826" lon="6.23425">
        <ele>765</ele>
        <time>2010-04-23T19:54:38Z</time>
      </trkpt>
      <trkpt lat="45.8783" lon="6.23421">
        <ele>765</ele>
        <time>2010-04-23T19:54:40Z</time>
      </trkpt>
      <trkpt lat="45.87833" lon="6.23415">
        <ele>765</ele>
        <time>2010-04-23T19:54:42Z</time>
      </trkpt>
      <trkpt lat="45.87835" lon="6.23409">
        <ele>764</ele>
        <time>2010-04-23T19:54:44Z</time>
      </trkpt>
      <trkpt lat="45.87838" lon="6.23404">
        <ele>764</ele>
        <time>2010-04-23T19:54:46Z</time>
      </trkpt>
      <trkpt lat="45.87841" lon="6.23398">
        <ele>763</ele>
        <time>2010-04-23T19:54:48Z</time>
      </trkpt>
      <trkpt lat="45.87845" lon="6.23393">
        <ele>762</ele>
        <time>2010-04-23T19:54:50Z</time>
      </trkpt>
      <trkpt lat="45.87849" lon="6.23386">
        <ele>761</ele>
        <time>2010-04-23T19:54:52Z</time>
      </trkpt>
      <trkpt lat="45.87852" lon="6.23378">
        <ele>761</ele>
        <time>2010-04-23T19:54:54Z</time>
      </trkpt>
      <trkpt lat="45.87855" lon="6.23372">
        <ele>760</ele>
        <time>2010-04-23T19:54:56Z</time>
      </trkpt>
      <trkpt lat="45.87858" lon="6.23365">
        <ele>759</ele>
        <time>2010-04-23T19:54:58Z</time>
      </trkpt>
      <trkpt lat="45.87861" lon="6.23358">
        <ele>759</ele>
        <time>2010-04-23T19:55:00Z</time>
      </trkpt>
      <trkpt lat="45.87863" lon="6.2335">
        <ele>758</ele>
        <time>2010-04-23T19:55:02Z</time>
      </trkpt>
      <trkpt lat="45.87865" lon="6.23343">
        <ele>758</ele>
        <time>2010-04-23T19:55:04Z</time>
      </trkpt>
      <trkpt lat="45.87867" lon="6.23335">
        <ele>757</ele>
        <time>2010-04-23T19:55:06Z</time>
      </trkpt>
      <trkpt lat="45.8787" lon="6.23328">
        <ele>757</ele>
        <time>2010-04-23T19:55:08Z</time>
      </trkpt>
      <trkpt lat="45.87872" lon="6.23321">
        <ele>757</ele>
        <time>2010-04-23T19:55:10Z</time>
      </trkpt>
      <trkpt lat="45.87873" lon="6.23315">
        <ele>756</ele>
        <time>2010-04-23T19:55:12Z</time>
      </trkpt>
      <trkpt lat="45.87875" lon="6.2331">
        <ele>755</ele>
        <time>2010-04-23T19:55:14Z</time>
      </trkpt>
      <trkpt lat="45.87878" lon="6.23304">
        <ele>755</ele>
        <time>2010-04-23T19:55:16Z</time>
      </trkpt>
      <trkpt lat="45.8788" lon="6.23298">
        <ele>755</ele>
        <time>2010-04-23T19:55:18Z</time>
      </trkpt>
      <trkpt lat="45.87883" lon="6.2329">
        <ele>754</ele>
        <time>2010-04-23T19:55:20Z</time>
      </trkpt>
      <trkpt lat="45.87886" lon="6.23283">
        <ele>754</ele>
        <time>2010-04-23T19:55:22Z</time>
      </trkpt>
      <trkpt lat="45.87888" lon="6.23275">
        <ele>754</ele>
        <time>2010-04-23T19:55:24Z</time>
      </trkpt>
      <trkpt lat="45.8789" lon="6.23267">
        <ele>753</ele>
        <time>2010-04-23T19:55:26Z</time>
      </trkpt>
      <trkpt lat="45.87892" lon="6.23259">
        <ele>753</ele>
        <time>2010-04-23T19:55:28Z</time>
      </trkpt>
      <trkpt lat="45.87895" lon="6.2325">
        <ele>752</ele>
        <time>2010-04-23T19:55:30Z</time>
      </trkpt>
      <trkpt lat="45.87898" lon="6.23242">
        <ele>752</ele>
        <time>2010-04-23T19:55:32Z</time>
      </trkpt>
      <trkpt lat="45.87901" lon="6.23235">
        <ele>751</ele>
        <time>2010-04-23T19:55:34Z</time>
      </trkpt>
      <trkpt lat="45.87905" lon="6.23226">
        <ele>750</ele>
        <time>2010-04-23T19:55:36Z</time>
      </trkpt>
      <trkpt lat="45.87909" lon="6.23219">
        <ele>750</ele>
        <time>2010-04-23T19:55:38Z</time>
      </trkpt>
      <trkpt lat="45.87913" lon="6.23211">
        <ele>749</ele>
        <time>2010-04-23T19:55:40Z</time>
      </trkpt>
      <trkpt lat="45.87917" lon="6.23204">
        <ele>749</ele>
        <time>2010-04-23T19:55:42Z</time>
      </trkpt>
      <trkpt lat="45.8792" lon="6.23198">
        <ele>749</ele>
        <time>2010-04-23T19:55:44Z</time>
      </trkpt>
      <trkpt lat="45.87923" lon="6.23191">
        <ele>749</ele>
        <time>2010-04-23T19:55:46Z</time>
      </trkpt>
      <trkpt lat="45.87926" lon="6.23185">
        <ele>749</ele>
        <time>2010-04-23T19:55:48Z</time>
      </trkpt>
      <trkpt lat="45.87928" lon="6.23177">
        <ele>749</ele>
        <time>2010-04-23T19:55:50Z</time>
      </trkpt>
      <trkpt lat="45.87931" lon="6.2317">
        <ele>749</ele>
        <time>2010-04-23T19:55:52Z</time>
      </trkpt>
      <trkpt lat="45.87933" lon="6.23163">
        <ele>749</ele>
        <time>2010-04-23T19:55:54Z</time>
      </trkpt>
      <trkpt lat="45.87935" lon="6.23156">
        <ele>749</ele>
        <time>2010-04-23T19:55:56Z</time>
      </trkpt>
      <trkpt lat="45.87938" lon="6.23148">
        <ele>749</ele>
        <time>2010-04-23T19:55:58Z</time>
      </trkpt>
      <trkpt lat="45.87941" lon="6.2314">
        <ele>749</ele>
        <time>2010-04-23T19:56:00Z</time>
      </trkpt>
      <trkpt lat="45.87945" lon="6.23133">
        <ele>749</ele>
        <time>2010-04-23T19:56:02Z</time>
      </trkpt>
      <trkpt lat="45.87949" lon="6.23125">
        <ele>749</ele>
        <time>2010-04-23T19:56:04Z</time>
      </trkpt>
      <trkpt lat="45.87953" lon="6.23118">
        <ele>749</ele>
        <time>2010-04-23T19:56:06Z</time>
      </trkpt>
      <trkpt lat="45.87956" lon="6.23111">
        <ele>749</ele>
        <time>2010-04-23T19:56:08Z</time>
      </trkpt>
      <trkpt lat="45.8796" lon="6.23106">
        <ele>749</ele>
        <time>2010-04-23T19:56:10Z</time>
      </trkpt>
      <trkpt lat="45.87963" lon="6.231">
        <ele>749</ele>
        <time>2010-04-23T19:56:12Z</time>
      </trkpt>
      <trkpt lat="45.87967" lon="6.23095">
        <ele>749</ele>
        <time>2010-04-23T19:56:14Z</time>
      </trkpt>
      <trkpt lat="45.8797" lon="6.2309">
        <ele>749</ele>
        <time>2010-04-23T19:56:16Z</time>
      </trkpt>
      <trkpt lat="45.87974" lon="6.23084">
        <ele>749</ele>
        <time>2010-04-23T19:56:18Z</time>
      </trkpt>
      <trkpt lat="45.87977" lon="6.23079">
        <ele>749</ele>
        <time>2010-04-23T19:56:20Z</time>
      </trkpt>
      <trkpt lat="45.87981" lon="6.23072">
        <ele>749</ele>
        <time>2010-04-23T19:56:22Z</time>
      </trkpt>
      <trkpt lat="45.87983" lon="6.23065">
        <ele>749</ele>
        <time>2010-04-23T19:56:24Z</time>
      </trkpt>
      <trkpt lat="45.87986" lon="6.23056">
        <ele>749</ele>
        <time>2010-04-23T19:56:26Z</time>
      </trkpt>
      <trkpt lat="45.87989" lon="6.23048">
        <ele>749</ele>
        <time>2010-04-23T19:56:28Z</time>
      </trkpt>
      <trkpt lat="45.87991" lon="6.23039">
        <ele>749</ele>
        <time>2010-04-23T19:56:30Z</time>
      </trkpt>
      <trkpt lat="45.87993" lon="6.23031">
        <ele>749</ele>
        <time>2010-04-23T19:56:32Z</time>
      </trkpt>
      <trkpt lat="45.87996" lon="6.23024">
        <ele>749</ele>
        <time>2010-04-23T19:56:34Z</time>
      </trkpt>
      <trkpt lat="45.87999" lon="6.23016">
        <ele>749</ele>
        <time>2010-04-23T19:56:36Z</time>
      </trkpt>
      <trkpt lat="45.88002" lon="6.23009">
        <ele>749</ele>
        <time>2010-04-23T19:56:38Z</time>
      </trkpt>
      <trkpt lat="45.88005" lon="6.23002">
        <ele>749</ele>
        <time>2010-04-23T19:56:40Z</time>
      </trkpt>
      <trkpt lat="45.88009" lon="6.22996">
        <ele>749</ele>
        <time>2010-04-23T19:56:42Z</time>
      </trkpt>
      <trkpt lat="45.88013" lon="6.22994">
        <ele>749</ele>
        <time>2010-04-23T19:56:44Z</time>
      </trkpt>
      <trkpt lat="45.88019" lon="6.22996">
        <ele>750</ele>
        <time>2010-04-23T19:56:46Z</time>
      </trkpt>
      <trkpt lat="45.88023" lon="6.23002">
        <ele>751</ele>
        <time>2010-04-23T19:56:48Z</time>
      </trkpt>
      <trkpt lat="45.88026" lon="6.23009">
        <ele>751</ele>
        <time>2010-04-23T19:56:50Z</time>
      </trkpt>
      <trkpt lat="45.8803" lon="6.23015">
        <ele>751</ele>
        <time>2010-04-23T19:56:52Z</time>
      </trkpt>
      <trkpt lat="45.88034" lon="6.23019">
        <ele>751</ele>
        <time>2010-04-23T19:56:54Z</time>
      </trkpt>
      <trkpt lat="45.8804" lon="6.23022">
        <ele>751</ele>
        <time>2010-04-23T19:56:56Z</time>
      </trkpt>
      <trkpt lat="45.88046" lon="6.23026">
        <ele>751</ele>
        <time>2010-04-23T19:56:58Z</time>
      </trkpt>
      <trkpt lat="45.88051" lon="6.2303">
        <ele>751</ele>
        <time>2010-04-23T19:57:00Z</time>
      </trkpt>
      <trkpt lat="45.88057" lon="6.23034">
        <ele>751</ele>
        <time>2010-04-23T19:57:02Z</time>
      </trkpt>
      <trkpt lat="45.88062" lon="6.23038">
        <ele>751</ele>
        <time>2010-04-23T19:57:04Z</time>
      </trkpt>
      <trkpt lat="45.88068" lon="6.2304">
        <ele>751</ele>
        <time>2010-04-23T19:57:06Z</time>
      </trkpt>
      <trkpt lat="45.88074" lon="6.23044">
        <ele>751</ele>
        <time>2010-04-23T19:57:08Z</time>
      </trkpt>
      <trkpt lat="45.8808" lon="6.23048">
        <ele>751</ele>
        <time>2010-04-23T19:57:10Z</time>
      </trkpt>
      <trkpt lat="45.88084" lon="6.23053">
        <ele>751</ele>
        <time>2010-04-23T19:57:12Z</time>
      </trkpt>
      <trkpt lat="45.88087" lon="6.2306">
        <ele>751</ele>
        <time>2010-04-23T19:57:14Z</time>
      </trkpt>
      <trkpt lat="45.88089" lon="6.23068">
        <ele>751</ele>
        <time>2010-04-23T19:57:16Z</time>
      </trkpt>
      <trkpt lat="45.88091" lon="6.23076">
        <ele>751</ele>
        <time>2010-04-23T19:57:18Z</time>
      </trkpt>
      <trkpt lat="45.88093" lon="6.23083">
        <ele>751</ele>
        <time>2010-04-23T19:57:20Z</time>
      </trkpt>
      <trkpt lat="45.88096" lon="6.23091">
        <ele>750</ele>
        <time>2010-04-23T19:57:22Z</time>
      </trkpt>
      <trkpt lat="45.881" lon="6.23098">
        <ele>750</ele>
        <time>2010-04-23T19:57:24Z</time>
      </trkpt>
      <trkpt lat="45.88104" lon="6.23103">
        <ele>749</ele>
        <time>2010-04-23T19:57:26Z</time>
      </trkpt>
      <trkpt lat="45.88109" lon="6.23106">
        <ele>748</ele>
        <time>2010-04-23T19:57:28Z</time>
      </trkpt>
      <trkpt lat="45.88114" lon="6.23108">
        <ele>747</ele>
        <time>2010-04-23T19:57:30Z</time>
      </trkpt>
      <trkpt lat="45.88119" lon="6.2311">
        <ele>747</ele>
        <time>2010-04-23T19:57:32Z</time>
      </trkpt>
      <trkpt lat="45.88125" lon="6.2311">
        <ele>747</ele>
        <time>2010-04-23T19:57:34Z</time>
      </trkpt>
      <trkpt lat="45.88132" lon="6.23111">
        <ele>746</ele>
        <time>2010-04-23T19:57:36Z</time>
      </trkpt>
      <trkpt lat="45.88138" lon="6.23112">
        <ele>746</ele>
        <time>2010-04-23T19:57:38Z</time>
      </trkpt>
      <trkpt lat="45.88144" lon="6.23111">
        <ele>745</ele>
        <time>2010-04-23T19:57:40Z</time>
      </trkpt>
      <trkpt lat="45.8815" lon="6.23111">
        <ele>745</ele>
        <time>2010-04-23T19:57:42Z</time>
      </trkpt>
      <trkpt lat="45.88156" lon="6.2311">
        <ele>744</ele>
        <time>2010-04-23T19:57:44Z</time>
      </trkpt>
      <trkpt lat="45.88161" lon="6.23109">
        <ele>744</ele>
        <time>2010-04-23T19:57:46Z</time>
      </trkpt>
      <trkpt lat="45.88167" lon="6.23107">
        <ele>743</ele>
        <time>2010-04-23T19:57:48Z</time>
      </trkpt>
      <trkpt lat="45.88173" lon="6.23105">
        <ele>743</ele>
        <time>2010-04-23T19:57:50Z</time>
      </trkpt>
      <trkpt lat="45.88179" lon="6.23103">
        <ele>743</ele>
        <time>2010-04-23T19:57:52Z</time>
      </trkpt>
      <trkpt lat="45.88184" lon="6.23101">
        <ele>743</ele>
        <time>2010-04-23T19:57:54Z</time>
      </trkpt>
      <trkpt lat="45.88189" lon="6.23099">
        <ele>742</ele>
        <time>2010-04-23T19:57:56Z</time>
      </trkpt>
      <trkpt lat="45.88194" lon="6.23095">
        <ele>741</ele>
        <time>2010-04-23T19:57:58Z</time>
      </trkpt>
      <trkpt lat="45.882" lon="6.23091">
        <ele>740</ele>
        <time>2010-04-23T19:58:00Z</time>
      </trkpt>
      <trkpt lat="45.88205" lon="6.23085">
        <ele>739</ele>
        <time>2010-04-23T19:58:02Z</time>
      </trkpt>
      <trkpt lat="45.8821" lon="6.23078">
        <ele>738</ele>
        <time>2010-04-23T19:58:04Z</time>
      </trkpt>
      <trkpt lat="45.88213" lon="6.23071">
        <ele>738</ele>
        <time>2010-04-23T19:58:06Z</time>
      </trkpt>
      <trkpt lat="45.88216" lon="6.23064">
        <ele>737</ele>
        <time>2010-04-23T19:58:08Z</time>
      </trkpt>
      <trkpt lat="45.88219" lon="6.23056">
        <ele>735</ele>
        <time>2010-04-23T19:58:10Z</time>
      </trkpt>
      <trkpt lat="45.88219" lon="6.23048">
        <ele>734</ele>
        <time>2010-04-23T19:58:12Z</time>
      </trkpt>
      <trkpt lat="45.8822" lon="6.23041">
        <ele>733</ele>
        <time>2010-04-23T19:58:14Z</time>
      </trkpt>
      <trkpt lat="45.88219" lon="6.23032">
        <ele>732</ele>
        <time>2010-04-23T19:58:16Z</time>
      </trkpt>
      <trkpt lat="45.88217" lon="6.23022">
        <ele>732</ele>
        <time>2010-04-23T19:58:18Z</time>
      </trkpt>
      <trkpt lat="45.88215" lon="6.23014">
        <ele>732</ele>
        <time>2010-04-23T19:58:20Z</time>
      </trkpt>
      <trkpt lat="45.88213" lon="6.23005">
        <ele>732</ele>
        <time>2010-04-23T19:58:22Z</time>
      </trkpt>
      <trkpt lat="45.8821" lon="6.22996">
        <ele>732</ele>
        <time>2010-04-23T19:58:24Z</time>
      </trkpt>
      <trkpt lat="45.88207" lon="6.22988">
        <ele>732</ele>
        <time>2010-04-23T19:58:26Z</time>
      </trkpt>
      <trkpt lat="45.88203" lon="6.22979">
        <ele>731</ele>
        <time>2010-04-23T19:58:28Z</time>
      </trkpt>
      <trkpt lat="45.882" lon="6.22971">
        <ele>730</ele>
        <time>2010-04-23T19:58:30Z</time>
      </trkpt>
      <trkpt lat="45.88197" lon="6.22964">
        <ele>730</ele>
        <time>2010-04-23T19:58:32Z</time>
      </trkpt>
      <trkpt lat="45.88195" lon="6.22957">
        <ele>729</ele>
        <time>2010-04-23T19:58:34Z</time>
      </trkpt>
      <trkpt lat="45.88193" lon="6.22949">
        <ele>728</ele>
        <time>2010-04-23T19:58:36Z</time>
      </trkpt>
      <trkpt lat="45.8819" lon="6.22941">
        <ele>728</ele>
        <time>2010-04-23T19:58:38Z</time>
      </trkpt>
      <trkpt lat="45.88188" lon="6.22932">
        <ele>727</ele>
        <time>2010-04-23T19:58:40Z</time>
      </trkpt>
      <trkpt lat="45.88186" lon="6.22925">
        <ele>727</ele>
        <time>2010-04-23T19:58:42Z</time>
      </trkpt>
      <trkpt lat="45.88186" lon="6.22917">
        <ele>726</ele>
        <time>2010-04-23T19:58:44Z</time>
      </trkpt>
      <trkpt lat="45.88187" lon="6.22909">
        <ele>726</ele>
        <time>2010-04-23T19:58:46Z</time>
      </trkpt>
      <trkpt lat="45.88188" lon="6.229">
        <ele>726</ele>
        <time>2010-04-23T19:58:48Z</time>
      </trkpt>
      <trkpt lat="45.8819" lon="6.22892">
        <ele>725</ele>
        <time>2010-04-23T19:58:50Z</time>
      </trkpt>
      <trkpt lat="45.88192" lon="6.22884">
        <ele>724</ele>
        <time>2010-04-23T19:58:52Z</time>
      </trkpt>
      <trkpt lat="45.88195" lon="6.22876">
        <ele>724</ele>
        <time>2010-04-23T19:58:54Z</time>
      </trkpt>
      <trkpt lat="45.88199" lon="6.22869">
        <ele>723</ele>
        <time>2010-04-23T19:58:56Z</time>
      </trkpt>
      <trkpt lat="45.88204" lon="6.22863">
        <ele>722</ele>
        <time>2010-04-23T19:58:58Z</time>
      </trkpt>
      <trkpt lat="45.8821" lon="6.22858">
        <ele>722</ele>
        <time>2010-04-23T19:59:00Z</time>
      </trkpt>
      <trkpt lat="45.88216" lon="6.22856">
        <ele>721</ele>
        <time>2010-04-23T19:59:02Z</time>
      </trkpt>
      <trkpt lat="45.88222" lon="6.22857">
        <ele>721</ele>
        <time>2010-04-23T19:59:04Z</time>
      </trkpt>
      <trkpt lat="45.88229" lon="6.22858">
        <ele>720</ele>
        <time>2010-04-23T19:59:06Z</time>
      </trkpt>
      <trkpt lat="45.88234" lon="6.2286">
        <ele>720</ele>
        <time>2010-04-23T19:59:08Z</time>
      </trkpt>
      <trkpt lat="45.88239" lon="6.22863">
        <ele>719</ele>
        <time>2010-04-23T19:59:10Z</time>
      </trkpt>
      <trkpt lat="45.88244" lon="6.22867">
        <ele>719</ele>
        <time>2010-04-23T19:59:12Z</time>
      </trkpt>
      <trkpt lat="45.88249" lon="6.2287">
        <ele>718</ele>
        <time>2010-04-23T19:59:14Z</time>
      </trkpt>
      <trkpt lat="45.88255" lon="6.22874">
        <ele>718</ele>
        <time>2010-04-23T19:59:16Z</time>
      </trkpt>
      <trkpt lat="45.88261" lon="6.22877">
        <ele>718</ele>
        <time>2010-04-23T19:59:18Z</time>
      </trkpt>
      <trkpt lat="45.88267" lon="6.22881">
        <ele>718</ele>
        <time>2010-04-23T19:59:20Z</time>
      </trkpt>
      <trkpt lat="45.88273" lon="6.22884">
        <ele>717</ele>
        <time>2010-04-23T19:59:22Z</time>
      </trkpt>
      <trkpt lat="45.88277" lon="6.22888">
        <ele>717</ele>
        <time>2010-04-23T19:59:24Z</time>
      </trkpt>
      <trkpt lat="45.88283" lon="6.22892">
        <ele>716</ele>
        <time>2010-04-23T19:59:26Z</time>
      </trkpt>
      <trkpt lat="45.88289" lon="6.22895">
        <ele>716</ele>
        <time>2010-04-23T19:59:28Z</time>
      </trkpt>
      <trkpt lat="45.88294" lon="6.22899">
        <ele>715</ele>
        <time>2010-04-23T19:59:30Z</time>
      </trkpt>
      <trkpt lat="45.88301" lon="6.22902">
        <ele>714</ele>
        <time>2010-04-23T19:59:32Z</time>
      </trkpt>
      <trkpt lat="45.88305" lon="6.22905">
        <ele>713</ele>
        <time>2010-04-23T19:59:34Z</time>
      </trkpt>
      <trkpt lat="45.88311" lon="6.22908">
        <ele>713</ele>
        <time>2010-04-23T19:59:36Z</time>
      </trkpt>
      <trkpt lat="45.88317" lon="6.22911">
        <ele>713</ele>
        <time>2010-04-23T19:59:38Z</time>
      </trkpt>
      <trkpt lat="45.88322" lon="6.22915">
        <ele>713</ele>
        <time>2010-04-23T19:59:40Z</time>
      </trkpt>
      <trkpt lat="45.88327" lon="6.22918">
        <ele>712</ele>
        <time>2010-04-23T19:59:42Z</time>
      </trkpt>
      <trkpt lat="45.88333" lon="6.2292">
        <ele>712</ele>
        <time>2010-04-23T19:59:44Z</time>
      </trkpt>
      <trkpt lat="45.88337" lon="6.22922">
        <ele>712</ele>
        <time>2010-04-23T19:59:46Z</time>
      </trkpt>
      <trkpt lat="45.88338" lon="6.22923">
        <ele>711</ele>
        <time>2010-04-23T19:59:48Z</time>
      </trkpt>
      <trkpt lat="45.88339" lon="6.22924">
        <ele>711</ele>
        <time>2010-04-23T19:59:50Z</time>
      </trkpt>
      <trkpt lat="45.8834" lon="6.22926">
        <ele>711</ele>
        <time>2010-04-23T19:59:55Z</time>
      </trkpt>
      <trkpt lat="45.88343" lon="6.22928">
        <ele>711</ele>
        <time>2010-04-23T19:59:57Z</time>
      </trkpt>
      <trkpt lat="45.88347" lon="6.22931">
        <ele>710</ele>
        <time>2010-04-23T19:59:59Z</time>
      </trkpt>
      <trkpt lat="45.88352" lon="6.22934">
        <ele>710</ele>
        <time>2010-04-23T20:00:01Z</time>
      </trkpt>
      <trkpt lat="45.88358" lon="6.22938">
        <ele>710</ele>
        <time>2010-04-23T20:00:03Z</time>
      </trkpt>
      <trkpt lat="45.88363" lon="6.22943">
        <ele>709</ele>
        <time>2010-04-23T20:00:05Z</time>
      </trkpt>
      <trkpt lat="45.88367" lon="6.22948">
        <ele>708</ele>
        <time>2010-04-23T20:00:07Z</time>
      </trkpt>
      <trkpt lat="45.88371" lon="6.22952">
        <ele>707</ele>
        <time>2010-04-23T20:00:09Z</time>
      </trkpt>
      <trkpt lat="45.88372" lon="6.22954">
        <ele>707</ele>
        <time>2010-04-23T20:00:11Z</time>
      </trkpt>
      <trkpt lat="45.88375" lon="6.22953">
        <ele>706</ele>
        <time>2010-04-23T20:00:13Z</time>
      </trkpt>
      <trkpt lat="45.88377" lon="6.22951">
        <ele>706</ele>
        <time>2010-04-23T20:00:15Z</time>
      </trkpt>
      <trkpt lat="45.8838" lon="6.22949">
        <ele>706</ele>
        <time>2010-04-23T20:00:17Z</time>
      </trkpt>
      <trkpt lat="45.88382" lon="6.22946">
        <ele>705</ele>
        <time>2010-04-23T20:00:19Z</time>
      </trkpt>
      <trkpt lat="45.88385" lon="6.22944">
        <ele>705</ele>
        <time>2010-04-23T20:00:21Z</time>
      </trkpt>
      <trkpt lat="45.88388" lon="6.2294">
        <ele>705</ele>
        <time>2010-04-23T20:00:24Z</time>
      </trkpt>
      <trkpt lat="45.8839" lon="6.22938">
        <ele>704</ele>
        <time>2010-04-23T20:00:26Z</time>
      </trkpt>
      <trkpt lat="45.88392" lon="6.22935">
        <ele>704</ele>
        <time>2010-04-23T20:00:28Z</time>
      </trkpt>
      <trkpt lat="45.88395" lon="6.22931">
        <ele>704</ele>
        <time>2010-04-23T20:00:30Z</time>
      </trkpt>
      <trkpt lat="45.88397" lon="6.22928">
        <ele>704</ele>
        <time>2010-04-23T20:00:32Z</time>
      </trkpt>
      <trkpt lat="45.884" lon="6.22923">
        <ele>704</ele>
        <time>2010-04-23T20:00:34Z</time>
      </trkpt>
      <trkpt lat="45.88403" lon="6.22918">
        <ele>703</ele>
        <time>2010-04-23T20:00:36Z</time>
      </trkpt>
      <trkpt lat="45.88406" lon="6.22912">
        <ele>703</ele>
        <time>2010-04-23T20:00:38Z</time>
      </trkpt>
      <trkpt lat="45.88409" lon="6.22905">
        <ele>703</ele>
        <time>2010-04-23T20:00:40Z</time>
      </trkpt>
      <trkpt lat="45.8841" lon="6.22898">
        <ele>703</ele>
        <time>2010-04-23T20:00:42Z</time>
      </trkpt>
      <trkpt lat="45.88411" lon="6.22889">
        <ele>703</ele>
        <time>2010-04-23T20:00:44Z</time>
      </trkpt>
      <trkpt lat="45.88411" lon="6.22881">
        <ele>703</ele>
        <time>2010-04-23T20:00:46Z</time>
      </trkpt>
      <trkpt lat="45.88409" lon="6.22872">
        <ele>703</ele>
        <time>2010-04-23T20:00:48Z</time>
      </trkpt>
      <trkpt lat="45.88406" lon="6.22865">
        <ele>703</ele>
        <time>2010-04-23T20:00:50Z</time>
      </trkpt>
      <trkpt lat="45.88405" lon="6.22858">
        <ele>703</ele>
        <time>2010-04-23T20:00:52Z</time>
      </trkpt>
      <trkpt lat="45.88403" lon="6.22851">
        <ele>703</ele>
        <time>2010-04-23T20:00:54Z</time>
      </trkpt>
      <trkpt lat="45.884" lon="6.22844">
        <ele>703</ele>
        <time>2010-04-23T20:00:56Z</time>
      </trkpt>
      <trkpt lat="45.88398" lon="6.22837">
        <ele>703</ele>
        <time>2010-04-23T20:00:58Z</time>
      </trkpt>
      <trkpt lat="45.88396" lon="6.2283">
        <ele>703</ele>
        <time>2010-04-23T20:01:00Z</time>
      </trkpt>
      <trkpt lat="45.88394" lon="6.22824">
        <ele>703</ele>
        <time>2010-04-23T20:01:02Z</time>
      </trkpt>
      <trkpt lat="45.88392" lon="6.22817">
        <ele>703</ele>
        <time>2010-04-23T20:01:04Z</time>
      </trkpt>
      <trkpt lat="45.8839" lon="6.22811">
        <ele>703</ele>
        <time>2010-04-23T20:01:06Z</time>
      </trkpt>
      <trkpt lat="45.88387" lon="6.22804">
        <ele>703</ele>
        <time>2010-04-23T20:01:08Z</time>
      </trkpt>
      <trkpt lat="45.88383" lon="6.228">
        <ele>703</ele>
        <time>2010-04-23T20:01:10Z</time>
      </trkpt>
      <trkpt lat="45.88379" lon="6.22795">
        <ele>703</ele>
        <time>2010-04-23T20:01:12Z</time>
      </trkpt>
      <trkpt lat="45.88374" lon="6.22791">
        <ele>703</ele>
        <time>2010-04-23T20:01:14Z</time>
      </trkpt>
      <trkpt lat="45.88369" lon="6.22787">
        <ele>703</ele>
        <time>2010-04-23T20:01:16Z</time>
      </trkpt>
      <trkpt lat="45.88364" lon="6.22783">
        <ele>702</ele>
        <time>2010-04-23T20:01:18Z</time>
      </trkpt>
      <trkpt lat="45.88359" lon="6.22778">
        <ele>702</ele>
        <time>2010-04-23T20:01:20Z</time>
      </trkpt>
      <trkpt lat="45.88353" lon="6.22773">
        <ele>701</ele>
        <time>2010-04-23T20:01:22Z</time>
      </trkpt>
      <trkpt lat="45.88348" lon="6.22768">
        <ele>701</ele>
        <time>2010-04-23T20:01:24Z</time>
      </trkpt>
      <trkpt lat="45.88343" lon="6.22763">
        <ele>700</ele>
        <time>2010-04-23T20:01:26Z</time>
      </trkpt>
      <trkpt lat="45.88338" lon="6.22757">
        <ele>699</ele>
        <time>2010-04-23T20:01:28Z</time>
      </trkpt>
      <trkpt lat="45.88333" lon="6.22752">
        <ele>699</ele>
        <time>2010-04-23T20:01:30Z</time>
      </trkpt>
      <trkpt lat="45.88329" lon="6.22747">
        <ele>699</ele>
        <time>2010-04-23T20:01:32Z</time>
      </trkpt>
      <trkpt lat="45.88324" lon="6.22741">
        <ele>698</ele>
        <time>2010-04-23T20:01:34Z</time>
      </trkpt>
      <trkpt lat="45.88322" lon="6.22736">
        <ele>698</ele>
        <time>2010-04-23T20:01:36Z</time>
      </trkpt>
      <trkpt lat="45.8832" lon="6.22733">
        <ele>698</ele>
        <time>2010-04-23T20:01:38Z</time>
      </trkpt>
      <trkpt lat="45.88318" lon="6.2273">
        <ele>697</ele>
        <time>2010-04-23T20:01:40Z</time>
      </trkpt>
      <trkpt lat="45.88316" lon="6.22727">
        <ele>696</ele>
        <time>2010-04-23T20:01:42Z</time>
      </trkpt>
      <trkpt lat="45.88315" lon="6.22725">
        <ele>695</ele>
        <time>2010-04-23T20:01:44Z</time>
      </trkpt>
      <trkpt lat="45.88314" lon="6.22724">
        <ele>694</ele>
        <time>2010-04-23T20:01:46Z</time>
      </trkpt>
      <trkpt lat="45.88312" lon="6.22719">
        <ele>693</ele>
        <time>2010-04-23T20:01:48Z</time>
      </trkpt>
      <trkpt lat="45.88309" lon="6.22714">
        <ele>693</ele>
        <time>2010-04-23T20:01:50Z</time>
      </trkpt>
      <trkpt lat="45.88306" lon="6.22708">
        <ele>693</ele>
        <time>2010-04-23T20:01:52Z</time>
      </trkpt>
      <trkpt lat="45.88303" lon="6.22702">
        <ele>693</ele>
        <time>2010-04-23T20:01:54Z</time>
      </trkpt>
      <trkpt lat="45.883" lon="6.22696">
        <ele>693</ele>
        <time>2010-04-23T20:01:56Z</time>
      </trkpt>
      <trkpt lat="45.88296" lon="6.22689">
        <ele>693</ele>
        <time>2010-04-23T20:01:58Z</time>
      </trkpt>
      <trkpt lat="45.88293" lon="6.22682">
        <ele>693</ele>
        <time>2010-04-23T20:02:00Z</time>
      </trkpt>
      <trkpt lat="45.8829" lon="6.22675">
        <ele>693</ele>
        <time>2010-04-23T20:02:02Z</time>
      </trkpt>
      <trkpt lat="45.88286" lon="6.22668">
        <ele>693</ele>
        <time>2010-04-23T20:02:04Z</time>
      </trkpt>
      <trkpt lat="45.88283" lon="6.22661">
        <ele>693</ele>
        <time>2010-04-23T20:02:06Z</time>
      </trkpt>
      <trkpt lat="45.8828" lon="6.22656">
        <ele>693</ele>
        <time>2010-04-23T20:02:08Z</time>
      </trkpt>
      <trkpt lat="45.88277" lon="6.2265">
        <ele>693</ele>
        <time>2010-04-23T20:02:10Z</time>
      </trkpt>
      <trkpt lat="45.88274" lon="6.22645">
        <ele>693</ele>
        <time>2010-04-23T20:02:12Z</time>
      </trkpt>
      <trkpt lat="45.8827" lon="6.22639">
        <ele>693</ele>
        <time>2010-04-23T20:02:14Z</time>
      </trkpt>
      <trkpt lat="45.88268" lon="6.22634">
        <ele>693</ele>
        <time>2010-04-23T20:02:16Z</time>
      </trkpt>
      <trkpt lat="45.88266" lon="6.2263">
        <ele>693</ele>
        <time>2010-04-23T20:02:18Z</time>
      </trkpt>
      <trkpt lat="45.88264" lon="6.22625">
        <ele>693</ele>
        <time>2010-04-23T20:02:20Z</time>
      </trkpt>
      <trkpt lat="45.88263" lon="6.22617">
        <ele>693</ele>
        <time>2010-04-23T20:02:22Z</time>
      </trkpt>
      <trkpt lat="45.88261" lon="6.22609">
        <ele>693</ele>
        <time>2010-04-23T20:02:24Z</time>
      </trkpt>
      <trkpt lat="45.8826" lon="6.22602">
        <ele>693</ele>
        <time>2010-04-23T20:02:26Z</time>
      </trkpt>
      <trkpt lat="45.88256" lon="6.22593">
        <ele>693</ele>
        <time>2010-04-23T20:02:28Z</time>
      </trkpt>
      <trkpt lat="45.88251" lon="6.22586">
        <ele>693</ele>
        <time>2010-04-23T20:02:30Z</time>
      </trkpt>
      <trkpt lat="45.88247" lon="6.22579">
        <ele>693</ele>
        <time>2010-04-23T20:02:32Z</time>
      </trkpt>
      <trkpt lat="45.88243" lon="6.22574">
        <ele>693</ele>
        <time>2010-04-23T20:02:34Z</time>
      </trkpt>
      <trkpt lat="45.8824" lon="6.22571">
        <ele>693</ele>
        <time>2010-04-23T20:02:36Z</time>
      </trkpt>
      <trkpt lat="45.88237" lon="6.2257">
        <ele>693</ele>
        <time>2010-04-23T20:02:38Z</time>
      </trkpt>
      <trkpt lat="45.88233" lon="6.22568">
        <ele>692</ele>
        <time>2010-04-23T20:02:40Z</time>
      </trkpt>
      <trkpt lat="45.8823" lon="6.22566">
        <ele>692</ele>
        <time>2010-04-23T20:02:42Z</time>
      </trkpt>
      <trkpt lat="45.88226" lon="6.22564">
        <ele>692</ele>
        <time>2010-04-23T20:02:44Z</time>
      </trkpt>
      <trkpt lat="45.88225" lon="6.22561">
        <ele>692</ele>
        <time>2010-04-23T20:02:46Z</time>
      </trkpt>
      <trkpt lat="45.88223" lon="6.22558">
        <ele>692</ele>
        <time>2010-04-23T20:02:48Z</time>
      </trkpt>
      <trkpt lat="45.88221" lon="6.22556">
        <ele>692</ele>
        <time>2010-04-23T20:02:50Z</time>
      </trkpt>
      <trkpt lat="45.88219" lon="6.22554">
        <ele>692</ele>
        <time>2010-04-23T20:02:52Z</time>
      </trkpt>
      <trkpt lat="45.88218" lon="6.22551">
        <ele>692</ele>
        <time>2010-04-23T20:02:54Z</time>
      </trkpt>
      <trkpt lat="45.88216" lon="6.22549">
        <ele>692</ele>
        <time>2010-04-23T20:02:56Z</time>
      </trkpt>
      <trkpt lat="45.88213" lon="6.22547">
        <ele>692</ele>
        <time>2010-04-23T20:02:58Z</time>
      </trkpt>
      <trkpt lat="45.88211" lon="6.22545">
        <ele>692</ele>
        <time>2010-04-23T20:03:00Z</time>
      </trkpt>
      <trkpt lat="45.88207" lon="6.22541">
        <ele>692</ele>
        <time>2010-04-23T20:03:02Z</time>
      </trkpt>
      <trkpt lat="45.88203" lon="6.22537">
        <ele>692</ele>
        <time>2010-04-23T20:03:04Z</time>
      </trkpt>
      <trkpt lat="45.88199" lon="6.22535">
        <ele>692</ele>
        <time>2010-04-23T20:03:06Z</time>
      </trkpt>
      <trkpt lat="45.88196" lon="6.2253">
        <ele>692</ele>
        <time>2010-04-23T20:03:08Z</time>
      </trkpt>
      <trkpt lat="45.88192" lon="6.22524">
        <ele>692</ele>
        <time>2010-04-23T20:03:10Z</time>
      </trkpt>
      <trkpt lat="45.88189" lon="6.2252">
        <ele>692</ele>
        <time>2010-04-23T20:03:12Z</time>
      </trkpt>
      <trkpt lat="45.88185" lon="6.22516">
        <ele>692</ele>
        <time>2010-04-23T20:03:14Z</time>
      </trkpt>
      <trkpt lat="45.88179" lon="6.22513">
        <ele>692</ele>
        <time>2010-04-23T20:03:16Z</time>
      </trkpt>
      <trkpt lat="45.88174" lon="6.2251">
        <ele>692</ele>
        <time>2010-04-23T20:03:18Z</time>
      </trkpt>
      <trkpt lat="45.8817" lon="6.22506">
        <ele>692</ele>
        <time>2010-04-23T20:03:20Z</time>
      </trkpt>
      <trkpt lat="45.88166" lon="6.225">
        <ele>692</ele>
        <time>2010-04-23T20:03:22Z</time>
      </trkpt>
      <trkpt lat="45.88163" lon="6.22495">
        <ele>692</ele>
        <time>2010-04-23T20:03:24Z</time>
      </trkpt>
      <trkpt lat="45.8816" lon="6.22492">
        <ele>692</ele>
        <time>2010-04-23T20:03:26Z</time>
      </trkpt>
      <trkpt lat="45.88157" lon="6.22491">
        <ele>691</ele>
        <time>2010-04-23T20:03:28Z</time>
      </trkpt>
      <trkpt lat="45.88155" lon="6.22487">
        <ele>691</ele>
        <time>2010-04-23T20:03:30Z</time>
      </trkpt>
      <trkpt lat="45.88151" lon="6.22482">
        <ele>691</ele>
        <time>2010-04-23T20:03:32Z</time>
      </trkpt>
      <trkpt lat="45.88147" lon="6.22478">
        <ele>691</ele>
        <time>2010-04-23T20:03:34Z</time>
      </trkpt>
      <trkpt lat="45.88143" lon="6.22474">
        <ele>691</ele>
        <time>2010-04-23T20:03:36Z</time>
      </trkpt>
      <trkpt lat="45.8814" lon="6.22472">
        <ele>691</ele>
        <time>2010-04-23T20:03:39Z</time>
      </trkpt>
      <trkpt lat="45.88139" lon="6.22472">
        <ele>691</ele>
        <time>2010-04-23T20:03:42Z</time>
      </trkpt>
      <trkpt lat="45.88137" lon="6.22472">
        <ele>691</ele>
        <time>2010-04-23T20:03:46Z</time>
      </trkpt>
      <trkpt lat="45.88136" lon="6.22471">
        <ele>691</ele>
        <time>2010-04-23T20:03:48Z</time>
      </trkpt>
      <trkpt lat="45.88134" lon="6.22469">
        <ele>691</ele>
        <time>2010-04-23T20:03:51Z</time>
      </trkpt>
      <trkpt lat="45.88133" lon="6.22468">
        <ele>691</ele>
        <time>2010-04-23T20:03:53Z</time>
      </trkpt>
      <trkpt lat="45.88131" lon="6.22467">
        <ele>691</ele>
        <time>2010-04-23T20:03:55Z</time>
      </trkpt>
      <trkpt lat="45.88129" lon="6.22467">
        <ele>691</ele>
        <time>2010-04-23T20:03:57Z</time>
      </trkpt>
      <trkpt lat="45.88128" lon="6.22468">
        <ele>691</ele>
        <time>2010-04-23T20:04:01Z</time>
      </trkpt>
      <trkpt lat="45.8813" lon="6.22468">
        <ele>691</ele>
        <time>2010-04-23T20:04:08Z</time>
      </trkpt>
      <trkpt lat="45.88129" lon="6.2247">
        <ele>691</ele>
        <time>2010-04-23T20:04:10Z</time>
      </trkpt>
      <trkpt lat="45.88129" lon="6.22471">
        <ele>691</ele>
        <time>2010-04-23T20:04:12Z</time>
      </trkpt>
      <trkpt lat="45.88127" lon="6.22471">
        <ele>691</ele>
        <time>2010-04-23T20:04:14Z</time>
      </trkpt>
      <trkpt lat="45.88128" lon="6.22473">
        <ele>691</ele>
        <time>2010-04-23T20:04:17Z</time>
      </trkpt>
      <trkpt lat="45.88129" lon="6.22473">
        <ele>693</ele>
        <time>2010-04-23T20:04:24Z</time>
      </trkpt>
      <trkpt lat="45.8813" lon="6.22475">
        <ele>694</ele>
        <time>2010-04-23T20:04:28Z</time>
      </trkpt>
      <trkpt lat="45.88129" lon="6.22477">
        <ele>694</ele>
        <time>2010-04-23T20:04:30Z</time>
      </trkpt>
      <trkpt lat="45.88129" lon="6.22479">
        <ele>694</ele>
        <time>2010-04-23T20:04:33Z</time>
      </trkpt>
      <trkpt lat="45.88128" lon="6.2248">
        <ele>694</ele>
        <time>2010-04-23T20:04:36Z</time>
      </trkpt>
      <trkpt lat="45.88128" lon="6.22482">
        <ele>694</ele>
        <time>2010-04-23T20:04:39Z</time>
      </trkpt>
      <trkpt lat="45.88127" lon="6.22483">
        <ele>695</ele>
        <time>2010-04-23T20:04:46Z</time>
      </trkpt>
      <trkpt lat="45.88126" lon="6.22481">
        <ele>695</ele>
        <time>2010-04-23T20:04:49Z</time>
      </trkpt>
      <trkpt lat="45.88126" lon="6.2248">
        <ele>695</ele>
        <time>2010-04-23T20:04:52Z</time>
      </trkpt>
      <trkpt lat="45.88125" lon="6.22478">
        <ele>695</ele>
        <time>2010-04-23T20:04:55Z</time>
      </trkpt>
      <trkpt lat="45.88124" lon="6.22478">
        <ele>695</ele>
        <time>2010-04-23T20:04:57Z</time>
      </trkpt>
      <trkpt lat="45.88123" lon="6.22478">
        <ele>695</ele>
        <time>2010-04-23T20:04:59Z</time>
      </trkpt>
      <trkpt lat="45.88121" lon="6.22478">
        <ele>695</ele>
        <time>2010-04-23T20:05:01Z</time>
      </trkpt>
      <trkpt lat="45.88119" lon="6.22476">
        <ele>695</ele>
        <time>2010-04-23T20:05:03Z</time>
      </trkpt>
      <trkpt lat="45.88117" lon="6.22475">
        <ele>695</ele>
        <time>2010-04-23T20:05:05Z</time>
      </trkpt>
      <trkpt lat="45.88117" lon="6.22477">
        <ele>695</ele>
        <time>2010-04-23T20:05:11Z</time>
      </trkpt>
      <trkpt lat="45.88115" lon="6.22477">
        <ele>697</ele>
        <time>2010-04-23T20:05:15Z</time>
      </trkpt>
      <trkpt lat="45.88113" lon="6.22476">
        <ele>698</ele>
        <time>2010-04-23T20:05:17Z</time>
      </trkpt>
      <trkpt lat="45.88111" lon="6.22473">
        <ele>698</ele>
        <time>2010-04-23T20:05:19Z</time>
      </trkpt>
      <trkpt lat="45.88108" lon="6.2247">
        <ele>698</ele>
        <time>2010-04-23T20:05:22Z</time>
      </trkpt>
      <trkpt lat="45.88107" lon="6.2247">
        <ele>698</ele>
        <time>2010-04-23T20:05:24Z</time>
      </trkpt>
      <trkpt lat="45.88105" lon="6.22469">
        <ele>698</ele>
        <time>2010-04-23T20:05:26Z</time>
      </trkpt>
      <trkpt lat="45.88102" lon="6.22468">
        <ele>698</ele>
        <time>2010-04-23T20:05:28Z</time>
      </trkpt>
      <trkpt lat="45.881" lon="6.22466">
        <ele>698</ele>
        <time>2010-04-23T20:05:30Z</time>
      </trkpt>
      <trkpt lat="45.88097" lon="6.22465">
        <ele>698</ele>
        <time>2010-04-23T20:05:32Z</time>
      </trkpt>
      <trkpt lat="45.88095" lon="6.22463">
        <ele>698</ele>
        <time>2010-04-23T20:05:34Z</time>
      </trkpt>
      <trkpt lat="45.88093" lon="6.22461">
        <ele>698</ele>
        <time>2010-04-23T20:05:36Z</time>
      </trkpt>
      <trkpt lat="45.8809" lon="6.2246">
        <ele>698</ele>
        <time>2010-04-23T20:05:39Z</time>
      </trkpt>
      <trkpt lat="45.88087" lon="6.22459">
        <ele>698</ele>
        <time>2010-04-23T20:05:41Z</time>
      </trkpt>
      <trkpt lat="45.88085" lon="6.22457">
        <ele>698</ele>
        <time>2010-04-23T20:05:43Z</time>
      </trkpt>
      <trkpt lat="45.88083" lon="6.22455">
        <ele>698</ele>
        <time>2010-04-23T20:05:45Z</time>
      </trkpt>
      <trkpt lat="45.8808" lon="6.22453">
        <ele>698</ele>
        <time>2010-04-23T20:05:47Z</time>
      </trkpt>
      <trkpt lat="45.88078" lon="6.2245">
        <ele>697</ele>
        <time>2010-04-23T20:05:49Z</time>
      </trkpt>
      <trkpt lat="45.88075" lon="6.22448">
        <ele>697</ele>
        <time>2010-04-23T20:05:51Z</time>
      </trkpt>
      <trkpt lat="45.88072" lon="6.22444">
        <ele>697</ele>
        <time>2010-04-23T20:05:54Z</time>
      </trkpt>
      <trkpt lat="45.8807" lon="6.22443">
        <ele>696</ele>
        <time>2010-04-23T20:05:56Z</time>
      </trkpt>
      <trkpt lat="45.88067" lon="6.22443">
        <ele>696</ele>
        <time>2010-04-23T20:05:58Z</time>
      </trkpt>
      <trkpt lat="45.88065" lon="6.22442">
        <ele>696</ele>
        <time>2010-04-23T20:06:00Z</time>
      </trkpt>
      <trkpt lat="45.88062" lon="6.22442">
        <ele>696</ele>
        <time>2010-04-23T20:06:02Z</time>
      </trkpt>
      <trkpt lat="45.88059" lon="6.22441">
        <ele>696</ele>
        <time>2010-04-23T20:06:04Z</time>
      </trkpt>
      <trkpt lat="45.88056" lon="6.22441">
        <ele>696</ele>
        <time>2010-04-23T20:06:06Z</time>
      </trkpt>
      <trkpt lat="45.88053" lon="6.2244">
        <ele>696</ele>
        <time>2010-04-23T20:06:08Z</time>
      </trkpt>
      <trkpt lat="45.8805" lon="6.2244">
        <ele>696</ele>
        <time>2010-04-23T20:06:10Z</time>
      </trkpt>
      <trkpt lat="45.88047" lon="6.2244">
        <ele>696</ele>
        <time>2010-04-23T20:06:12Z</time>
      </trkpt>
      <trkpt lat="45.88045" lon="6.22439">
        <ele>696</ele>
        <time>2010-04-23T20:06:14Z</time>
      </trkpt>
      <trkpt lat="45.88042" lon="6.22438">
        <ele>696</ele>
        <time>2010-04-23T20:06:16Z</time>
      </trkpt>
      <trkpt lat="45.88039" lon="6.22437">
        <ele>696</ele>
        <time>2010-04-23T20:06:18Z</time>
      </trkpt>
      <trkpt lat="45.88036" lon="6.22435">
        <ele>696</ele>
        <time>2010-04-23T20:06:20Z</time>
      </trkpt>
      <trkpt lat="45.88034" lon="6.22434">
        <ele>696</ele>
        <time>2010-04-23T20:06:22Z</time>
      </trkpt>
      <trkpt lat="45.8803" lon="6.22433">
        <ele>696</ele>
        <time>2010-04-23T20:06:25Z</time>
      </trkpt>
      <trkpt lat="45.88028" lon="6.22432">
        <ele>696</ele>
        <time>2010-04-23T20:06:27Z</time>
      </trkpt>
      <trkpt lat="45.88025" lon="6.22431">
        <ele>696</ele>
        <time>2010-04-23T20:06:29Z</time>
      </trkpt>
      <trkpt lat="45.88023" lon="6.22429">
        <ele>696</ele>
        <time>2010-04-23T20:06:31Z</time>
      </trkpt>
      <trkpt lat="45.8802" lon="6.22428">
        <ele>696</ele>
        <time>2010-04-23T20:06:33Z</time>
      </trkpt>
      <trkpt lat="45.88018" lon="6.22428">
        <ele>697</ele>
        <time>2010-04-23T20:06:35Z</time>
      </trkpt>
      <trkpt lat="45.88016" lon="6.22428">
        <ele>697</ele>
        <time>2010-04-23T20:06:37Z</time>
      </trkpt>
      <trkpt lat="45.88013" lon="6.22428">
        <ele>697</ele>
        <time>2010-04-23T20:06:39Z</time>
      </trkpt>
      <trkpt lat="45.88011" lon="6.22428">
        <ele>698</ele>
        <time>2010-04-23T20:06:41Z</time>
      </trkpt>
      <trkpt lat="45.88008" lon="6.22428">
        <ele>698</ele>
        <time>2010-04-23T20:06:44Z</time>
      </trkpt>
      <trkpt lat="45.88009" lon="6.2243">
        <ele>699</ele>
        <time>2010-04-23T20:06:48Z</time>
      </trkpt>
      <trkpt lat="45.88008" lon="6.22432">
        <ele>699</ele>
        <time>2010-04-23T20:06:50Z</time>
      </trkpt>
      <trkpt lat="45.88008" lon="6.22434">
        <ele>699</ele>
        <time>2010-04-23T20:06:52Z</time>
      </trkpt>
      <trkpt lat="45.88008" lon="6.22436">
        <ele>699</ele>
        <time>2010-04-23T20:06:54Z</time>
      </trkpt>
      <trkpt lat="45.88008" lon="6.22438">
        <ele>699</ele>
        <time>2010-04-23T20:06:56Z</time>
      </trkpt>
      <trkpt lat="45.88009" lon="6.22437">
        <ele>699</ele>
        <time>2010-04-23T20:07:05Z</time>
      </trkpt>
      <trkpt lat="45.8801" lon="6.22437">
        <ele>699</ele>
        <time>2010-04-23T20:07:08Z</time>
      </trkpt>
      <trkpt lat="45.88011" lon="6.22439">
        <ele>700</ele>
        <time>2010-04-23T20:07:10Z</time>
      </trkpt>
      <trkpt lat="45.88012" lon="6.22441">
        <ele>700</ele>
        <time>2010-04-23T20:07:12Z</time>
      </trkpt>
      <trkpt lat="45.88013" lon="6.22444">
        <ele>700</ele>
        <time>2010-04-23T20:07:14Z</time>
      </trkpt>
      <trkpt lat="45.88013" lon="6.22448">
        <ele>700</ele>
        <time>2010-04-23T20:07:17Z</time>
      </trkpt>
      <trkpt lat="45.88012" lon="6.22449">
        <ele>700</ele>
        <time>2010-04-23T20:07:20Z</time>
      </trkpt>
      <trkpt lat="45.8801" lon="6.22449">
        <ele>700</ele>
        <time>2010-04-23T20:07:22Z</time>
      </trkpt>
      <trkpt lat="45.88007" lon="6.22446">
        <ele>700</ele>
        <time>2010-04-23T20:07:24Z</time>
      </trkpt>
      <trkpt lat="45.88004" lon="6.22445">
        <ele>700</ele>
        <time>2010-04-23T20:07:26Z</time>
      </trkpt>
      <trkpt lat="45.88001" lon="6.22444">
        <ele>700</ele>
        <time>2010-04-23T20:07:28Z</time>
      </trkpt>
      <trkpt lat="45.87998" lon="6.22443">
        <ele>701</ele>
        <time>2010-04-23T20:07:30Z</time>
      </trkpt>
      <trkpt lat="45.87995" lon="6.22443">
        <ele>702</ele>
        <time>2010-04-23T20:07:32Z</time>
      </trkpt>
      <trkpt lat="45.87992" lon="6.22442">
        <ele>703</ele>
        <time>2010-04-23T20:07:34Z</time>
      </trkpt>
      <trkpt lat="45.87989" lon="6.22441">
        <ele>703</ele>
        <time>2010-04-23T20:07:36Z</time>
      </trkpt>
      <trkpt lat="45.87986" lon="6.2244">
        <ele>704</ele>
        <time>2010-04-23T20:07:38Z</time>
      </trkpt>
      <trkpt lat="45.87983" lon="6.22439">
        <ele>704</ele>
        <time>2010-04-23T20:07:40Z</time>
      </trkpt>
      <trkpt lat="45.87981" lon="6.22438">
        <ele>705</ele>
        <time>2010-04-23T20:07:42Z</time>
      </trkpt>
      <trkpt lat="45.87978" lon="6.22437">
        <ele>705</ele>
        <time>2010-04-23T20:07:44Z</time>
      </trkpt>
      <trkpt lat="45.87975" lon="6.22436">
        <ele>706</ele>
        <time>2010-04-23T20:07:46Z</time>
      </trkpt>
      <trkpt lat="45.87973" lon="6.22435">
        <ele>706</ele>
        <time>2010-04-23T20:07:48Z</time>
      </trkpt>
      <trkpt lat="45.8797" lon="6.22434">
        <ele>706</ele>
        <time>2010-04-23T20:07:50Z</time>
      </trkpt>
      <trkpt lat="45.87967" lon="6.22434">
        <ele>707</ele>
        <time>2010-04-23T20:07:52Z</time>
      </trkpt>
      <trkpt lat="45.87964" lon="6.22433">
        <ele>707</ele>
        <time>2010-04-23T20:07:54Z</time>
      </trkpt>
      <trkpt lat="45.87961" lon="6.22432">
        <ele>707</ele>
        <time>2010-04-23T20:07:56Z</time>
      </trkpt>
      <trkpt lat="45.87958" lon="6.22432">
        <ele>708</ele>
        <time>2010-04-23T20:07:58Z</time>
      </trkpt>
      <trkpt lat="45.87955" lon="6.22431">
        <ele>709</ele>
        <time>2010-04-23T20:08:00Z</time>
      </trkpt>
      <trkpt lat="45.87952" lon="6.2243">
        <ele>710</ele>
        <time>2010-04-23T20:08:02Z</time>
      </trkpt>
      <trkpt lat="45.87949" lon="6.22429">
        <ele>710</ele>
        <time>2010-04-23T20:08:04Z</time>
      </trkpt>
      <trkpt lat="45.87947" lon="6.22429">
        <ele>711</ele>
        <time>2010-04-23T20:08:06Z</time>
      </trkpt>
      <trkpt lat="45.87944" lon="6.22428">
        <ele>712</ele>
        <time>2010-04-23T20:08:08Z</time>
      </trkpt>
      <trkpt lat="45.87941" lon="6.22427">
        <ele>712</ele>
        <time>2010-04-23T20:08:10Z</time>
      </trkpt>
      <trkpt lat="45.87938" lon="6.22426">
        <ele>713</ele>
        <time>2010-04-23T20:08:12Z</time>
      </trkpt>
      <trkpt lat="45.87935" lon="6.22425">
        <ele>713</ele>
        <time>2010-04-23T20:08:14Z</time>
      </trkpt>
      <trkpt lat="45.87932" lon="6.22423">
        <ele>713</ele>
        <time>2010-04-23T20:08:16Z</time>
      </trkpt>
      <trkpt lat="45.8793" lon="6.22422">
        <ele>714</ele>
        <time>2010-04-23T20:08:18Z</time>
      </trkpt>
      <trkpt lat="45.87926" lon="6.22419">
        <ele>714</ele>
        <time>2010-04-23T20:08:21Z</time>
      </trkpt>
      <trkpt lat="45.87923" lon="6.22417">
        <ele>714</ele>
        <time>2010-04-23T20:08:23Z</time>
      </trkpt>
      <trkpt lat="45.87921" lon="6.22416">
        <ele>714</ele>
        <time>2010-04-23T20:08:25Z</time>
      </trkpt>
      <trkpt lat="45.87918" lon="6.22414">
        <ele>715</ele>
        <time>2010-04-23T20:08:27Z</time>
      </trkpt>
      <trkpt lat="45.87916" lon="6.22412">
        <ele>716</ele>
        <time>2010-04-23T20:08:29Z</time>
      </trkpt>
      <trkpt lat="45.87914" lon="6.2241">
        <ele>716</ele>
        <time>2010-04-23T20:08:31Z</time>
      </trkpt>
      <trkpt lat="45.87911" lon="6.22409">
        <ele>717</ele>
        <time>2010-04-23T20:08:33Z</time>
      </trkpt>
      <trkpt lat="45.87909" lon="6.22409">
        <ele>717</ele>
        <time>2010-04-23T20:08:35Z</time>
      </trkpt>
      <trkpt lat="45.87906" lon="6.22409">
        <ele>717</ele>
        <time>2010-04-23T20:08:37Z</time>
      </trkpt>
      <trkpt lat="45.87904" lon="6.22407">
        <ele>717</ele>
        <time>2010-04-23T20:08:39Z</time>
      </trkpt>
      <trkpt lat="45.87902" lon="6.22406">
        <ele>718</ele>
        <time>2010-04-23T20:08:41Z</time>
      </trkpt>
      <trkpt lat="45.87899" lon="6.22406">
        <ele>719</ele>
        <time>2010-04-23T20:08:43Z</time>
      </trkpt>
      <trkpt lat="45.87896" lon="6.22405">
        <ele>719</ele>
        <time>2010-04-23T20:08:45Z</time>
      </trkpt>
      <trkpt lat="45.87894" lon="6.22404">
        <ele>720</ele>
        <time>2010-04-23T20:08:47Z</time>
      </trkpt>
      <trkpt lat="45.87892" lon="6.22403">
        <ele>720</ele>
        <time>2010-04-23T20:08:49Z</time>
      </trkpt>
      <trkpt lat="45.87889" lon="6.22399">
        <ele>721</ele>
        <time>2010-04-23T20:08:52Z</time>
      </trkpt>
      <trkpt lat="45.87887" lon="6.22397">
        <ele>721</ele>
        <time>2010-04-23T20:08:54Z</time>
      </trkpt>
      <trkpt lat="45.87885" lon="6.22395">
        <ele>721</ele>
        <time>2010-04-23T20:08:56Z</time>
      </trkpt>
      <trkpt lat="45.87882" lon="6.22392">
        <ele>722</ele>
        <time>2010-04-23T20:08:59Z</time>
      </trkpt>
      <trkpt lat="45.8788" lon="6.2239">
        <ele>722</ele>
        <time>2010-04-23T20:09:01Z</time>
      </trkpt>
      <trkpt lat="45.87877" lon="6.22388">
        <ele>724</ele>
        <time>2010-04-23T20:09:04Z</time>
      </trkpt>
      <trkpt lat="45.87875" lon="6.22387">
        <ele>725</ele>
        <time>2010-04-23T20:09:06Z</time>
      </trkpt>
      <trkpt lat="45.87872" lon="6.22385">
        <ele>726</ele>
        <time>2010-04-23T20:09:09Z</time>
      </trkpt>
      <trkpt lat="45.87869" lon="6.22385">
        <ele>726</ele>
        <time>2010-04-23T20:09:12Z</time>
      </trkpt>
      <trkpt lat="45.87867" lon="6.22385">
        <ele>727</ele>
        <time>2010-04-23T20:09:14Z</time>
      </trkpt>
      <trkpt lat="45.87865" lon="6.22386">
        <ele>728</ele>
        <time>2010-04-23T20:09:16Z</time>
      </trkpt>
      <trkpt lat="45.87863" lon="6.22387">
        <ele>729</ele>
        <time>2010-04-23T20:09:18Z</time>
      </trkpt>
      <trkpt lat="45.8786" lon="6.22386">
        <ele>730</ele>
        <time>2010-04-23T20:09:21Z</time>
      </trkpt>
      <trkpt lat="45.87859" lon="6.22386">
        <ele>730</ele>
        <time>2010-04-23T20:09:23Z</time>
      </trkpt>
      <trkpt lat="45.87857" lon="6.22386">
        <ele>731</ele>
        <time>2010-04-23T20:09:25Z</time>
      </trkpt>
      <trkpt lat="45.87854" lon="6.22388">
        <ele>732</ele>
        <time>2010-04-23T20:09:28Z</time>
      </trkpt>
      <trkpt lat="45.87852" lon="6.2239">
        <ele>732</ele>
        <time>2010-04-23T20:09:30Z</time>
      </trkpt>
      <trkpt lat="45.87851" lon="6.22391">
        <ele>733</ele>
        <time>2010-04-23T20:09:32Z</time>
      </trkpt>
      <trkpt lat="45.8785" lon="6.22393">
        <ele>733</ele>
        <time>2010-04-23T20:09:34Z</time>
      </trkpt>
      <trkpt lat="45.87849" lon="6.22394">
        <ele>734</ele>
        <time>2010-04-23T20:09:36Z</time>
      </trkpt>
      <trkpt lat="45.87847" lon="6.22396">
        <ele>734</ele>
        <time>2010-04-23T20:09:38Z</time>
      </trkpt>
      <trkpt lat="45.87846" lon="6.22398">
        <ele>735</ele>
        <time>2010-04-23T20:09:40Z</time>
      </trkpt>
      <trkpt lat="45.87844" lon="6.22399">
        <ele>736</ele>
        <time>2010-04-23T20:09:42Z</time>
      </trkpt>
      <trkpt lat="45.87843" lon="6.224">
        <ele>736</ele>
        <time>2010-04-23T20:09:44Z</time>
      </trkpt>
      <trkpt lat="45.87843" lon="6.22402">
        <ele>736</ele>
        <time>2010-04-23T20:09:46Z</time>
      </trkpt>
      <trkpt lat="45.87842" lon="6.22405">
        <ele>737</ele>
        <time>2010-04-23T20:09:48Z</time>
      </trkpt>
      <trkpt lat="45.87841" lon="6.22408">
        <ele>737</ele>
        <time>2010-04-23T20:09:50Z</time>
      </trkpt>
      <trkpt lat="45.87839" lon="6.2241">
        <ele>737</ele>
        <time>2010-04-23T20:09:52Z</time>
      </trkpt>
      <trkpt lat="45.87838" lon="6.22411">
        <ele>738</ele>
        <time>2010-04-23T20:09:54Z</time>
      </trkpt>
      <trkpt lat="45.87836" lon="6.22412">
        <ele>738</ele>
        <time>2010-04-23T20:09:56Z</time>
      </trkpt>
      <trkpt lat="45.87834" lon="6.22414">
        <ele>738</ele>
        <time>2010-04-23T20:09:58Z</time>
      </trkpt>
      <trkpt lat="45.87833" lon="6.22416">
        <ele>738</ele>
        <time>2010-04-23T20:10:00Z</time>
      </trkpt>
      <trkpt lat="45.8783" lon="6.22418">
        <ele>739</ele>
        <time>2010-04-23T20:10:03Z</time>
      </trkpt>
      <trkpt lat="45.87826" lon="6.22418">
        <ele>741</ele>
        <time>2010-04-23T20:10:06Z</time>
      </trkpt>
      <trkpt lat="45.87825" lon="6.22417">
        <ele>741</ele>
        <time>2010-04-23T20:10:08Z</time>
      </trkpt>
      <trkpt lat="45.87822" lon="6.22413">
        <ele>742</ele>
        <time>2010-04-23T20:10:11Z</time>
      </trkpt>
      <trkpt lat="45.87819" lon="6.22409">
        <ele>742</ele>
        <time>2010-04-23T20:10:13Z</time>
      </trkpt>
      <trkpt lat="45.87815" lon="6.22405">
        <ele>742</ele>
        <time>2010-04-23T20:10:15Z</time>
      </trkpt>
      <trkpt lat="45.87812" lon="6.22401">
        <ele>742</ele>
        <time>2010-04-23T20:10:17Z</time>
      </trkpt>
      <trkpt lat="45.87808" lon="6.22396">
        <ele>743</ele>
        <time>2010-04-23T20:10:19Z</time>
      </trkpt>
      <trkpt lat="45.87805" lon="6.22391">
        <ele>743</ele>
        <time>2010-04-23T20:10:21Z</time>
      </trkpt>
      <trkpt lat="45.87801" lon="6.22386">
        <ele>743</ele>
        <time>2010-04-23T20:10:23Z</time>
      </trkpt>
      <trkpt lat="45.87798" lon="6.2238">
        <ele>743</ele>
        <time>2010-04-23T20:10:25Z</time>
      </trkpt>
      <trkpt lat="45.87794" lon="6.22375">
        <ele>744</ele>
        <time>2010-04-23T20:10:27Z</time>
      </trkpt>
      <trkpt lat="45.8779" lon="6.2237">
        <ele>744</ele>
        <time>2010-04-23T20:10:29Z</time>
      </trkpt>
      <trkpt lat="45.87786" lon="6.22364">
        <ele>745</ele>
        <time>2010-04-23T20:10:31Z</time>
      </trkpt>
      <trkpt lat="45.87783" lon="6.22357">
        <ele>745</ele>
        <time>2010-04-23T20:10:33Z</time>
      </trkpt>
      <trkpt lat="45.87779" lon="6.22352">
        <ele>746</ele>
        <time>2010-04-23T20:10:35Z</time>
      </trkpt>
      <trkpt lat="45.87775" lon="6.22347">
        <ele>747</ele>
        <time>2010-04-23T20:10:37Z</time>
      </trkpt>
      <trkpt lat="45.87771" lon="6.22343">
        <ele>747</ele>
        <time>2010-04-23T20:10:39Z</time>
      </trkpt>
      <trkpt lat="45.87767" lon="6.22338">
        <ele>748</ele>
        <time>2010-04-23T20:10:41Z</time>
      </trkpt>
      <trkpt lat="45.87764" lon="6.22331">
        <ele>748</ele>
        <time>2010-04-23T20:10:43Z</time>
      </trkpt>
      <trkpt lat="45.87761" lon="6.22325">
        <ele>748</ele>
        <time>2010-04-23T20:10:45Z</time>
      </trkpt>
      <trkpt lat="45.87759" lon="6.22321">
        <ele>748</ele>
        <time>2010-04-23T20:10:47Z</time>
      </trkpt>
      <trkpt lat="45.87759" lon="6.22317">
        <ele>748</ele>
        <time>2010-04-23T20:10:49Z</time>
      </trkpt>
      <trkpt lat="45.87758" lon="6.22313">
        <ele>748</ele>
        <time>2010-04-23T20:10:51Z</time>
      </trkpt>
      <trkpt lat="45.87758" lon="6.22309">
        <ele>748</ele>
        <time>2010-04-23T20:10:53Z</time>
      </trkpt>
      <trkpt lat="45.87757" lon="6.22305">
        <ele>748</ele>
        <time>2010-04-23T20:10:55Z</time>
      </trkpt>
      <trkpt lat="45.87756" lon="6.22299">
        <ele>748</ele>
        <time>2010-04-23T20:10:57Z</time>
      </trkpt>
      <trkpt lat="45.87754" lon="6.22291">
        <ele>748</ele>
        <time>2010-04-23T20:10:59Z</time>
      </trkpt>
      <trkpt lat="45.87752" lon="6.22284">
        <ele>748</ele>
        <time>2010-04-23T20:11:01Z</time>
      </trkpt>
      <trkpt lat="45.87749" lon="6.22276">
        <ele>748</ele>
        <time>2010-04-23T20:11:03Z</time>
      </trkpt>
      <trkpt lat="45.87746" lon="6.22268">
        <ele>747</ele>
        <time>2010-04-23T20:11:05Z</time>
      </trkpt>
      <trkpt lat="45.87743" lon="6.22262">
        <ele>746</ele>
        <time>2010-04-23T20:11:07Z</time>
      </trkpt>
      <trkpt lat="45.87739" lon="6.22255">
        <ele>745</ele>
        <time>2010-04-23T20:11:09Z</time>
      </trkpt>
      <trkpt lat="45.87736" lon="6.22247">
        <ele>744</ele>
        <time>2010-04-23T20:11:11Z</time>
      </trkpt>
      <trkpt lat="45.87733" lon="6.22241">
        <ele>743</ele>
        <time>2010-04-23T20:11:13Z</time>
      </trkpt>
      <trkpt lat="45.8773" lon="6.22234">
        <ele>743</ele>
        <time>2010-04-23T20:11:15Z</time>
      </trkpt>
      <trkpt lat="45.87725" lon="6.22227">
        <ele>742</ele>
        <time>2010-04-23T20:11:17Z</time>
      </trkpt>
      <trkpt lat="45.8772" lon="6.22222">
        <ele>741</ele>
        <time>2010-04-23T20:11:19Z</time>
      </trkpt>
      <trkpt lat="45.87716" lon="6.22217">
        <ele>740</ele>
        <time>2010-04-23T20:11:21Z</time>
      </trkpt>
      <trkpt lat="45.87711" lon="6.22213">
        <ele>740</ele>
        <time>2010-04-23T20:11:23Z</time>
      </trkpt>
      <trkpt lat="45.87707" lon="6.22208">
        <ele>739</ele>
        <time>2010-04-23T20:11:25Z</time>
      </trkpt>
      <trkpt lat="45.87703" lon="6.22204">
        <ele>739</ele>
        <time>2010-04-23T20:11:27Z</time>
      </trkpt>
      <trkpt lat="45.877" lon="6.222">
        <ele>738</ele>
        <time>2010-04-23T20:11:29Z</time>
      </trkpt>
      <trkpt lat="45.87696" lon="6.22197">
        <ele>738</ele>
        <time>2010-04-23T20:11:31Z</time>
      </trkpt>
      <trkpt lat="45.87693" lon="6.22193">
        <ele>737</ele>
        <time>2010-04-23T20:11:33Z</time>
      </trkpt>
      <trkpt lat="45.8769" lon="6.2219">
        <ele>737</ele>
        <time>2010-04-23T20:11:35Z</time>
      </trkpt>
      <trkpt lat="45.87688" lon="6.22188">
        <ele>737</ele>
        <time>2010-04-23T20:11:37Z</time>
      </trkpt>
      <trkpt lat="45.87686" lon="6.22188">
        <ele>737</ele>
        <time>2010-04-23T20:11:39Z</time>
      </trkpt>
      <trkpt lat="45.87685" lon="6.22187">
        <ele>736</ele>
        <time>2010-04-23T20:11:42Z</time>
      </trkpt>
      <trkpt lat="45.87687" lon="6.22187">
        <ele>735</ele>
        <time>2010-04-23T20:11:47Z</time>
      </trkpt>
      <trkpt lat="45.87687" lon="6.22184">
        <ele>733</ele>
        <time>2010-04-23T20:11:53Z</time>
      </trkpt>
      <trkpt lat="45.87685" lon="6.2218">
        <ele>733</ele>
        <time>2010-04-23T20:11:55Z</time>
      </trkpt>
      <trkpt lat="45.87682" lon="6.22175">
        <ele>732</ele>
        <time>2010-04-23T20:11:57Z</time>
      </trkpt>
      <trkpt lat="45.87679" lon="6.22171">
        <ele>730</ele>
        <time>2010-04-23T20:11:59Z</time>
      </trkpt>
      <trkpt lat="45.87676" lon="6.22167">
        <ele>729</ele>
        <time>2010-04-23T20:12:01Z</time>
      </trkpt>
      <trkpt lat="45.87674" lon="6.22162">
        <ele>729</ele>
        <time>2010-04-23T20:12:03Z</time>
      </trkpt>
      <trkpt lat="45.87671" lon="6.22156">
        <ele>728</ele>
        <time>2010-04-23T20:12:05Z</time>
      </trkpt>
      <trkpt lat="45.87668" lon="6.22151">
        <ele>727</ele>
        <time>2010-04-23T20:12:07Z</time>
      </trkpt>
      <trkpt lat="45.87663" lon="6.22146">
        <ele>726</ele>
        <time>2010-04-23T20:12:09Z</time>
      </trkpt>
      <trkpt lat="45.87659" lon="6.22141">
        <ele>725</ele>
        <time>2010-04-23T20:12:11Z</time>
      </trkpt>
      <trkpt lat="45.87655" lon="6.22135">
        <ele>725</ele>
        <time>2010-04-23T20:12:13Z</time>
      </trkpt>
      <trkpt lat="45.8765" lon="6.22133">
        <ele>725</ele>
        <time>2010-04-23T20:12:15Z</time>
      </trkpt>
      <trkpt lat="45.87644" lon="6.2213">
        <ele>725</ele>
        <time>2010-04-23T20:12:17Z</time>
      </trkpt>
      <trkpt lat="45.87639" lon="6.22128">
        <ele>725</ele>
        <time>2010-04-23T20:12:19Z</time>
      </trkpt>
      <trkpt lat="45.87635" lon="6.22127">
        <ele>724</ele>
        <time>2010-04-23T20:12:21Z</time>
      </trkpt>
      <trkpt lat="45.87631" lon="6.22125">
        <ele>723</ele>
        <time>2010-04-23T20:12:23Z</time>
      </trkpt>
      <trkpt lat="45.87626" lon="6.22121">
        <ele>721</ele>
        <time>2010-04-23T20:12:25Z</time>
      </trkpt>
      <trkpt lat="45.87621" lon="6.22117">
        <ele>720</ele>
        <time>2010-04-23T20:12:27Z</time>
      </trkpt>
      <trkpt lat="45.87617" lon="6.22114">
        <ele>719</ele>
        <time>2010-04-23T20:12:29Z</time>
      </trkpt>
      <trkpt lat="45.87614" lon="6.2211">
        <ele>718</ele>
        <time>2010-04-23T20:12:31Z</time>
      </trkpt>
      <trkpt lat="45.8761" lon="6.22108">
        <ele>718</ele>
        <time>2010-04-23T20:12:33Z</time>
      </trkpt>
      <trkpt lat="45.87605" lon="6.22106">
        <ele>717</ele>
        <time>2010-04-23T20:12:35Z</time>
      </trkpt>
      <trkpt lat="45.876" lon="6.22103">
        <ele>716</ele>
        <time>2010-04-23T20:12:37Z</time>
      </trkpt>
      <trkpt lat="45.87595" lon="6.22102">
        <ele>715</ele>
        <time>2010-04-23T20:12:39Z</time>
      </trkpt>
      <trkpt lat="45.8759" lon="6.221">
        <ele>714</ele>
        <time>2010-04-23T20:12:41Z</time>
      </trkpt>
      <trkpt lat="45.87584" lon="6.22096">
        <ele>713</ele>
        <time>2010-04-23T20:12:43Z</time>
      </trkpt>
      <trkpt lat="45.87579" lon="6.22092">
        <ele>711</ele>
        <time>2010-04-23T20:12:45Z</time>
      </trkpt>
      <trkpt lat="45.87574" lon="6.2209">
        <ele>710</ele>
        <time>2010-04-23T20:12:47Z</time>
      </trkpt>
      <trkpt lat="45.87569" lon="6.22088">
        <ele>708</ele>
        <time>2010-04-23T20:12:49Z</time>
      </trkpt>
      <trkpt lat="45.87563" lon="6.22085">
        <ele>708</ele>
        <time>2010-04-23T20:12:51Z</time>
      </trkpt>
      <trkpt lat="45.8756" lon="6.22085">
        <ele>707</ele>
        <time>2010-04-23T20:12:53Z</time>
      </trkpt>
      <trkpt lat="45.87555" lon="6.22082">
        <ele>706</ele>
        <time>2010-04-23T20:12:55Z</time>
      </trkpt>
      <trkpt lat="45.87551" lon="6.2208">
        <ele>705</ele>
        <time>2010-04-23T20:12:57Z</time>
      </trkpt>
      <trkpt lat="45.87545" lon="6.22076">
        <ele>704</ele>
        <time>2010-04-23T20:12:59Z</time>
      </trkpt>
      <trkpt lat="45.87541" lon="6.22073">
        <ele>703</ele>
        <time>2010-04-23T20:13:01Z</time>
      </trkpt>
      <trkpt lat="45.87536" lon="6.22069">
        <ele>702</ele>
        <time>2010-04-23T20:13:03Z</time>
      </trkpt>
      <trkpt lat="45.8753" lon="6.22065">
        <ele>701</ele>
        <time>2010-04-23T20:13:05Z</time>
      </trkpt>
      <trkpt lat="45.87525" lon="6.22062">
        <ele>701</ele>
        <time>2010-04-23T20:13:07Z</time>
      </trkpt>
      <trkpt lat="45.87521" lon="6.22057">
        <ele>701</ele>
        <time>2010-04-23T20:13:09Z</time>
      </trkpt>
      <trkpt lat="45.87519" lon="6.22051">
        <ele>701</ele>
        <time>2010-04-23T20:13:11Z</time>
      </trkpt>
      <trkpt lat="45.87518" lon="6.22043">
        <ele>700</ele>
        <time>2010-04-23T20:13:13Z</time>
      </trkpt>
      <trkpt lat="45.87516" lon="6.22034">
        <ele>699</ele>
        <time>2010-04-23T20:13:15Z</time>
      </trkpt>
      <trkpt lat="45.87514" lon="6.22025">
        <ele>698</ele>
        <time>2010-04-23T20:13:17Z</time>
      </trkpt>
      <trkpt lat="45.87513" lon="6.22017">
        <ele>697</ele>
        <time>2010-04-23T20:13:19Z</time>
      </trkpt>
      <trkpt lat="45.87509" lon="6.22008">
        <ele>696</ele>
        <time>2010-04-23T20:13:21Z</time>
      </trkpt>
      <trkpt lat="45.87506" lon="6.21998">
        <ele>695</ele>
        <time>2010-04-23T20:13:23Z</time>
      </trkpt>
      <trkpt lat="45.87503" lon="6.21989">
        <ele>695</ele>
        <time>2010-04-23T20:13:25Z</time>
      </trkpt>
      <trkpt lat="45.875" lon="6.2198">
        <ele>694</ele>
        <time>2010-04-23T20:13:27Z</time>
      </trkpt>
      <trkpt lat="45.875" lon="6.21972">
        <ele>694</ele>
        <time>2010-04-23T20:13:29Z</time>
      </trkpt>
      <trkpt lat="45.87498" lon="6.21963">
        <ele>692</ele>
        <time>2010-04-23T20:13:31Z</time>
      </trkpt>
      <trkpt lat="45.87498" lon="6.21955">
        <ele>691</ele>
        <time>2010-04-23T20:13:33Z</time>
      </trkpt>
      <trkpt lat="45.87498" lon="6.21947">
        <ele>690</ele>
        <time>2010-04-23T20:13:35Z</time>
      </trkpt>
      <trkpt lat="45.87494" lon="6.21943">
        <ele>689</ele>
        <time>2010-04-23T20:13:37Z</time>
      </trkpt>
      <trkpt lat="45.87489" lon="6.2194">
        <ele>688</ele>
        <time>2010-04-23T20:13:39Z</time>
      </trkpt>
      <trkpt lat="45.87483" lon="6.21938">
        <ele>688</ele>
        <time>2010-04-23T20:13:41Z</time>
      </trkpt>
      <trkpt lat="45.87478" lon="6.21938">
        <ele>688</ele>
        <time>2010-04-23T20:13:43Z</time>
      </trkpt>
      <trkpt lat="45.87471" lon="6.21937">
        <ele>688</ele>
        <time>2010-04-23T20:13:45Z</time>
      </trkpt>
      <trkpt lat="45.87464" lon="6.21936">
        <ele>688</ele>
        <time>2010-04-23T20:13:47Z</time>
      </trkpt>
      <trkpt lat="45.87458" lon="6.21934">
        <ele>688</ele>
        <time>2010-04-23T20:13:49Z</time>
      </trkpt>
      <trkpt lat="45.87452" lon="6.21932">
        <ele>688</ele>
        <time>2010-04-23T20:13:51Z</time>
      </trkpt>
      <trkpt lat="45.87446" lon="6.21929">
        <ele>688</ele>
        <time>2010-04-23T20:13:53Z</time>
      </trkpt>
      <trkpt lat="45.8744" lon="6.21927">
        <ele>688</ele>
        <time>2010-04-23T20:13:55Z</time>
      </trkpt>
      <trkpt lat="45.87434" lon="6.21926">
        <ele>688</ele>
        <time>2010-04-23T20:13:57Z</time>
      </trkpt>
      <trkpt lat="45.87428" lon="6.21924">
        <ele>688</ele>
        <time>2010-04-23T20:13:59Z</time>
      </trkpt>
      <trkpt lat="45.87422" lon="6.21924">
        <ele>688</ele>
        <time>2010-04-23T20:14:01Z</time>
      </trkpt>
      <trkpt lat="45.87415" lon="6.21923">
        <ele>688</ele>
        <time>2010-04-23T20:14:03Z</time>
      </trkpt>
      <trkpt lat="45.87409" lon="6.21922">
        <ele>688</ele>
        <time>2010-04-23T20:14:05Z</time>
      </trkpt>
      <trkpt lat="45.87402" lon="6.21921">
        <ele>688</ele>
        <time>2010-04-23T20:14:07Z</time>
      </trkpt>
      <trkpt lat="45.87396" lon="6.21919">
        <ele>687</ele>
        <time>2010-04-23T20:14:09Z</time>
      </trkpt>
      <trkpt lat="45.8739" lon="6.21917">
        <ele>687</ele>
        <time>2010-04-23T20:14:11Z</time>
      </trkpt>
      <trkpt lat="45.87384" lon="6.21916">
        <ele>687</ele>
        <time>2010-04-23T20:14:13Z</time>
      </trkpt>
      <trkpt lat="45.87378" lon="6.21914">
        <ele>686</ele>
        <time>2010-04-23T20:14:15Z</time>
      </trkpt>
      <trkpt lat="45.87372" lon="6.21912">
        <ele>686</ele>
        <time>2010-04-23T20:14:17Z</time>
      </trkpt>
      <trkpt lat="45.87366" lon="6.2191">
        <ele>686</ele>
        <time>2010-04-23T20:14:19Z</time>
      </trkpt>
      <trkpt lat="45.8736" lon="6.21908">
        <ele>686</ele>
        <time>2010-04-23T20:14:21Z</time>
      </trkpt>
      <trkpt lat="45.87354" lon="6.21907">
        <ele>686</ele>
        <time>2010-04-23T20:14:23Z</time>
      </trkpt>
      <trkpt lat="45.87348" lon="6.21906">
        <ele>686</ele>
        <time>2010-04-23T20:14:25Z</time>
      </trkpt>
      <trkpt lat="45.87342" lon="6.21904">
        <ele>686</ele>
        <time>2010-04-23T20:14:27Z</time>
      </trkpt>
      <trkpt lat="45.87335" lon="6.21903">
        <ele>686</ele>
        <time>2010-04-23T20:14:29Z</time>
      </trkpt>
      <trkpt lat="45.87329" lon="6.219">
        <ele>686</ele>
        <time>2010-04-23T20:14:31Z</time>
      </trkpt>
      <trkpt lat="45.87324" lon="6.21898">
        <ele>686</ele>
        <time>2010-04-23T20:14:33Z</time>
      </trkpt>
      <trkpt lat="45.8732" lon="6.21895">
        <ele>686</ele>
        <time>2010-04-23T20:14:35Z</time>
      </trkpt>
      <trkpt lat="45.87314" lon="6.21892">
        <ele>686</ele>
        <time>2010-04-23T20:14:37Z</time>
      </trkpt>
      <trkpt lat="45.87308" lon="6.2189">
        <ele>686</ele>
        <time>2010-04-23T20:14:39Z</time>
      </trkpt>
      <trkpt lat="45.87302" lon="6.21889">
        <ele>686</ele>
        <time>2010-04-23T20:14:41Z</time>
      </trkpt>
      <trkpt lat="45.87296" lon="6.21889">
        <ele>686</ele>
        <time>2010-04-23T20:14:43Z</time>
      </trkpt>
      <trkpt lat="45.8729" lon="6.21888">
        <ele>685</ele>
        <time>2010-04-23T20:14:45Z</time>
      </trkpt>
      <trkpt lat="45.87283" lon="6.21886">
        <ele>685</ele>
        <time>2010-04-23T20:14:47Z</time>
      </trkpt>
      <trkpt lat="45.87277" lon="6.21884">
        <ele>685</ele>
        <time>2010-04-23T20:14:49Z</time>
      </trkpt>
      <trkpt lat="45.87271" lon="6.21882">
        <ele>685</ele>
        <time>2010-04-23T20:14:51Z</time>
      </trkpt>
      <trkpt lat="45.87265" lon="6.2188">
        <ele>685</ele>
        <time>2010-04-23T20:14:53Z</time>
      </trkpt>
      <trkpt lat="45.87259" lon="6.21879">
        <ele>685</ele>
        <time>2010-04-23T20:14:55Z</time>
      </trkpt>
      <trkpt lat="45.87254" lon="6.21875">
        <ele>685</ele>
        <time>2010-04-23T20:14:57Z</time>
      </trkpt>
      <trkpt lat="45.8725" lon="6.21869">
        <ele>684</ele>
        <time>2010-04-23T20:14:59Z</time>
      </trkpt>
      <trkpt lat="45.87246" lon="6.21863">
        <ele>684</ele>
        <time>2010-04-23T20:15:01Z</time>
      </trkpt>
      <trkpt lat="45.87243" lon="6.21857">
        <ele>683</ele>
        <time>2010-04-23T20:15:03Z</time>
      </trkpt>
      <trkpt lat="45.8724" lon="6.21849">
        <ele>682</ele>
        <time>2010-04-23T20:15:05Z</time>
      </trkpt>
      <trkpt lat="45.87237" lon="6.21841">
        <ele>680</ele>
        <time>2010-04-23T20:15:07Z</time>
      </trkpt>
      <trkpt lat="45.87234" lon="6.21834">
        <ele>680</ele>
        <time>2010-04-23T20:15:09Z</time>
      </trkpt>
      <trkpt lat="45.8723" lon="6.21828">
        <ele>680</ele>
        <time>2010-04-23T20:15:11Z</time>
      </trkpt>
      <trkpt lat="45.87226" lon="6.21823">
        <ele>680</ele>
        <time>2010-04-23T20:15:13Z</time>
      </trkpt>
      <trkpt lat="45.8722" lon="6.21821">
        <ele>679</ele>
        <time>2010-04-23T20:15:15Z</time>
      </trkpt>
      <trkpt lat="45.87214" lon="6.2182">
        <ele>679</ele>
        <time>2010-04-23T20:15:17Z</time>
      </trkpt>
      <trkpt lat="45.87207" lon="6.21818">
        <ele>679</ele>
        <time>2010-04-23T20:15:19Z</time>
      </trkpt>
      <trkpt lat="45.87201" lon="6.21818">
        <ele>679</ele>
        <time>2010-04-23T20:15:21Z</time>
      </trkpt>
      <trkpt lat="45.87194" lon="6.21817">
        <ele>679</ele>
        <time>2010-04-23T20:15:23Z</time>
      </trkpt>
      <trkpt lat="45.87187" lon="6.21818">
        <ele>678</ele>
        <time>2010-04-23T20:15:25Z</time>
      </trkpt>
      <trkpt lat="45.8718" lon="6.21817">
        <ele>678</ele>
        <time>2010-04-23T20:15:27Z</time>
      </trkpt>
      <trkpt lat="45.87173" lon="6.21816">
        <ele>677</ele>
        <time>2010-04-23T20:15:29Z</time>
      </trkpt>
      <trkpt lat="45.87167" lon="6.21818">
        <ele>677</ele>
        <time>2010-04-23T20:15:31Z</time>
      </trkpt>
      <trkpt lat="45.8716" lon="6.21819">
        <ele>677</ele>
        <time>2010-04-23T20:15:33Z</time>
      </trkpt>
      <trkpt lat="45.87154" lon="6.21821">
        <ele>676</ele>
        <time>2010-04-23T20:15:35Z</time>
      </trkpt>
      <trkpt lat="45.87149" lon="6.21822">
        <ele>676</ele>
        <time>2010-04-23T20:15:37Z</time>
      </trkpt>
      <trkpt lat="45.87143" lon="6.21824">
        <ele>676</ele>
        <time>2010-04-23T20:15:39Z</time>
      </trkpt>
      <trkpt lat="45.87136" lon="6.21826">
        <ele>676</ele>
        <time>2010-04-23T20:15:41Z</time>
      </trkpt>
      <trkpt lat="45.87128" lon="6.21828">
        <ele>676</ele>
        <time>2010-04-23T20:15:43Z</time>
      </trkpt>
      <trkpt lat="45.87121" lon="6.21831">
        <ele>676</ele>
        <time>2010-04-23T20:15:45Z</time>
      </trkpt>
      <trkpt lat="45.87114" lon="6.21832">
        <ele>675</ele>
        <time>2010-04-23T20:15:47Z</time>
      </trkpt>
      <trkpt lat="45.87108" lon="6.21834">
        <ele>674</ele>
        <time>2010-04-23T20:15:49Z</time>
      </trkpt>
      <trkpt lat="45.87102" lon="6.21835">
        <ele>674</ele>
        <time>2010-04-23T20:15:51Z</time>
      </trkpt>
      <trkpt lat="45.87096" lon="6.21835">
        <ele>674</ele>
        <time>2010-04-23T20:15:53Z</time>
      </trkpt>
      <trkpt lat="45.87087" lon="6.21834">
        <ele>674</ele>
        <time>2010-04-23T20:15:56Z</time>
      </trkpt>
      <trkpt lat="45.8708" lon="6.21832">
        <ele>674</ele>
        <time>2010-04-23T20:15:58Z</time>
      </trkpt>
      <trkpt lat="45.87075" lon="6.21828">
        <ele>674</ele>
        <time>2010-04-23T20:16:00Z</time>
      </trkpt>
      <trkpt lat="45.87071" lon="6.21822">
        <ele>673</ele>
        <time>2010-04-23T20:16:02Z</time>
      </trkpt>
      <trkpt lat="45.87067" lon="6.21817">
        <ele>673</ele>
        <time>2010-04-23T20:16:04Z</time>
      </trkpt>
      <trkpt lat="45.87063" lon="6.21814">
        <ele>672</ele>
        <time>2010-04-23T20:16:06Z</time>
      </trkpt>
      <trkpt lat="45.87058" lon="6.21809">
        <ele>671</ele>
        <time>2010-04-23T20:16:08Z</time>
      </trkpt>
      <trkpt lat="45.87053" lon="6.21807">
        <ele>671</ele>
        <time>2010-04-23T20:16:10Z</time>
      </trkpt>
      <trkpt lat="45.87049" lon="6.21806">
        <ele>670</ele>
        <time>2010-04-23T20:16:12Z</time>
      </trkpt>
      <trkpt lat="45.87045" lon="6.21805">
        <ele>670</ele>
        <time>2010-04-23T20:16:14Z</time>
      </trkpt>
      <trkpt lat="45.87041" lon="6.21804">
        <ele>670</ele>
        <time>2010-04-23T20:16:16Z</time>
      </trkpt>
      <trkpt lat="45.87037" lon="6.21804">
        <ele>670</ele>
        <time>2010-04-23T20:16:18Z</time>
      </trkpt>
      <trkpt lat="45.8703" lon="6.21804">
        <ele>670</ele>
        <time>2010-04-23T20:16:21Z</time>
      </trkpt>
      <trkpt lat="45.87025" lon="6.21804">
        <ele>670</ele>
        <time>2010-04-23T20:16:23Z</time>
      </trkpt>
      <trkpt lat="45.8702" lon="6.21805">
        <ele>670</ele>
        <time>2010-04-23T20:16:25Z</time>
      </trkpt>
      <trkpt lat="45.87016" lon="6.21806">
        <ele>670</ele>
        <time>2010-04-23T20:16:27Z</time>
      </trkpt>
      <trkpt lat="45.87011" lon="6.21809">
        <ele>670</ele>
        <time>2010-04-23T20:16:29Z</time>
      </trkpt>
      <trkpt lat="45.87006" lon="6.21811">
        <ele>670</ele>
        <time>2010-04-23T20:16:31Z</time>
      </trkpt>
      <trkpt lat="45.87001" lon="6.21812">
        <ele>670</ele>
        <time>2010-04-23T20:16:33Z</time>
      </trkpt>
      <trkpt lat="45.86996" lon="6.21814">
        <ele>670</ele>
        <time>2010-04-23T20:16:35Z</time>
      </trkpt>
      <trkpt lat="45.86991" lon="6.21816">
        <ele>670</ele>
        <time>2010-04-23T20:16:37Z</time>
      </trkpt>
      <trkpt lat="45.86987" lon="6.21818">
        <ele>670</ele>
        <time>2010-04-23T20:16:39Z</time>
      </trkpt>
      <trkpt lat="45.86982" lon="6.21818">
        <ele>670</ele>
        <time>2010-04-23T20:16:41Z</time>
      </trkpt>
      <trkpt lat="45.86976" lon="6.21818">
        <ele>670</ele>
        <time>2010-04-23T20:16:43Z</time>
      </trkpt>
      <trkpt lat="45.86969" lon="6.21817">
        <ele>670</ele>
        <time>2010-04-23T20:16:45Z</time>
      </trkpt>
      <trkpt lat="45.86964" lon="6.21819">
        <ele>670</ele>
        <time>2010-04-23T20:16:47Z</time>
      </trkpt>
      <trkpt lat="45.86959" lon="6.21819">
        <ele>670</ele>
        <time>2010-04-23T20:16:49Z</time>
      </trkpt>
      <trkpt lat="45.86954" lon="6.2182">
        <ele>670</ele>
        <time>2010-04-23T20:16:51Z</time>
      </trkpt>
      <trkpt lat="45.86948" lon="6.21821">
        <ele>670</ele>
        <time>2010-04-23T20:16:53Z</time>
      </trkpt>
      <trkpt lat="45.86943" lon="6.21821">
        <ele>670</ele>
        <time>2010-04-23T20:16:55Z</time>
      </trkpt>
      <trkpt lat="45.86939" lon="6.21822">
        <ele>670</ele>
        <time>2010-04-23T20:16:57Z</time>
      </trkpt>
      <trkpt lat="45.86934" lon="6.21823">
        <ele>670</ele>
        <time>2010-04-23T20:16:59Z</time>
      </trkpt>
      <trkpt lat="45.86929" lon="6.21824">
        <ele>670</ele>
        <time>2010-04-23T20:17:01Z</time>
      </trkpt>
      <trkpt lat="45.86924" lon="6.21825">
        <ele>670</ele>
        <time>2010-04-23T20:17:03Z</time>
      </trkpt>
      <trkpt lat="45.86919" lon="6.21827">
        <ele>670</ele>
        <time>2010-04-23T20:17:05Z</time>
      </trkpt>
      <trkpt lat="45.86914" lon="6.21828">
        <ele>670</ele>
        <time>2010-04-23T20:17:07Z</time>
      </trkpt>
      <trkpt lat="45.86908" lon="6.21829">
        <ele>670</ele>
        <time>2010-04-23T20:17:09Z</time>
      </trkpt>
      <trkpt lat="45.86903" lon="6.2183">
        <ele>670</ele>
        <time>2010-04-23T20:17:11Z</time>
      </trkpt>
      <trkpt lat="45.86898" lon="6.21832">
        <ele>670</ele>
        <time>2010-04-23T20:17:13Z</time>
      </trkpt>
      <trkpt lat="45.86893" lon="6.21833">
        <ele>670</ele>
        <time>2010-04-23T20:17:15Z</time>
      </trkpt>
      <trkpt lat="45.86888" lon="6.21835">
        <ele>670</ele>
        <time>2010-04-23T20:17:17Z</time>
      </trkpt>
      <trkpt lat="45.86883" lon="6.21836">
        <ele>670</ele>
        <time>2010-04-23T20:17:19Z</time>
      </trkpt>
      <trkpt lat="45.86878" lon="6.21838">
        <ele>670</ele>
        <time>2010-04-23T20:17:21Z</time>
      </trkpt>
      <trkpt lat="45.86873" lon="6.2184">
        <ele>670</ele>
        <time>2010-04-23T20:17:23Z</time>
      </trkpt>
      <trkpt lat="45.86869" lon="6.21841">
        <ele>670</ele>
        <time>2010-04-23T20:17:25Z</time>
      </trkpt>
      <trkpt lat="45.86864" lon="6.21842">
        <ele>670</ele>
        <time>2010-04-23T20:17:27Z</time>
      </trkpt>
      <trkpt lat="45.86859" lon="6.21844">
        <ele>670</ele>
        <time>2010-04-23T20:17:29Z</time>
      </trkpt>
      <trkpt lat="45.86855" lon="6.21847">
        <ele>670</ele>
        <time>2010-04-23T20:17:31Z</time>
      </trkpt>
      <trkpt lat="45.8685" lon="6.21849">
        <ele>670</ele>
        <time>2010-04-23T20:17:33Z</time>
      </trkpt>
      <trkpt lat="45.86845" lon="6.21849">
        <ele>671</ele>
        <time>2010-04-23T20:17:35Z</time>
      </trkpt>
      <trkpt lat="45.8684" lon="6.21851">
        <ele>671</ele>
        <time>2010-04-23T20:17:37Z</time>
      </trkpt>
      <trkpt lat="45.86835" lon="6.21852">
        <ele>672</ele>
        <time>2010-04-23T20:17:39Z</time>
      </trkpt>
      <trkpt lat="45.8683" lon="6.21852">
        <ele>672</ele>
        <time>2010-04-23T20:17:41Z</time>
      </trkpt>
      <trkpt lat="45.86826" lon="6.21853">
        <ele>672</ele>
        <time>2010-04-23T20:17:43Z</time>
      </trkpt>
      <trkpt lat="45.86822" lon="6.21854">
        <ele>673</ele>
        <time>2010-04-23T20:17:45Z</time>
      </trkpt>
      <trkpt lat="45.86817" lon="6.21855">
        <ele>673</ele>
        <time>2010-04-23T20:17:47Z</time>
      </trkpt>
      <trkpt lat="45.86812" lon="6.21856">
        <ele>674</ele>
        <time>2010-04-23T20:17:49Z</time>
      </trkpt>
      <trkpt lat="45.86804" lon="6.21856">
        <ele>674</ele>
        <time>2010-04-23T20:17:52Z</time>
      </trkpt>
      <trkpt lat="45.868" lon="6.21857">
        <ele>674</ele>
        <time>2010-04-23T20:17:54Z</time>
      </trkpt>
      <trkpt lat="45.86797" lon="6.21859">
        <ele>674</ele>
        <time>2010-04-23T20:17:56Z</time>
      </trkpt>
      <trkpt lat="45.86795" lon="6.2186">
        <ele>674</ele>
        <time>2010-04-23T20:17:58Z</time>
      </trkpt>
      <trkpt lat="45.86794" lon="6.21861">
        <ele>674</ele>
        <time>2010-04-23T20:18:00Z</time>
      </trkpt>
      <trkpt lat="45.86792" lon="6.21864">
        <ele>674</ele>
        <time>2010-04-23T20:18:02Z</time>
      </trkpt>
      <trkpt lat="45.86792" lon="6.21865">
        <ele>674</ele>
        <time>2010-04-23T20:18:04Z</time>
      </trkpt>
      <trkpt lat="45.8679" lon="6.21867">
        <ele>674</ele>
        <time>2010-04-23T20:18:06Z</time>
      </trkpt>
      <trkpt lat="45.86789" lon="6.21868">
        <ele>674</ele>
        <time>2010-04-23T20:18:11Z</time>
      </trkpt>
      <trkpt lat="45.86787" lon="6.21868">
        <ele>674</ele>
        <time>2010-04-23T20:18:13Z</time>
      </trkpt>
      <trkpt lat="45.86784" lon="6.21868">
        <ele>674</ele>
        <time>2010-04-23T20:18:15Z</time>
      </trkpt>
      <trkpt lat="45.86782" lon="6.21867">
        <ele>674</ele>
        <time>2010-04-23T20:18:17Z</time>
      </trkpt>
      <trkpt lat="45.8678" lon="6.21867">
        <ele>674</ele>
        <time>2010-04-23T20:18:19Z</time>
      </trkpt>
      <trkpt lat="45.86778" lon="6.21864">
        <ele>674</ele>
        <time>2010-04-23T20:18:21Z</time>
      </trkpt>
      <trkpt lat="45.86776" lon="6.21863">
        <ele>674</ele>
        <time>2010-04-23T20:18:23Z</time>
      </trkpt>
      <trkpt lat="45.86774" lon="6.21864">
        <ele>674</ele>
        <time>2010-04-23T20:18:25Z</time>
      </trkpt>
      <trkpt lat="45.86771" lon="6.21864">
        <ele>674</ele>
        <time>2010-04-23T20:18:27Z</time>
      </trkpt>
      <trkpt lat="45.86768" lon="6.21864">
        <ele>674</ele>
        <time>2010-04-23T20:18:29Z</time>
      </trkpt>
      <trkpt lat="45.86763" lon="6.21864">
        <ele>674</ele>
        <time>2010-04-23T20:18:31Z</time>
      </trkpt>
      <trkpt lat="45.86758" lon="6.21864">
        <ele>674</ele>
        <time>2010-04-23T20:18:33Z</time>
      </trkpt>
      <trkpt lat="45.86748" lon="6.21864">
        <ele>675</ele>
        <time>2010-04-23T20:18:36Z</time>
      </trkpt>
      <trkpt lat="45.86742" lon="6.21864">
        <ele>675</ele>
        <time>2010-04-23T20:18:38Z</time>
      </trkpt>
      <trkpt lat="45.86736" lon="6.21863">
        <ele>675</ele>
        <time>2010-04-23T20:18:40Z</time>
      </trkpt>
      <trkpt lat="45.86729" lon="6.21863">
        <ele>676</ele>
        <time>2010-04-23T20:18:42Z</time>
      </trkpt>
      <trkpt lat="45.86724" lon="6.21862">
        <ele>676</ele>
        <time>2010-04-23T20:18:44Z</time>
      </trkpt>
      <trkpt lat="45.86718" lon="6.21862">
        <ele>676</ele>
        <time>2010-04-23T20:18:46Z</time>
      </trkpt>
      <trkpt lat="45.86712" lon="6.21863">
        <ele>676</ele>
        <time>2010-04-23T20:18:48Z</time>
      </trkpt>
      <trkpt lat="45.86706" lon="6.21862">
        <ele>676</ele>
        <time>2010-04-23T20:18:50Z</time>
      </trkpt>
      <trkpt lat="45.867" lon="6.2186">
        <ele>676</ele>
        <time>2010-04-23T20:18:52Z</time>
      </trkpt>
      <trkpt lat="45.86694" lon="6.21859">
        <ele>676</ele>
        <time>2010-04-23T20:18:54Z</time>
      </trkpt>
      <trkpt lat="45.86689" lon="6.21856">
        <ele>676</ele>
        <time>2010-04-23T20:18:56Z</time>
      </trkpt>
      <trkpt lat="45.86683" lon="6.21855">
        <ele>676</ele>
        <time>2010-04-23T20:18:58Z</time>
      </trkpt>
      <trkpt lat="45.86678" lon="6.21854">
        <ele>676</ele>
        <time>2010-04-23T20:19:00Z</time>
      </trkpt>
      <trkpt lat="45.86672" lon="6.21853">
        <ele>676</ele>
        <time>2010-04-23T20:19:02Z</time>
      </trkpt>
      <trkpt lat="45.86663" lon="6.21852">
        <ele>676</ele>
        <time>2010-04-23T20:19:05Z</time>
      </trkpt>
      <trkpt lat="45.86658" lon="6.21852">
        <ele>676</ele>
        <time>2010-04-23T20:19:07Z</time>
      </trkpt>
      <trkpt lat="45.86652" lon="6.21851">
        <ele>676</ele>
        <time>2010-04-23T20:19:09Z</time>
      </trkpt>
      <trkpt lat="45.86646" lon="6.2185">
        <ele>676</ele>
        <time>2010-04-23T20:19:11Z</time>
      </trkpt>
      <trkpt lat="45.86641" lon="6.21849">
        <ele>676</ele>
        <time>2010-04-23T20:19:13Z</time>
      </trkpt>
      <trkpt lat="45.86635" lon="6.21847">
        <ele>676</ele>
        <time>2010-04-23T20:19:15Z</time>
      </trkpt>
      <trkpt lat="45.86631" lon="6.21846">
        <ele>676</ele>
        <time>2010-04-23T20:19:17Z</time>
      </trkpt>
      <trkpt lat="45.86625" lon="6.21845">
        <ele>676</ele>
        <time>2010-04-23T20:19:19Z</time>
      </trkpt>
      <trkpt lat="45.86617" lon="6.21844">
        <ele>677</ele>
        <time>2010-04-23T20:19:22Z</time>
      </trkpt>
      <trkpt lat="45.86612" lon="6.21843">
        <ele>678</ele>
        <time>2010-04-23T20:19:24Z</time>
      </trkpt>
      <trkpt lat="45.86606" lon="6.21843">
        <ele>678</ele>
        <time>2010-04-23T20:19:26Z</time>
      </trkpt>
      <trkpt lat="45.86601" lon="6.21842">
        <ele>679</ele>
        <time>2010-04-23T20:19:28Z</time>
      </trkpt>
      <trkpt lat="45.86596" lon="6.21843">
        <ele>679</ele>
        <time>2010-04-23T20:19:30Z</time>
      </trkpt>
      <trkpt lat="45.86591" lon="6.21846">
        <ele>679</ele>
        <time>2010-04-23T20:19:32Z</time>
      </trkpt>
      <trkpt lat="45.86587" lon="6.21848">
        <ele>679</ele>
        <time>2010-04-23T20:19:34Z</time>
      </trkpt>
      <trkpt lat="45.86582" lon="6.21851">
        <ele>680</ele>
        <time>2010-04-23T20:19:36Z</time>
      </trkpt>
      <trkpt lat="45.86577" lon="6.21855">
        <ele>680</ele>
        <time>2010-04-23T20:19:38Z</time>
      </trkpt>
      <trkpt lat="45.86574" lon="6.2186">
        <ele>680</ele>
        <time>2010-04-23T20:19:40Z</time>
      </trkpt>
      <trkpt lat="45.8657" lon="6.21864">
        <ele>680</ele>
        <time>2010-04-23T20:19:42Z</time>
      </trkpt>
      <trkpt lat="45.86566" lon="6.21866">
        <ele>680</ele>
        <time>2010-04-23T20:19:45Z</time>
      </trkpt>
      <trkpt lat="45.86565" lon="6.21866">
        <ele>680</ele>
        <time>2010-04-23T20:19:47Z</time>
      </trkpt>
      <trkpt lat="45.86565" lon="6.21866">
        <ele>680</ele>
        <time>2010-04-23T20:19:47Z</time>
      </trkpt>
    </trkseg>
  </trk>
</gpx>